<?xml version="1.0" encoding="UTF-8" standalone="no" ?>
<gpx xmlns="http://www.topografix.com/GPX/1/1" xmlns:xsi="http://www.w3.org/2001/XMLSchema-instance" xsi:schemaLocation="http://www.topografix.com/GPX/1/1 http://www.topografix.com/GPX/1/1/gpx.xsd" version="1.1" creator="VisuGPX - https://www.visugpx.com">
  <metadata>
    <name>PIERRE CHAUVE</name>
    <desc><![CDATA[BARBIERE]]></desc>
  </metadata>
  <trk>
    <name><![CDATA[Barbiere A Pierre Chauve]]></name>
    <trkseg>
      <trkpt lat="44.95124" lon="5.14557">
        <ele>434</ele>
        <time>2021-02-25T08:11:01Z</time>
      </trkpt>
      <trkpt lat="44.95126" lon="5.1456">
        <ele>434</ele>
        <time>2021-02-25T08:12:38Z</time>
      </trkpt>
      <trkpt lat="44.95126" lon="5.1456">
        <ele>434</ele>
        <time>2021-02-25T08:12:42Z</time>
      </trkpt>
      <trkpt lat="44.95123" lon="5.14558">
        <ele>434</ele>
        <time>2021-02-25T08:13:03Z</time>
      </trkpt>
      <trkpt lat="44.9512" lon="5.14553">
        <ele>434</ele>
        <time>2021-02-25T08:13:08Z</time>
      </trkpt>
      <trkpt lat="44.95119" lon="5.14551">
        <ele>434</ele>
        <time>2021-02-25T08:13:12Z</time>
      </trkpt>
      <trkpt lat="44.95115" lon="5.14544">
        <ele>434</ele>
        <time>2021-02-25T08:13:17Z</time>
      </trkpt>
      <trkpt lat="44.95111" lon="5.14536">
        <ele>433</ele>
        <time>2021-02-25T08:13:22Z</time>
      </trkpt>
      <trkpt lat="44.95107" lon="5.14532">
        <ele>433</ele>
        <time>2021-02-25T08:13:27Z</time>
      </trkpt>
      <trkpt lat="44.95105" lon="5.14528">
        <ele>433</ele>
        <time>2021-02-25T08:13:32Z</time>
      </trkpt>
      <trkpt lat="44.951" lon="5.14522">
        <ele>433</ele>
        <time>2021-02-25T08:13:37Z</time>
      </trkpt>
      <trkpt lat="44.95096" lon="5.14518">
        <ele>435</ele>
        <time>2021-02-25T08:13:42Z</time>
      </trkpt>
      <trkpt lat="44.95092" lon="5.14511">
        <ele>437</ele>
        <time>2021-02-25T08:13:47Z</time>
      </trkpt>
      <trkpt lat="44.95087" lon="5.14506">
        <ele>437</ele>
        <time>2021-02-25T08:13:52Z</time>
      </trkpt>
      <trkpt lat="44.95083" lon="5.14502">
        <ele>437</ele>
        <time>2021-02-25T08:13:57Z</time>
      </trkpt>
      <trkpt lat="44.95078" lon="5.14496">
        <ele>437</ele>
        <time>2021-02-25T08:14:02Z</time>
      </trkpt>
      <trkpt lat="44.95074" lon="5.14492">
        <ele>437</ele>
        <time>2021-02-25T08:14:06Z</time>
      </trkpt>
      <trkpt lat="44.9507" lon="5.14489">
        <ele>437</ele>
        <time>2021-02-25T08:14:11Z</time>
      </trkpt>
      <trkpt lat="44.95065" lon="5.14486">
        <ele>440</ele>
        <time>2021-02-25T08:14:15Z</time>
      </trkpt>
      <trkpt lat="44.9506" lon="5.14484">
        <ele>445</ele>
        <time>2021-02-25T08:14:19Z</time>
      </trkpt>
      <trkpt lat="44.95059" lon="5.14484">
        <ele>445</ele>
        <time>2021-02-25T08:14:23Z</time>
      </trkpt>
      <trkpt lat="44.95054" lon="5.14481">
        <ele>445</ele>
        <time>2021-02-25T08:14:28Z</time>
      </trkpt>
      <trkpt lat="44.95049" lon="5.14477">
        <ele>445</ele>
        <time>2021-02-25T08:14:33Z</time>
      </trkpt>
      <trkpt lat="44.95043" lon="5.14475">
        <ele>445</ele>
        <time>2021-02-25T08:14:38Z</time>
      </trkpt>
      <trkpt lat="44.95039" lon="5.14474">
        <ele>448</ele>
        <time>2021-02-25T08:14:42Z</time>
      </trkpt>
      <trkpt lat="44.95035" lon="5.14472">
        <ele>448</ele>
        <time>2021-02-25T08:14:47Z</time>
      </trkpt>
      <trkpt lat="44.95031" lon="5.14472">
        <ele>448</ele>
        <time>2021-02-25T08:14:52Z</time>
      </trkpt>
      <trkpt lat="44.95025" lon="5.14473">
        <ele>448</ele>
        <time>2021-02-25T08:14:56Z</time>
      </trkpt>
      <trkpt lat="44.95019" lon="5.14473">
        <ele>448</ele>
        <time>2021-02-25T08:15:01Z</time>
      </trkpt>
      <trkpt lat="44.95013" lon="5.14474">
        <ele>452</ele>
        <time>2021-02-25T08:15:06Z</time>
      </trkpt>
      <trkpt lat="44.95009" lon="5.14476">
        <ele>452</ele>
        <time>2021-02-25T08:15:11Z</time>
      </trkpt>
      <trkpt lat="44.95005" lon="5.14476">
        <ele>452</ele>
        <time>2021-02-25T08:15:16Z</time>
      </trkpt>
      <trkpt lat="44.95002" lon="5.14477">
        <ele>452</ele>
        <time>2021-02-25T08:15:20Z</time>
      </trkpt>
      <trkpt lat="44.94996" lon="5.14481">
        <ele>452</ele>
        <time>2021-02-25T08:15:25Z</time>
      </trkpt>
      <trkpt lat="44.94992" lon="5.14482">
        <ele>452</ele>
        <time>2021-02-25T08:15:30Z</time>
      </trkpt>
      <trkpt lat="44.94986" lon="5.14485">
        <ele>455</ele>
        <time>2021-02-25T08:15:34Z</time>
      </trkpt>
      <trkpt lat="44.94981" lon="5.14487">
        <ele>451</ele>
        <time>2021-02-25T08:15:38Z</time>
      </trkpt>
      <trkpt lat="44.94976" lon="5.1449">
        <ele>451</ele>
        <time>2021-02-25T08:15:43Z</time>
      </trkpt>
      <trkpt lat="44.9497" lon="5.14492">
        <ele>451</ele>
        <time>2021-02-25T08:15:48Z</time>
      </trkpt>
      <trkpt lat="44.94965" lon="5.14497">
        <ele>451</ele>
        <time>2021-02-25T08:15:53Z</time>
      </trkpt>
      <trkpt lat="44.94961" lon="5.145">
        <ele>451</ele>
        <time>2021-02-25T08:15:57Z</time>
      </trkpt>
      <trkpt lat="44.94956" lon="5.14504">
        <ele>453</ele>
        <time>2021-02-25T08:16:02Z</time>
      </trkpt>
      <trkpt lat="44.94951" lon="5.14505">
        <ele>453</ele>
        <time>2021-02-25T08:16:07Z</time>
      </trkpt>
      <trkpt lat="44.94948" lon="5.14506">
        <ele>453</ele>
        <time>2021-02-25T08:16:11Z</time>
      </trkpt>
      <trkpt lat="44.94942" lon="5.14512">
        <ele>453</ele>
        <time>2021-02-25T08:16:16Z</time>
      </trkpt>
      <trkpt lat="44.94937" lon="5.14514">
        <ele>453</ele>
        <time>2021-02-25T08:16:21Z</time>
      </trkpt>
      <trkpt lat="44.94932" lon="5.14516">
        <ele>450</ele>
        <time>2021-02-25T08:16:25Z</time>
      </trkpt>
      <trkpt lat="44.94927" lon="5.14519">
        <ele>453</ele>
        <time>2021-02-25T08:16:30Z</time>
      </trkpt>
      <trkpt lat="44.94922" lon="5.14521">
        <ele>453</ele>
        <time>2021-02-25T08:16:35Z</time>
      </trkpt>
      <trkpt lat="44.94917" lon="5.14523">
        <ele>453</ele>
        <time>2021-02-25T08:16:40Z</time>
      </trkpt>
      <trkpt lat="44.94911" lon="5.14526">
        <ele>453</ele>
        <time>2021-02-25T08:16:45Z</time>
      </trkpt>
      <trkpt lat="44.94906" lon="5.14529">
        <ele>453</ele>
        <time>2021-02-25T08:16:50Z</time>
      </trkpt>
      <trkpt lat="44.94901" lon="5.14531">
        <ele>457</ele>
        <time>2021-02-25T08:16:55Z</time>
      </trkpt>
      <trkpt lat="44.94896" lon="5.14534">
        <ele>457</ele>
        <time>2021-02-25T08:17:00Z</time>
      </trkpt>
      <trkpt lat="44.94892" lon="5.14536">
        <ele>457</ele>
        <time>2021-02-25T08:17:04Z</time>
      </trkpt>
      <trkpt lat="44.94888" lon="5.14539">
        <ele>457</ele>
        <time>2021-02-25T08:17:09Z</time>
      </trkpt>
      <trkpt lat="44.94884" lon="5.14542">
        <ele>457</ele>
        <time>2021-02-25T08:17:13Z</time>
      </trkpt>
      <trkpt lat="44.9488" lon="5.14546">
        <ele>455</ele>
        <time>2021-02-25T08:17:18Z</time>
      </trkpt>
      <trkpt lat="44.94875" lon="5.14551">
        <ele>458</ele>
        <time>2021-02-25T08:17:23Z</time>
      </trkpt>
      <trkpt lat="44.9487" lon="5.14555">
        <ele>458</ele>
        <time>2021-02-25T08:17:28Z</time>
      </trkpt>
      <trkpt lat="44.94865" lon="5.1456">
        <ele>458</ele>
        <time>2021-02-25T08:17:33Z</time>
      </trkpt>
      <trkpt lat="44.9486" lon="5.14565">
        <ele>458</ele>
        <time>2021-02-25T08:17:38Z</time>
      </trkpt>
      <trkpt lat="44.94855" lon="5.14568">
        <ele>458</ele>
        <time>2021-02-25T08:17:43Z</time>
      </trkpt>
      <trkpt lat="44.9485" lon="5.14571">
        <ele>455</ele>
        <time>2021-02-25T08:17:47Z</time>
      </trkpt>
      <trkpt lat="44.94846" lon="5.14574">
        <ele>456</ele>
        <time>2021-02-25T08:17:52Z</time>
      </trkpt>
      <trkpt lat="44.94841" lon="5.14575">
        <ele>456</ele>
        <time>2021-02-25T08:17:57Z</time>
      </trkpt>
      <trkpt lat="44.9484" lon="5.14575">
        <ele>456</ele>
        <time>2021-02-25T08:18:02Z</time>
      </trkpt>
      <trkpt lat="44.9484" lon="5.14575">
        <ele>456</ele>
        <time>2021-02-25T08:18:07Z</time>
      </trkpt>
      <trkpt lat="44.94839" lon="5.1457">
        <ele>456</ele>
        <time>2021-02-25T08:18:12Z</time>
      </trkpt>
      <trkpt lat="44.94837" lon="5.14568">
        <ele>461</ele>
        <time>2021-02-25T08:18:17Z</time>
      </trkpt>
      <trkpt lat="44.94833" lon="5.14564">
        <ele>461</ele>
        <time>2021-02-25T08:18:22Z</time>
      </trkpt>
      <trkpt lat="44.9483" lon="5.14562">
        <ele>461</ele>
        <time>2021-02-25T08:18:26Z</time>
      </trkpt>
      <trkpt lat="44.94826" lon="5.14558">
        <ele>461</ele>
        <time>2021-02-25T08:18:31Z</time>
      </trkpt>
      <trkpt lat="44.94822" lon="5.14556">
        <ele>461</ele>
        <time>2021-02-25T08:18:35Z</time>
      </trkpt>
      <trkpt lat="44.94817" lon="5.14551">
        <ele>463</ele>
        <time>2021-02-25T08:18:40Z</time>
      </trkpt>
      <trkpt lat="44.94813" lon="5.14546">
        <ele>463</ele>
        <time>2021-02-25T08:18:45Z</time>
      </trkpt>
      <trkpt lat="44.94809" lon="5.14545">
        <ele>463</ele>
        <time>2021-02-25T08:18:49Z</time>
      </trkpt>
      <trkpt lat="44.94807" lon="5.14544">
        <ele>463</ele>
        <time>2021-02-25T08:18:53Z</time>
      </trkpt>
      <trkpt lat="44.94804" lon="5.14546">
        <ele>463</ele>
        <time>2021-02-25T08:18:58Z</time>
      </trkpt>
      <trkpt lat="44.94803" lon="5.14546">
        <ele>463</ele>
        <time>2021-02-25T08:19:03Z</time>
      </trkpt>
      <trkpt lat="44.94798" lon="5.14546">
        <ele>463</ele>
        <time>2021-02-25T08:19:08Z</time>
      </trkpt>
      <trkpt lat="44.94795" lon="5.14545">
        <ele>463</ele>
        <time>2021-02-25T08:19:13Z</time>
      </trkpt>
      <trkpt lat="44.94793" lon="5.14542">
        <ele>463</ele>
        <time>2021-02-25T08:19:18Z</time>
      </trkpt>
      <trkpt lat="44.9479" lon="5.14542">
        <ele>466</ele>
        <time>2021-02-25T08:19:23Z</time>
      </trkpt>
      <trkpt lat="44.94788" lon="5.14541">
        <ele>471</ele>
        <time>2021-02-25T08:19:28Z</time>
      </trkpt>
      <trkpt lat="44.94784" lon="5.1454">
        <ele>471</ele>
        <time>2021-02-25T08:19:33Z</time>
      </trkpt>
      <trkpt lat="44.94782" lon="5.14541">
        <ele>471</ele>
        <time>2021-02-25T08:19:38Z</time>
      </trkpt>
      <trkpt lat="44.94779" lon="5.14541">
        <ele>471</ele>
        <time>2021-02-25T08:19:43Z</time>
      </trkpt>
      <trkpt lat="44.94777" lon="5.14542">
        <ele>466</ele>
        <time>2021-02-25T08:19:48Z</time>
      </trkpt>
      <trkpt lat="44.94774" lon="5.1454">
        <ele>471</ele>
        <time>2021-02-25T08:19:53Z</time>
      </trkpt>
      <trkpt lat="44.9477" lon="5.14541">
        <ele>471</ele>
        <time>2021-02-25T08:19:58Z</time>
      </trkpt>
      <trkpt lat="44.94767" lon="5.1454">
        <ele>471</ele>
        <time>2021-02-25T08:20:03Z</time>
      </trkpt>
      <trkpt lat="44.94765" lon="5.14537">
        <ele>471</ele>
        <time>2021-02-25T08:20:08Z</time>
      </trkpt>
      <trkpt lat="44.94763" lon="5.14536">
        <ele>479</ele>
        <time>2021-02-25T08:20:14Z</time>
      </trkpt>
      <trkpt lat="44.9476" lon="5.14535">
        <ele>479</ele>
        <time>2021-02-25T08:20:19Z</time>
      </trkpt>
      <trkpt lat="44.94757" lon="5.14534">
        <ele>479</ele>
        <time>2021-02-25T08:20:24Z</time>
      </trkpt>
      <trkpt lat="44.94754" lon="5.14533">
        <ele>479</ele>
        <time>2021-02-25T08:20:29Z</time>
      </trkpt>
      <trkpt lat="44.94753" lon="5.1453">
        <ele>479</ele>
        <time>2021-02-25T08:20:34Z</time>
      </trkpt>
      <trkpt lat="44.94752" lon="5.14529">
        <ele>479</ele>
        <time>2021-02-25T08:20:39Z</time>
      </trkpt>
      <trkpt lat="44.94749" lon="5.14526">
        <ele>479</ele>
        <time>2021-02-25T08:20:44Z</time>
      </trkpt>
      <trkpt lat="44.94748" lon="5.14524">
        <ele>479</ele>
        <time>2021-02-25T08:20:49Z</time>
      </trkpt>
      <trkpt lat="44.94746" lon="5.14522">
        <ele>479</ele>
        <time>2021-02-25T08:20:54Z</time>
      </trkpt>
      <trkpt lat="44.94743" lon="5.14521">
        <ele>479</ele>
        <time>2021-02-25T08:20:59Z</time>
      </trkpt>
      <trkpt lat="44.94741" lon="5.1452">
        <ele>479</ele>
        <time>2021-02-25T08:21:04Z</time>
      </trkpt>
      <trkpt lat="44.94739" lon="5.14519">
        <ele>479</ele>
        <time>2021-02-25T08:21:08Z</time>
      </trkpt>
      <trkpt lat="44.94738" lon="5.14518">
        <ele>479</ele>
        <time>2021-02-25T08:21:12Z</time>
      </trkpt>
      <trkpt lat="44.94735" lon="5.14515">
        <ele>487</ele>
        <time>2021-02-25T08:21:17Z</time>
      </trkpt>
      <trkpt lat="44.94733" lon="5.1451">
        <ele>491</ele>
        <time>2021-02-25T08:21:27Z</time>
      </trkpt>
      <trkpt lat="44.94729" lon="5.1451">
        <ele>491</ele>
        <time>2021-02-25T08:21:31Z</time>
      </trkpt>
      <trkpt lat="44.94727" lon="5.14509">
        <ele>491</ele>
        <time>2021-02-25T08:21:35Z</time>
      </trkpt>
      <trkpt lat="44.94724" lon="5.14506">
        <ele>491</ele>
        <time>2021-02-25T08:21:40Z</time>
      </trkpt>
      <trkpt lat="44.94722" lon="5.14505">
        <ele>491</ele>
        <time>2021-02-25T08:21:44Z</time>
      </trkpt>
      <trkpt lat="44.9472" lon="5.14505">
        <ele>491</ele>
        <time>2021-02-25T08:21:48Z</time>
      </trkpt>
      <trkpt lat="44.94717" lon="5.14505">
        <ele>491</ele>
        <time>2021-02-25T08:21:53Z</time>
      </trkpt>
      <trkpt lat="44.94714" lon="5.14505">
        <ele>491</ele>
        <time>2021-02-25T08:21:58Z</time>
      </trkpt>
      <trkpt lat="44.94711" lon="5.14504">
        <ele>491</ele>
        <time>2021-02-25T08:22:04Z</time>
      </trkpt>
      <trkpt lat="44.94709" lon="5.14503">
        <ele>491</ele>
        <time>2021-02-25T08:22:09Z</time>
      </trkpt>
      <trkpt lat="44.94706" lon="5.14502">
        <ele>497</ele>
        <time>2021-02-25T08:22:14Z</time>
      </trkpt>
      <trkpt lat="44.94703" lon="5.145">
        <ele>497</ele>
        <time>2021-02-25T08:22:19Z</time>
      </trkpt>
      <trkpt lat="44.94701" lon="5.14498">
        <ele>497</ele>
        <time>2021-02-25T08:22:23Z</time>
      </trkpt>
      <trkpt lat="44.94698" lon="5.14496">
        <ele>497</ele>
        <time>2021-02-25T08:22:28Z</time>
      </trkpt>
      <trkpt lat="44.94697" lon="5.14495">
        <ele>497</ele>
        <time>2021-02-25T08:22:32Z</time>
      </trkpt>
      <trkpt lat="44.94693" lon="5.14496">
        <ele>497</ele>
        <time>2021-02-25T08:22:37Z</time>
      </trkpt>
      <trkpt lat="44.9469" lon="5.14494">
        <ele>497</ele>
        <time>2021-02-25T08:22:41Z</time>
      </trkpt>
      <trkpt lat="44.94686" lon="5.14491">
        <ele>497</ele>
        <time>2021-02-25T08:22:46Z</time>
      </trkpt>
      <trkpt lat="44.94683" lon="5.1449">
        <ele>497</ele>
        <time>2021-02-25T08:22:51Z</time>
      </trkpt>
      <trkpt lat="44.94682" lon="5.14489">
        <ele>497</ele>
        <time>2021-02-25T08:22:55Z</time>
      </trkpt>
      <trkpt lat="44.94678" lon="5.14487">
        <ele>503</ele>
        <time>2021-02-25T08:23:00Z</time>
      </trkpt>
      <trkpt lat="44.94675" lon="5.14485">
        <ele>507</ele>
        <time>2021-02-25T08:23:05Z</time>
      </trkpt>
      <trkpt lat="44.94673" lon="5.14483">
        <ele>507</ele>
        <time>2021-02-25T08:23:10Z</time>
      </trkpt>
      <trkpt lat="44.9467" lon="5.14482">
        <ele>507</ele>
        <time>2021-02-25T08:23:15Z</time>
      </trkpt>
      <trkpt lat="44.94668" lon="5.1448">
        <ele>507</ele>
        <time>2021-02-25T08:23:20Z</time>
      </trkpt>
      <trkpt lat="44.94665" lon="5.1448">
        <ele>507</ele>
        <time>2021-02-25T08:23:26Z</time>
      </trkpt>
      <trkpt lat="44.94662" lon="5.14477">
        <ele>507</ele>
        <time>2021-02-25T08:23:31Z</time>
      </trkpt>
      <trkpt lat="44.9466" lon="5.14475">
        <ele>507</ele>
        <time>2021-02-25T08:23:36Z</time>
      </trkpt>
      <trkpt lat="44.94658" lon="5.14474">
        <ele>507</ele>
        <time>2021-02-25T08:23:41Z</time>
      </trkpt>
      <trkpt lat="44.94656" lon="5.14472">
        <ele>507</ele>
        <time>2021-02-25T08:23:46Z</time>
      </trkpt>
      <trkpt lat="44.94655" lon="5.1447">
        <ele>507</ele>
        <time>2021-02-25T08:23:51Z</time>
      </trkpt>
      <trkpt lat="44.94652" lon="5.14469">
        <ele>516</ele>
        <time>2021-02-25T08:23:56Z</time>
      </trkpt>
      <trkpt lat="44.94649" lon="5.14466">
        <ele>516</ele>
        <time>2021-02-25T08:24:11Z</time>
      </trkpt>
      <trkpt lat="44.94646" lon="5.14465">
        <ele>516</ele>
        <time>2021-02-25T08:24:16Z</time>
      </trkpt>
      <trkpt lat="44.94644" lon="5.14462">
        <ele>516</ele>
        <time>2021-02-25T08:24:21Z</time>
      </trkpt>
      <trkpt lat="44.94642" lon="5.14459">
        <ele>516</ele>
        <time>2021-02-25T08:24:26Z</time>
      </trkpt>
      <trkpt lat="44.9464" lon="5.14457">
        <ele>522</ele>
        <time>2021-02-25T08:24:30Z</time>
      </trkpt>
      <trkpt lat="44.94638" lon="5.14455">
        <ele>522</ele>
        <time>2021-02-25T08:24:35Z</time>
      </trkpt>
      <trkpt lat="44.94636" lon="5.14454">
        <ele>522</ele>
        <time>2021-02-25T08:24:40Z</time>
      </trkpt>
      <trkpt lat="44.94634" lon="5.14454">
        <ele>522</ele>
        <time>2021-02-25T08:24:44Z</time>
      </trkpt>
      <trkpt lat="44.9463" lon="5.14453">
        <ele>522</ele>
        <time>2021-02-25T08:24:49Z</time>
      </trkpt>
      <trkpt lat="44.94628" lon="5.14452">
        <ele>522</ele>
        <time>2021-02-25T08:24:54Z</time>
      </trkpt>
      <trkpt lat="44.94625" lon="5.1445">
        <ele>522</ele>
        <time>2021-02-25T08:24:59Z</time>
      </trkpt>
      <trkpt lat="44.94624" lon="5.1445">
        <ele>529</ele>
        <time>2021-02-25T08:25:04Z</time>
      </trkpt>
      <trkpt lat="44.94621" lon="5.14448">
        <ele>529</ele>
        <time>2021-02-25T08:25:08Z</time>
      </trkpt>
      <trkpt lat="44.94618" lon="5.14447">
        <ele>529</ele>
        <time>2021-02-25T08:25:13Z</time>
      </trkpt>
      <trkpt lat="44.94617" lon="5.14446">
        <ele>529</ele>
        <time>2021-02-25T08:25:18Z</time>
      </trkpt>
      <trkpt lat="44.94614" lon="5.14443">
        <ele>529</ele>
        <time>2021-02-25T08:25:22Z</time>
      </trkpt>
      <trkpt lat="44.94612" lon="5.1444">
        <ele>529</ele>
        <time>2021-02-25T08:25:32Z</time>
      </trkpt>
      <trkpt lat="44.94611" lon="5.1444">
        <ele>529</ele>
        <time>2021-02-25T08:25:36Z</time>
      </trkpt>
      <trkpt lat="44.94609" lon="5.14438">
        <ele>529</ele>
        <time>2021-02-25T08:25:42Z</time>
      </trkpt>
      <trkpt lat="44.94605" lon="5.14437">
        <ele>529</ele>
        <time>2021-02-25T08:25:46Z</time>
      </trkpt>
      <trkpt lat="44.94603" lon="5.14437">
        <ele>529</ele>
        <time>2021-02-25T08:25:51Z</time>
      </trkpt>
      <trkpt lat="44.94599" lon="5.14433">
        <ele>529</ele>
        <time>2021-02-25T08:26:00Z</time>
      </trkpt>
      <trkpt lat="44.94599" lon="5.14432">
        <ele>529</ele>
        <time>2021-02-25T08:26:05Z</time>
      </trkpt>
      <trkpt lat="44.94596" lon="5.14432">
        <ele>532</ele>
        <time>2021-02-25T08:26:10Z</time>
      </trkpt>
      <trkpt lat="44.94595" lon="5.1443">
        <ele>540</ele>
        <time>2021-02-25T08:26:15Z</time>
      </trkpt>
      <trkpt lat="44.94593" lon="5.14428">
        <ele>540</ele>
        <time>2021-02-25T08:26:20Z</time>
      </trkpt>
      <trkpt lat="44.9459" lon="5.1442">
        <ele>540</ele>
        <time>2021-02-25T08:26:34Z</time>
      </trkpt>
      <trkpt lat="44.94588" lon="5.14418">
        <ele>540</ele>
        <time>2021-02-25T08:26:39Z</time>
      </trkpt>
      <trkpt lat="44.94588" lon="5.14416">
        <ele>540</ele>
        <time>2021-02-25T08:26:43Z</time>
      </trkpt>
      <trkpt lat="44.94587" lon="5.14415">
        <ele>540</ele>
        <time>2021-02-25T08:26:48Z</time>
      </trkpt>
      <trkpt lat="44.94585" lon="5.14412">
        <ele>540</ele>
        <time>2021-02-25T08:26:52Z</time>
      </trkpt>
      <trkpt lat="44.94583" lon="5.14409">
        <ele>540</ele>
        <time>2021-02-25T08:27:00Z</time>
      </trkpt>
      <trkpt lat="44.9458" lon="5.14406">
        <ele>540</ele>
        <time>2021-02-25T08:27:04Z</time>
      </trkpt>
      <trkpt lat="44.9458" lon="5.14404">
        <ele>540</ele>
        <time>2021-02-25T08:27:09Z</time>
      </trkpt>
      <trkpt lat="44.94577" lon="5.14401">
        <ele>542</ele>
        <time>2021-02-25T08:27:14Z</time>
      </trkpt>
      <trkpt lat="44.94576" lon="5.14399">
        <ele>542</ele>
        <time>2021-02-25T08:27:18Z</time>
      </trkpt>
      <trkpt lat="44.94573" lon="5.14397">
        <ele>542</ele>
        <time>2021-02-25T08:27:23Z</time>
      </trkpt>
      <trkpt lat="44.94571" lon="5.14396">
        <ele>542</ele>
        <time>2021-02-25T08:27:28Z</time>
      </trkpt>
      <trkpt lat="44.94568" lon="5.14394">
        <ele>549</ele>
        <time>2021-02-25T08:27:33Z</time>
      </trkpt>
      <trkpt lat="44.94566" lon="5.14393">
        <ele>549</ele>
        <time>2021-02-25T08:27:38Z</time>
      </trkpt>
      <trkpt lat="44.94561" lon="5.14394">
        <ele>549</ele>
        <time>2021-02-25T08:27:43Z</time>
      </trkpt>
      <trkpt lat="44.94557" lon="5.14393">
        <ele>549</ele>
        <time>2021-02-25T08:27:48Z</time>
      </trkpt>
      <trkpt lat="44.94554" lon="5.14392">
        <ele>549</ele>
        <time>2021-02-25T08:27:53Z</time>
      </trkpt>
      <trkpt lat="44.94552" lon="5.1439">
        <ele>549</ele>
        <time>2021-02-25T08:27:58Z</time>
      </trkpt>
      <trkpt lat="44.94548" lon="5.14387">
        <ele>549</ele>
        <time>2021-02-25T08:28:02Z</time>
      </trkpt>
      <trkpt lat="44.94544" lon="5.14384">
        <ele>549</ele>
        <time>2021-02-25T08:28:07Z</time>
      </trkpt>
      <trkpt lat="44.94541" lon="5.14382">
        <ele>555</ele>
        <time>2021-02-25T08:28:12Z</time>
      </trkpt>
      <trkpt lat="44.94536" lon="5.14381">
        <ele>555</ele>
        <time>2021-02-25T08:28:17Z</time>
      </trkpt>
      <trkpt lat="44.94533" lon="5.14379">
        <ele>555</ele>
        <time>2021-02-25T08:28:22Z</time>
      </trkpt>
      <trkpt lat="44.94532" lon="5.14378">
        <ele>555</ele>
        <time>2021-02-25T08:28:27Z</time>
      </trkpt>
      <trkpt lat="44.94527" lon="5.14374">
        <ele>562</ele>
        <time>2021-02-25T08:28:32Z</time>
      </trkpt>
      <trkpt lat="44.94522" lon="5.14371">
        <ele>562</ele>
        <time>2021-02-25T08:28:37Z</time>
      </trkpt>
      <trkpt lat="44.94519" lon="5.1437">
        <ele>562</ele>
        <time>2021-02-25T08:28:41Z</time>
      </trkpt>
      <trkpt lat="44.94516" lon="5.14369">
        <ele>562</ele>
        <time>2021-02-25T08:28:46Z</time>
      </trkpt>
      <trkpt lat="44.94514" lon="5.14368">
        <ele>566</ele>
        <time>2021-02-25T08:28:50Z</time>
      </trkpt>
      <trkpt lat="44.9451" lon="5.14365">
        <ele>566</ele>
        <time>2021-02-25T08:28:55Z</time>
      </trkpt>
      <trkpt lat="44.94508" lon="5.14365">
        <ele>566</ele>
        <time>2021-02-25T08:28:59Z</time>
      </trkpt>
      <trkpt lat="44.94503" lon="5.14364">
        <ele>566</ele>
        <time>2021-02-25T08:29:04Z</time>
      </trkpt>
      <trkpt lat="44.945" lon="5.14364">
        <ele>566</ele>
        <time>2021-02-25T08:29:08Z</time>
      </trkpt>
      <trkpt lat="44.94495" lon="5.14362">
        <ele>566</ele>
        <time>2021-02-25T08:29:13Z</time>
      </trkpt>
      <trkpt lat="44.94491" lon="5.14361">
        <ele>566</ele>
        <time>2021-02-25T08:29:18Z</time>
      </trkpt>
      <trkpt lat="44.94484" lon="5.1436">
        <ele>573</ele>
        <time>2021-02-25T08:29:23Z</time>
      </trkpt>
      <trkpt lat="44.94481" lon="5.14358">
        <ele>573</ele>
        <time>2021-02-25T08:29:28Z</time>
      </trkpt>
      <trkpt lat="44.94477" lon="5.14356">
        <ele>573</ele>
        <time>2021-02-25T08:29:33Z</time>
      </trkpt>
      <trkpt lat="44.94474" lon="5.14356">
        <ele>573</ele>
        <time>2021-02-25T08:29:38Z</time>
      </trkpt>
      <trkpt lat="44.94469" lon="5.14358">
        <ele>573</ele>
        <time>2021-02-25T08:29:42Z</time>
      </trkpt>
      <trkpt lat="44.94467" lon="5.14361">
        <ele>573</ele>
        <time>2021-02-25T08:29:47Z</time>
      </trkpt>
      <trkpt lat="44.94465" lon="5.14366">
        <ele>573</ele>
        <time>2021-02-25T08:29:52Z</time>
      </trkpt>
      <trkpt lat="44.94463" lon="5.14369">
        <ele>573</ele>
        <time>2021-02-25T08:29:56Z</time>
      </trkpt>
      <trkpt lat="44.9446" lon="5.14374">
        <ele>573</ele>
        <time>2021-02-25T08:30:01Z</time>
      </trkpt>
      <trkpt lat="44.94459" lon="5.14376">
        <ele>570</ele>
        <time>2021-02-25T08:30:05Z</time>
      </trkpt>
      <trkpt lat="44.94458" lon="5.14379">
        <ele>584</ele>
        <time>2021-02-25T08:30:10Z</time>
      </trkpt>
      <trkpt lat="44.94454" lon="5.14381">
        <ele>584</ele>
        <time>2021-02-25T08:30:15Z</time>
      </trkpt>
      <trkpt lat="44.94451" lon="5.14384">
        <ele>584</ele>
        <time>2021-02-25T08:30:25Z</time>
      </trkpt>
      <trkpt lat="44.94448" lon="5.14386">
        <ele>584</ele>
        <time>2021-02-25T08:30:35Z</time>
      </trkpt>
      <trkpt lat="44.94445" lon="5.1439">
        <ele>584</ele>
        <time>2021-02-25T08:30:40Z</time>
      </trkpt>
      <trkpt lat="44.94443" lon="5.14395">
        <ele>584</ele>
        <time>2021-02-25T08:30:45Z</time>
      </trkpt>
      <trkpt lat="44.9444" lon="5.14397">
        <ele>584</ele>
        <time>2021-02-25T08:30:50Z</time>
      </trkpt>
      <trkpt lat="44.9444" lon="5.14398">
        <ele>584</ele>
        <time>2021-02-25T08:30:54Z</time>
      </trkpt>
      <trkpt lat="44.94439" lon="5.144">
        <ele>584</ele>
        <time>2021-02-25T08:30:59Z</time>
      </trkpt>
      <trkpt lat="44.94437" lon="5.14406">
        <ele>582</ele>
        <time>2021-02-25T08:31:04Z</time>
      </trkpt>
      <trkpt lat="44.94434" lon="5.14409">
        <ele>582</ele>
        <time>2021-02-25T08:31:09Z</time>
      </trkpt>
      <trkpt lat="44.94433" lon="5.14412">
        <ele>582</ele>
        <time>2021-02-25T08:31:14Z</time>
      </trkpt>
      <trkpt lat="44.94431" lon="5.14417">
        <ele>582</ele>
        <time>2021-02-25T08:31:19Z</time>
      </trkpt>
      <trkpt lat="44.94431" lon="5.1442">
        <ele>582</ele>
        <time>2021-02-25T08:31:24Z</time>
      </trkpt>
      <trkpt lat="44.94429" lon="5.14424">
        <ele>596</ele>
        <time>2021-02-25T08:31:29Z</time>
      </trkpt>
      <trkpt lat="44.94426" lon="5.14432">
        <ele>594</ele>
        <time>2021-02-25T08:31:38Z</time>
      </trkpt>
      <trkpt lat="44.94426" lon="5.14433">
        <ele>594</ele>
        <time>2021-02-25T08:31:43Z</time>
      </trkpt>
      <trkpt lat="44.94425" lon="5.14433">
        <ele>594</ele>
        <time>2021-02-25T08:31:48Z</time>
      </trkpt>
      <trkpt lat="44.94425" lon="5.14437">
        <ele>594</ele>
        <time>2021-02-25T08:31:53Z</time>
      </trkpt>
      <trkpt lat="44.94424" lon="5.1444">
        <ele>594</ele>
        <time>2021-02-25T08:31:58Z</time>
      </trkpt>
      <trkpt lat="44.94423" lon="5.14442">
        <ele>594</ele>
        <time>2021-02-25T08:32:03Z</time>
      </trkpt>
      <trkpt lat="44.94421" lon="5.14445">
        <ele>594</ele>
        <time>2021-02-25T08:32:07Z</time>
      </trkpt>
      <trkpt lat="44.9442" lon="5.14448">
        <ele>594</ele>
        <time>2021-02-25T08:32:12Z</time>
      </trkpt>
      <trkpt lat="44.94419" lon="5.14449">
        <ele>594</ele>
        <time>2021-02-25T08:32:16Z</time>
      </trkpt>
      <trkpt lat="44.94417" lon="5.14452">
        <ele>594</ele>
        <time>2021-02-25T08:32:21Z</time>
      </trkpt>
      <trkpt lat="44.94416" lon="5.14456">
        <ele>594</ele>
        <time>2021-02-25T08:32:25Z</time>
      </trkpt>
      <trkpt lat="44.94414" lon="5.14459">
        <ele>591</ele>
        <time>2021-02-25T08:32:30Z</time>
      </trkpt>
      <trkpt lat="44.94412" lon="5.14462">
        <ele>591</ele>
        <time>2021-02-25T08:32:36Z</time>
      </trkpt>
      <trkpt lat="44.94409" lon="5.14466">
        <ele>591</ele>
        <time>2021-02-25T08:32:40Z</time>
      </trkpt>
      <trkpt lat="44.94407" lon="5.14468">
        <ele>591</ele>
        <time>2021-02-25T08:32:45Z</time>
      </trkpt>
      <trkpt lat="44.94406" lon="5.14472">
        <ele>591</ele>
        <time>2021-02-25T08:32:49Z</time>
      </trkpt>
      <trkpt lat="44.94406" lon="5.14474">
        <ele>591</ele>
        <time>2021-02-25T08:32:54Z</time>
      </trkpt>
      <trkpt lat="44.94403" lon="5.14479">
        <ele>602</ele>
        <time>2021-02-25T08:32:59Z</time>
      </trkpt>
      <trkpt lat="44.944" lon="5.14482">
        <ele>602</ele>
        <time>2021-02-25T08:33:04Z</time>
      </trkpt>
      <trkpt lat="44.94396" lon="5.14485">
        <ele>602</ele>
        <time>2021-02-25T08:33:09Z</time>
      </trkpt>
      <trkpt lat="44.94395" lon="5.14488">
        <ele>594</ele>
        <time>2021-02-25T08:33:14Z</time>
      </trkpt>
      <trkpt lat="44.94393" lon="5.1449">
        <ele>594</ele>
        <time>2021-02-25T08:33:18Z</time>
      </trkpt>
      <trkpt lat="44.94389" lon="5.14493">
        <ele>594</ele>
        <time>2021-02-25T08:33:23Z</time>
      </trkpt>
      <trkpt lat="44.94385" lon="5.14496">
        <ele>594</ele>
        <time>2021-02-25T08:33:28Z</time>
      </trkpt>
      <trkpt lat="44.94382" lon="5.14497">
        <ele>594</ele>
        <time>2021-02-25T08:33:32Z</time>
      </trkpt>
      <trkpt lat="44.94379" lon="5.14497">
        <ele>594</ele>
        <time>2021-02-25T08:33:37Z</time>
      </trkpt>
      <trkpt lat="44.94375" lon="5.14499">
        <ele>601</ele>
        <time>2021-02-25T08:33:42Z</time>
      </trkpt>
      <trkpt lat="44.94371" lon="5.14501">
        <ele>601</ele>
        <time>2021-02-25T08:33:47Z</time>
      </trkpt>
      <trkpt lat="44.94366" lon="5.14504">
        <ele>601</ele>
        <time>2021-02-25T08:33:52Z</time>
      </trkpt>
      <trkpt lat="44.94361" lon="5.14505">
        <ele>601</ele>
        <time>2021-02-25T08:33:56Z</time>
      </trkpt>
      <trkpt lat="44.94358" lon="5.14507">
        <ele>601</ele>
        <time>2021-02-25T08:34:00Z</time>
      </trkpt>
      <trkpt lat="44.94353" lon="5.14507">
        <ele>601</ele>
        <time>2021-02-25T08:36:01Z</time>
      </trkpt>
      <trkpt lat="44.94352" lon="5.14509">
        <ele>601</ele>
        <time>2021-02-25T08:36:15Z</time>
      </trkpt>
      <trkpt lat="44.94349" lon="5.1451">
        <ele>601</ele>
        <time>2021-02-25T08:36:19Z</time>
      </trkpt>
      <trkpt lat="44.94345" lon="5.14512">
        <ele>607</ele>
        <time>2021-02-25T08:36:23Z</time>
      </trkpt>
      <trkpt lat="44.9434" lon="5.14513">
        <ele>607</ele>
        <time>2021-02-25T08:36:28Z</time>
      </trkpt>
      <trkpt lat="44.94335" lon="5.14515">
        <ele>601</ele>
        <time>2021-02-25T08:36:33Z</time>
      </trkpt>
      <trkpt lat="44.9433" lon="5.14514">
        <ele>601</ele>
        <time>2021-02-25T08:36:38Z</time>
      </trkpt>
      <trkpt lat="44.94325" lon="5.14517">
        <ele>601</ele>
        <time>2021-02-25T08:36:43Z</time>
      </trkpt>
      <trkpt lat="44.94321" lon="5.1452">
        <ele>601</ele>
        <time>2021-02-25T08:36:48Z</time>
      </trkpt>
      <trkpt lat="44.94317" lon="5.14524">
        <ele>605</ele>
        <time>2021-02-25T08:36:53Z</time>
      </trkpt>
      <trkpt lat="44.94313" lon="5.14529">
        <ele>605</ele>
        <time>2021-02-25T08:36:57Z</time>
      </trkpt>
      <trkpt lat="44.94309" lon="5.14533">
        <ele>605</ele>
        <time>2021-02-25T08:37:02Z</time>
      </trkpt>
      <trkpt lat="44.94306" lon="5.14538">
        <ele>605</ele>
        <time>2021-02-25T08:37:06Z</time>
      </trkpt>
      <trkpt lat="44.94302" lon="5.14541">
        <ele>605</ele>
        <time>2021-02-25T08:37:11Z</time>
      </trkpt>
      <trkpt lat="44.94298" lon="5.14544">
        <ele>599</ele>
        <time>2021-02-25T08:37:17Z</time>
      </trkpt>
      <trkpt lat="44.94294" lon="5.14544">
        <ele>599</ele>
        <time>2021-02-25T08:37:22Z</time>
      </trkpt>
      <trkpt lat="44.94291" lon="5.14543">
        <ele>597</ele>
        <time>2021-02-25T08:37:26Z</time>
      </trkpt>
      <trkpt lat="44.94286" lon="5.1454">
        <ele>605</ele>
        <time>2021-02-25T08:37:31Z</time>
      </trkpt>
      <trkpt lat="44.94283" lon="5.14537">
        <ele>605</ele>
        <time>2021-02-25T08:37:36Z</time>
      </trkpt>
      <trkpt lat="44.94279" lon="5.14531">
        <ele>605</ele>
        <time>2021-02-25T08:37:41Z</time>
      </trkpt>
      <trkpt lat="44.94275" lon="5.14527">
        <ele>605</ele>
        <time>2021-02-25T08:37:46Z</time>
      </trkpt>
      <trkpt lat="44.9427" lon="5.14523">
        <ele>605</ele>
        <time>2021-02-25T08:37:51Z</time>
      </trkpt>
      <trkpt lat="44.94267" lon="5.14518">
        <ele>605</ele>
        <time>2021-02-25T08:37:55Z</time>
      </trkpt>
      <trkpt lat="44.94262" lon="5.14516">
        <ele>604</ele>
        <time>2021-02-25T08:37:59Z</time>
      </trkpt>
      <trkpt lat="44.94256" lon="5.14513">
        <ele>615</ele>
        <time>2021-02-25T08:38:04Z</time>
      </trkpt>
      <trkpt lat="44.94252" lon="5.14512">
        <ele>615</ele>
        <time>2021-02-25T08:38:08Z</time>
      </trkpt>
      <trkpt lat="44.94246" lon="5.14511">
        <ele>615</ele>
        <time>2021-02-25T08:38:13Z</time>
      </trkpt>
      <trkpt lat="44.94242" lon="5.14509">
        <ele>615</ele>
        <time>2021-02-25T08:38:18Z</time>
      </trkpt>
      <trkpt lat="44.94237" lon="5.1451">
        <ele>615</ele>
        <time>2021-02-25T08:38:23Z</time>
      </trkpt>
      <trkpt lat="44.94233" lon="5.14509">
        <ele>617</ele>
        <time>2021-02-25T08:38:28Z</time>
      </trkpt>
      <trkpt lat="44.94227" lon="5.14507">
        <ele>617</ele>
        <time>2021-02-25T08:38:33Z</time>
      </trkpt>
      <trkpt lat="44.94223" lon="5.14506">
        <ele>617</ele>
        <time>2021-02-25T08:38:38Z</time>
      </trkpt>
      <trkpt lat="44.94217" lon="5.14505">
        <ele>617</ele>
        <time>2021-02-25T08:38:44Z</time>
      </trkpt>
      <trkpt lat="44.94211" lon="5.14505">
        <ele>617</ele>
        <time>2021-02-25T08:38:48Z</time>
      </trkpt>
      <trkpt lat="44.94206" lon="5.14503">
        <ele>617</ele>
        <time>2021-02-25T08:38:54Z</time>
      </trkpt>
      <trkpt lat="44.94202" lon="5.14504">
        <ele>617</ele>
        <time>2021-02-25T08:38:59Z</time>
      </trkpt>
      <trkpt lat="44.94197" lon="5.14505">
        <ele>617</ele>
        <time>2021-02-25T08:39:04Z</time>
      </trkpt>
      <trkpt lat="44.94192" lon="5.14507">
        <ele>617</ele>
        <time>2021-02-25T08:39:09Z</time>
      </trkpt>
      <trkpt lat="44.94188" lon="5.14509">
        <ele>617</ele>
        <time>2021-02-25T08:39:14Z</time>
      </trkpt>
      <trkpt lat="44.94183" lon="5.14511">
        <ele>617</ele>
        <time>2021-02-25T08:39:18Z</time>
      </trkpt>
      <trkpt lat="44.94179" lon="5.14511">
        <ele>620</ele>
        <time>2021-02-25T08:39:23Z</time>
      </trkpt>
      <trkpt lat="44.94174" lon="5.14511">
        <ele>620</ele>
        <time>2021-02-25T08:39:28Z</time>
      </trkpt>
      <trkpt lat="44.94169" lon="5.14511">
        <ele>620</ele>
        <time>2021-02-25T08:39:33Z</time>
      </trkpt>
      <trkpt lat="44.94165" lon="5.14507">
        <ele>620</ele>
        <time>2021-02-25T08:39:38Z</time>
      </trkpt>
      <trkpt lat="44.94162" lon="5.14502">
        <ele>620</ele>
        <time>2021-02-25T08:39:43Z</time>
      </trkpt>
      <trkpt lat="44.9416" lon="5.14499">
        <ele>620</ele>
        <time>2021-02-25T08:39:48Z</time>
      </trkpt>
      <trkpt lat="44.94158" lon="5.14495">
        <ele>620</ele>
        <time>2021-02-25T08:39:52Z</time>
      </trkpt>
      <trkpt lat="44.94154" lon="5.14491">
        <ele>620</ele>
        <time>2021-02-25T08:39:57Z</time>
      </trkpt>
      <trkpt lat="44.94152" lon="5.14489">
        <ele>627</ele>
        <time>2021-02-25T08:40:01Z</time>
      </trkpt>
      <trkpt lat="44.94148" lon="5.14485">
        <ele>634</ele>
        <time>2021-02-25T08:40:06Z</time>
      </trkpt>
      <trkpt lat="44.94145" lon="5.14482">
        <ele>634</ele>
        <time>2021-02-25T08:40:11Z</time>
      </trkpt>
      <trkpt lat="44.9414" lon="5.1448">
        <ele>634</ele>
        <time>2021-02-25T08:40:16Z</time>
      </trkpt>
      <trkpt lat="44.94137" lon="5.14479">
        <ele>634</ele>
        <time>2021-02-25T08:40:21Z</time>
      </trkpt>
      <trkpt lat="44.94133" lon="5.14477">
        <ele>634</ele>
        <time>2021-02-25T08:40:25Z</time>
      </trkpt>
      <trkpt lat="44.9413" lon="5.14473">
        <ele>634</ele>
        <time>2021-02-25T08:40:30Z</time>
      </trkpt>
      <trkpt lat="44.94128" lon="5.14472">
        <ele>634</ele>
        <time>2021-02-25T08:40:34Z</time>
      </trkpt>
      <trkpt lat="44.94125" lon="5.14473">
        <ele>634</ele>
        <time>2021-02-25T08:40:39Z</time>
      </trkpt>
      <trkpt lat="44.9412" lon="5.14474">
        <ele>638</ele>
        <time>2021-02-25T08:40:44Z</time>
      </trkpt>
      <trkpt lat="44.94116" lon="5.14476">
        <ele>638</ele>
        <time>2021-02-25T08:40:49Z</time>
      </trkpt>
      <trkpt lat="44.94112" lon="5.14479">
        <ele>638</ele>
        <time>2021-02-25T08:40:54Z</time>
      </trkpt>
      <trkpt lat="44.94109" lon="5.14481">
        <ele>638</ele>
        <time>2021-02-25T08:40:58Z</time>
      </trkpt>
      <trkpt lat="44.94108" lon="5.14481">
        <ele>638</ele>
        <time>2021-02-25T08:41:03Z</time>
      </trkpt>
      <trkpt lat="44.94104" lon="5.14482">
        <ele>638</ele>
        <time>2021-02-25T08:41:08Z</time>
      </trkpt>
      <trkpt lat="44.94102" lon="5.14484">
        <ele>638</ele>
        <time>2021-02-25T08:41:13Z</time>
      </trkpt>
      <trkpt lat="44.94099" lon="5.14487">
        <ele>633</ele>
        <time>2021-02-25T08:41:18Z</time>
      </trkpt>
      <trkpt lat="44.94098" lon="5.14488">
        <ele>633</ele>
        <time>2021-02-25T08:41:22Z</time>
      </trkpt>
      <trkpt lat="44.94095" lon="5.14491">
        <ele>642</ele>
        <time>2021-02-25T08:41:27Z</time>
      </trkpt>
      <trkpt lat="44.94091" lon="5.14495">
        <ele>642</ele>
        <time>2021-02-25T08:41:36Z</time>
      </trkpt>
      <trkpt lat="44.94091" lon="5.14495">
        <ele>642</ele>
        <time>2021-02-25T08:41:41Z</time>
      </trkpt>
      <trkpt lat="44.9409" lon="5.145">
        <ele>642</ele>
        <time>2021-02-25T08:41:46Z</time>
      </trkpt>
      <trkpt lat="44.94089" lon="5.14501">
        <ele>642</ele>
        <time>2021-02-25T08:41:50Z</time>
      </trkpt>
      <trkpt lat="44.94086" lon="5.14503">
        <ele>642</ele>
        <time>2021-02-25T08:41:56Z</time>
      </trkpt>
      <trkpt lat="44.94084" lon="5.14504">
        <ele>642</ele>
        <time>2021-02-25T08:42:00Z</time>
      </trkpt>
      <trkpt lat="44.94083" lon="5.14506">
        <ele>642</ele>
        <time>2021-02-25T08:42:05Z</time>
      </trkpt>
      <trkpt lat="44.94082" lon="5.14506">
        <ele>642</ele>
        <time>2021-02-25T08:42:09Z</time>
      </trkpt>
      <trkpt lat="44.94079" lon="5.14511">
        <ele>642</ele>
        <time>2021-02-25T08:42:19Z</time>
      </trkpt>
      <trkpt lat="44.94076" lon="5.14512">
        <ele>642</ele>
        <time>2021-02-25T08:42:24Z</time>
      </trkpt>
      <trkpt lat="44.94072" lon="5.14515">
        <ele>638</ele>
        <time>2021-02-25T08:42:33Z</time>
      </trkpt>
      <trkpt lat="44.9407" lon="5.14516">
        <ele>638</ele>
        <time>2021-02-25T08:42:38Z</time>
      </trkpt>
      <trkpt lat="44.94067" lon="5.14516">
        <ele>651</ele>
        <time>2021-02-25T08:42:43Z</time>
      </trkpt>
      <trkpt lat="44.94065" lon="5.14519">
        <ele>651</ele>
        <time>2021-02-25T08:42:48Z</time>
      </trkpt>
      <trkpt lat="44.94065" lon="5.1452">
        <ele>651</ele>
        <time>2021-02-25T08:42:52Z</time>
      </trkpt>
      <trkpt lat="44.94064" lon="5.14524">
        <ele>651</ele>
        <time>2021-02-25T08:42:57Z</time>
      </trkpt>
      <trkpt lat="44.94061" lon="5.14527">
        <ele>651</ele>
        <time>2021-02-25T08:43:02Z</time>
      </trkpt>
      <trkpt lat="44.94059" lon="5.14529">
        <ele>651</ele>
        <time>2021-02-25T08:43:07Z</time>
      </trkpt>
      <trkpt lat="44.94058" lon="5.14532">
        <ele>651</ele>
        <time>2021-02-25T08:43:12Z</time>
      </trkpt>
      <trkpt lat="44.94056" lon="5.14537">
        <ele>651</ele>
        <time>2021-02-25T08:43:17Z</time>
      </trkpt>
      <trkpt lat="44.94055" lon="5.14543">
        <ele>647</ele>
        <time>2021-02-25T08:43:22Z</time>
      </trkpt>
      <trkpt lat="44.94053" lon="5.14549">
        <ele>647</ele>
        <time>2021-02-25T08:43:27Z</time>
      </trkpt>
      <trkpt lat="44.94052" lon="5.14552">
        <ele>647</ele>
        <time>2021-02-25T08:43:31Z</time>
      </trkpt>
      <trkpt lat="44.94053" lon="5.14552">
        <ele>647</ele>
        <time>2021-02-25T08:43:36Z</time>
      </trkpt>
      <trkpt lat="44.94052" lon="5.14558">
        <ele>647</ele>
        <time>2021-02-25T08:43:40Z</time>
      </trkpt>
      <trkpt lat="44.94052" lon="5.14565">
        <ele>647</ele>
        <time>2021-02-25T08:43:49Z</time>
      </trkpt>
      <trkpt lat="44.9405" lon="5.14567">
        <ele>647</ele>
        <time>2021-02-25T08:43:54Z</time>
      </trkpt>
      <trkpt lat="44.9405" lon="5.14572">
        <ele>649</ele>
        <time>2021-02-25T08:43:58Z</time>
      </trkpt>
      <trkpt lat="44.9405" lon="5.14573">
        <ele>649</ele>
        <time>2021-02-25T08:44:03Z</time>
      </trkpt>
      <trkpt lat="44.94047" lon="5.14576">
        <ele>649</ele>
        <time>2021-02-25T08:44:07Z</time>
      </trkpt>
      <trkpt lat="44.94046" lon="5.14576">
        <ele>649</ele>
        <time>2021-02-25T08:44:13Z</time>
      </trkpt>
      <trkpt lat="44.94043" lon="5.14576">
        <ele>649</ele>
        <time>2021-02-25T08:44:17Z</time>
      </trkpt>
      <trkpt lat="44.94041" lon="5.14576">
        <ele>662</ele>
        <time>2021-02-25T08:44:22Z</time>
      </trkpt>
      <trkpt lat="44.9404" lon="5.14576">
        <ele>662</ele>
        <time>2021-02-25T08:44:26Z</time>
      </trkpt>
      <trkpt lat="44.94036" lon="5.14576">
        <ele>662</ele>
        <time>2021-02-25T08:44:31Z</time>
      </trkpt>
      <trkpt lat="44.94033" lon="5.14574">
        <ele>662</ele>
        <time>2021-02-25T08:44:45Z</time>
      </trkpt>
      <trkpt lat="44.9403" lon="5.14572">
        <ele>662</ele>
        <time>2021-02-25T08:44:50Z</time>
      </trkpt>
      <trkpt lat="44.94029" lon="5.1457">
        <ele>662</ele>
        <time>2021-02-25T08:44:54Z</time>
      </trkpt>
      <trkpt lat="44.94027" lon="5.14569">
        <ele>662</ele>
        <time>2021-02-25T08:44:59Z</time>
      </trkpt>
      <trkpt lat="44.94025" lon="5.14568">
        <ele>662</ele>
        <time>2021-02-25T08:45:03Z</time>
      </trkpt>
      <trkpt lat="44.94024" lon="5.14568">
        <ele>662</ele>
        <time>2021-02-25T08:45:08Z</time>
      </trkpt>
      <trkpt lat="44.94021" lon="5.14565">
        <ele>662</ele>
        <time>2021-02-25T08:45:13Z</time>
      </trkpt>
      <trkpt lat="44.94019" lon="5.14563">
        <ele>662</ele>
        <time>2021-02-25T08:45:18Z</time>
      </trkpt>
      <trkpt lat="44.94017" lon="5.14562">
        <ele>662</ele>
        <time>2021-02-25T08:45:23Z</time>
      </trkpt>
      <trkpt lat="44.94014" lon="5.14561">
        <ele>662</ele>
        <time>2021-02-25T08:45:28Z</time>
      </trkpt>
      <trkpt lat="44.94008" lon="5.14563">
        <ele>675</ele>
        <time>2021-02-25T08:45:42Z</time>
      </trkpt>
      <trkpt lat="44.94008" lon="5.14563">
        <ele>675</ele>
        <time>2021-02-25T08:45:46Z</time>
      </trkpt>
      <trkpt lat="44.94008" lon="5.14563">
        <ele>675</ele>
        <time>2021-02-25T08:45:51Z</time>
      </trkpt>
      <trkpt lat="44.94007" lon="5.14564">
        <ele>675</ele>
        <time>2021-02-25T08:45:55Z</time>
      </trkpt>
      <trkpt lat="44.94004" lon="5.14568">
        <ele>675</ele>
        <time>2021-02-25T08:46:00Z</time>
      </trkpt>
      <trkpt lat="44.93999" lon="5.14572">
        <ele>675</ele>
        <time>2021-02-25T08:46:10Z</time>
      </trkpt>
      <trkpt lat="44.93996" lon="5.14573">
        <ele>675</ele>
        <time>2021-02-25T08:46:14Z</time>
      </trkpt>
      <trkpt lat="44.93996" lon="5.14573">
        <ele>675</ele>
        <time>2021-02-25T08:46:18Z</time>
      </trkpt>
      <trkpt lat="44.93994" lon="5.14574">
        <ele>675</ele>
        <time>2021-02-25T08:46:23Z</time>
      </trkpt>
      <trkpt lat="44.93992" lon="5.14575">
        <ele>675</ele>
        <time>2021-02-25T08:46:33Z</time>
      </trkpt>
      <trkpt lat="44.9399" lon="5.14577">
        <ele>675</ele>
        <time>2021-02-25T08:46:43Z</time>
      </trkpt>
      <trkpt lat="44.93988" lon="5.14578">
        <ele>675</ele>
        <time>2021-02-25T08:46:48Z</time>
      </trkpt>
      <trkpt lat="44.93987" lon="5.1458">
        <ele>675</ele>
        <time>2021-02-25T08:46:53Z</time>
      </trkpt>
      <trkpt lat="44.93983" lon="5.14583">
        <ele>693</ele>
        <time>2021-02-25T08:46:57Z</time>
      </trkpt>
      <trkpt lat="44.93981" lon="5.14583">
        <ele>693</ele>
        <time>2021-02-25T08:47:02Z</time>
      </trkpt>
      <trkpt lat="44.93978" lon="5.14584">
        <ele>693</ele>
        <time>2021-02-25T08:47:12Z</time>
      </trkpt>
      <trkpt lat="44.93976" lon="5.14587">
        <ele>693</ele>
        <time>2021-02-25T08:47:17Z</time>
      </trkpt>
      <trkpt lat="44.93975" lon="5.14588">
        <ele>693</ele>
        <time>2021-02-25T08:47:22Z</time>
      </trkpt>
      <trkpt lat="44.93974" lon="5.1459">
        <ele>693</ele>
        <time>2021-02-25T08:47:26Z</time>
      </trkpt>
      <trkpt lat="44.93973" lon="5.14593">
        <ele>693</ele>
        <time>2021-02-25T08:47:31Z</time>
      </trkpt>
      <trkpt lat="44.93974" lon="5.14594">
        <ele>693</ele>
        <time>2021-02-25T08:48:40Z</time>
      </trkpt>
      <trkpt lat="44.93974" lon="5.14594">
        <ele>693</ele>
        <time>2021-02-25T08:48:44Z</time>
      </trkpt>
      <trkpt lat="44.93973" lon="5.14599">
        <ele>692</ele>
        <time>2021-02-25T08:48:49Z</time>
      </trkpt>
      <trkpt lat="44.9397" lon="5.14603">
        <ele>692</ele>
        <time>2021-02-25T08:48:54Z</time>
      </trkpt>
      <trkpt lat="44.9397" lon="5.14608">
        <ele>692</ele>
        <time>2021-02-25T08:48:58Z</time>
      </trkpt>
      <trkpt lat="44.9397" lon="5.14612">
        <ele>692</ele>
        <time>2021-02-25T08:49:03Z</time>
      </trkpt>
      <trkpt lat="44.93968" lon="5.14621">
        <ele>692</ele>
        <time>2021-02-25T08:49:07Z</time>
      </trkpt>
      <trkpt lat="44.93969" lon="5.14628">
        <ele>692</ele>
        <time>2021-02-25T08:49:12Z</time>
      </trkpt>
      <trkpt lat="44.93972" lon="5.14634">
        <ele>692</ele>
        <time>2021-02-25T08:49:16Z</time>
      </trkpt>
      <trkpt lat="44.93973" lon="5.14639">
        <ele>692</ele>
        <time>2021-02-25T08:49:22Z</time>
      </trkpt>
      <trkpt lat="44.93974" lon="5.14646">
        <ele>692</ele>
        <time>2021-02-25T08:49:26Z</time>
      </trkpt>
      <trkpt lat="44.93974" lon="5.14649">
        <ele>692</ele>
        <time>2021-02-25T08:49:31Z</time>
      </trkpt>
      <trkpt lat="44.93976" lon="5.14655">
        <ele>689</ele>
        <time>2021-02-25T08:49:37Z</time>
      </trkpt>
      <trkpt lat="44.93978" lon="5.14659">
        <ele>689</ele>
        <time>2021-02-25T08:49:42Z</time>
      </trkpt>
      <trkpt lat="44.9398" lon="5.14663">
        <ele>689</ele>
        <time>2021-02-25T08:49:47Z</time>
      </trkpt>
      <trkpt lat="44.93981" lon="5.14666">
        <ele>689</ele>
        <time>2021-02-25T08:49:52Z</time>
      </trkpt>
      <trkpt lat="44.93983" lon="5.14674">
        <ele>689</ele>
        <time>2021-02-25T08:49:56Z</time>
      </trkpt>
      <trkpt lat="44.93982" lon="5.14683">
        <ele>685</ele>
        <time>2021-02-25T08:50:15Z</time>
      </trkpt>
      <trkpt lat="44.93981" lon="5.14682">
        <ele>685</ele>
        <time>2021-02-25T08:50:20Z</time>
      </trkpt>
      <trkpt lat="44.93979" lon="5.14683">
        <ele>685</ele>
        <time>2021-02-25T08:50:25Z</time>
      </trkpt>
      <trkpt lat="44.93976" lon="5.14683">
        <ele>685</ele>
        <time>2021-02-25T08:50:30Z</time>
      </trkpt>
      <trkpt lat="44.93972" lon="5.14682">
        <ele>685</ele>
        <time>2021-02-25T08:50:34Z</time>
      </trkpt>
      <trkpt lat="44.9397" lon="5.14683">
        <ele>685</ele>
        <time>2021-02-25T08:50:39Z</time>
      </trkpt>
      <trkpt lat="44.93969" lon="5.14683">
        <ele>685</ele>
        <time>2021-02-25T08:50:43Z</time>
      </trkpt>
      <trkpt lat="44.93966" lon="5.14681">
        <ele>685</ele>
        <time>2021-02-25T08:50:48Z</time>
      </trkpt>
      <trkpt lat="44.93962" lon="5.14682">
        <ele>685</ele>
        <time>2021-02-25T08:50:52Z</time>
      </trkpt>
      <trkpt lat="44.9396" lon="5.14682">
        <ele>685</ele>
        <time>2021-02-25T08:50:56Z</time>
      </trkpt>
      <trkpt lat="44.93955" lon="5.14684">
        <ele>691</ele>
        <time>2021-02-25T08:51:04Z</time>
      </trkpt>
      <trkpt lat="44.93952" lon="5.14685">
        <ele>691</ele>
        <time>2021-02-25T08:51:09Z</time>
      </trkpt>
      <trkpt lat="44.93951" lon="5.14684">
        <ele>691</ele>
        <time>2021-02-25T08:51:13Z</time>
      </trkpt>
      <trkpt lat="44.93949" lon="5.14685">
        <ele>691</ele>
        <time>2021-02-25T08:51:17Z</time>
      </trkpt>
      <trkpt lat="44.93946" lon="5.14685">
        <ele>691</ele>
        <time>2021-02-25T08:51:21Z</time>
      </trkpt>
      <trkpt lat="44.93942" lon="5.14685">
        <ele>691</ele>
        <time>2021-02-25T08:51:26Z</time>
      </trkpt>
      <trkpt lat="44.93939" lon="5.14684">
        <ele>691</ele>
        <time>2021-02-25T08:51:31Z</time>
      </trkpt>
      <trkpt lat="44.93936" lon="5.14683">
        <ele>691</ele>
        <time>2021-02-25T08:51:36Z</time>
      </trkpt>
      <trkpt lat="44.93933" lon="5.14681">
        <ele>691</ele>
        <time>2021-02-25T08:51:41Z</time>
      </trkpt>
      <trkpt lat="44.93931" lon="5.14681">
        <ele>691</ele>
        <time>2021-02-25T08:51:46Z</time>
      </trkpt>
      <trkpt lat="44.93926" lon="5.1468">
        <ele>708</ele>
        <time>2021-02-25T08:51:51Z</time>
      </trkpt>
      <trkpt lat="44.93923" lon="5.14679">
        <ele>708</ele>
        <time>2021-02-25T08:51:56Z</time>
      </trkpt>
      <trkpt lat="44.93922" lon="5.14679">
        <ele>708</ele>
        <time>2021-02-25T08:52:00Z</time>
      </trkpt>
      <trkpt lat="44.9392" lon="5.14679">
        <ele>708</ele>
        <time>2021-02-25T08:52:06Z</time>
      </trkpt>
      <trkpt lat="44.93917" lon="5.14681">
        <ele>702</ele>
        <time>2021-02-25T08:52:10Z</time>
      </trkpt>
      <trkpt lat="44.93915" lon="5.14682">
        <ele>702</ele>
        <time>2021-02-25T08:52:16Z</time>
      </trkpt>
      <trkpt lat="44.93911" lon="5.14683">
        <ele>702</ele>
        <time>2021-02-25T08:52:20Z</time>
      </trkpt>
      <trkpt lat="44.93906" lon="5.14686">
        <ele>702</ele>
        <time>2021-02-25T08:52:30Z</time>
      </trkpt>
      <trkpt lat="44.93904" lon="5.14685">
        <ele>702</ele>
        <time>2021-02-25T08:52:34Z</time>
      </trkpt>
      <trkpt lat="44.939" lon="5.14685">
        <ele>709</ele>
        <time>2021-02-25T08:52:39Z</time>
      </trkpt>
      <trkpt lat="44.93896" lon="5.14684">
        <ele>709</ele>
        <time>2021-02-25T08:52:44Z</time>
      </trkpt>
      <trkpt lat="44.93893" lon="5.14683">
        <ele>709</ele>
        <time>2021-02-25T08:52:49Z</time>
      </trkpt>
      <trkpt lat="44.93891" lon="5.14681">
        <ele>709</ele>
        <time>2021-02-25T08:52:54Z</time>
      </trkpt>
      <trkpt lat="44.93889" lon="5.14677">
        <ele>715</ele>
        <time>2021-02-25T08:52:59Z</time>
      </trkpt>
      <trkpt lat="44.93886" lon="5.14675">
        <ele>715</ele>
        <time>2021-02-25T08:53:04Z</time>
      </trkpt>
      <trkpt lat="44.93883" lon="5.14675">
        <ele>715</ele>
        <time>2021-02-25T08:53:09Z</time>
      </trkpt>
      <trkpt lat="44.9388" lon="5.14674">
        <ele>715</ele>
        <time>2021-02-25T08:53:14Z</time>
      </trkpt>
      <trkpt lat="44.93876" lon="5.14672">
        <ele>715</ele>
        <time>2021-02-25T08:53:18Z</time>
      </trkpt>
      <trkpt lat="44.93872" lon="5.1467">
        <ele>712</ele>
        <time>2021-02-25T08:53:23Z</time>
      </trkpt>
      <trkpt lat="44.9387" lon="5.14668">
        <ele>712</ele>
        <time>2021-02-25T08:53:28Z</time>
      </trkpt>
      <trkpt lat="44.93863" lon="5.1466">
        <ele>712</ele>
        <time>2021-02-25T08:53:48Z</time>
      </trkpt>
      <trkpt lat="44.93859" lon="5.14658">
        <ele>712</ele>
        <time>2021-02-25T08:53:53Z</time>
      </trkpt>
      <trkpt lat="44.93858" lon="5.14653">
        <ele>722</ele>
        <time>2021-02-25T08:53:58Z</time>
      </trkpt>
      <trkpt lat="44.93857" lon="5.1465">
        <ele>722</ele>
        <time>2021-02-25T08:54:03Z</time>
      </trkpt>
      <trkpt lat="44.93854" lon="5.14648">
        <ele>722</ele>
        <time>2021-02-25T08:54:07Z</time>
      </trkpt>
      <trkpt lat="44.93851" lon="5.14644">
        <ele>722</ele>
        <time>2021-02-25T08:54:12Z</time>
      </trkpt>
      <trkpt lat="44.93847" lon="5.14639">
        <ele>719</ele>
        <time>2021-02-25T08:54:17Z</time>
      </trkpt>
      <trkpt lat="44.93843" lon="5.14636">
        <ele>719</ele>
        <time>2021-02-25T08:54:22Z</time>
      </trkpt>
      <trkpt lat="44.93842" lon="5.14633">
        <ele>719</ele>
        <time>2021-02-25T08:54:27Z</time>
      </trkpt>
      <trkpt lat="44.93842" lon="5.14633">
        <ele>719</ele>
        <time>2021-02-25T08:54:31Z</time>
      </trkpt>
      <trkpt lat="44.93839" lon="5.14632">
        <ele>719</ele>
        <time>2021-02-25T08:54:45Z</time>
      </trkpt>
      <trkpt lat="44.93836" lon="5.14631">
        <ele>719</ele>
        <time>2021-02-25T08:54:50Z</time>
      </trkpt>
      <trkpt lat="44.93832" lon="5.14628">
        <ele>719</ele>
        <time>2021-02-25T08:54:55Z</time>
      </trkpt>
      <trkpt lat="44.93828" lon="5.14626">
        <ele>719</ele>
        <time>2021-02-25T08:55:00Z</time>
      </trkpt>
      <trkpt lat="44.93823" lon="5.14627">
        <ele>719</ele>
        <time>2021-02-25T08:55:04Z</time>
      </trkpt>
      <trkpt lat="44.93817" lon="5.14625">
        <ele>711</ele>
        <time>2021-02-25T08:55:09Z</time>
      </trkpt>
      <trkpt lat="44.93813" lon="5.14624">
        <ele>724</ele>
        <time>2021-02-25T08:55:13Z</time>
      </trkpt>
      <trkpt lat="44.93808" lon="5.14622">
        <ele>724</ele>
        <time>2021-02-25T08:55:17Z</time>
      </trkpt>
      <trkpt lat="44.93802" lon="5.1462">
        <ele>724</ele>
        <time>2021-02-25T08:55:22Z</time>
      </trkpt>
      <trkpt lat="44.93797" lon="5.14618">
        <ele>724</ele>
        <time>2021-02-25T08:55:27Z</time>
      </trkpt>
      <trkpt lat="44.93796" lon="5.14619">
        <ele>724</ele>
        <time>2021-02-25T08:55:31Z</time>
      </trkpt>
      <trkpt lat="44.93789" lon="5.14619">
        <ele>722</ele>
        <time>2021-02-25T08:55:36Z</time>
      </trkpt>
      <trkpt lat="44.93784" lon="5.14619">
        <ele>722</ele>
        <time>2021-02-25T08:55:41Z</time>
      </trkpt>
      <trkpt lat="44.9378" lon="5.14617">
        <ele>722</ele>
        <time>2021-02-25T08:55:45Z</time>
      </trkpt>
      <trkpt lat="44.93776" lon="5.14616">
        <ele>722</ele>
        <time>2021-02-25T08:55:49Z</time>
      </trkpt>
      <trkpt lat="44.93771" lon="5.14616">
        <ele>722</ele>
        <time>2021-02-25T08:55:54Z</time>
      </trkpt>
      <trkpt lat="44.93767" lon="5.14611">
        <ele>722</ele>
        <time>2021-02-25T08:55:59Z</time>
      </trkpt>
      <trkpt lat="44.93764" lon="5.14608">
        <ele>722</ele>
        <time>2021-02-25T08:56:04Z</time>
      </trkpt>
      <trkpt lat="44.9376" lon="5.1461">
        <ele>722</ele>
        <time>2021-02-25T08:56:09Z</time>
      </trkpt>
      <trkpt lat="44.93758" lon="5.1461">
        <ele>722</ele>
        <time>2021-02-25T08:56:14Z</time>
      </trkpt>
      <trkpt lat="44.93755" lon="5.14611">
        <ele>722</ele>
        <time>2021-02-25T08:56:19Z</time>
      </trkpt>
      <trkpt lat="44.9375" lon="5.14611">
        <ele>722</ele>
        <time>2021-02-25T08:56:24Z</time>
      </trkpt>
      <trkpt lat="44.93744" lon="5.1461">
        <ele>722</ele>
        <time>2021-02-25T08:56:29Z</time>
      </trkpt>
      <trkpt lat="44.93742" lon="5.1461">
        <ele>722</ele>
        <time>2021-02-25T08:56:33Z</time>
      </trkpt>
      <trkpt lat="44.93737" lon="5.14613">
        <ele>722</ele>
        <time>2021-02-25T08:56:38Z</time>
      </trkpt>
      <trkpt lat="44.93733" lon="5.14614">
        <ele>718</ele>
        <time>2021-02-25T08:56:43Z</time>
      </trkpt>
      <trkpt lat="44.93729" lon="5.14615">
        <ele>718</ele>
        <time>2021-02-25T08:56:48Z</time>
      </trkpt>
      <trkpt lat="44.93724" lon="5.14615">
        <ele>718</ele>
        <time>2021-02-25T08:56:53Z</time>
      </trkpt>
      <trkpt lat="44.9372" lon="5.14615">
        <ele>718</ele>
        <time>2021-02-25T08:56:58Z</time>
      </trkpt>
      <trkpt lat="44.93716" lon="5.14614">
        <ele>718</ele>
        <time>2021-02-25T08:57:03Z</time>
      </trkpt>
      <trkpt lat="44.93712" lon="5.14617">
        <ele>718</ele>
        <time>2021-02-25T08:57:08Z</time>
      </trkpt>
      <trkpt lat="44.93707" lon="5.14621">
        <ele>714</ele>
        <time>2021-02-25T08:57:13Z</time>
      </trkpt>
      <trkpt lat="44.93703" lon="5.14623">
        <ele>714</ele>
        <time>2021-02-25T08:57:18Z</time>
      </trkpt>
      <trkpt lat="44.93698" lon="5.14623">
        <ele>714</ele>
        <time>2021-02-25T08:57:22Z</time>
      </trkpt>
      <trkpt lat="44.93693" lon="5.14626">
        <ele>715</ele>
        <time>2021-02-25T08:57:27Z</time>
      </trkpt>
      <trkpt lat="44.9369" lon="5.14629">
        <ele>715</ele>
        <time>2021-02-25T08:57:31Z</time>
      </trkpt>
      <trkpt lat="44.93686" lon="5.14634">
        <ele>715</ele>
        <time>2021-02-25T08:57:36Z</time>
      </trkpt>
      <trkpt lat="44.93683" lon="5.14636">
        <ele>715</ele>
        <time>2021-02-25T08:57:41Z</time>
      </trkpt>
      <trkpt lat="44.93677" lon="5.14641">
        <ele>717</ele>
        <time>2021-02-25T08:57:45Z</time>
      </trkpt>
      <trkpt lat="44.93673" lon="5.14644">
        <ele>717</ele>
        <time>2021-02-25T08:57:50Z</time>
      </trkpt>
      <trkpt lat="44.93671" lon="5.14648">
        <ele>717</ele>
        <time>2021-02-25T08:57:55Z</time>
      </trkpt>
      <trkpt lat="44.9367" lon="5.1465">
        <ele>717</ele>
        <time>2021-02-25T08:57:59Z</time>
      </trkpt>
      <trkpt lat="44.93668" lon="5.14654">
        <ele>715</ele>
        <time>2021-02-25T08:58:04Z</time>
      </trkpt>
      <trkpt lat="44.93668" lon="5.14658">
        <ele>715</ele>
        <time>2021-02-25T08:58:08Z</time>
      </trkpt>
      <trkpt lat="44.93666" lon="5.14659">
        <ele>715</ele>
        <time>2021-02-25T08:58:13Z</time>
      </trkpt>
      <trkpt lat="44.93662" lon="5.14663">
        <ele>715</ele>
        <time>2021-02-25T08:58:18Z</time>
      </trkpt>
      <trkpt lat="44.93659" lon="5.14666">
        <ele>715</ele>
        <time>2021-02-25T08:58:23Z</time>
      </trkpt>
      <trkpt lat="44.93655" lon="5.14669">
        <ele>715</ele>
        <time>2021-02-25T08:58:28Z</time>
      </trkpt>
      <trkpt lat="44.93653" lon="5.14671">
        <ele>718</ele>
        <time>2021-02-25T08:58:32Z</time>
      </trkpt>
      <trkpt lat="44.9365" lon="5.14673">
        <ele>718</ele>
        <time>2021-02-25T08:58:37Z</time>
      </trkpt>
      <trkpt lat="44.93647" lon="5.14675">
        <ele>718</ele>
        <time>2021-02-25T08:58:42Z</time>
      </trkpt>
      <trkpt lat="44.93644" lon="5.14679">
        <ele>718</ele>
        <time>2021-02-25T08:58:46Z</time>
      </trkpt>
      <trkpt lat="44.93642" lon="5.14682">
        <ele>715</ele>
        <time>2021-02-25T08:58:51Z</time>
      </trkpt>
      <trkpt lat="44.9364" lon="5.14682">
        <ele>715</ele>
        <time>2021-02-25T08:58:56Z</time>
      </trkpt>
      <trkpt lat="44.93636" lon="5.14686">
        <ele>715</ele>
        <time>2021-02-25T08:59:00Z</time>
      </trkpt>
      <trkpt lat="44.93632" lon="5.14688">
        <ele>715</ele>
        <time>2021-02-25T08:59:05Z</time>
      </trkpt>
      <trkpt lat="44.93629" lon="5.14689">
        <ele>715</ele>
        <time>2021-02-25T08:59:09Z</time>
      </trkpt>
      <trkpt lat="44.93625" lon="5.14691">
        <ele>715</ele>
        <time>2021-02-25T08:59:14Z</time>
      </trkpt>
      <trkpt lat="44.93621" lon="5.14691">
        <ele>718</ele>
        <time>2021-02-25T08:59:19Z</time>
      </trkpt>
      <trkpt lat="44.93618" lon="5.14689">
        <ele>718</ele>
        <time>2021-02-25T08:59:24Z</time>
      </trkpt>
      <trkpt lat="44.93615" lon="5.14687">
        <ele>718</ele>
        <time>2021-02-25T08:59:29Z</time>
      </trkpt>
      <trkpt lat="44.93612" lon="5.14685">
        <ele>718</ele>
        <time>2021-02-25T08:59:33Z</time>
      </trkpt>
      <trkpt lat="44.9361" lon="5.14682">
        <ele>718</ele>
        <time>2021-02-25T08:59:38Z</time>
      </trkpt>
      <trkpt lat="44.93607" lon="5.1468">
        <ele>718</ele>
        <time>2021-02-25T08:59:42Z</time>
      </trkpt>
      <trkpt lat="44.93603" lon="5.1468">
        <ele>718</ele>
        <time>2021-02-25T08:59:47Z</time>
      </trkpt>
      <trkpt lat="44.936" lon="5.1468">
        <ele>718</ele>
        <time>2021-02-25T08:59:51Z</time>
      </trkpt>
      <trkpt lat="44.93595" lon="5.14678">
        <ele>717</ele>
        <time>2021-02-25T08:59:56Z</time>
      </trkpt>
      <trkpt lat="44.9359" lon="5.14674">
        <ele>717</ele>
        <time>2021-02-25T09:00:00Z</time>
      </trkpt>
      <trkpt lat="44.93585" lon="5.14672">
        <ele>717</ele>
        <time>2021-02-25T09:00:05Z</time>
      </trkpt>
      <trkpt lat="44.93581" lon="5.14672">
        <ele>717</ele>
        <time>2021-02-25T09:00:09Z</time>
      </trkpt>
      <trkpt lat="44.93576" lon="5.14671">
        <ele>717</ele>
        <time>2021-02-25T09:00:14Z</time>
      </trkpt>
      <trkpt lat="44.9357" lon="5.14669">
        <ele>717</ele>
        <time>2021-02-25T09:00:19Z</time>
      </trkpt>
      <trkpt lat="44.93564" lon="5.14666">
        <ele>714</ele>
        <time>2021-02-25T09:00:24Z</time>
      </trkpt>
      <trkpt lat="44.9356" lon="5.14668">
        <ele>714</ele>
        <time>2021-02-25T09:00:29Z</time>
      </trkpt>
      <trkpt lat="44.93555" lon="5.14667">
        <ele>714</ele>
        <time>2021-02-25T09:00:34Z</time>
      </trkpt>
      <trkpt lat="44.93551" lon="5.14668">
        <ele>714</ele>
        <time>2021-02-25T09:00:39Z</time>
      </trkpt>
      <trkpt lat="44.93548" lon="5.14668">
        <ele>714</ele>
        <time>2021-02-25T09:00:44Z</time>
      </trkpt>
      <trkpt lat="44.93542" lon="5.1467">
        <ele>714</ele>
        <time>2021-02-25T09:00:50Z</time>
      </trkpt>
      <trkpt lat="44.93536" lon="5.1467">
        <ele>710</ele>
        <time>2021-02-25T09:00:54Z</time>
      </trkpt>
      <trkpt lat="44.93531" lon="5.14668">
        <ele>710</ele>
        <time>2021-02-25T09:00:59Z</time>
      </trkpt>
      <trkpt lat="44.93527" lon="5.1467">
        <ele>710</ele>
        <time>2021-02-25T09:01:04Z</time>
      </trkpt>
      <trkpt lat="44.93522" lon="5.14672">
        <ele>710</ele>
        <time>2021-02-25T09:01:08Z</time>
      </trkpt>
      <trkpt lat="44.93517" lon="5.14669">
        <ele>710</ele>
        <time>2021-02-25T09:01:12Z</time>
      </trkpt>
      <trkpt lat="44.93512" lon="5.14665">
        <ele>705</ele>
        <time>2021-02-25T09:01:17Z</time>
      </trkpt>
      <trkpt lat="44.93507" lon="5.14662">
        <ele>705</ele>
        <time>2021-02-25T09:01:22Z</time>
      </trkpt>
      <trkpt lat="44.93501" lon="5.14658">
        <ele>705</ele>
        <time>2021-02-25T09:01:27Z</time>
      </trkpt>
      <trkpt lat="44.93496" lon="5.14654">
        <ele>705</ele>
        <time>2021-02-25T09:01:31Z</time>
      </trkpt>
      <trkpt lat="44.93491" lon="5.14649">
        <ele>703</ele>
        <time>2021-02-25T09:01:36Z</time>
      </trkpt>
      <trkpt lat="44.93486" lon="5.14645">
        <ele>703</ele>
        <time>2021-02-25T09:01:41Z</time>
      </trkpt>
      <trkpt lat="44.93481" lon="5.14641">
        <ele>703</ele>
        <time>2021-02-25T09:01:46Z</time>
      </trkpt>
      <trkpt lat="44.93476" lon="5.14639">
        <ele>703</ele>
        <time>2021-02-25T09:01:50Z</time>
      </trkpt>
      <trkpt lat="44.9347" lon="5.14638">
        <ele>703</ele>
        <time>2021-02-25T09:01:55Z</time>
      </trkpt>
      <trkpt lat="44.93465" lon="5.14638">
        <ele>703</ele>
        <time>2021-02-25T09:02:00Z</time>
      </trkpt>
      <trkpt lat="44.93461" lon="5.14638">
        <ele>703</ele>
        <time>2021-02-25T09:02:04Z</time>
      </trkpt>
      <trkpt lat="44.93457" lon="5.14637">
        <ele>707</ele>
        <time>2021-02-25T09:02:08Z</time>
      </trkpt>
      <trkpt lat="44.93453" lon="5.14637">
        <ele>707</ele>
        <time>2021-02-25T09:02:12Z</time>
      </trkpt>
      <trkpt lat="44.93448" lon="5.14638">
        <ele>707</ele>
        <time>2021-02-25T09:02:17Z</time>
      </trkpt>
      <trkpt lat="44.93445" lon="5.14641">
        <ele>707</ele>
        <time>2021-02-25T09:02:22Z</time>
      </trkpt>
      <trkpt lat="44.93441" lon="5.14642">
        <ele>707</ele>
        <time>2021-02-25T09:02:26Z</time>
      </trkpt>
      <trkpt lat="44.93439" lon="5.14642">
        <ele>707</ele>
        <time>2021-02-25T09:02:31Z</time>
      </trkpt>
      <trkpt lat="44.93442" lon="5.14642">
        <ele>707</ele>
        <time>2021-02-25T09:03:00Z</time>
      </trkpt>
      <trkpt lat="44.93443" lon="5.14646">
        <ele>707</ele>
        <time>2021-02-25T09:03:05Z</time>
      </trkpt>
      <trkpt lat="44.93442" lon="5.1465">
        <ele>707</ele>
        <time>2021-02-25T09:03:09Z</time>
      </trkpt>
      <trkpt lat="44.9344" lon="5.14653">
        <ele>709</ele>
        <time>2021-02-25T09:03:14Z</time>
      </trkpt>
      <trkpt lat="44.93436" lon="5.14654">
        <ele>709</ele>
        <time>2021-02-25T09:03:19Z</time>
      </trkpt>
      <trkpt lat="44.93433" lon="5.14655">
        <ele>709</ele>
        <time>2021-02-25T09:03:24Z</time>
      </trkpt>
      <trkpt lat="44.9343" lon="5.14655">
        <ele>710</ele>
        <time>2021-02-25T09:03:29Z</time>
      </trkpt>
      <trkpt lat="44.93427" lon="5.14657">
        <ele>710</ele>
        <time>2021-02-25T09:03:34Z</time>
      </trkpt>
      <trkpt lat="44.93422" lon="5.14658">
        <ele>710</ele>
        <time>2021-02-25T09:03:39Z</time>
      </trkpt>
      <trkpt lat="44.93418" lon="5.1466">
        <ele>710</ele>
        <time>2021-02-25T09:03:44Z</time>
      </trkpt>
      <trkpt lat="44.93414" lon="5.14662">
        <ele>710</ele>
        <time>2021-02-25T09:03:50Z</time>
      </trkpt>
      <trkpt lat="44.9341" lon="5.14664">
        <ele>710</ele>
        <time>2021-02-25T09:03:55Z</time>
      </trkpt>
      <trkpt lat="44.93406" lon="5.14665">
        <ele>710</ele>
        <time>2021-02-25T09:04:00Z</time>
      </trkpt>
      <trkpt lat="44.93403" lon="5.14666">
        <ele>710</ele>
        <time>2021-02-25T09:04:05Z</time>
      </trkpt>
      <trkpt lat="44.93398" lon="5.14668">
        <ele>711</ele>
        <time>2021-02-25T09:04:09Z</time>
      </trkpt>
      <trkpt lat="44.93395" lon="5.14669">
        <ele>711</ele>
        <time>2021-02-25T09:04:14Z</time>
      </trkpt>
      <trkpt lat="44.93392" lon="5.14672">
        <ele>711</ele>
        <time>2021-02-25T09:04:20Z</time>
      </trkpt>
      <trkpt lat="44.93389" lon="5.14676">
        <ele>711</ele>
        <time>2021-02-25T09:04:25Z</time>
      </trkpt>
      <trkpt lat="44.93387" lon="5.1468">
        <ele>711</ele>
        <time>2021-02-25T09:04:30Z</time>
      </trkpt>
      <trkpt lat="44.93385" lon="5.14682">
        <ele>718</ele>
        <time>2021-02-25T09:04:34Z</time>
      </trkpt>
      <trkpt lat="44.93382" lon="5.14685">
        <ele>718</ele>
        <time>2021-02-25T09:04:39Z</time>
      </trkpt>
      <trkpt lat="44.93378" lon="5.14687">
        <ele>718</ele>
        <time>2021-02-25T09:04:43Z</time>
      </trkpt>
      <trkpt lat="44.93375" lon="5.14687">
        <ele>718</ele>
        <time>2021-02-25T09:04:48Z</time>
      </trkpt>
      <trkpt lat="44.93373" lon="5.14689">
        <ele>724</ele>
        <time>2021-02-25T09:04:52Z</time>
      </trkpt>
      <trkpt lat="44.93371" lon="5.14695">
        <ele>724</ele>
        <time>2021-02-25T09:04:57Z</time>
      </trkpt>
      <trkpt lat="44.93372" lon="5.14698">
        <ele>724</ele>
        <time>2021-02-25T09:05:01Z</time>
      </trkpt>
      <trkpt lat="44.9337" lon="5.14705">
        <ele>724</ele>
        <time>2021-02-25T09:05:11Z</time>
      </trkpt>
      <trkpt lat="44.93369" lon="5.14706">
        <ele>724</ele>
        <time>2021-02-25T09:05:15Z</time>
      </trkpt>
      <trkpt lat="44.93368" lon="5.14709">
        <ele>730</ele>
        <time>2021-02-25T09:05:20Z</time>
      </trkpt>
      <trkpt lat="44.93366" lon="5.14712">
        <ele>730</ele>
        <time>2021-02-25T09:05:24Z</time>
      </trkpt>
      <trkpt lat="44.93365" lon="5.14715">
        <ele>730</ele>
        <time>2021-02-25T09:05:29Z</time>
      </trkpt>
      <trkpt lat="44.93365" lon="5.14717">
        <ele>730</ele>
        <time>2021-02-25T09:05:33Z</time>
      </trkpt>
      <trkpt lat="44.93364" lon="5.14718">
        <ele>730</ele>
        <time>2021-02-25T09:05:38Z</time>
      </trkpt>
      <trkpt lat="44.93363" lon="5.14726">
        <ele>730</ele>
        <time>2021-02-25T09:05:47Z</time>
      </trkpt>
      <trkpt lat="44.93361" lon="5.1473">
        <ele>730</ele>
        <time>2021-02-25T09:05:52Z</time>
      </trkpt>
      <trkpt lat="44.93359" lon="5.14738">
        <ele>736</ele>
        <time>2021-02-25T09:06:01Z</time>
      </trkpt>
      <trkpt lat="44.93359" lon="5.14738">
        <ele>736</ele>
        <time>2021-02-25T09:06:06Z</time>
      </trkpt>
      <trkpt lat="44.93358" lon="5.14743">
        <ele>736</ele>
        <time>2021-02-25T09:06:10Z</time>
      </trkpt>
      <trkpt lat="44.93357" lon="5.14746">
        <ele>736</ele>
        <time>2021-02-25T09:06:15Z</time>
      </trkpt>
      <trkpt lat="44.93356" lon="5.1475">
        <ele>736</ele>
        <time>2021-02-25T09:06:20Z</time>
      </trkpt>
      <trkpt lat="44.93354" lon="5.14754">
        <ele>736</ele>
        <time>2021-02-25T09:06:25Z</time>
      </trkpt>
      <trkpt lat="44.93353" lon="5.14757">
        <ele>736</ele>
        <time>2021-02-25T09:06:29Z</time>
      </trkpt>
      <trkpt lat="44.93351" lon="5.14762">
        <ele>736</ele>
        <time>2021-02-25T09:06:34Z</time>
      </trkpt>
      <trkpt lat="44.9335" lon="5.14765">
        <ele>740</ele>
        <time>2021-02-25T09:06:39Z</time>
      </trkpt>
      <trkpt lat="44.93351" lon="5.1477">
        <ele>740</ele>
        <time>2021-02-25T09:06:44Z</time>
      </trkpt>
      <trkpt lat="44.9335" lon="5.14773">
        <ele>740</ele>
        <time>2021-02-25T09:06:48Z</time>
      </trkpt>
      <trkpt lat="44.93348" lon="5.14778">
        <ele>740</ele>
        <time>2021-02-25T09:06:53Z</time>
      </trkpt>
      <trkpt lat="44.93348" lon="5.14784">
        <ele>740</ele>
        <time>2021-02-25T09:06:57Z</time>
      </trkpt>
      <trkpt lat="44.93348" lon="5.14785">
        <ele>740</ele>
        <time>2021-02-25T09:07:02Z</time>
      </trkpt>
      <trkpt lat="44.93346" lon="5.14791">
        <ele>745</ele>
        <time>2021-02-25T09:07:06Z</time>
      </trkpt>
      <trkpt lat="44.93345" lon="5.14796">
        <ele>746</ele>
        <time>2021-02-25T09:07:12Z</time>
      </trkpt>
      <trkpt lat="44.93344" lon="5.14799">
        <ele>746</ele>
        <time>2021-02-25T09:07:16Z</time>
      </trkpt>
      <trkpt lat="44.93345" lon="5.14801">
        <ele>746</ele>
        <time>2021-02-25T09:07:21Z</time>
      </trkpt>
      <trkpt lat="44.93343" lon="5.14806">
        <ele>746</ele>
        <time>2021-02-25T09:07:25Z</time>
      </trkpt>
      <trkpt lat="44.93341" lon="5.1481">
        <ele>746</ele>
        <time>2021-02-25T09:07:30Z</time>
      </trkpt>
      <trkpt lat="44.9334" lon="5.14813">
        <ele>746</ele>
        <time>2021-02-25T09:07:34Z</time>
      </trkpt>
      <trkpt lat="44.93338" lon="5.14816">
        <ele>746</ele>
        <time>2021-02-25T09:07:38Z</time>
      </trkpt>
      <trkpt lat="44.93336" lon="5.14819">
        <ele>746</ele>
        <time>2021-02-25T09:07:43Z</time>
      </trkpt>
      <trkpt lat="44.93334" lon="5.14823">
        <ele>747</ele>
        <time>2021-02-25T09:07:48Z</time>
      </trkpt>
      <trkpt lat="44.93332" lon="5.14825">
        <ele>747</ele>
        <time>2021-02-25T09:07:52Z</time>
      </trkpt>
      <trkpt lat="44.93329" lon="5.14829">
        <ele>747</ele>
        <time>2021-02-25T09:08:01Z</time>
      </trkpt>
      <trkpt lat="44.93325" lon="5.14833">
        <ele>747</ele>
        <time>2021-02-25T09:08:06Z</time>
      </trkpt>
      <trkpt lat="44.93325" lon="5.14834">
        <ele>747</ele>
        <time>2021-02-25T09:08:10Z</time>
      </trkpt>
      <trkpt lat="44.93324" lon="5.14835">
        <ele>747</ele>
        <time>2021-02-25T09:08:18Z</time>
      </trkpt>
      <trkpt lat="44.9332" lon="5.14837">
        <ele>747</ele>
        <time>2021-02-25T09:08:24Z</time>
      </trkpt>
      <trkpt lat="44.93317" lon="5.1484">
        <ele>749</ele>
        <time>2021-02-25T09:08:29Z</time>
      </trkpt>
      <trkpt lat="44.93315" lon="5.1484">
        <ele>749</ele>
        <time>2021-02-25T09:08:34Z</time>
      </trkpt>
      <trkpt lat="44.9331" lon="5.14842">
        <ele>749</ele>
        <time>2021-02-25T09:08:39Z</time>
      </trkpt>
      <trkpt lat="44.93305" lon="5.14843">
        <ele>749</ele>
        <time>2021-02-25T09:08:44Z</time>
      </trkpt>
      <trkpt lat="44.93303" lon="5.14844">
        <ele>749</ele>
        <time>2021-02-25T09:08:48Z</time>
      </trkpt>
      <trkpt lat="44.93297" lon="5.14842">
        <ele>749</ele>
        <time>2021-02-25T09:08:53Z</time>
      </trkpt>
      <trkpt lat="44.93293" lon="5.1484">
        <ele>749</ele>
        <time>2021-02-25T09:08:58Z</time>
      </trkpt>
      <trkpt lat="44.93289" lon="5.14838">
        <ele>748</ele>
        <time>2021-02-25T09:09:03Z</time>
      </trkpt>
      <trkpt lat="44.93284" lon="5.14837">
        <ele>748</ele>
        <time>2021-02-25T09:09:08Z</time>
      </trkpt>
      <trkpt lat="44.93278" lon="5.14834">
        <ele>748</ele>
        <time>2021-02-25T09:09:13Z</time>
      </trkpt>
      <trkpt lat="44.93272" lon="5.14832">
        <ele>748</ele>
        <time>2021-02-25T09:09:18Z</time>
      </trkpt>
      <trkpt lat="44.93268" lon="5.14829">
        <ele>748</ele>
        <time>2021-02-25T09:09:23Z</time>
      </trkpt>
      <trkpt lat="44.93263" lon="5.14827">
        <ele>748</ele>
        <time>2021-02-25T09:09:28Z</time>
      </trkpt>
      <trkpt lat="44.93259" lon="5.14823">
        <ele>748</ele>
        <time>2021-02-25T09:09:33Z</time>
      </trkpt>
      <trkpt lat="44.93254" lon="5.14822">
        <ele>748</ele>
        <time>2021-02-25T09:09:38Z</time>
      </trkpt>
      <trkpt lat="44.93249" lon="5.14821">
        <ele>748</ele>
        <time>2021-02-25T09:09:43Z</time>
      </trkpt>
      <trkpt lat="44.93245" lon="5.14821">
        <ele>748</ele>
        <time>2021-02-25T09:09:48Z</time>
      </trkpt>
      <trkpt lat="44.9324" lon="5.14821">
        <ele>748</ele>
        <time>2021-02-25T09:09:52Z</time>
      </trkpt>
      <trkpt lat="44.93235" lon="5.14822">
        <ele>752</ele>
        <time>2021-02-25T09:09:57Z</time>
      </trkpt>
      <trkpt lat="44.9323" lon="5.14821">
        <ele>752</ele>
        <time>2021-02-25T09:10:02Z</time>
      </trkpt>
      <trkpt lat="44.93227" lon="5.14821">
        <ele>752</ele>
        <time>2021-02-25T09:10:06Z</time>
      </trkpt>
      <trkpt lat="44.93222" lon="5.1482">
        <ele>752</ele>
        <time>2021-02-25T09:10:11Z</time>
      </trkpt>
      <trkpt lat="44.9322" lon="5.1482">
        <ele>752</ele>
        <time>2021-02-25T09:10:16Z</time>
      </trkpt>
      <trkpt lat="44.93215" lon="5.14821">
        <ele>752</ele>
        <time>2021-02-25T09:10:20Z</time>
      </trkpt>
      <trkpt lat="44.93209" lon="5.14824">
        <ele>752</ele>
        <time>2021-02-25T09:10:25Z</time>
      </trkpt>
      <trkpt lat="44.93205" lon="5.14824">
        <ele>753</ele>
        <time>2021-02-25T09:10:29Z</time>
      </trkpt>
      <trkpt lat="44.93202" lon="5.14825">
        <ele>753</ele>
        <time>2021-02-25T09:10:33Z</time>
      </trkpt>
      <trkpt lat="44.93197" lon="5.14827">
        <ele>753</ele>
        <time>2021-02-25T09:10:38Z</time>
      </trkpt>
      <trkpt lat="44.93193" lon="5.14828">
        <ele>753</ele>
        <time>2021-02-25T09:10:42Z</time>
      </trkpt>
      <trkpt lat="44.93188" lon="5.1483">
        <ele>753</ele>
        <time>2021-02-25T09:10:47Z</time>
      </trkpt>
      <trkpt lat="44.93182" lon="5.14831">
        <ele>753</ele>
        <time>2021-02-25T09:10:52Z</time>
      </trkpt>
      <trkpt lat="44.93178" lon="5.14829">
        <ele>753</ele>
        <time>2021-02-25T09:10:56Z</time>
      </trkpt>
      <trkpt lat="44.93173" lon="5.14828">
        <ele>753</ele>
        <time>2021-02-25T09:11:01Z</time>
      </trkpt>
      <trkpt lat="44.93169" lon="5.1483">
        <ele>753</ele>
        <time>2021-02-25T09:11:05Z</time>
      </trkpt>
      <trkpt lat="44.93164" lon="5.14834">
        <ele>753</ele>
        <time>2021-02-25T09:11:10Z</time>
      </trkpt>
      <trkpt lat="44.9316" lon="5.14836">
        <ele>753</ele>
        <time>2021-02-25T09:11:15Z</time>
      </trkpt>
      <trkpt lat="44.93155" lon="5.1484">
        <ele>753</ele>
        <time>2021-02-25T09:11:20Z</time>
      </trkpt>
      <trkpt lat="44.93151" lon="5.14843">
        <ele>753</ele>
        <time>2021-02-25T09:11:25Z</time>
      </trkpt>
      <trkpt lat="44.93147" lon="5.14847">
        <ele>753</ele>
        <time>2021-02-25T09:11:29Z</time>
      </trkpt>
      <trkpt lat="44.93142" lon="5.1485">
        <ele>755</ele>
        <time>2021-02-25T09:11:34Z</time>
      </trkpt>
      <trkpt lat="44.93138" lon="5.14854">
        <ele>755</ele>
        <time>2021-02-25T09:11:39Z</time>
      </trkpt>
      <trkpt lat="44.93134" lon="5.14854">
        <ele>755</ele>
        <time>2021-02-25T09:11:43Z</time>
      </trkpt>
      <trkpt lat="44.9313" lon="5.14853">
        <ele>755</ele>
        <time>2021-02-25T09:11:48Z</time>
      </trkpt>
      <trkpt lat="44.93126" lon="5.14852">
        <ele>755</ele>
        <time>2021-02-25T09:11:53Z</time>
      </trkpt>
      <trkpt lat="44.93125" lon="5.14852">
        <ele>755</ele>
        <time>2021-02-25T09:11:58Z</time>
      </trkpt>
      <trkpt lat="44.93124" lon="5.14851">
        <ele>751</ele>
        <time>2021-02-25T09:12:18Z</time>
      </trkpt>
      <trkpt lat="44.93123" lon="5.14846">
        <ele>745</ele>
        <time>2021-02-25T09:12:23Z</time>
      </trkpt>
      <trkpt lat="44.93123" lon="5.1484">
        <ele>745</ele>
        <time>2021-02-25T09:12:28Z</time>
      </trkpt>
      <trkpt lat="44.9312" lon="5.14835">
        <ele>745</ele>
        <time>2021-02-25T09:12:33Z</time>
      </trkpt>
      <trkpt lat="44.93117" lon="5.14832">
        <ele>745</ele>
        <time>2021-02-25T09:12:38Z</time>
      </trkpt>
      <trkpt lat="44.93114" lon="5.14835">
        <ele>745</ele>
        <time>2021-02-25T09:12:42Z</time>
      </trkpt>
      <trkpt lat="44.9311" lon="5.14838">
        <ele>745</ele>
        <time>2021-02-25T09:12:46Z</time>
      </trkpt>
      <trkpt lat="44.93107" lon="5.14843">
        <ele>745</ele>
        <time>2021-02-25T09:12:50Z</time>
      </trkpt>
      <trkpt lat="44.93105" lon="5.14846">
        <ele>745</ele>
        <time>2021-02-25T09:12:55Z</time>
      </trkpt>
      <trkpt lat="44.93102" lon="5.14851">
        <ele>751</ele>
        <time>2021-02-25T09:12:59Z</time>
      </trkpt>
      <trkpt lat="44.931" lon="5.14855">
        <ele>751</ele>
        <time>2021-02-25T09:13:04Z</time>
      </trkpt>
      <trkpt lat="44.93095" lon="5.1486">
        <ele>743</ele>
        <time>2021-02-25T09:13:09Z</time>
      </trkpt>
      <trkpt lat="44.93092" lon="5.14864">
        <ele>743</ele>
        <time>2021-02-25T09:13:14Z</time>
      </trkpt>
      <trkpt lat="44.93088" lon="5.14867">
        <ele>743</ele>
        <time>2021-02-25T09:13:19Z</time>
      </trkpt>
      <trkpt lat="44.93084" lon="5.14873">
        <ele>743</ele>
        <time>2021-02-25T09:13:24Z</time>
      </trkpt>
      <trkpt lat="44.93081" lon="5.14877">
        <ele>748</ele>
        <time>2021-02-25T09:13:28Z</time>
      </trkpt>
      <trkpt lat="44.93076" lon="5.14883">
        <ele>748</ele>
        <time>2021-02-25T09:13:33Z</time>
      </trkpt>
      <trkpt lat="44.93072" lon="5.14888">
        <ele>748</ele>
        <time>2021-02-25T09:13:38Z</time>
      </trkpt>
      <trkpt lat="44.93069" lon="5.14892">
        <ele>743</ele>
        <time>2021-02-25T09:13:43Z</time>
      </trkpt>
      <trkpt lat="44.93066" lon="5.14896">
        <ele>743</ele>
        <time>2021-02-25T09:13:48Z</time>
      </trkpt>
      <trkpt lat="44.93056" lon="5.1491">
        <ele>746</ele>
        <time>2021-02-25T09:14:08Z</time>
      </trkpt>
      <trkpt lat="44.93054" lon="5.14915">
        <ele>746</ele>
        <time>2021-02-25T09:14:12Z</time>
      </trkpt>
      <trkpt lat="44.93051" lon="5.14921">
        <ele>746</ele>
        <time>2021-02-25T09:14:17Z</time>
      </trkpt>
      <trkpt lat="44.93048" lon="5.14926">
        <ele>746</ele>
        <time>2021-02-25T09:14:21Z</time>
      </trkpt>
      <trkpt lat="44.93045" lon="5.14933">
        <ele>748</ele>
        <time>2021-02-25T09:14:26Z</time>
      </trkpt>
      <trkpt lat="44.93041" lon="5.14938">
        <ele>744</ele>
        <time>2021-02-25T09:14:31Z</time>
      </trkpt>
      <trkpt lat="44.93037" lon="5.14942">
        <ele>744</ele>
        <time>2021-02-25T09:14:36Z</time>
      </trkpt>
      <trkpt lat="44.93034" lon="5.14946">
        <ele>744</ele>
        <time>2021-02-25T09:14:40Z</time>
      </trkpt>
      <trkpt lat="44.93031" lon="5.14949">
        <ele>744</ele>
        <time>2021-02-25T09:14:44Z</time>
      </trkpt>
      <trkpt lat="44.93028" lon="5.14953">
        <ele>744</ele>
        <time>2021-02-25T09:14:48Z</time>
      </trkpt>
      <trkpt lat="44.93024" lon="5.14958">
        <ele>744</ele>
        <time>2021-02-25T09:14:53Z</time>
      </trkpt>
      <trkpt lat="44.9302" lon="5.14962">
        <ele>745</ele>
        <time>2021-02-25T09:14:58Z</time>
      </trkpt>
      <trkpt lat="44.93016" lon="5.14966">
        <ele>745</ele>
        <time>2021-02-25T09:15:03Z</time>
      </trkpt>
      <trkpt lat="44.93013" lon="5.14972">
        <ele>741</ele>
        <time>2021-02-25T09:15:08Z</time>
      </trkpt>
      <trkpt lat="44.93009" lon="5.14976">
        <ele>741</ele>
        <time>2021-02-25T09:15:13Z</time>
      </trkpt>
      <trkpt lat="44.93005" lon="5.14982">
        <ele>741</ele>
        <time>2021-02-25T09:15:18Z</time>
      </trkpt>
      <trkpt lat="44.93001" lon="5.14987">
        <ele>741</ele>
        <time>2021-02-25T09:15:22Z</time>
      </trkpt>
      <trkpt lat="44.92997" lon="5.1499">
        <ele>741</ele>
        <time>2021-02-25T09:15:26Z</time>
      </trkpt>
      <trkpt lat="44.92994" lon="5.14995">
        <ele>741</ele>
        <time>2021-02-25T09:15:31Z</time>
      </trkpt>
      <trkpt lat="44.9299" lon="5.15">
        <ele>741</ele>
        <time>2021-02-25T09:15:35Z</time>
      </trkpt>
      <trkpt lat="44.92986" lon="5.15004">
        <ele>737</ele>
        <time>2021-02-25T09:15:40Z</time>
      </trkpt>
      <trkpt lat="44.92979" lon="5.15014">
        <ele>739</ele>
        <time>2021-02-25T09:16:00Z</time>
      </trkpt>
      <trkpt lat="44.92977" lon="5.15017">
        <ele>739</ele>
        <time>2021-02-25T09:16:19Z</time>
      </trkpt>
      <trkpt lat="44.92976" lon="5.15018">
        <ele>739</ele>
        <time>2021-02-25T09:16:23Z</time>
      </trkpt>
      <trkpt lat="44.92974" lon="5.15018">
        <ele>739</ele>
        <time>2021-02-25T09:16:32Z</time>
      </trkpt>
      <trkpt lat="44.92971" lon="5.15022">
        <ele>739</ele>
        <time>2021-02-25T09:16:37Z</time>
      </trkpt>
      <trkpt lat="44.92967" lon="5.15026">
        <ele>739</ele>
        <time>2021-02-25T09:16:42Z</time>
      </trkpt>
      <trkpt lat="44.92963" lon="5.1503">
        <ele>739</ele>
        <time>2021-02-25T09:16:47Z</time>
      </trkpt>
      <trkpt lat="44.92959" lon="5.15033">
        <ele>739</ele>
        <time>2021-02-25T09:16:51Z</time>
      </trkpt>
      <trkpt lat="44.92956" lon="5.15038">
        <ele>738</ele>
        <time>2021-02-25T09:16:56Z</time>
      </trkpt>
      <trkpt lat="44.92951" lon="5.15043">
        <ele>744</ele>
        <time>2021-02-25T09:17:01Z</time>
      </trkpt>
      <trkpt lat="44.92946" lon="5.15047">
        <ele>744</ele>
        <time>2021-02-25T09:17:06Z</time>
      </trkpt>
      <trkpt lat="44.92944" lon="5.1505">
        <ele>744</ele>
        <time>2021-02-25T09:17:10Z</time>
      </trkpt>
      <trkpt lat="44.92943" lon="5.1505">
        <ele>744</ele>
        <time>2021-02-25T09:17:15Z</time>
      </trkpt>
      <trkpt lat="44.9294" lon="5.15054">
        <ele>744</ele>
        <time>2021-02-25T09:17:25Z</time>
      </trkpt>
      <trkpt lat="44.92936" lon="5.15057">
        <ele>744</ele>
        <time>2021-02-25T09:17:30Z</time>
      </trkpt>
      <trkpt lat="44.92934" lon="5.15058">
        <ele>744</ele>
        <time>2021-02-25T09:17:36Z</time>
      </trkpt>
      <trkpt lat="44.9293" lon="5.15062">
        <ele>746</ele>
        <time>2021-02-25T09:17:41Z</time>
      </trkpt>
      <trkpt lat="44.92927" lon="5.15064">
        <ele>746</ele>
        <time>2021-02-25T09:17:46Z</time>
      </trkpt>
      <trkpt lat="44.92923" lon="5.15066">
        <ele>746</ele>
        <time>2021-02-25T09:17:51Z</time>
      </trkpt>
      <trkpt lat="44.92921" lon="5.15069">
        <ele>746</ele>
        <time>2021-02-25T09:17:55Z</time>
      </trkpt>
      <trkpt lat="44.92918" lon="5.15072">
        <ele>752</ele>
        <time>2021-02-25T09:18:00Z</time>
      </trkpt>
      <trkpt lat="44.92914" lon="5.15074">
        <ele>752</ele>
        <time>2021-02-25T09:18:05Z</time>
      </trkpt>
      <trkpt lat="44.92911" lon="5.15076">
        <ele>752</ele>
        <time>2021-02-25T09:18:10Z</time>
      </trkpt>
      <trkpt lat="44.92908" lon="5.15078">
        <ele>752</ele>
        <time>2021-02-25T09:18:15Z</time>
      </trkpt>
      <trkpt lat="44.92905" lon="5.15082">
        <ele>752</ele>
        <time>2021-02-25T09:18:20Z</time>
      </trkpt>
      <trkpt lat="44.92903" lon="5.15085">
        <ele>750</ele>
        <time>2021-02-25T09:18:25Z</time>
      </trkpt>
      <trkpt lat="44.929" lon="5.15088">
        <ele>750</ele>
        <time>2021-02-25T09:18:30Z</time>
      </trkpt>
      <trkpt lat="44.92896" lon="5.15091">
        <ele>750</ele>
        <time>2021-02-25T09:18:35Z</time>
      </trkpt>
      <trkpt lat="44.92893" lon="5.15093">
        <ele>750</ele>
        <time>2021-02-25T09:18:40Z</time>
      </trkpt>
      <trkpt lat="44.92891" lon="5.15096">
        <ele>750</ele>
        <time>2021-02-25T09:18:45Z</time>
      </trkpt>
      <trkpt lat="44.92889" lon="5.15098">
        <ele>755</ele>
        <time>2021-02-25T09:18:50Z</time>
      </trkpt>
      <trkpt lat="44.92886" lon="5.15102">
        <ele>755</ele>
        <time>2021-02-25T09:18:55Z</time>
      </trkpt>
      <trkpt lat="44.92882" lon="5.15106">
        <ele>755</ele>
        <time>2021-02-25T09:19:00Z</time>
      </trkpt>
      <trkpt lat="44.92879" lon="5.15109">
        <ele>755</ele>
        <time>2021-02-25T09:19:04Z</time>
      </trkpt>
      <trkpt lat="44.92877" lon="5.15112">
        <ele>755</ele>
        <time>2021-02-25T09:19:09Z</time>
      </trkpt>
      <trkpt lat="44.92876" lon="5.15113">
        <ele>755</ele>
        <time>2021-02-25T09:19:13Z</time>
      </trkpt>
      <trkpt lat="44.92873" lon="5.15118">
        <ele>756</ele>
        <time>2021-02-25T09:19:18Z</time>
      </trkpt>
      <trkpt lat="44.92871" lon="5.15122">
        <ele>756</ele>
        <time>2021-02-25T09:19:23Z</time>
      </trkpt>
      <trkpt lat="44.92871" lon="5.15123">
        <ele>756</ele>
        <time>2021-02-25T09:19:28Z</time>
      </trkpt>
      <trkpt lat="44.92867" lon="5.15129">
        <ele>760</ele>
        <time>2021-02-25T09:19:33Z</time>
      </trkpt>
      <trkpt lat="44.92866" lon="5.15134">
        <ele>760</ele>
        <time>2021-02-25T09:19:37Z</time>
      </trkpt>
      <trkpt lat="44.92864" lon="5.15138">
        <ele>760</ele>
        <time>2021-02-25T09:19:42Z</time>
      </trkpt>
      <trkpt lat="44.92861" lon="5.15141">
        <ele>760</ele>
        <time>2021-02-25T09:19:47Z</time>
      </trkpt>
      <trkpt lat="44.92859" lon="5.15143">
        <ele>760</ele>
        <time>2021-02-25T09:19:52Z</time>
      </trkpt>
      <trkpt lat="44.92858" lon="5.15145">
        <ele>760</ele>
        <time>2021-02-25T09:19:57Z</time>
      </trkpt>
      <trkpt lat="44.92854" lon="5.1515">
        <ele>760</ele>
        <time>2021-02-25T09:20:02Z</time>
      </trkpt>
      <trkpt lat="44.92852" lon="5.15154">
        <ele>762</ele>
        <time>2021-02-25T09:20:07Z</time>
      </trkpt>
      <trkpt lat="44.92849" lon="5.15158">
        <ele>762</ele>
        <time>2021-02-25T09:20:11Z</time>
      </trkpt>
      <trkpt lat="44.92846" lon="5.15162">
        <ele>766</ele>
        <time>2021-02-25T09:20:16Z</time>
      </trkpt>
      <trkpt lat="44.92844" lon="5.15164">
        <ele>766</ele>
        <time>2021-02-25T09:20:20Z</time>
      </trkpt>
      <trkpt lat="44.92842" lon="5.15167">
        <ele>766</ele>
        <time>2021-02-25T09:20:25Z</time>
      </trkpt>
      <trkpt lat="44.92838" lon="5.15172">
        <ele>766</ele>
        <time>2021-02-25T09:20:30Z</time>
      </trkpt>
      <trkpt lat="44.92836" lon="5.15173">
        <ele>766</ele>
        <time>2021-02-25T09:20:35Z</time>
      </trkpt>
      <trkpt lat="44.92832" lon="5.15177">
        <ele>766</ele>
        <time>2021-02-25T09:20:40Z</time>
      </trkpt>
      <trkpt lat="44.92829" lon="5.15181">
        <ele>769</ele>
        <time>2021-02-25T09:20:44Z</time>
      </trkpt>
      <trkpt lat="44.92826" lon="5.15185">
        <ele>769</ele>
        <time>2021-02-25T09:20:50Z</time>
      </trkpt>
      <trkpt lat="44.92823" lon="5.15189">
        <ele>769</ele>
        <time>2021-02-25T09:20:54Z</time>
      </trkpt>
      <trkpt lat="44.92821" lon="5.15194">
        <ele>769</ele>
        <time>2021-02-25T09:21:00Z</time>
      </trkpt>
      <trkpt lat="44.9282" lon="5.15196">
        <ele>769</ele>
        <time>2021-02-25T09:21:04Z</time>
      </trkpt>
      <trkpt lat="44.92817" lon="5.15201">
        <ele>771</ele>
        <time>2021-02-25T09:21:09Z</time>
      </trkpt>
      <trkpt lat="44.92814" lon="5.15205">
        <ele>771</ele>
        <time>2021-02-25T09:21:14Z</time>
      </trkpt>
      <trkpt lat="44.92812" lon="5.15207">
        <ele>771</ele>
        <time>2021-02-25T09:21:18Z</time>
      </trkpt>
      <trkpt lat="44.92809" lon="5.15211">
        <ele>774</ele>
        <time>2021-02-25T09:21:23Z</time>
      </trkpt>
      <trkpt lat="44.92807" lon="5.15214">
        <ele>774</ele>
        <time>2021-02-25T09:21:27Z</time>
      </trkpt>
      <trkpt lat="44.92803" lon="5.15218">
        <ele>774</ele>
        <time>2021-02-25T09:21:32Z</time>
      </trkpt>
      <trkpt lat="44.928" lon="5.15221">
        <ele>774</ele>
        <time>2021-02-25T09:21:37Z</time>
      </trkpt>
      <trkpt lat="44.92797" lon="5.15227">
        <ele>774</ele>
        <time>2021-02-25T09:21:42Z</time>
      </trkpt>
      <trkpt lat="44.92794" lon="5.15231">
        <ele>774</ele>
        <time>2021-02-25T09:21:46Z</time>
      </trkpt>
      <trkpt lat="44.92793" lon="5.15233">
        <ele>774</ele>
        <time>2021-02-25T09:21:51Z</time>
      </trkpt>
      <trkpt lat="44.92789" lon="5.15239">
        <ele>777</ele>
        <time>2021-02-25T09:21:56Z</time>
      </trkpt>
      <trkpt lat="44.92787" lon="5.15242">
        <ele>777</ele>
        <time>2021-02-25T09:22:01Z</time>
      </trkpt>
      <trkpt lat="44.92785" lon="5.15245">
        <ele>777</ele>
        <time>2021-02-25T09:22:05Z</time>
      </trkpt>
      <trkpt lat="44.9278" lon="5.15249">
        <ele>777</ele>
        <time>2021-02-25T09:22:10Z</time>
      </trkpt>
      <trkpt lat="44.92778" lon="5.15252">
        <ele>777</ele>
        <time>2021-02-25T09:22:15Z</time>
      </trkpt>
      <trkpt lat="44.92773" lon="5.15257">
        <ele>777</ele>
        <time>2021-02-25T09:22:25Z</time>
      </trkpt>
      <trkpt lat="44.92771" lon="5.15259">
        <ele>777</ele>
        <time>2021-02-25T09:22:29Z</time>
      </trkpt>
      <trkpt lat="44.92769" lon="5.15261">
        <ele>777</ele>
        <time>2021-02-25T09:22:34Z</time>
      </trkpt>
      <trkpt lat="44.92768" lon="5.15261">
        <ele>777</ele>
        <time>2021-02-25T09:22:39Z</time>
      </trkpt>
      <trkpt lat="44.92765" lon="5.15262">
        <ele>777</ele>
        <time>2021-02-25T09:22:43Z</time>
      </trkpt>
      <trkpt lat="44.92764" lon="5.15263">
        <ele>781</ele>
        <time>2021-02-25T09:22:48Z</time>
      </trkpt>
      <trkpt lat="44.92761" lon="5.15264">
        <ele>781</ele>
        <time>2021-02-25T09:22:52Z</time>
      </trkpt>
      <trkpt lat="44.92759" lon="5.15265">
        <ele>788</ele>
        <time>2021-02-25T09:22:56Z</time>
      </trkpt>
      <trkpt lat="44.92755" lon="5.15266">
        <ele>788</ele>
        <time>2021-02-25T09:23:01Z</time>
      </trkpt>
      <trkpt lat="44.92751" lon="5.15268">
        <ele>788</ele>
        <time>2021-02-25T09:23:05Z</time>
      </trkpt>
      <trkpt lat="44.92748" lon="5.15269">
        <ele>788</ele>
        <time>2021-02-25T09:23:10Z</time>
      </trkpt>
      <trkpt lat="44.92744" lon="5.15271">
        <ele>788</ele>
        <time>2021-02-25T09:23:15Z</time>
      </trkpt>
      <trkpt lat="44.92741" lon="5.15272">
        <ele>788</ele>
        <time>2021-02-25T09:23:20Z</time>
      </trkpt>
      <trkpt lat="44.92737" lon="5.15275">
        <ele>788</ele>
        <time>2021-02-25T09:23:25Z</time>
      </trkpt>
      <trkpt lat="44.92733" lon="5.15277">
        <ele>793</ele>
        <time>2021-02-25T09:23:29Z</time>
      </trkpt>
      <trkpt lat="44.92732" lon="5.15279">
        <ele>793</ele>
        <time>2021-02-25T09:23:34Z</time>
      </trkpt>
      <trkpt lat="44.92729" lon="5.15282">
        <ele>793</ele>
        <time>2021-02-25T09:23:39Z</time>
      </trkpt>
      <trkpt lat="44.92723" lon="5.15283">
        <ele>793</ele>
        <time>2021-02-25T09:23:48Z</time>
      </trkpt>
      <trkpt lat="44.9272" lon="5.15282">
        <ele>793</ele>
        <time>2021-02-25T09:23:53Z</time>
      </trkpt>
      <trkpt lat="44.92718" lon="5.15284">
        <ele>793</ele>
        <time>2021-02-25T09:23:58Z</time>
      </trkpt>
      <trkpt lat="44.92717" lon="5.15284">
        <ele>793</ele>
        <time>2021-02-25T09:24:03Z</time>
      </trkpt>
      <trkpt lat="44.92713" lon="5.15288">
        <ele>793</ele>
        <time>2021-02-25T09:24:07Z</time>
      </trkpt>
      <trkpt lat="44.92711" lon="5.15291">
        <ele>793</ele>
        <time>2021-02-25T09:24:12Z</time>
      </trkpt>
      <trkpt lat="44.92707" lon="5.15293">
        <ele>800</ele>
        <time>2021-02-25T09:24:17Z</time>
      </trkpt>
      <trkpt lat="44.92704" lon="5.15294">
        <ele>800</ele>
        <time>2021-02-25T09:24:22Z</time>
      </trkpt>
      <trkpt lat="44.92699" lon="5.15295">
        <ele>800</ele>
        <time>2021-02-25T09:24:27Z</time>
      </trkpt>
      <trkpt lat="44.92696" lon="5.15295">
        <ele>800</ele>
        <time>2021-02-25T09:24:32Z</time>
      </trkpt>
      <trkpt lat="44.92694" lon="5.15297">
        <ele>800</ele>
        <time>2021-02-25T09:24:37Z</time>
      </trkpt>
      <trkpt lat="44.92691" lon="5.15299">
        <ele>800</ele>
        <time>2021-02-25T09:24:42Z</time>
      </trkpt>
      <trkpt lat="44.92687" lon="5.15303">
        <ele>800</ele>
        <time>2021-02-25T09:24:47Z</time>
      </trkpt>
      <trkpt lat="44.92685" lon="5.15305">
        <ele>800</ele>
        <time>2021-02-25T09:24:52Z</time>
      </trkpt>
      <trkpt lat="44.92682" lon="5.15309">
        <ele>800</ele>
        <time>2021-02-25T09:24:57Z</time>
      </trkpt>
      <trkpt lat="44.92679" lon="5.15311">
        <ele>802</ele>
        <time>2021-02-25T09:25:02Z</time>
      </trkpt>
      <trkpt lat="44.92677" lon="5.15312">
        <ele>802</ele>
        <time>2021-02-25T09:25:06Z</time>
      </trkpt>
      <trkpt lat="44.92673" lon="5.15313">
        <ele>802</ele>
        <time>2021-02-25T09:25:11Z</time>
      </trkpt>
      <trkpt lat="44.92671" lon="5.15314">
        <ele>802</ele>
        <time>2021-02-25T09:25:16Z</time>
      </trkpt>
      <trkpt lat="44.92667" lon="5.15315">
        <ele>802</ele>
        <time>2021-02-25T09:25:21Z</time>
      </trkpt>
      <trkpt lat="44.92664" lon="5.15317">
        <ele>802</ele>
        <time>2021-02-25T09:25:26Z</time>
      </trkpt>
      <trkpt lat="44.9266" lon="5.15318">
        <ele>802</ele>
        <time>2021-02-25T09:25:31Z</time>
      </trkpt>
      <trkpt lat="44.92657" lon="5.15321">
        <ele>801</ele>
        <time>2021-02-25T09:25:36Z</time>
      </trkpt>
      <trkpt lat="44.92657" lon="5.15322">
        <ele>801</ele>
        <time>2021-02-25T09:25:41Z</time>
      </trkpt>
      <trkpt lat="44.92653" lon="5.15325">
        <ele>801</ele>
        <time>2021-02-25T09:25:45Z</time>
      </trkpt>
      <trkpt lat="44.9265" lon="5.15327">
        <ele>804</ele>
        <time>2021-02-25T09:25:50Z</time>
      </trkpt>
      <trkpt lat="44.92647" lon="5.15328">
        <ele>804</ele>
        <time>2021-02-25T09:25:55Z</time>
      </trkpt>
      <trkpt lat="44.92646" lon="5.15329">
        <ele>804</ele>
        <time>2021-02-25T09:25:59Z</time>
      </trkpt>
      <trkpt lat="44.92642" lon="5.15331">
        <ele>804</ele>
        <time>2021-02-25T09:26:03Z</time>
      </trkpt>
      <trkpt lat="44.92639" lon="5.15331">
        <ele>804</ele>
        <time>2021-02-25T09:26:08Z</time>
      </trkpt>
      <trkpt lat="44.92635" lon="5.15331">
        <ele>804</ele>
        <time>2021-02-25T09:26:12Z</time>
      </trkpt>
      <trkpt lat="44.9263" lon="5.15331">
        <ele>804</ele>
        <time>2021-02-25T09:26:17Z</time>
      </trkpt>
      <trkpt lat="44.92625" lon="5.1533">
        <ele>804</ele>
        <time>2021-02-25T09:26:22Z</time>
      </trkpt>
      <trkpt lat="44.92621" lon="5.1533">
        <ele>807</ele>
        <time>2021-02-25T09:26:27Z</time>
      </trkpt>
      <trkpt lat="44.92616" lon="5.15332">
        <ele>807</ele>
        <time>2021-02-25T09:26:32Z</time>
      </trkpt>
      <trkpt lat="44.92613" lon="5.15334">
        <ele>807</ele>
        <time>2021-02-25T09:26:36Z</time>
      </trkpt>
      <trkpt lat="44.92608" lon="5.15339">
        <ele>807</ele>
        <time>2021-02-25T09:26:41Z</time>
      </trkpt>
      <trkpt lat="44.92605" lon="5.15343">
        <ele>807</ele>
        <time>2021-02-25T09:26:45Z</time>
      </trkpt>
      <trkpt lat="44.92601" lon="5.15349">
        <ele>807</ele>
        <time>2021-02-25T09:26:51Z</time>
      </trkpt>
      <trkpt lat="44.92597" lon="5.15354">
        <ele>808</ele>
        <time>2021-02-25T09:26:55Z</time>
      </trkpt>
      <trkpt lat="44.92594" lon="5.15358">
        <ele>808</ele>
        <time>2021-02-25T09:26:59Z</time>
      </trkpt>
      <trkpt lat="44.92588" lon="5.15362">
        <ele>808</ele>
        <time>2021-02-25T09:27:04Z</time>
      </trkpt>
      <trkpt lat="44.92584" lon="5.15365">
        <ele>808</ele>
        <time>2021-02-25T09:27:10Z</time>
      </trkpt>
      <trkpt lat="44.9258" lon="5.15369">
        <ele>808</ele>
        <time>2021-02-25T09:27:14Z</time>
      </trkpt>
      <trkpt lat="44.92576" lon="5.15374">
        <ele>808</ele>
        <time>2021-02-25T09:27:18Z</time>
      </trkpt>
      <trkpt lat="44.92572" lon="5.15377">
        <ele>808</ele>
        <time>2021-02-25T09:27:23Z</time>
      </trkpt>
      <trkpt lat="44.92568" lon="5.15384">
        <ele>808</ele>
        <time>2021-02-25T09:27:28Z</time>
      </trkpt>
      <trkpt lat="44.92564" lon="5.1539">
        <ele>808</ele>
        <time>2021-02-25T09:27:33Z</time>
      </trkpt>
      <trkpt lat="44.92561" lon="5.15396">
        <ele>808</ele>
        <time>2021-02-25T09:27:37Z</time>
      </trkpt>
      <trkpt lat="44.92558" lon="5.15401">
        <ele>808</ele>
        <time>2021-02-25T09:27:41Z</time>
      </trkpt>
      <trkpt lat="44.92554" lon="5.15406">
        <ele>809</ele>
        <time>2021-02-25T09:27:46Z</time>
      </trkpt>
      <trkpt lat="44.9255" lon="5.15412">
        <ele>809</ele>
        <time>2021-02-25T09:27:51Z</time>
      </trkpt>
      <trkpt lat="44.92548" lon="5.15417">
        <ele>809</ele>
        <time>2021-02-25T09:27:56Z</time>
      </trkpt>
      <trkpt lat="44.92544" lon="5.1542">
        <ele>809</ele>
        <time>2021-02-25T09:28:01Z</time>
      </trkpt>
      <trkpt lat="44.9254" lon="5.15425">
        <ele>805</ele>
        <time>2021-02-25T09:28:06Z</time>
      </trkpt>
      <trkpt lat="44.92537" lon="5.15429">
        <ele>805</ele>
        <time>2021-02-25T09:28:10Z</time>
      </trkpt>
      <trkpt lat="44.92536" lon="5.15434">
        <ele>805</ele>
        <time>2021-02-25T09:28:15Z</time>
      </trkpt>
      <trkpt lat="44.92532" lon="5.15441">
        <ele>805</ele>
        <time>2021-02-25T09:28:20Z</time>
      </trkpt>
      <trkpt lat="44.92529" lon="5.15446">
        <ele>805</ele>
        <time>2021-02-25T09:28:25Z</time>
      </trkpt>
      <trkpt lat="44.92526" lon="5.15451">
        <ele>805</ele>
        <time>2021-02-25T09:28:29Z</time>
      </trkpt>
      <trkpt lat="44.92523" lon="5.15457">
        <ele>805</ele>
        <time>2021-02-25T09:28:34Z</time>
      </trkpt>
      <trkpt lat="44.92523" lon="5.15458">
        <ele>805</ele>
        <time>2021-02-25T09:28:38Z</time>
      </trkpt>
      <trkpt lat="44.92521" lon="5.15459">
        <ele>805</ele>
        <time>2021-02-25T09:28:43Z</time>
      </trkpt>
      <trkpt lat="44.92519" lon="5.15466">
        <ele>805</ele>
        <time>2021-02-25T09:28:48Z</time>
      </trkpt>
      <trkpt lat="44.92515" lon="5.15473">
        <ele>805</ele>
        <time>2021-02-25T09:28:52Z</time>
      </trkpt>
      <trkpt lat="44.92512" lon="5.15478">
        <ele>802</ele>
        <time>2021-02-25T09:28:57Z</time>
      </trkpt>
      <trkpt lat="44.92509" lon="5.15484">
        <ele>802</ele>
        <time>2021-02-25T09:29:01Z</time>
      </trkpt>
      <trkpt lat="44.92507" lon="5.15492">
        <ele>807</ele>
        <time>2021-02-25T09:29:06Z</time>
      </trkpt>
      <trkpt lat="44.92502" lon="5.15501">
        <ele>807</ele>
        <time>2021-02-25T09:33:44Z</time>
      </trkpt>
      <trkpt lat="44.92501" lon="5.155">
        <ele>807</ele>
        <time>2021-02-25T09:34:49Z</time>
      </trkpt>
      <trkpt lat="44.92501" lon="5.155">
        <ele>807</ele>
        <time>2021-02-25T09:34:53Z</time>
      </trkpt>
      <trkpt lat="44.925" lon="5.15505">
        <ele>807</ele>
        <time>2021-02-25T09:35:35Z</time>
      </trkpt>
      <trkpt lat="44.925" lon="5.15508">
        <ele>807</ele>
        <time>2021-02-25T09:35:39Z</time>
      </trkpt>
      <trkpt lat="44.92498" lon="5.15513">
        <ele>807</ele>
        <time>2021-02-25T09:35:44Z</time>
      </trkpt>
      <trkpt lat="44.92496" lon="5.15518">
        <ele>811</ele>
        <time>2021-02-25T09:35:49Z</time>
      </trkpt>
      <trkpt lat="44.92496" lon="5.15522">
        <ele>811</ele>
        <time>2021-02-25T09:35:54Z</time>
      </trkpt>
      <trkpt lat="44.92493" lon="5.1553">
        <ele>811</ele>
        <time>2021-02-25T09:36:00Z</time>
      </trkpt>
      <trkpt lat="44.92493" lon="5.15534">
        <ele>811</ele>
        <time>2021-02-25T09:36:04Z</time>
      </trkpt>
      <trkpt lat="44.92491" lon="5.15538">
        <ele>811</ele>
        <time>2021-02-25T09:36:09Z</time>
      </trkpt>
      <trkpt lat="44.9249" lon="5.15543">
        <ele>813</ele>
        <time>2021-02-25T09:36:15Z</time>
      </trkpt>
      <trkpt lat="44.92488" lon="5.15545">
        <ele>813</ele>
        <time>2021-02-25T09:36:20Z</time>
      </trkpt>
      <trkpt lat="44.92486" lon="5.15549">
        <ele>815</ele>
        <time>2021-02-25T09:36:25Z</time>
      </trkpt>
      <trkpt lat="44.92483" lon="5.15555">
        <ele>815</ele>
        <time>2021-02-25T09:36:30Z</time>
      </trkpt>
      <trkpt lat="44.92482" lon="5.15558">
        <ele>815</ele>
        <time>2021-02-25T09:36:35Z</time>
      </trkpt>
      <trkpt lat="44.92479" lon="5.15562">
        <ele>815</ele>
        <time>2021-02-25T09:36:40Z</time>
      </trkpt>
      <trkpt lat="44.92475" lon="5.15566">
        <ele>815</ele>
        <time>2021-02-25T09:36:45Z</time>
      </trkpt>
      <trkpt lat="44.92472" lon="5.1557">
        <ele>819</ele>
        <time>2021-02-25T09:36:50Z</time>
      </trkpt>
      <trkpt lat="44.92471" lon="5.15574">
        <ele>819</ele>
        <time>2021-02-25T09:36:54Z</time>
      </trkpt>
      <trkpt lat="44.9247" lon="5.15577">
        <ele>819</ele>
        <time>2021-02-25T09:36:59Z</time>
      </trkpt>
      <trkpt lat="44.92467" lon="5.15584">
        <ele>819</ele>
        <time>2021-02-25T09:37:04Z</time>
      </trkpt>
      <trkpt lat="44.92464" lon="5.15586">
        <ele>819</ele>
        <time>2021-02-25T09:37:09Z</time>
      </trkpt>
      <trkpt lat="44.92461" lon="5.15589">
        <ele>819</ele>
        <time>2021-02-25T09:37:14Z</time>
      </trkpt>
      <trkpt lat="44.92459" lon="5.15593">
        <ele>819</ele>
        <time>2021-02-25T09:37:18Z</time>
      </trkpt>
      <trkpt lat="44.92457" lon="5.15595">
        <ele>818</ele>
        <time>2021-02-25T09:37:23Z</time>
      </trkpt>
      <trkpt lat="44.92455" lon="5.15599">
        <ele>824</ele>
        <time>2021-02-25T09:37:28Z</time>
      </trkpt>
      <trkpt lat="44.92454" lon="5.15602">
        <ele>824</ele>
        <time>2021-02-25T09:37:32Z</time>
      </trkpt>
      <trkpt lat="44.92453" lon="5.15604">
        <ele>824</ele>
        <time>2021-02-25T09:37:37Z</time>
      </trkpt>
      <trkpt lat="44.92451" lon="5.15608">
        <ele>824</ele>
        <time>2021-02-25T09:37:41Z</time>
      </trkpt>
      <trkpt lat="44.92451" lon="5.1561">
        <ele>824</ele>
        <time>2021-02-25T09:37:46Z</time>
      </trkpt>
      <trkpt lat="44.9245" lon="5.1562">
        <ele>824</ele>
        <time>2021-02-25T09:38:00Z</time>
      </trkpt>
      <trkpt lat="44.92449" lon="5.1562">
        <ele>824</ele>
        <time>2021-02-25T09:38:05Z</time>
      </trkpt>
      <trkpt lat="44.92449" lon="5.15622">
        <ele>824</ele>
        <time>2021-02-25T09:38:15Z</time>
      </trkpt>
      <trkpt lat="44.92449" lon="5.15624">
        <ele>824</ele>
        <time>2021-02-25T09:38:20Z</time>
      </trkpt>
      <trkpt lat="44.92449" lon="5.15628">
        <ele>828</ele>
        <time>2021-02-25T09:38:34Z</time>
      </trkpt>
      <trkpt lat="44.92448" lon="5.1563">
        <ele>828</ele>
        <time>2021-02-25T09:38:38Z</time>
      </trkpt>
      <trkpt lat="44.92446" lon="5.15631">
        <ele>828</ele>
        <time>2021-02-25T09:38:43Z</time>
      </trkpt>
      <trkpt lat="44.92444" lon="5.15636">
        <ele>828</ele>
        <time>2021-02-25T09:38:48Z</time>
      </trkpt>
      <trkpt lat="44.92441" lon="5.15639">
        <ele>828</ele>
        <time>2021-02-25T09:38:53Z</time>
      </trkpt>
      <trkpt lat="44.92438" lon="5.15641">
        <ele>828</ele>
        <time>2021-02-25T09:38:57Z</time>
      </trkpt>
      <trkpt lat="44.92436" lon="5.15645">
        <ele>828</ele>
        <time>2021-02-25T09:39:06Z</time>
      </trkpt>
      <trkpt lat="44.92434" lon="5.15647">
        <ele>828</ele>
        <time>2021-02-25T09:39:11Z</time>
      </trkpt>
      <trkpt lat="44.9243" lon="5.15651">
        <ele>827</ele>
        <time>2021-02-25T09:39:17Z</time>
      </trkpt>
      <trkpt lat="44.92426" lon="5.15656">
        <ele>833</ele>
        <time>2021-02-25T09:39:22Z</time>
      </trkpt>
      <trkpt lat="44.92425" lon="5.15659">
        <ele>833</ele>
        <time>2021-02-25T09:39:26Z</time>
      </trkpt>
      <trkpt lat="44.92424" lon="5.15662">
        <ele>833</ele>
        <time>2021-02-25T09:39:31Z</time>
      </trkpt>
      <trkpt lat="44.9242" lon="5.15667">
        <ele>833</ele>
        <time>2021-02-25T09:39:36Z</time>
      </trkpt>
      <trkpt lat="44.92419" lon="5.15671">
        <ele>833</ele>
        <time>2021-02-25T09:39:41Z</time>
      </trkpt>
      <trkpt lat="44.92417" lon="5.15675">
        <ele>833</ele>
        <time>2021-02-25T09:39:45Z</time>
      </trkpt>
      <trkpt lat="44.92416" lon="5.15679">
        <ele>833</ele>
        <time>2021-02-25T09:39:50Z</time>
      </trkpt>
      <trkpt lat="44.92412" lon="5.15685">
        <ele>837</ele>
        <time>2021-02-25T09:39:55Z</time>
      </trkpt>
      <trkpt lat="44.92411" lon="5.15688">
        <ele>837</ele>
        <time>2021-02-25T09:40:00Z</time>
      </trkpt>
      <trkpt lat="44.92409" lon="5.15695">
        <ele>837</ele>
        <time>2021-02-25T09:40:04Z</time>
      </trkpt>
      <trkpt lat="44.92408" lon="5.15701">
        <ele>837</ele>
        <time>2021-02-25T09:40:09Z</time>
      </trkpt>
      <trkpt lat="44.92408" lon="5.15704">
        <ele>837</ele>
        <time>2021-02-25T09:40:13Z</time>
      </trkpt>
      <trkpt lat="44.92405" lon="5.1571">
        <ele>839</ele>
        <time>2021-02-25T09:40:18Z</time>
      </trkpt>
      <trkpt lat="44.92403" lon="5.15714">
        <ele>839</ele>
        <time>2021-02-25T09:40:22Z</time>
      </trkpt>
      <trkpt lat="44.924" lon="5.15716">
        <ele>842</ele>
        <time>2021-02-25T09:40:27Z</time>
      </trkpt>
      <trkpt lat="44.92397" lon="5.1572">
        <ele>842</ele>
        <time>2021-02-25T09:40:32Z</time>
      </trkpt>
      <trkpt lat="44.92395" lon="5.15722">
        <ele>842</ele>
        <time>2021-02-25T09:40:36Z</time>
      </trkpt>
      <trkpt lat="44.92392" lon="5.15726">
        <ele>842</ele>
        <time>2021-02-25T09:40:41Z</time>
      </trkpt>
      <trkpt lat="44.9239" lon="5.15728">
        <ele>842</ele>
        <time>2021-02-25T09:40:46Z</time>
      </trkpt>
      <trkpt lat="44.92387" lon="5.15732">
        <ele>842</ele>
        <time>2021-02-25T09:40:50Z</time>
      </trkpt>
      <trkpt lat="44.92385" lon="5.15736">
        <ele>846</ele>
        <time>2021-02-25T09:40:55Z</time>
      </trkpt>
      <trkpt lat="44.92382" lon="5.15741">
        <ele>846</ele>
        <time>2021-02-25T09:41:00Z</time>
      </trkpt>
      <trkpt lat="44.9238" lon="5.15745">
        <ele>846</ele>
        <time>2021-02-25T09:41:05Z</time>
      </trkpt>
      <trkpt lat="44.92376" lon="5.15748">
        <ele>846</ele>
        <time>2021-02-25T09:41:09Z</time>
      </trkpt>
      <trkpt lat="44.92373" lon="5.15752">
        <ele>844</ele>
        <time>2021-02-25T09:41:14Z</time>
      </trkpt>
      <trkpt lat="44.92371" lon="5.15755">
        <ele>844</ele>
        <time>2021-02-25T09:41:18Z</time>
      </trkpt>
      <trkpt lat="44.92367" lon="5.1576">
        <ele>844</ele>
        <time>2021-02-25T09:41:23Z</time>
      </trkpt>
      <trkpt lat="44.92366" lon="5.15761">
        <ele>844</ele>
        <time>2021-02-25T09:41:27Z</time>
      </trkpt>
      <trkpt lat="44.9236" lon="5.15764">
        <ele>845</ele>
        <time>2021-02-25T09:41:32Z</time>
      </trkpt>
      <trkpt lat="44.92357" lon="5.15765">
        <ele>845</ele>
        <time>2021-02-25T09:41:37Z</time>
      </trkpt>
      <trkpt lat="44.92353" lon="5.15769">
        <ele>845</ele>
        <time>2021-02-25T09:41:42Z</time>
      </trkpt>
      <trkpt lat="44.92351" lon="5.15771">
        <ele>845</ele>
        <time>2021-02-25T09:41:46Z</time>
      </trkpt>
      <trkpt lat="44.92346" lon="5.15775">
        <ele>846</ele>
        <time>2021-02-25T09:41:51Z</time>
      </trkpt>
      <trkpt lat="44.92343" lon="5.15776">
        <ele>846</ele>
        <time>2021-02-25T09:41:56Z</time>
      </trkpt>
      <trkpt lat="44.92341" lon="5.15777">
        <ele>846</ele>
        <time>2021-02-25T09:42:01Z</time>
      </trkpt>
      <trkpt lat="44.92338" lon="5.15779">
        <ele>846</ele>
        <time>2021-02-25T09:42:06Z</time>
      </trkpt>
      <trkpt lat="44.92333" lon="5.1578">
        <ele>846</ele>
        <time>2021-02-25T09:42:11Z</time>
      </trkpt>
      <trkpt lat="44.92331" lon="5.15782">
        <ele>846</ele>
        <time>2021-02-25T09:42:16Z</time>
      </trkpt>
      <trkpt lat="44.92329" lon="5.15783">
        <ele>846</ele>
        <time>2021-02-25T09:42:21Z</time>
      </trkpt>
      <trkpt lat="44.92325" lon="5.15787">
        <ele>846</ele>
        <time>2021-02-25T09:42:26Z</time>
      </trkpt>
      <trkpt lat="44.92322" lon="5.15792">
        <ele>848</ele>
        <time>2021-02-25T09:42:31Z</time>
      </trkpt>
      <trkpt lat="44.9232" lon="5.15797">
        <ele>848</ele>
        <time>2021-02-25T09:42:36Z</time>
      </trkpt>
      <trkpt lat="44.92318" lon="5.158">
        <ele>852</ele>
        <time>2021-02-25T09:42:40Z</time>
      </trkpt>
      <trkpt lat="44.92317" lon="5.15802">
        <ele>852</ele>
        <time>2021-02-25T09:42:45Z</time>
      </trkpt>
      <trkpt lat="44.92316" lon="5.15806">
        <ele>852</ele>
        <time>2021-02-25T09:42:49Z</time>
      </trkpt>
      <trkpt lat="44.92314" lon="5.1581">
        <ele>852</ele>
        <time>2021-02-25T09:42:54Z</time>
      </trkpt>
      <trkpt lat="44.92312" lon="5.15813">
        <ele>852</ele>
        <time>2021-02-25T09:43:00Z</time>
      </trkpt>
      <trkpt lat="44.9231" lon="5.15816">
        <ele>852</ele>
        <time>2021-02-25T09:43:04Z</time>
      </trkpt>
      <trkpt lat="44.92309" lon="5.15817">
        <ele>852</ele>
        <time>2021-02-25T09:43:08Z</time>
      </trkpt>
      <trkpt lat="44.92306" lon="5.15819">
        <ele>852</ele>
        <time>2021-02-25T09:43:13Z</time>
      </trkpt>
      <trkpt lat="44.92304" lon="5.15822">
        <ele>854</ele>
        <time>2021-02-25T09:43:22Z</time>
      </trkpt>
      <trkpt lat="44.92301" lon="5.15823">
        <ele>854</ele>
        <time>2021-02-25T09:43:27Z</time>
      </trkpt>
      <trkpt lat="44.92299" lon="5.15824">
        <ele>854</ele>
        <time>2021-02-25T09:43:31Z</time>
      </trkpt>
      <trkpt lat="44.92298" lon="5.15827">
        <ele>854</ele>
        <time>2021-02-25T09:43:36Z</time>
      </trkpt>
      <trkpt lat="44.92296" lon="5.1583">
        <ele>854</ele>
        <time>2021-02-25T09:43:41Z</time>
      </trkpt>
      <trkpt lat="44.92295" lon="5.15835">
        <ele>854</ele>
        <time>2021-02-25T09:43:46Z</time>
      </trkpt>
      <trkpt lat="44.92293" lon="5.15839">
        <ele>854</ele>
        <time>2021-02-25T09:43:51Z</time>
      </trkpt>
      <trkpt lat="44.92291" lon="5.1584">
        <ele>863</ele>
        <time>2021-02-25T09:43:55Z</time>
      </trkpt>
      <trkpt lat="44.92289" lon="5.15841">
        <ele>863</ele>
        <time>2021-02-25T09:44:00Z</time>
      </trkpt>
      <trkpt lat="44.92288" lon="5.15843">
        <ele>863</ele>
        <time>2021-02-25T09:44:05Z</time>
      </trkpt>
      <trkpt lat="44.92285" lon="5.15846">
        <ele>863</ele>
        <time>2021-02-25T09:44:10Z</time>
      </trkpt>
      <trkpt lat="44.92283" lon="5.15849">
        <ele>866</ele>
        <time>2021-02-25T09:44:15Z</time>
      </trkpt>
      <trkpt lat="44.92282" lon="5.15852">
        <ele>866</ele>
        <time>2021-02-25T09:44:20Z</time>
      </trkpt>
      <trkpt lat="44.92281" lon="5.15856">
        <ele>866</ele>
        <time>2021-02-25T09:44:25Z</time>
      </trkpt>
      <trkpt lat="44.9228" lon="5.15857">
        <ele>866</ele>
        <time>2021-02-25T09:44:30Z</time>
      </trkpt>
      <trkpt lat="44.92277" lon="5.15861">
        <ele>866</ele>
        <time>2021-02-25T09:44:34Z</time>
      </trkpt>
      <trkpt lat="44.92273" lon="5.15865">
        <ele>866</ele>
        <time>2021-02-25T09:44:43Z</time>
      </trkpt>
      <trkpt lat="44.92273" lon="5.15868">
        <ele>866</ele>
        <time>2021-02-25T09:44:48Z</time>
      </trkpt>
      <trkpt lat="44.92271" lon="5.15869">
        <ele>866</ele>
        <time>2021-02-25T09:44:53Z</time>
      </trkpt>
      <trkpt lat="44.9227" lon="5.1587">
        <ele>866</ele>
        <time>2021-02-25T09:44:58Z</time>
      </trkpt>
      <trkpt lat="44.92269" lon="5.15873">
        <ele>866</ele>
        <time>2021-02-25T09:45:03Z</time>
      </trkpt>
      <trkpt lat="44.92264" lon="5.15875">
        <ele>866</ele>
        <time>2021-02-25T09:45:13Z</time>
      </trkpt>
      <trkpt lat="44.92264" lon="5.15877">
        <ele>881</ele>
        <time>2021-02-25T09:45:17Z</time>
      </trkpt>
      <trkpt lat="44.92263" lon="5.1588">
        <ele>881</ele>
        <time>2021-02-25T09:45:22Z</time>
      </trkpt>
      <trkpt lat="44.92262" lon="5.15881">
        <ele>881</ele>
        <time>2021-02-25T09:45:27Z</time>
      </trkpt>
      <trkpt lat="44.9226" lon="5.15885">
        <ele>881</ele>
        <time>2021-02-25T09:45:32Z</time>
      </trkpt>
      <trkpt lat="44.92256" lon="5.15888">
        <ele>881</ele>
        <time>2021-02-25T09:45:46Z</time>
      </trkpt>
      <trkpt lat="44.92255" lon="5.15888">
        <ele>881</ele>
        <time>2021-02-25T09:45:51Z</time>
      </trkpt>
      <trkpt lat="44.92254" lon="5.15889">
        <ele>881</ele>
        <time>2021-02-25T09:45:56Z</time>
      </trkpt>
      <trkpt lat="44.92252" lon="5.15892">
        <ele>881</ele>
        <time>2021-02-25T09:46:05Z</time>
      </trkpt>
      <trkpt lat="44.92251" lon="5.15895">
        <ele>881</ele>
        <time>2021-02-25T09:46:10Z</time>
      </trkpt>
      <trkpt lat="44.9225" lon="5.15898">
        <ele>881</ele>
        <time>2021-02-25T09:46:18Z</time>
      </trkpt>
      <trkpt lat="44.92249" lon="5.15901">
        <ele>881</ele>
        <time>2021-02-25T09:46:23Z</time>
      </trkpt>
      <trkpt lat="44.92247" lon="5.15902">
        <ele>881</ele>
        <time>2021-02-25T09:46:28Z</time>
      </trkpt>
      <trkpt lat="44.92247" lon="5.15903">
        <ele>884</ele>
        <time>2021-02-25T09:46:33Z</time>
      </trkpt>
      <trkpt lat="44.92244" lon="5.15907">
        <ele>884</ele>
        <time>2021-02-25T09:46:37Z</time>
      </trkpt>
      <trkpt lat="44.92243" lon="5.15909">
        <ele>884</ele>
        <time>2021-02-25T09:46:42Z</time>
      </trkpt>
      <trkpt lat="44.92241" lon="5.15912">
        <ele>884</ele>
        <time>2021-02-25T09:46:47Z</time>
      </trkpt>
      <trkpt lat="44.9224" lon="5.15914">
        <ele>884</ele>
        <time>2021-02-25T09:46:52Z</time>
      </trkpt>
      <trkpt lat="44.92237" lon="5.15916">
        <ele>884</ele>
        <time>2021-02-25T09:46:57Z</time>
      </trkpt>
      <trkpt lat="44.92236" lon="5.1592">
        <ele>884</ele>
        <time>2021-02-25T09:47:02Z</time>
      </trkpt>
      <trkpt lat="44.92236" lon="5.15921">
        <ele>884</ele>
        <time>2021-02-25T09:47:06Z</time>
      </trkpt>
      <trkpt lat="44.92235" lon="5.15925">
        <ele>896</ele>
        <time>2021-02-25T09:47:11Z</time>
      </trkpt>
      <trkpt lat="44.92235" lon="5.15928">
        <ele>896</ele>
        <time>2021-02-25T09:47:16Z</time>
      </trkpt>
      <trkpt lat="44.92233" lon="5.15931">
        <ele>900</ele>
        <time>2021-02-25T09:47:21Z</time>
      </trkpt>
      <trkpt lat="44.92231" lon="5.15933">
        <ele>900</ele>
        <time>2021-02-25T09:47:26Z</time>
      </trkpt>
      <trkpt lat="44.92227" lon="5.15937">
        <ele>900</ele>
        <time>2021-02-25T09:47:36Z</time>
      </trkpt>
      <trkpt lat="44.92225" lon="5.1594">
        <ele>900</ele>
        <time>2021-02-25T09:47:41Z</time>
      </trkpt>
      <trkpt lat="44.92223" lon="5.15942">
        <ele>900</ele>
        <time>2021-02-25T09:47:46Z</time>
      </trkpt>
      <trkpt lat="44.92223" lon="5.15943">
        <ele>900</ele>
        <time>2021-02-25T09:47:50Z</time>
      </trkpt>
      <trkpt lat="44.9222" lon="5.15947">
        <ele>900</ele>
        <time>2021-02-25T09:47:55Z</time>
      </trkpt>
      <trkpt lat="44.92218" lon="5.15949">
        <ele>900</ele>
        <time>2021-02-25T09:47:59Z</time>
      </trkpt>
      <trkpt lat="44.92218" lon="5.15949">
        <ele>900</ele>
        <time>2021-02-25T09:48:04Z</time>
      </trkpt>
      <trkpt lat="44.92215" lon="5.1595">
        <ele>900</ele>
        <time>2021-02-25T09:48:08Z</time>
      </trkpt>
      <trkpt lat="44.92212" lon="5.15952">
        <ele>900</ele>
        <time>2021-02-25T09:48:13Z</time>
      </trkpt>
      <trkpt lat="44.9221" lon="5.15955">
        <ele>900</ele>
        <time>2021-02-25T09:48:18Z</time>
      </trkpt>
      <trkpt lat="44.92207" lon="5.15955">
        <ele>904</ele>
        <time>2021-02-25T09:48:23Z</time>
      </trkpt>
      <trkpt lat="44.92202" lon="5.15955">
        <ele>904</ele>
        <time>2021-02-25T09:48:28Z</time>
      </trkpt>
      <trkpt lat="44.92197" lon="5.15954">
        <ele>904</ele>
        <time>2021-02-25T09:48:33Z</time>
      </trkpt>
      <trkpt lat="44.92193" lon="5.15954">
        <ele>904</ele>
        <time>2021-02-25T09:48:37Z</time>
      </trkpt>
      <trkpt lat="44.92189" lon="5.15954">
        <ele>904</ele>
        <time>2021-02-25T09:48:42Z</time>
      </trkpt>
      <trkpt lat="44.92187" lon="5.15957">
        <ele>904</ele>
        <time>2021-02-25T09:48:47Z</time>
      </trkpt>
      <trkpt lat="44.92185" lon="5.15959">
        <ele>909</ele>
        <time>2021-02-25T09:48:51Z</time>
      </trkpt>
      <trkpt lat="44.92181" lon="5.1596">
        <ele>909</ele>
        <time>2021-02-25T09:48:56Z</time>
      </trkpt>
      <trkpt lat="44.92179" lon="5.15957">
        <ele>905</ele>
        <time>2021-02-25T09:49:01Z</time>
      </trkpt>
      <trkpt lat="44.92174" lon="5.15962">
        <ele>911</ele>
        <time>2021-02-25T09:49:11Z</time>
      </trkpt>
      <trkpt lat="44.92173" lon="5.15966">
        <ele>911</ele>
        <time>2021-02-25T09:49:29Z</time>
      </trkpt>
      <trkpt lat="44.92173" lon="5.15967">
        <ele>911</ele>
        <time>2021-02-25T09:49:35Z</time>
      </trkpt>
      <trkpt lat="44.9217" lon="5.15968">
        <ele>911</ele>
        <time>2021-02-25T09:49:39Z</time>
      </trkpt>
      <trkpt lat="44.92168" lon="5.1597">
        <ele>911</ele>
        <time>2021-02-25T09:49:43Z</time>
      </trkpt>
      <trkpt lat="44.92164" lon="5.15969">
        <ele>911</ele>
        <time>2021-02-25T09:49:48Z</time>
      </trkpt>
      <trkpt lat="44.92159" lon="5.15968">
        <ele>911</ele>
        <time>2021-02-25T09:49:52Z</time>
      </trkpt>
      <trkpt lat="44.92158" lon="5.15971">
        <ele>911</ele>
        <time>2021-02-25T09:49:58Z</time>
      </trkpt>
      <trkpt lat="44.92157" lon="5.15972">
        <ele>911</ele>
        <time>2021-02-25T09:50:03Z</time>
      </trkpt>
      <trkpt lat="44.92155" lon="5.15974">
        <ele>911</ele>
        <time>2021-02-25T09:50:07Z</time>
      </trkpt>
      <trkpt lat="44.92154" lon="5.15976">
        <ele>911</ele>
        <time>2021-02-25T09:50:12Z</time>
      </trkpt>
      <trkpt lat="44.92152" lon="5.15977">
        <ele>920</ele>
        <time>2021-02-25T09:50:16Z</time>
      </trkpt>
      <trkpt lat="44.9215" lon="5.15979">
        <ele>920</ele>
        <time>2021-02-25T09:50:21Z</time>
      </trkpt>
      <trkpt lat="44.92146" lon="5.15979">
        <ele>920</ele>
        <time>2021-02-25T09:50:26Z</time>
      </trkpt>
      <trkpt lat="44.92145" lon="5.15979">
        <ele>920</ele>
        <time>2021-02-25T09:50:31Z</time>
      </trkpt>
      <trkpt lat="44.92142" lon="5.15979">
        <ele>920</ele>
        <time>2021-02-25T09:50:36Z</time>
      </trkpt>
      <trkpt lat="44.92141" lon="5.15979">
        <ele>920</ele>
        <time>2021-02-25T09:50:41Z</time>
      </trkpt>
      <trkpt lat="44.92138" lon="5.1598">
        <ele>920</ele>
        <time>2021-02-25T09:50:45Z</time>
      </trkpt>
      <trkpt lat="44.92137" lon="5.1598">
        <ele>920</ele>
        <time>2021-02-25T09:50:50Z</time>
      </trkpt>
      <trkpt lat="44.92133" lon="5.15983">
        <ele>920</ele>
        <time>2021-02-25T09:50:55Z</time>
      </trkpt>
      <trkpt lat="44.92131" lon="5.15982">
        <ele>920</ele>
        <time>2021-02-25T09:51:00Z</time>
      </trkpt>
      <trkpt lat="44.9213" lon="5.15983">
        <ele>920</ele>
        <time>2021-02-25T09:51:05Z</time>
      </trkpt>
      <trkpt lat="44.92128" lon="5.15981">
        <ele>920</ele>
        <time>2021-02-25T09:51:10Z</time>
      </trkpt>
      <trkpt lat="44.92124" lon="5.15982">
        <ele>935</ele>
        <time>2021-02-25T09:51:15Z</time>
      </trkpt>
      <trkpt lat="44.92121" lon="5.15984">
        <ele>935</ele>
        <time>2021-02-25T09:51:20Z</time>
      </trkpt>
      <trkpt lat="44.92114" lon="5.15989">
        <ele>939</ele>
        <time>2021-02-25T09:51:57Z</time>
      </trkpt>
      <trkpt lat="44.92116" lon="5.15993">
        <ele>939</ele>
        <time>2021-02-25T09:52:02Z</time>
      </trkpt>
      <trkpt lat="44.92115" lon="5.15997">
        <ele>939</ele>
        <time>2021-02-25T09:52:07Z</time>
      </trkpt>
      <trkpt lat="44.92114" lon="5.16001">
        <ele>939</ele>
        <time>2021-02-25T09:52:12Z</time>
      </trkpt>
      <trkpt lat="44.92113" lon="5.16004">
        <ele>939</ele>
        <time>2021-02-25T09:52:17Z</time>
      </trkpt>
      <trkpt lat="44.92109" lon="5.16012">
        <ele>939</ele>
        <time>2021-02-25T09:52:25Z</time>
      </trkpt>
      <trkpt lat="44.92108" lon="5.16016">
        <ele>940</ele>
        <time>2021-02-25T09:52:30Z</time>
      </trkpt>
      <trkpt lat="44.92105" lon="5.16018">
        <ele>940</ele>
        <time>2021-02-25T09:52:35Z</time>
      </trkpt>
      <trkpt lat="44.92105" lon="5.16018">
        <ele>940</ele>
        <time>2021-02-25T09:52:40Z</time>
      </trkpt>
      <trkpt lat="44.92104" lon="5.16021">
        <ele>940</ele>
        <time>2021-02-25T09:52:45Z</time>
      </trkpt>
      <trkpt lat="44.92101" lon="5.16024">
        <ele>940</ele>
        <time>2021-02-25T09:52:50Z</time>
      </trkpt>
      <trkpt lat="44.921" lon="5.16025">
        <ele>940</ele>
        <time>2021-02-25T09:52:54Z</time>
      </trkpt>
      <trkpt lat="44.92097" lon="5.16029">
        <ele>953</ele>
        <time>2021-02-25T09:52:59Z</time>
      </trkpt>
      <trkpt lat="44.92095" lon="5.1603">
        <ele>953</ele>
        <time>2021-02-25T09:53:03Z</time>
      </trkpt>
      <trkpt lat="44.92093" lon="5.16031">
        <ele>953</ele>
        <time>2021-02-25T09:53:08Z</time>
      </trkpt>
      <trkpt lat="44.92092" lon="5.16033">
        <ele>953</ele>
        <time>2021-02-25T09:53:13Z</time>
      </trkpt>
      <trkpt lat="44.92088" lon="5.16036">
        <ele>953</ele>
        <time>2021-02-25T09:53:17Z</time>
      </trkpt>
      <trkpt lat="44.92085" lon="5.16037">
        <ele>953</ele>
        <time>2021-02-25T09:53:22Z</time>
      </trkpt>
      <trkpt lat="44.92083" lon="5.16038">
        <ele>953</ele>
        <time>2021-02-25T09:53:27Z</time>
      </trkpt>
      <trkpt lat="44.92081" lon="5.16041">
        <ele>953</ele>
        <time>2021-02-25T09:53:32Z</time>
      </trkpt>
      <trkpt lat="44.92081" lon="5.16041">
        <ele>953</ele>
        <time>2021-02-25T09:53:37Z</time>
      </trkpt>
      <trkpt lat="44.92077" lon="5.16044">
        <ele>952</ele>
        <time>2021-02-25T09:53:42Z</time>
      </trkpt>
      <trkpt lat="44.92075" lon="5.16046">
        <ele>952</ele>
        <time>2021-02-25T09:53:47Z</time>
      </trkpt>
      <trkpt lat="44.92072" lon="5.1605">
        <ele>952</ele>
        <time>2021-02-25T09:53:52Z</time>
      </trkpt>
      <trkpt lat="44.92069" lon="5.16052">
        <ele>970</ele>
        <time>2021-02-25T09:54:01Z</time>
      </trkpt>
      <trkpt lat="44.92067" lon="5.16054">
        <ele>970</ele>
        <time>2021-02-25T09:54:06Z</time>
      </trkpt>
      <trkpt lat="44.92064" lon="5.16056">
        <ele>970</ele>
        <time>2021-02-25T09:54:11Z</time>
      </trkpt>
      <trkpt lat="44.92063" lon="5.16057">
        <ele>970</ele>
        <time>2021-02-25T09:54:16Z</time>
      </trkpt>
      <trkpt lat="44.92061" lon="5.1606">
        <ele>970</ele>
        <time>2021-02-25T09:54:21Z</time>
      </trkpt>
      <trkpt lat="44.92059" lon="5.16062">
        <ele>970</ele>
        <time>2021-02-25T09:54:26Z</time>
      </trkpt>
      <trkpt lat="44.92058" lon="5.16065">
        <ele>970</ele>
        <time>2021-02-25T09:54:31Z</time>
      </trkpt>
      <trkpt lat="44.92057" lon="5.16067">
        <ele>970</ele>
        <time>2021-02-25T09:54:35Z</time>
      </trkpt>
      <trkpt lat="44.92054" lon="5.16069">
        <ele>970</ele>
        <time>2021-02-25T09:54:40Z</time>
      </trkpt>
      <trkpt lat="44.92051" lon="5.1607">
        <ele>966</ele>
        <time>2021-02-25T09:54:45Z</time>
      </trkpt>
      <trkpt lat="44.9205" lon="5.16071">
        <ele>966</ele>
        <time>2021-02-25T09:54:50Z</time>
      </trkpt>
      <trkpt lat="44.92048" lon="5.16074">
        <ele>966</ele>
        <time>2021-02-25T09:54:54Z</time>
      </trkpt>
      <trkpt lat="44.92045" lon="5.16078">
        <ele>966</ele>
        <time>2021-02-25T09:54:59Z</time>
      </trkpt>
      <trkpt lat="44.92045" lon="5.16079">
        <ele>966</ele>
        <time>2021-02-25T09:55:03Z</time>
      </trkpt>
      <trkpt lat="44.92043" lon="5.16083">
        <ele>966</ele>
        <time>2021-02-25T09:55:08Z</time>
      </trkpt>
      <trkpt lat="44.92042" lon="5.16084">
        <ele>966</ele>
        <time>2021-02-25T09:55:13Z</time>
      </trkpt>
      <trkpt lat="44.92039" lon="5.16087">
        <ele>983</ele>
        <time>2021-02-25T09:55:18Z</time>
      </trkpt>
      <trkpt lat="44.92038" lon="5.16091">
        <ele>983</ele>
        <time>2021-02-25T09:55:23Z</time>
      </trkpt>
      <trkpt lat="44.92038" lon="5.16093">
        <ele>983</ele>
        <time>2021-02-25T09:55:28Z</time>
      </trkpt>
      <trkpt lat="44.92035" lon="5.16098">
        <ele>977</ele>
        <time>2021-02-25T09:55:33Z</time>
      </trkpt>
      <trkpt lat="44.92034" lon="5.16102">
        <ele>977</ele>
        <time>2021-02-25T09:55:37Z</time>
      </trkpt>
      <trkpt lat="44.92033" lon="5.16104">
        <ele>977</ele>
        <time>2021-02-25T09:55:41Z</time>
      </trkpt>
      <trkpt lat="44.92032" lon="5.16109">
        <ele>977</ele>
        <time>2021-02-25T09:55:46Z</time>
      </trkpt>
      <trkpt lat="44.92029" lon="5.16114">
        <ele>977</ele>
        <time>2021-02-25T09:55:51Z</time>
      </trkpt>
      <trkpt lat="44.92027" lon="5.16108">
        <ele>977</ele>
        <time>2021-02-25T09:56:37Z</time>
      </trkpt>
      <trkpt lat="44.92028" lon="5.16108">
        <ele>977</ele>
        <time>2021-02-25T09:56:42Z</time>
      </trkpt>
      <trkpt lat="44.92028" lon="5.16103">
        <ele>977</ele>
        <time>2021-02-25T09:56:48Z</time>
      </trkpt>
      <trkpt lat="44.92029" lon="5.16099">
        <ele>977</ele>
        <time>2021-02-25T09:56:52Z</time>
      </trkpt>
      <trkpt lat="44.92029" lon="5.16098">
        <ele>977</ele>
        <time>2021-02-25T09:56:57Z</time>
      </trkpt>
      <trkpt lat="44.92032" lon="5.16092">
        <ele>983</ele>
        <time>2021-02-25T09:57:02Z</time>
      </trkpt>
      <trkpt lat="44.92031" lon="5.16091">
        <ele>983</ele>
        <time>2021-02-25T09:57:06Z</time>
      </trkpt>
      <trkpt lat="44.92034" lon="5.16087">
        <ele>983</ele>
        <time>2021-02-25T09:57:11Z</time>
      </trkpt>
      <trkpt lat="44.92034" lon="5.16083">
        <ele>983</ele>
        <time>2021-02-25T09:57:15Z</time>
      </trkpt>
      <trkpt lat="44.92035" lon="5.1608">
        <ele>983</ele>
        <time>2021-02-25T09:57:20Z</time>
      </trkpt>
      <trkpt lat="44.92037" lon="5.16074">
        <ele>983</ele>
        <time>2021-02-25T09:57:56Z</time>
      </trkpt>
      <trkpt lat="44.92038" lon="5.1607">
        <ele>983</ele>
        <time>2021-02-25T09:58:01Z</time>
      </trkpt>
      <trkpt lat="44.92037" lon="5.16067">
        <ele>987</ele>
        <time>2021-02-25T09:58:06Z</time>
      </trkpt>
      <trkpt lat="44.92035" lon="5.16065">
        <ele>987</ele>
        <time>2021-02-25T09:58:11Z</time>
      </trkpt>
      <trkpt lat="44.92034" lon="5.16063">
        <ele>987</ele>
        <time>2021-02-25T09:58:16Z</time>
      </trkpt>
      <trkpt lat="44.92033" lon="5.1606">
        <ele>987</ele>
        <time>2021-02-25T09:58:25Z</time>
      </trkpt>
      <trkpt lat="44.92031" lon="5.16057">
        <ele>987</ele>
        <time>2021-02-25T09:58:30Z</time>
      </trkpt>
      <trkpt lat="44.9203" lon="5.16054">
        <ele>987</ele>
        <time>2021-02-25T09:58:36Z</time>
      </trkpt>
      <trkpt lat="44.92029" lon="5.16051">
        <ele>987</ele>
        <time>2021-02-25T09:58:40Z</time>
      </trkpt>
      <trkpt lat="44.92029" lon="5.16048">
        <ele>987</ele>
        <time>2021-02-25T09:58:45Z</time>
      </trkpt>
      <trkpt lat="44.92028" lon="5.16048">
        <ele>987</ele>
        <time>2021-02-25T09:58:50Z</time>
      </trkpt>
      <trkpt lat="44.92029" lon="5.16042">
        <ele>987</ele>
        <time>2021-02-25T09:58:55Z</time>
      </trkpt>
      <trkpt lat="44.92027" lon="5.1604">
        <ele>987</ele>
        <time>2021-02-25T09:59:00Z</time>
      </trkpt>
      <trkpt lat="44.92028" lon="5.16037">
        <ele>987</ele>
        <time>2021-02-25T09:59:04Z</time>
      </trkpt>
      <trkpt lat="44.92028" lon="5.16033">
        <ele>987</ele>
        <time>2021-02-25T09:59:08Z</time>
      </trkpt>
      <trkpt lat="44.92022" lon="5.16027">
        <ele>987</ele>
        <time>2021-02-25T10:00:01Z</time>
      </trkpt>
      <trkpt lat="44.92021" lon="5.16025">
        <ele>987</ele>
        <time>2021-02-25T10:00:06Z</time>
      </trkpt>
      <trkpt lat="44.92022" lon="5.16022">
        <ele>987</ele>
        <time>2021-02-25T10:00:10Z</time>
      </trkpt>
      <trkpt lat="44.92022" lon="5.1602">
        <ele>987</ele>
        <time>2021-02-25T10:00:14Z</time>
      </trkpt>
      <trkpt lat="44.92019" lon="5.1602">
        <ele>987</ele>
        <time>2021-02-25T10:00:19Z</time>
      </trkpt>
      <trkpt lat="44.92018" lon="5.16021">
        <ele>987</ele>
        <time>2021-02-25T10:00:23Z</time>
      </trkpt>
      <trkpt lat="44.92016" lon="5.16022">
        <ele>987</ele>
        <time>2021-02-25T10:00:28Z</time>
      </trkpt>
      <trkpt lat="44.92014" lon="5.16025">
        <ele>987</ele>
        <time>2021-02-25T10:00:33Z</time>
      </trkpt>
      <trkpt lat="44.92012" lon="5.16028">
        <ele>1011</ele>
        <time>2021-02-25T10:00:37Z</time>
      </trkpt>
      <trkpt lat="44.9201" lon="5.1603">
        <ele>1011</ele>
        <time>2021-02-25T10:00:42Z</time>
      </trkpt>
      <trkpt lat="44.92002" lon="5.16035">
        <ele>1011</ele>
        <time>2021-02-25T10:01:20Z</time>
      </trkpt>
      <trkpt lat="44.92003" lon="5.16038">
        <ele>1011</ele>
        <time>2021-02-25T10:01:25Z</time>
      </trkpt>
      <trkpt lat="44.92" lon="5.16037">
        <ele>1011</ele>
        <time>2021-02-25T10:01:29Z</time>
      </trkpt>
      <trkpt lat="44.91999" lon="5.16033">
        <ele>1011</ele>
        <time>2021-02-25T10:01:34Z</time>
      </trkpt>
      <trkpt lat="44.91998" lon="5.16034">
        <ele>1011</ele>
        <time>2021-02-25T10:01:39Z</time>
      </trkpt>
      <trkpt lat="44.91991" lon="5.16027">
        <ele>1011</ele>
        <time>2021-02-25T10:02:16Z</time>
      </trkpt>
      <trkpt lat="44.9199" lon="5.16031">
        <ele>1011</ele>
        <time>2021-02-25T10:02:25Z</time>
      </trkpt>
      <trkpt lat="44.91987" lon="5.16034">
        <ele>1011</ele>
        <time>2021-02-25T10:02:30Z</time>
      </trkpt>
      <trkpt lat="44.91985" lon="5.1604">
        <ele>1027</ele>
        <time>2021-02-25T10:02:40Z</time>
      </trkpt>
      <trkpt lat="44.91983" lon="5.16039">
        <ele>1027</ele>
        <time>2021-02-25T10:02:45Z</time>
      </trkpt>
      <trkpt lat="44.9198" lon="5.16034">
        <ele>1027</ele>
        <time>2021-02-25T10:03:10Z</time>
      </trkpt>
      <trkpt lat="44.9198" lon="5.16034">
        <ele>1027</ele>
        <time>2021-02-25T10:03:15Z</time>
      </trkpt>
      <trkpt lat="44.91978" lon="5.16035">
        <ele>1027</ele>
        <time>2021-02-25T10:03:20Z</time>
      </trkpt>
      <trkpt lat="44.91976" lon="5.16037">
        <ele>1027</ele>
        <time>2021-02-25T10:03:25Z</time>
      </trkpt>
      <trkpt lat="44.91973" lon="5.16039">
        <ele>1027</ele>
        <time>2021-02-25T10:03:30Z</time>
      </trkpt>
      <trkpt lat="44.9197" lon="5.16036">
        <ele>1027</ele>
        <time>2021-02-25T10:03:48Z</time>
      </trkpt>
      <trkpt lat="44.91969" lon="5.16033">
        <ele>1027</ele>
        <time>2021-02-25T10:03:52Z</time>
      </trkpt>
      <trkpt lat="44.9197" lon="5.16032">
        <ele>1027</ele>
        <time>2021-02-25T10:03:57Z</time>
      </trkpt>
      <trkpt lat="44.91968" lon="5.1603">
        <ele>1027</ele>
        <time>2021-02-25T10:04:02Z</time>
      </trkpt>
      <trkpt lat="44.91967" lon="5.1603">
        <ele>1027</ele>
        <time>2021-02-25T10:04:06Z</time>
      </trkpt>
      <trkpt lat="44.91959" lon="5.1603">
        <ele>1027</ele>
        <time>2021-02-25T10:04:30Z</time>
      </trkpt>
      <trkpt lat="44.91959" lon="5.16031">
        <ele>1027</ele>
        <time>2021-02-25T10:04:35Z</time>
      </trkpt>
      <trkpt lat="44.9196" lon="5.16033">
        <ele>1027</ele>
        <time>2021-02-25T10:04:40Z</time>
      </trkpt>
      <trkpt lat="44.9196" lon="5.16034">
        <ele>1027</ele>
        <time>2021-02-25T10:04:45Z</time>
      </trkpt>
      <trkpt lat="44.91957" lon="5.16035">
        <ele>1043</ele>
        <time>2021-02-25T10:04:55Z</time>
      </trkpt>
      <trkpt lat="44.91956" lon="5.16032">
        <ele>1043</ele>
        <time>2021-02-25T10:05:04Z</time>
      </trkpt>
      <trkpt lat="44.91954" lon="5.16032">
        <ele>1043</ele>
        <time>2021-02-25T10:05:17Z</time>
      </trkpt>
      <trkpt lat="44.91952" lon="5.16032">
        <ele>1043</ele>
        <time>2021-02-25T10:05:22Z</time>
      </trkpt>
      <trkpt lat="44.9195" lon="5.16032">
        <ele>1043</ele>
        <time>2021-02-25T10:05:27Z</time>
      </trkpt>
      <trkpt lat="44.91948" lon="5.1603">
        <ele>1043</ele>
        <time>2021-02-25T10:05:32Z</time>
      </trkpt>
      <trkpt lat="44.91946" lon="5.1603">
        <ele>1043</ele>
        <time>2021-02-25T10:05:36Z</time>
      </trkpt>
      <trkpt lat="44.91943" lon="5.1603">
        <ele>1043</ele>
        <time>2021-02-25T10:05:41Z</time>
      </trkpt>
      <trkpt lat="44.9194" lon="5.16029">
        <ele>1043</ele>
        <time>2021-02-25T10:05:46Z</time>
      </trkpt>
      <trkpt lat="44.91938" lon="5.16029">
        <ele>1043</ele>
        <time>2021-02-25T10:05:51Z</time>
      </trkpt>
      <trkpt lat="44.91936" lon="5.16028">
        <ele>1043</ele>
        <time>2021-02-25T10:05:55Z</time>
      </trkpt>
      <trkpt lat="44.91934" lon="5.16028">
        <ele>1043</ele>
        <time>2021-02-25T10:06:05Z</time>
      </trkpt>
      <trkpt lat="44.91933" lon="5.16031">
        <ele>1043</ele>
        <time>2021-02-25T10:06:18Z</time>
      </trkpt>
      <trkpt lat="44.91932" lon="5.16034">
        <ele>1043</ele>
        <time>2021-02-25T10:06:23Z</time>
      </trkpt>
      <trkpt lat="44.9193" lon="5.16038">
        <ele>1060</ele>
        <time>2021-02-25T10:06:28Z</time>
      </trkpt>
      <trkpt lat="44.91929" lon="5.1604">
        <ele>1060</ele>
        <time>2021-02-25T10:06:33Z</time>
      </trkpt>
      <trkpt lat="44.91929" lon="5.16042">
        <ele>1066</ele>
        <time>2021-02-25T10:06:38Z</time>
      </trkpt>
      <trkpt lat="44.91927" lon="5.16046">
        <ele>1066</ele>
        <time>2021-02-25T10:06:43Z</time>
      </trkpt>
      <trkpt lat="44.91926" lon="5.16049">
        <ele>1066</ele>
        <time>2021-02-25T10:06:48Z</time>
      </trkpt>
      <trkpt lat="44.91924" lon="5.16052">
        <ele>1066</ele>
        <time>2021-02-25T10:06:56Z</time>
      </trkpt>
      <trkpt lat="44.91922" lon="5.16053">
        <ele>1066</ele>
        <time>2021-02-25T10:07:01Z</time>
      </trkpt>
      <trkpt lat="44.91918" lon="5.16049">
        <ele>1066</ele>
        <time>2021-02-25T10:07:11Z</time>
      </trkpt>
      <trkpt lat="44.91917" lon="5.16047">
        <ele>1066</ele>
        <time>2021-02-25T10:07:15Z</time>
      </trkpt>
      <trkpt lat="44.91916" lon="5.16045">
        <ele>1066</ele>
        <time>2021-02-25T10:07:20Z</time>
      </trkpt>
      <trkpt lat="44.91915" lon="5.16042">
        <ele>1066</ele>
        <time>2021-02-25T10:07:24Z</time>
      </trkpt>
      <trkpt lat="44.91913" lon="5.16041">
        <ele>1060</ele>
        <time>2021-02-25T10:07:28Z</time>
      </trkpt>
      <trkpt lat="44.91908" lon="5.1604">
        <ele>1060</ele>
        <time>2021-02-25T10:07:47Z</time>
      </trkpt>
      <trkpt lat="44.91907" lon="5.16038">
        <ele>1060</ele>
        <time>2021-02-25T10:07:52Z</time>
      </trkpt>
      <trkpt lat="44.91905" lon="5.16037">
        <ele>1060</ele>
        <time>2021-02-25T10:07:56Z</time>
      </trkpt>
      <trkpt lat="44.91904" lon="5.16034">
        <ele>1060</ele>
        <time>2021-02-25T10:08:01Z</time>
      </trkpt>
      <trkpt lat="44.91902" lon="5.16034">
        <ele>1073</ele>
        <time>2021-02-25T10:08:06Z</time>
      </trkpt>
      <trkpt lat="44.91895" lon="5.16027">
        <ele>1073</ele>
        <time>2021-02-25T10:08:20Z</time>
      </trkpt>
      <trkpt lat="44.91894" lon="5.16026">
        <ele>1073</ele>
        <time>2021-02-25T10:08:25Z</time>
      </trkpt>
      <trkpt lat="44.91892" lon="5.16026">
        <ele>1073</ele>
        <time>2021-02-25T10:08:30Z</time>
      </trkpt>
      <trkpt lat="44.9189" lon="5.16027">
        <ele>1073</ele>
        <time>2021-02-25T10:08:35Z</time>
      </trkpt>
      <trkpt lat="44.91888" lon="5.16027">
        <ele>1073</ele>
        <time>2021-02-25T10:08:41Z</time>
      </trkpt>
      <trkpt lat="44.91888" lon="5.16027">
        <ele>1073</ele>
        <time>2021-02-25T10:08:59Z</time>
      </trkpt>
      <trkpt lat="44.91885" lon="5.16024">
        <ele>1073</ele>
        <time>2021-02-25T10:09:04Z</time>
      </trkpt>
      <trkpt lat="44.91885" lon="5.16023">
        <ele>1073</ele>
        <time>2021-02-25T10:09:10Z</time>
      </trkpt>
      <trkpt lat="44.91883" lon="5.1602">
        <ele>1073</ele>
        <time>2021-02-25T10:09:15Z</time>
      </trkpt>
      <trkpt lat="44.9188" lon="5.16019">
        <ele>1073</ele>
        <time>2021-02-25T10:09:20Z</time>
      </trkpt>
      <trkpt lat="44.91878" lon="5.16015">
        <ele>1073</ele>
        <time>2021-02-25T10:09:30Z</time>
      </trkpt>
      <trkpt lat="44.91875" lon="5.16012">
        <ele>1066</ele>
        <time>2021-02-25T10:09:35Z</time>
      </trkpt>
      <trkpt lat="44.91873" lon="5.16012">
        <ele>1078</ele>
        <time>2021-02-25T10:09:39Z</time>
      </trkpt>
      <trkpt lat="44.9187" lon="5.16012">
        <ele>1078</ele>
        <time>2021-02-25T10:09:44Z</time>
      </trkpt>
      <trkpt lat="44.91868" lon="5.16013">
        <ele>1078</ele>
        <time>2021-02-25T10:09:49Z</time>
      </trkpt>
      <trkpt lat="44.91864" lon="5.16013">
        <ele>1078</ele>
        <time>2021-02-25T10:09:54Z</time>
      </trkpt>
      <trkpt lat="44.91862" lon="5.1601">
        <ele>1078</ele>
        <time>2021-02-25T10:09:58Z</time>
      </trkpt>
      <trkpt lat="44.9186" lon="5.16008">
        <ele>1078</ele>
        <time>2021-02-25T10:10:02Z</time>
      </trkpt>
      <trkpt lat="44.91858" lon="5.16008">
        <ele>1078</ele>
        <time>2021-02-25T10:10:07Z</time>
      </trkpt>
      <trkpt lat="44.91858" lon="5.16004">
        <ele>1078</ele>
        <time>2021-02-25T10:10:11Z</time>
      </trkpt>
      <trkpt lat="44.91858" lon="5.15999">
        <ele>1078</ele>
        <time>2021-02-25T10:10:16Z</time>
      </trkpt>
      <trkpt lat="44.91858" lon="5.15995">
        <ele>1078</ele>
        <time>2021-02-25T10:10:21Z</time>
      </trkpt>
      <trkpt lat="44.91858" lon="5.1599">
        <ele>1078</ele>
        <time>2021-02-25T10:10:26Z</time>
      </trkpt>
      <trkpt lat="44.91855" lon="5.15988">
        <ele>1078</ele>
        <time>2021-02-25T10:10:31Z</time>
      </trkpt>
      <trkpt lat="44.91852" lon="5.15984">
        <ele>1071</ele>
        <time>2021-02-25T10:10:36Z</time>
      </trkpt>
      <trkpt lat="44.91851" lon="5.15982">
        <ele>1071</ele>
        <time>2021-02-25T10:10:41Z</time>
      </trkpt>
      <trkpt lat="44.91849" lon="5.15982">
        <ele>1071</ele>
        <time>2021-02-25T10:10:46Z</time>
      </trkpt>
      <trkpt lat="44.91847" lon="5.1598">
        <ele>1080</ele>
        <time>2021-02-25T10:10:50Z</time>
      </trkpt>
      <trkpt lat="44.91845" lon="5.15976">
        <ele>1080</ele>
        <time>2021-02-25T10:10:55Z</time>
      </trkpt>
      <trkpt lat="44.91843" lon="5.15972">
        <ele>1080</ele>
        <time>2021-02-25T10:11:00Z</time>
      </trkpt>
      <trkpt lat="44.91841" lon="5.1597">
        <ele>1080</ele>
        <time>2021-02-25T10:11:10Z</time>
      </trkpt>
      <trkpt lat="44.91839" lon="5.15966">
        <ele>1080</ele>
        <time>2021-02-25T10:11:14Z</time>
      </trkpt>
      <trkpt lat="44.91835" lon="5.15965">
        <ele>1080</ele>
        <time>2021-02-25T10:11:19Z</time>
      </trkpt>
      <trkpt lat="44.91833" lon="5.1596">
        <ele>1080</ele>
        <time>2021-02-25T10:11:28Z</time>
      </trkpt>
      <trkpt lat="44.9183" lon="5.15957">
        <ele>1071</ele>
        <time>2021-02-25T10:11:32Z</time>
      </trkpt>
      <trkpt lat="44.91828" lon="5.15955">
        <ele>1071</ele>
        <time>2021-02-25T10:11:37Z</time>
      </trkpt>
      <trkpt lat="44.91824" lon="5.15953">
        <ele>1071</ele>
        <time>2021-02-25T10:11:42Z</time>
      </trkpt>
      <trkpt lat="44.91822" lon="5.15951">
        <ele>1071</ele>
        <time>2021-02-25T10:11:47Z</time>
      </trkpt>
      <trkpt lat="44.9182" lon="5.15948">
        <ele>1071</ele>
        <time>2021-02-25T10:11:52Z</time>
      </trkpt>
      <trkpt lat="44.91815" lon="5.15943">
        <ele>1084</ele>
        <time>2021-02-25T10:12:10Z</time>
      </trkpt>
      <trkpt lat="44.91815" lon="5.15939">
        <ele>1084</ele>
        <time>2021-02-25T10:12:20Z</time>
      </trkpt>
      <trkpt lat="44.91811" lon="5.15937">
        <ele>1084</ele>
        <time>2021-02-25T10:12:25Z</time>
      </trkpt>
      <trkpt lat="44.91808" lon="5.15938">
        <ele>1084</ele>
        <time>2021-02-25T10:12:30Z</time>
      </trkpt>
      <trkpt lat="44.91806" lon="5.15936">
        <ele>1084</ele>
        <time>2021-02-25T10:12:35Z</time>
      </trkpt>
      <trkpt lat="44.91803" lon="5.15935">
        <ele>1084</ele>
        <time>2021-02-25T10:12:44Z</time>
      </trkpt>
      <trkpt lat="44.91803" lon="5.15935">
        <ele>1084</ele>
        <time>2021-02-25T10:12:49Z</time>
      </trkpt>
      <trkpt lat="44.91799" lon="5.15933">
        <ele>1084</ele>
        <time>2021-02-25T10:12:53Z</time>
      </trkpt>
      <trkpt lat="44.91798" lon="5.15934">
        <ele>1084</ele>
        <time>2021-02-25T10:12:57Z</time>
      </trkpt>
      <trkpt lat="44.91795" lon="5.15933">
        <ele>1084</ele>
        <time>2021-02-25T10:13:02Z</time>
      </trkpt>
      <trkpt lat="44.91789" lon="5.15935">
        <ele>1092</ele>
        <time>2021-02-25T10:13:15Z</time>
      </trkpt>
      <trkpt lat="44.91787" lon="5.15935">
        <ele>1092</ele>
        <time>2021-02-25T10:13:19Z</time>
      </trkpt>
      <trkpt lat="44.91785" lon="5.15934">
        <ele>1092</ele>
        <time>2021-02-25T10:13:24Z</time>
      </trkpt>
      <trkpt lat="44.91784" lon="5.15934">
        <ele>1092</ele>
        <time>2021-02-25T10:13:28Z</time>
      </trkpt>
      <trkpt lat="44.91783" lon="5.15934">
        <ele>1092</ele>
        <time>2021-02-25T10:13:33Z</time>
      </trkpt>
      <trkpt lat="44.91775" lon="5.15931">
        <ele>1092</ele>
        <time>2021-02-25T10:13:47Z</time>
      </trkpt>
      <trkpt lat="44.91775" lon="5.15931">
        <ele>1092</ele>
        <time>2021-02-25T10:13:52Z</time>
      </trkpt>
      <trkpt lat="44.91771" lon="5.15929">
        <ele>1083</ele>
        <time>2021-02-25T10:13:57Z</time>
      </trkpt>
      <trkpt lat="44.9177" lon="5.1593">
        <ele>1083</ele>
        <time>2021-02-25T10:14:02Z</time>
      </trkpt>
      <trkpt lat="44.91769" lon="5.1593">
        <ele>1083</ele>
        <time>2021-02-25T10:14:06Z</time>
      </trkpt>
      <trkpt lat="44.91764" lon="5.15929">
        <ele>1083</ele>
        <time>2021-02-25T10:14:21Z</time>
      </trkpt>
      <trkpt lat="44.91761" lon="5.15929">
        <ele>1092</ele>
        <time>2021-02-25T10:14:26Z</time>
      </trkpt>
      <trkpt lat="44.91759" lon="5.15929">
        <ele>1092</ele>
        <time>2021-02-25T10:14:31Z</time>
      </trkpt>
      <trkpt lat="44.91758" lon="5.15928">
        <ele>1092</ele>
        <time>2021-02-25T10:14:35Z</time>
      </trkpt>
      <trkpt lat="44.91757" lon="5.1593">
        <ele>1092</ele>
        <time>2021-02-25T10:14:40Z</time>
      </trkpt>
      <trkpt lat="44.91754" lon="5.15925">
        <ele>1092</ele>
        <time>2021-02-25T10:14:49Z</time>
      </trkpt>
      <trkpt lat="44.91752" lon="5.15921">
        <ele>1092</ele>
        <time>2021-02-25T10:14:54Z</time>
      </trkpt>
      <trkpt lat="44.9175" lon="5.1592">
        <ele>1092</ele>
        <time>2021-02-25T10:14:59Z</time>
      </trkpt>
      <trkpt lat="44.91749" lon="5.15918">
        <ele>1092</ele>
        <time>2021-02-25T10:15:04Z</time>
      </trkpt>
      <trkpt lat="44.91746" lon="5.15916">
        <ele>1092</ele>
        <time>2021-02-25T10:15:10Z</time>
      </trkpt>
      <trkpt lat="44.91741" lon="5.15909">
        <ele>1092</ele>
        <time>2021-02-25T10:15:19Z</time>
      </trkpt>
      <trkpt lat="44.9174" lon="5.15906">
        <ele>1092</ele>
        <time>2021-02-25T10:15:28Z</time>
      </trkpt>
      <trkpt lat="44.91739" lon="5.15905">
        <ele>1092</ele>
        <time>2021-02-25T10:15:33Z</time>
      </trkpt>
      <trkpt lat="44.91739" lon="5.15905">
        <ele>1092</ele>
        <time>2021-02-25T10:15:38Z</time>
      </trkpt>
      <trkpt lat="44.91736" lon="5.15905">
        <ele>1092</ele>
        <time>2021-02-25T10:16:23Z</time>
      </trkpt>
      <trkpt lat="44.91734" lon="5.15907">
        <ele>1101</ele>
        <time>2021-02-25T10:16:28Z</time>
      </trkpt>
      <trkpt lat="44.91731" lon="5.15908">
        <ele>1101</ele>
        <time>2021-02-25T10:16:33Z</time>
      </trkpt>
      <trkpt lat="44.91728" lon="5.15911">
        <ele>1101</ele>
        <time>2021-02-25T10:16:38Z</time>
      </trkpt>
      <trkpt lat="44.91724" lon="5.15913">
        <ele>1101</ele>
        <time>2021-02-25T10:16:43Z</time>
      </trkpt>
      <trkpt lat="44.9172" lon="5.15914">
        <ele>1101</ele>
        <time>2021-02-25T10:16:48Z</time>
      </trkpt>
      <trkpt lat="44.91716" lon="5.15917">
        <ele>1101</ele>
        <time>2021-02-25T10:16:53Z</time>
      </trkpt>
      <trkpt lat="44.91712" lon="5.1592">
        <ele>1101</ele>
        <time>2021-02-25T10:16:57Z</time>
      </trkpt>
      <trkpt lat="44.91709" lon="5.15918">
        <ele>1101</ele>
        <time>2021-02-25T10:17:02Z</time>
      </trkpt>
      <trkpt lat="44.91706" lon="5.15912">
        <ele>1106</ele>
        <time>2021-02-25T10:27:08Z</time>
      </trkpt>
      <trkpt lat="44.91709" lon="5.15913">
        <ele>1101</ele>
        <time>2021-02-25T10:27:12Z</time>
      </trkpt>
      <trkpt lat="44.91713" lon="5.15916">
        <ele>1101</ele>
        <time>2021-02-25T10:27:16Z</time>
      </trkpt>
      <trkpt lat="44.91715" lon="5.15921">
        <ele>1101</ele>
        <time>2021-02-25T10:27:21Z</time>
      </trkpt>
      <trkpt lat="44.91719" lon="5.15925">
        <ele>1101</ele>
        <time>2021-02-25T10:27:26Z</time>
      </trkpt>
      <trkpt lat="44.91724" lon="5.15926">
        <ele>1101</ele>
        <time>2021-02-25T10:27:31Z</time>
      </trkpt>
      <trkpt lat="44.91729" lon="5.15929">
        <ele>1101</ele>
        <time>2021-02-25T10:27:36Z</time>
      </trkpt>
      <trkpt lat="44.91735" lon="5.15932">
        <ele>1104</ele>
        <time>2021-02-25T10:27:41Z</time>
      </trkpt>
      <trkpt lat="44.91738" lon="5.15936">
        <ele>1099</ele>
        <time>2021-02-25T10:27:46Z</time>
      </trkpt>
      <trkpt lat="44.9174" lon="5.15944">
        <ele>1099</ele>
        <time>2021-02-25T10:27:50Z</time>
      </trkpt>
      <trkpt lat="44.91742" lon="5.15949">
        <ele>1099</ele>
        <time>2021-02-25T10:27:55Z</time>
      </trkpt>
      <trkpt lat="44.91745" lon="5.15954">
        <ele>1099</ele>
        <time>2021-02-25T10:28:00Z</time>
      </trkpt>
      <trkpt lat="44.91747" lon="5.1596">
        <ele>1103</ele>
        <time>2021-02-25T10:28:05Z</time>
      </trkpt>
      <trkpt lat="44.91749" lon="5.15967">
        <ele>1103</ele>
        <time>2021-02-25T10:28:10Z</time>
      </trkpt>
      <trkpt lat="44.91752" lon="5.15973">
        <ele>1103</ele>
        <time>2021-02-25T10:28:15Z</time>
      </trkpt>
      <trkpt lat="44.91754" lon="5.15977">
        <ele>1103</ele>
        <time>2021-02-25T10:28:19Z</time>
      </trkpt>
      <trkpt lat="44.91757" lon="5.15984">
        <ele>1103</ele>
        <time>2021-02-25T10:28:24Z</time>
      </trkpt>
      <trkpt lat="44.9176" lon="5.15991">
        <ele>1106</ele>
        <time>2021-02-25T10:28:29Z</time>
      </trkpt>
      <trkpt lat="44.91762" lon="5.15996">
        <ele>1106</ele>
        <time>2021-02-25T10:28:33Z</time>
      </trkpt>
      <trkpt lat="44.91764" lon="5.16001">
        <ele>1106</ele>
        <time>2021-02-25T10:28:38Z</time>
      </trkpt>
      <trkpt lat="44.91766" lon="5.16007">
        <ele>1106</ele>
        <time>2021-02-25T10:28:43Z</time>
      </trkpt>
      <trkpt lat="44.91769" lon="5.16013">
        <ele>1106</ele>
        <time>2021-02-25T10:28:48Z</time>
      </trkpt>
      <trkpt lat="44.91771" lon="5.1602">
        <ele>1108</ele>
        <time>2021-02-25T10:28:53Z</time>
      </trkpt>
      <trkpt lat="44.91773" lon="5.16025">
        <ele>1108</ele>
        <time>2021-02-25T10:28:57Z</time>
      </trkpt>
      <trkpt lat="44.91774" lon="5.16032">
        <ele>1108</ele>
        <time>2021-02-25T10:29:02Z</time>
      </trkpt>
      <trkpt lat="44.91776" lon="5.16037">
        <ele>1108</ele>
        <time>2021-02-25T10:29:07Z</time>
      </trkpt>
      <trkpt lat="44.91777" lon="5.16043">
        <ele>1112</ele>
        <time>2021-02-25T10:29:11Z</time>
      </trkpt>
      <trkpt lat="44.91778" lon="5.1605">
        <ele>1112</ele>
        <time>2021-02-25T10:29:16Z</time>
      </trkpt>
      <trkpt lat="44.9178" lon="5.16056">
        <ele>1112</ele>
        <time>2021-02-25T10:29:21Z</time>
      </trkpt>
      <trkpt lat="44.91783" lon="5.16068">
        <ele>1112</ele>
        <time>2021-02-25T10:29:29Z</time>
      </trkpt>
      <trkpt lat="44.91783" lon="5.16072">
        <ele>1114</ele>
        <time>2021-02-25T10:29:34Z</time>
      </trkpt>
      <trkpt lat="44.91783" lon="5.16073">
        <ele>1114</ele>
        <time>2021-02-25T10:29:39Z</time>
      </trkpt>
      <trkpt lat="44.91783" lon="5.16073">
        <ele>1114</ele>
        <time>2021-02-25T10:29:44Z</time>
      </trkpt>
      <trkpt lat="44.91784" lon="5.16079">
        <ele>1114</ele>
        <time>2021-02-25T10:29:58Z</time>
      </trkpt>
      <trkpt lat="44.91785" lon="5.16085">
        <ele>1114</ele>
        <time>2021-02-25T10:30:03Z</time>
      </trkpt>
      <trkpt lat="44.91787" lon="5.16092">
        <ele>1114</ele>
        <time>2021-02-25T10:30:08Z</time>
      </trkpt>
      <trkpt lat="44.91787" lon="5.16098">
        <ele>1117</ele>
        <time>2021-02-25T10:30:12Z</time>
      </trkpt>
      <trkpt lat="44.91788" lon="5.16105">
        <ele>1117</ele>
        <time>2021-02-25T10:30:17Z</time>
      </trkpt>
      <trkpt lat="44.91788" lon="5.16112">
        <ele>1117</ele>
        <time>2021-02-25T10:30:22Z</time>
      </trkpt>
      <trkpt lat="44.91789" lon="5.16119">
        <ele>1117</ele>
        <time>2021-02-25T10:30:27Z</time>
      </trkpt>
      <trkpt lat="44.91791" lon="5.16126">
        <ele>1120</ele>
        <time>2021-02-25T10:30:32Z</time>
      </trkpt>
      <trkpt lat="44.91791" lon="5.16132">
        <ele>1120</ele>
        <time>2021-02-25T10:30:37Z</time>
      </trkpt>
      <trkpt lat="44.91792" lon="5.16139">
        <ele>1119</ele>
        <time>2021-02-25T10:30:42Z</time>
      </trkpt>
      <trkpt lat="44.91792" lon="5.16147">
        <ele>1119</ele>
        <time>2021-02-25T10:30:47Z</time>
      </trkpt>
      <trkpt lat="44.91793" lon="5.16153">
        <ele>1122</ele>
        <time>2021-02-25T10:30:51Z</time>
      </trkpt>
      <trkpt lat="44.91793" lon="5.1616">
        <ele>1122</ele>
        <time>2021-02-25T10:30:57Z</time>
      </trkpt>
      <trkpt lat="44.91793" lon="5.16167">
        <ele>1122</ele>
        <time>2021-02-25T10:31:01Z</time>
      </trkpt>
      <trkpt lat="44.91793" lon="5.16173">
        <ele>1122</ele>
        <time>2021-02-25T10:31:06Z</time>
      </trkpt>
      <trkpt lat="44.91793" lon="5.16178">
        <ele>1122</ele>
        <time>2021-02-25T10:31:11Z</time>
      </trkpt>
      <trkpt lat="44.91794" lon="5.16183">
        <ele>1124</ele>
        <time>2021-02-25T10:31:17Z</time>
      </trkpt>
      <trkpt lat="44.91794" lon="5.16187">
        <ele>1124</ele>
        <time>2021-02-25T10:31:21Z</time>
      </trkpt>
      <trkpt lat="44.91794" lon="5.16193">
        <ele>1124</ele>
        <time>2021-02-25T10:31:25Z</time>
      </trkpt>
      <trkpt lat="44.91795" lon="5.16199">
        <ele>1124</ele>
        <time>2021-02-25T10:31:31Z</time>
      </trkpt>
      <trkpt lat="44.91796" lon="5.16205">
        <ele>1124</ele>
        <time>2021-02-25T10:31:36Z</time>
      </trkpt>
      <trkpt lat="44.91796" lon="5.16209">
        <ele>1128</ele>
        <time>2021-02-25T10:31:40Z</time>
      </trkpt>
      <trkpt lat="44.91797" lon="5.16215">
        <ele>1128</ele>
        <time>2021-02-25T10:31:45Z</time>
      </trkpt>
      <trkpt lat="44.91798" lon="5.1622">
        <ele>1128</ele>
        <time>2021-02-25T10:31:50Z</time>
      </trkpt>
      <trkpt lat="44.91798" lon="5.16225">
        <ele>1128</ele>
        <time>2021-02-25T10:31:55Z</time>
      </trkpt>
      <trkpt lat="44.91799" lon="5.16231">
        <ele>1128</ele>
        <time>2021-02-25T10:32:00Z</time>
      </trkpt>
      <trkpt lat="44.918" lon="5.16236">
        <ele>1128</ele>
        <time>2021-02-25T10:32:05Z</time>
      </trkpt>
      <trkpt lat="44.918" lon="5.16241">
        <ele>1131</ele>
        <time>2021-02-25T10:32:10Z</time>
      </trkpt>
      <trkpt lat="44.91802" lon="5.16246">
        <ele>1131</ele>
        <time>2021-02-25T10:32:14Z</time>
      </trkpt>
      <trkpt lat="44.91802" lon="5.16251">
        <ele>1131</ele>
        <time>2021-02-25T10:32:19Z</time>
      </trkpt>
      <trkpt lat="44.91802" lon="5.16255">
        <ele>1131</ele>
        <time>2021-02-25T10:32:24Z</time>
      </trkpt>
      <trkpt lat="44.91803" lon="5.16261">
        <ele>1131</ele>
        <time>2021-02-25T10:32:29Z</time>
      </trkpt>
      <trkpt lat="44.91803" lon="5.16263">
        <ele>1131</ele>
        <time>2021-02-25T10:32:34Z</time>
      </trkpt>
      <trkpt lat="44.91803" lon="5.16268">
        <ele>1135</ele>
        <time>2021-02-25T10:32:39Z</time>
      </trkpt>
      <trkpt lat="44.91803" lon="5.16272">
        <ele>1135</ele>
        <time>2021-02-25T10:32:44Z</time>
      </trkpt>
      <trkpt lat="44.91803" lon="5.16275">
        <ele>1135</ele>
        <time>2021-02-25T10:32:49Z</time>
      </trkpt>
      <trkpt lat="44.91804" lon="5.16279">
        <ele>1135</ele>
        <time>2021-02-25T10:32:54Z</time>
      </trkpt>
      <trkpt lat="44.91803" lon="5.16283">
        <ele>1135</ele>
        <time>2021-02-25T10:32:59Z</time>
      </trkpt>
      <trkpt lat="44.91803" lon="5.16286">
        <ele>1135</ele>
        <time>2021-02-25T10:33:03Z</time>
      </trkpt>
      <trkpt lat="44.91802" lon="5.16291">
        <ele>1135</ele>
        <time>2021-02-25T10:33:08Z</time>
      </trkpt>
      <trkpt lat="44.91803" lon="5.16294">
        <ele>1140</ele>
        <time>2021-02-25T10:33:13Z</time>
      </trkpt>
      <trkpt lat="44.91804" lon="5.16297">
        <ele>1140</ele>
        <time>2021-02-25T10:33:17Z</time>
      </trkpt>
      <trkpt lat="44.91804" lon="5.16301">
        <ele>1140</ele>
        <time>2021-02-25T10:33:21Z</time>
      </trkpt>
      <trkpt lat="44.91805" lon="5.16304">
        <ele>1140</ele>
        <time>2021-02-25T10:33:26Z</time>
      </trkpt>
      <trkpt lat="44.91806" lon="5.16309">
        <ele>1140</ele>
        <time>2021-02-25T10:33:31Z</time>
      </trkpt>
      <trkpt lat="44.91806" lon="5.16313">
        <ele>1140</ele>
        <time>2021-02-25T10:33:36Z</time>
      </trkpt>
      <trkpt lat="44.91807" lon="5.16317">
        <ele>1140</ele>
        <time>2021-02-25T10:33:41Z</time>
      </trkpt>
      <trkpt lat="44.91807" lon="5.1632">
        <ele>1146</ele>
        <time>2021-02-25T10:33:46Z</time>
      </trkpt>
      <trkpt lat="44.91808" lon="5.16324">
        <ele>1146</ele>
        <time>2021-02-25T10:33:51Z</time>
      </trkpt>
      <trkpt lat="44.91809" lon="5.1633">
        <ele>1146</ele>
        <time>2021-02-25T10:34:00Z</time>
      </trkpt>
      <trkpt lat="44.9181" lon="5.16333">
        <ele>1146</ele>
        <time>2021-02-25T10:34:05Z</time>
      </trkpt>
      <trkpt lat="44.91809" lon="5.16337">
        <ele>1146</ele>
        <time>2021-02-25T10:34:10Z</time>
      </trkpt>
      <trkpt lat="44.91808" lon="5.1634">
        <ele>1146</ele>
        <time>2021-02-25T10:34:15Z</time>
      </trkpt>
      <trkpt lat="44.91808" lon="5.16341">
        <ele>1146</ele>
        <time>2021-02-25T10:34:20Z</time>
      </trkpt>
      <trkpt lat="44.91807" lon="5.16345">
        <ele>1146</ele>
        <time>2021-02-25T10:34:25Z</time>
      </trkpt>
      <trkpt lat="44.91806" lon="5.1635">
        <ele>1153</ele>
        <time>2021-02-25T10:34:30Z</time>
      </trkpt>
      <trkpt lat="44.91805" lon="5.16353">
        <ele>1153</ele>
        <time>2021-02-25T10:34:35Z</time>
      </trkpt>
      <trkpt lat="44.91804" lon="5.16356">
        <ele>1153</ele>
        <time>2021-02-25T10:34:40Z</time>
      </trkpt>
      <trkpt lat="44.91803" lon="5.1636">
        <ele>1153</ele>
        <time>2021-02-25T10:34:45Z</time>
      </trkpt>
      <trkpt lat="44.91803" lon="5.16368">
        <ele>1153</ele>
        <time>2021-02-25T10:35:00Z</time>
      </trkpt>
      <trkpt lat="44.91803" lon="5.16369">
        <ele>1153</ele>
        <time>2021-02-25T10:35:04Z</time>
      </trkpt>
      <trkpt lat="44.91804" lon="5.16372">
        <ele>1153</ele>
        <time>2021-02-25T10:35:08Z</time>
      </trkpt>
      <trkpt lat="44.91804" lon="5.16372">
        <ele>1153</ele>
        <time>2021-02-25T10:35:12Z</time>
      </trkpt>
      <trkpt lat="44.91804" lon="5.16377">
        <ele>1159</ele>
        <time>2021-02-25T10:35:18Z</time>
      </trkpt>
      <trkpt lat="44.91806" lon="5.16384">
        <ele>1159</ele>
        <time>2021-02-25T10:35:27Z</time>
      </trkpt>
      <trkpt lat="44.91806" lon="5.16388">
        <ele>1159</ele>
        <time>2021-02-25T10:35:32Z</time>
      </trkpt>
      <trkpt lat="44.91807" lon="5.16391">
        <ele>1159</ele>
        <time>2021-02-25T10:35:37Z</time>
      </trkpt>
      <trkpt lat="44.91807" lon="5.16393">
        <ele>1159</ele>
        <time>2021-02-25T10:35:42Z</time>
      </trkpt>
      <trkpt lat="44.91808" lon="5.16397">
        <ele>1159</ele>
        <time>2021-02-25T10:35:46Z</time>
      </trkpt>
      <trkpt lat="44.91811" lon="5.16403">
        <ele>1168</ele>
        <time>2021-02-25T10:35:56Z</time>
      </trkpt>
      <trkpt lat="44.91812" lon="5.16406">
        <ele>1168</ele>
        <time>2021-02-25T10:36:00Z</time>
      </trkpt>
      <trkpt lat="44.91813" lon="5.16406">
        <ele>1168</ele>
        <time>2021-02-25T10:36:05Z</time>
      </trkpt>
      <trkpt lat="44.91813" lon="5.16409">
        <ele>1168</ele>
        <time>2021-02-25T10:36:19Z</time>
      </trkpt>
      <trkpt lat="44.91815" lon="5.16412">
        <ele>1168</ele>
        <time>2021-02-25T10:36:24Z</time>
      </trkpt>
      <trkpt lat="44.91816" lon="5.16416">
        <ele>1168</ele>
        <time>2021-02-25T10:36:29Z</time>
      </trkpt>
      <trkpt lat="44.91817" lon="5.16419">
        <ele>1168</ele>
        <time>2021-02-25T10:36:34Z</time>
      </trkpt>
      <trkpt lat="44.9182" lon="5.16422">
        <ele>1154</ele>
        <time>2021-02-25T10:36:38Z</time>
      </trkpt>
      <trkpt lat="44.91821" lon="5.16424">
        <ele>1154</ele>
        <time>2021-02-25T10:36:43Z</time>
      </trkpt>
      <trkpt lat="44.91823" lon="5.1643">
        <ele>1154</ele>
        <time>2021-02-25T10:36:48Z</time>
      </trkpt>
      <trkpt lat="44.91825" lon="5.16434">
        <ele>1165</ele>
        <time>2021-02-25T10:36:53Z</time>
      </trkpt>
      <trkpt lat="44.91826" lon="5.16439">
        <ele>1165</ele>
        <time>2021-02-25T10:36:58Z</time>
      </trkpt>
      <trkpt lat="44.91828" lon="5.16444">
        <ele>1165</ele>
        <time>2021-02-25T10:37:03Z</time>
      </trkpt>
      <trkpt lat="44.9183" lon="5.16448">
        <ele>1165</ele>
        <time>2021-02-25T10:37:07Z</time>
      </trkpt>
      <trkpt lat="44.91832" lon="5.16452">
        <ele>1165</ele>
        <time>2021-02-25T10:37:11Z</time>
      </trkpt>
      <trkpt lat="44.91834" lon="5.16456">
        <ele>1165</ele>
        <time>2021-02-25T10:37:16Z</time>
      </trkpt>
      <trkpt lat="44.91835" lon="5.16459">
        <ele>1168</ele>
        <time>2021-02-25T10:37:20Z</time>
      </trkpt>
      <trkpt lat="44.91837" lon="5.16463">
        <ele>1168</ele>
        <time>2021-02-25T10:37:25Z</time>
      </trkpt>
      <trkpt lat="44.91838" lon="5.16468">
        <ele>1168</ele>
        <time>2021-02-25T10:37:30Z</time>
      </trkpt>
      <trkpt lat="44.9184" lon="5.16472">
        <ele>1168</ele>
        <time>2021-02-25T10:37:35Z</time>
      </trkpt>
      <trkpt lat="44.91841" lon="5.16477">
        <ele>1168</ele>
        <time>2021-02-25T10:37:40Z</time>
      </trkpt>
      <trkpt lat="44.91844" lon="5.16482">
        <ele>1168</ele>
        <time>2021-02-25T10:37:45Z</time>
      </trkpt>
      <trkpt lat="44.91845" lon="5.16483">
        <ele>1168</ele>
        <time>2021-02-25T10:37:50Z</time>
      </trkpt>
      <trkpt lat="44.91847" lon="5.16486">
        <ele>1168</ele>
        <time>2021-02-25T10:37:54Z</time>
      </trkpt>
      <trkpt lat="44.91849" lon="5.1649">
        <ele>1148</ele>
        <time>2021-02-25T10:37:59Z</time>
      </trkpt>
      <trkpt lat="44.91851" lon="5.16495">
        <ele>1148</ele>
        <time>2021-02-25T10:38:04Z</time>
      </trkpt>
      <trkpt lat="44.91853" lon="5.16501">
        <ele>1148</ele>
        <time>2021-02-25T10:38:09Z</time>
      </trkpt>
      <trkpt lat="44.91855" lon="5.16505">
        <ele>1148</ele>
        <time>2021-02-25T10:38:14Z</time>
      </trkpt>
      <trkpt lat="44.91858" lon="5.1651">
        <ele>1148</ele>
        <time>2021-02-25T10:38:19Z</time>
      </trkpt>
      <trkpt lat="44.91859" lon="5.16512">
        <ele>1148</ele>
        <time>2021-02-25T10:38:23Z</time>
      </trkpt>
      <trkpt lat="44.91861" lon="5.16517">
        <ele>1159</ele>
        <time>2021-02-25T10:38:28Z</time>
      </trkpt>
      <trkpt lat="44.91862" lon="5.16524">
        <ele>1159</ele>
        <time>2021-02-25T10:38:33Z</time>
      </trkpt>
      <trkpt lat="44.91863" lon="5.1653">
        <ele>1159</ele>
        <time>2021-02-25T10:38:38Z</time>
      </trkpt>
      <trkpt lat="44.91864" lon="5.16534">
        <ele>1159</ele>
        <time>2021-02-25T10:38:42Z</time>
      </trkpt>
      <trkpt lat="44.91866" lon="5.1654">
        <ele>1159</ele>
        <time>2021-02-25T10:38:47Z</time>
      </trkpt>
      <trkpt lat="44.91866" lon="5.16544">
        <ele>1174</ele>
        <time>2021-02-25T10:38:52Z</time>
      </trkpt>
      <trkpt lat="44.91867" lon="5.1655">
        <ele>1174</ele>
        <time>2021-02-25T10:38:57Z</time>
      </trkpt>
      <trkpt lat="44.91867" lon="5.16556">
        <ele>1174</ele>
        <time>2021-02-25T10:39:02Z</time>
      </trkpt>
      <trkpt lat="44.91869" lon="5.16567">
        <ele>1174</ele>
        <time>2021-02-25T10:39:16Z</time>
      </trkpt>
      <trkpt lat="44.91869" lon="5.16573">
        <ele>1181</ele>
        <time>2021-02-25T10:39:20Z</time>
      </trkpt>
      <trkpt lat="44.91868" lon="5.16578">
        <ele>1181</ele>
        <time>2021-02-25T10:39:25Z</time>
      </trkpt>
      <trkpt lat="44.91869" lon="5.16583">
        <ele>1181</ele>
        <time>2021-02-25T10:39:30Z</time>
      </trkpt>
      <trkpt lat="44.9187" lon="5.16589">
        <ele>1181</ele>
        <time>2021-02-25T10:39:34Z</time>
      </trkpt>
      <trkpt lat="44.91871" lon="5.16597">
        <ele>1181</ele>
        <time>2021-02-25T10:39:39Z</time>
      </trkpt>
      <trkpt lat="44.91872" lon="5.16602">
        <ele>1187</ele>
        <time>2021-02-25T10:39:44Z</time>
      </trkpt>
      <trkpt lat="44.91873" lon="5.16606">
        <ele>1187</ele>
        <time>2021-02-25T10:39:49Z</time>
      </trkpt>
      <trkpt lat="44.91875" lon="5.16612">
        <ele>1187</ele>
        <time>2021-02-25T10:39:54Z</time>
      </trkpt>
      <trkpt lat="44.91874" lon="5.1663">
        <ele>1188</ele>
        <time>2021-02-25T10:40:26Z</time>
      </trkpt>
      <trkpt lat="44.91871" lon="5.16633">
        <ele>1188</ele>
        <time>2021-02-25T10:40:31Z</time>
      </trkpt>
      <trkpt lat="44.91868" lon="5.16637">
        <ele>1188</ele>
        <time>2021-02-25T10:40:36Z</time>
      </trkpt>
      <trkpt lat="44.91864" lon="5.16639">
        <ele>1188</ele>
        <time>2021-02-25T10:40:41Z</time>
      </trkpt>
      <trkpt lat="44.91859" lon="5.1664">
        <ele>1188</ele>
        <time>2021-02-25T10:40:46Z</time>
      </trkpt>
      <trkpt lat="44.91856" lon="5.16643">
        <ele>1188</ele>
        <time>2021-02-25T10:40:50Z</time>
      </trkpt>
      <trkpt lat="44.91855" lon="5.16649">
        <ele>1188</ele>
        <time>2021-02-25T10:40:55Z</time>
      </trkpt>
      <trkpt lat="44.9185" lon="5.16653">
        <ele>1189</ele>
        <time>2021-02-25T10:41:00Z</time>
      </trkpt>
      <trkpt lat="44.91847" lon="5.16657">
        <ele>1184</ele>
        <time>2021-02-25T10:41:04Z</time>
      </trkpt>
      <trkpt lat="44.91847" lon="5.16661">
        <ele>1184</ele>
        <time>2021-02-25T10:41:09Z</time>
      </trkpt>
      <trkpt lat="44.91846" lon="5.16663">
        <ele>1184</ele>
        <time>2021-02-25T10:41:13Z</time>
      </trkpt>
      <trkpt lat="44.91845" lon="5.16669">
        <ele>1184</ele>
        <time>2021-02-25T10:41:17Z</time>
      </trkpt>
      <trkpt lat="44.91844" lon="5.16675">
        <ele>1184</ele>
        <time>2021-02-25T10:41:22Z</time>
      </trkpt>
      <trkpt lat="44.91842" lon="5.16683">
        <ele>1183</ele>
        <time>2021-02-25T10:41:42Z</time>
      </trkpt>
      <trkpt lat="44.9184" lon="5.16686">
        <ele>1183</ele>
        <time>2021-02-25T10:41:51Z</time>
      </trkpt>
      <trkpt lat="44.91838" lon="5.16683">
        <ele>1183</ele>
        <time>2021-02-25T10:42:00Z</time>
      </trkpt>
      <trkpt lat="44.91837" lon="5.16683">
        <ele>1183</ele>
        <time>2021-02-25T10:42:05Z</time>
      </trkpt>
      <trkpt lat="44.91834" lon="5.16684">
        <ele>1183</ele>
        <time>2021-02-25T10:42:10Z</time>
      </trkpt>
      <trkpt lat="44.91829" lon="5.16686">
        <ele>1183</ele>
        <time>2021-02-25T10:42:15Z</time>
      </trkpt>
      <trkpt lat="44.91827" lon="5.16688">
        <ele>1183</ele>
        <time>2021-02-25T10:42:20Z</time>
      </trkpt>
      <trkpt lat="44.91826" lon="5.16692">
        <ele>1183</ele>
        <time>2021-02-25T10:42:25Z</time>
      </trkpt>
      <trkpt lat="44.91826" lon="5.16699">
        <ele>1183</ele>
        <time>2021-02-25T10:42:30Z</time>
      </trkpt>
      <trkpt lat="44.91826" lon="5.16705">
        <ele>1183</ele>
        <time>2021-02-25T10:42:35Z</time>
      </trkpt>
      <trkpt lat="44.91828" lon="5.1671">
        <ele>1181</ele>
        <time>2021-02-25T10:42:40Z</time>
      </trkpt>
      <trkpt lat="44.9183" lon="5.16715">
        <ele>1181</ele>
        <time>2021-02-25T10:42:45Z</time>
      </trkpt>
      <trkpt lat="44.91831" lon="5.16722">
        <ele>1181</ele>
        <time>2021-02-25T10:42:50Z</time>
      </trkpt>
      <trkpt lat="44.91832" lon="5.16729">
        <ele>1181</ele>
        <time>2021-02-25T10:42:55Z</time>
      </trkpt>
      <trkpt lat="44.91833" lon="5.16734">
        <ele>1181</ele>
        <time>2021-02-25T10:43:00Z</time>
      </trkpt>
      <trkpt lat="44.91834" lon="5.1674">
        <ele>1181</ele>
        <time>2021-02-25T10:43:05Z</time>
      </trkpt>
      <trkpt lat="44.91836" lon="5.16746">
        <ele>1181</ele>
        <time>2021-02-25T10:43:10Z</time>
      </trkpt>
      <trkpt lat="44.91836" lon="5.16751">
        <ele>1181</ele>
        <time>2021-02-25T10:43:15Z</time>
      </trkpt>
      <trkpt lat="44.91836" lon="5.16756">
        <ele>1181</ele>
        <time>2021-02-25T10:43:20Z</time>
      </trkpt>
      <trkpt lat="44.91837" lon="5.16759">
        <ele>1181</ele>
        <time>2021-02-25T10:43:25Z</time>
      </trkpt>
      <trkpt lat="44.91838" lon="5.16761">
        <ele>1181</ele>
        <time>2021-02-25T10:43:30Z</time>
      </trkpt>
      <trkpt lat="44.91839" lon="5.16767">
        <ele>1178</ele>
        <time>2021-02-25T10:43:34Z</time>
      </trkpt>
      <trkpt lat="44.9184" lon="5.16773">
        <ele>1178</ele>
        <time>2021-02-25T10:43:39Z</time>
      </trkpt>
      <trkpt lat="44.9184" lon="5.16777">
        <ele>1178</ele>
        <time>2021-02-25T10:43:44Z</time>
      </trkpt>
      <trkpt lat="44.91839" lon="5.16788">
        <ele>1178</ele>
        <time>2021-02-25T10:43:49Z</time>
      </trkpt>
      <trkpt lat="44.91839" lon="5.16793">
        <ele>1177</ele>
        <time>2021-02-25T10:43:54Z</time>
      </trkpt>
      <trkpt lat="44.91837" lon="5.168">
        <ele>1177</ele>
        <time>2021-02-25T10:43:59Z</time>
      </trkpt>
      <trkpt lat="44.91835" lon="5.16807">
        <ele>1177</ele>
        <time>2021-02-25T10:44:04Z</time>
      </trkpt>
      <trkpt lat="44.91834" lon="5.16811">
        <ele>1177</ele>
        <time>2021-02-25T10:44:08Z</time>
      </trkpt>
      <trkpt lat="44.91834" lon="5.16815">
        <ele>1177</ele>
        <time>2021-02-25T10:44:12Z</time>
      </trkpt>
      <trkpt lat="44.91833" lon="5.16816">
        <ele>1177</ele>
        <time>2021-02-25T10:44:17Z</time>
      </trkpt>
      <trkpt lat="44.91833" lon="5.16821">
        <ele>1177</ele>
        <time>2021-02-25T10:44:27Z</time>
      </trkpt>
      <trkpt lat="44.91831" lon="5.16828">
        <ele>1177</ele>
        <time>2021-02-25T10:44:32Z</time>
      </trkpt>
      <trkpt lat="44.9183" lon="5.16834">
        <ele>1177</ele>
        <time>2021-02-25T10:44:37Z</time>
      </trkpt>
      <trkpt lat="44.91827" lon="5.1684">
        <ele>1177</ele>
        <time>2021-02-25T10:44:41Z</time>
      </trkpt>
      <trkpt lat="44.91825" lon="5.16846">
        <ele>1177</ele>
        <time>2021-02-25T10:44:46Z</time>
      </trkpt>
      <trkpt lat="44.91822" lon="5.16853">
        <ele>1178</ele>
        <time>2021-02-25T10:44:50Z</time>
      </trkpt>
      <trkpt lat="44.91822" lon="5.1686">
        <ele>1178</ele>
        <time>2021-02-25T10:44:56Z</time>
      </trkpt>
      <trkpt lat="44.91822" lon="5.16866">
        <ele>1178</ele>
        <time>2021-02-25T10:45:00Z</time>
      </trkpt>
      <trkpt lat="44.91822" lon="5.16872">
        <ele>1178</ele>
        <time>2021-02-25T10:45:05Z</time>
      </trkpt>
      <trkpt lat="44.91821" lon="5.1688">
        <ele>1179</ele>
        <time>2021-02-25T10:45:10Z</time>
      </trkpt>
      <trkpt lat="44.91821" lon="5.16888">
        <ele>1179</ele>
        <time>2021-02-25T10:45:15Z</time>
      </trkpt>
      <trkpt lat="44.9182" lon="5.16896">
        <ele>1179</ele>
        <time>2021-02-25T10:45:20Z</time>
      </trkpt>
      <trkpt lat="44.9182" lon="5.16902">
        <ele>1179</ele>
        <time>2021-02-25T10:45:25Z</time>
      </trkpt>
      <trkpt lat="44.9182" lon="5.16908">
        <ele>1180</ele>
        <time>2021-02-25T10:45:30Z</time>
      </trkpt>
      <trkpt lat="44.9182" lon="5.16916">
        <ele>1180</ele>
        <time>2021-02-25T10:45:34Z</time>
      </trkpt>
      <trkpt lat="44.9182" lon="5.16919">
        <ele>1180</ele>
        <time>2021-02-25T10:45:39Z</time>
      </trkpt>
      <trkpt lat="44.91819" lon="5.16927">
        <ele>1175</ele>
        <time>2021-02-25T10:45:43Z</time>
      </trkpt>
      <trkpt lat="44.91819" lon="5.16931">
        <ele>1177</ele>
        <time>2021-02-25T10:45:47Z</time>
      </trkpt>
      <trkpt lat="44.91818" lon="5.16937">
        <ele>1177</ele>
        <time>2021-02-25T10:45:52Z</time>
      </trkpt>
      <trkpt lat="44.91817" lon="5.16942">
        <ele>1177</ele>
        <time>2021-02-25T10:45:56Z</time>
      </trkpt>
      <trkpt lat="44.91817" lon="5.16948">
        <ele>1177</ele>
        <time>2021-02-25T10:46:01Z</time>
      </trkpt>
      <trkpt lat="44.91816" lon="5.16953">
        <ele>1177</ele>
        <time>2021-02-25T10:46:05Z</time>
      </trkpt>
      <trkpt lat="44.91815" lon="5.16957">
        <ele>1177</ele>
        <time>2021-02-25T10:46:09Z</time>
      </trkpt>
      <trkpt lat="44.91814" lon="5.16963">
        <ele>1180</ele>
        <time>2021-02-25T10:46:14Z</time>
      </trkpt>
      <trkpt lat="44.91814" lon="5.16969">
        <ele>1180</ele>
        <time>2021-02-25T10:46:19Z</time>
      </trkpt>
      <trkpt lat="44.91812" lon="5.16974">
        <ele>1180</ele>
        <time>2021-02-25T10:46:23Z</time>
      </trkpt>
      <trkpt lat="44.91811" lon="5.16977">
        <ele>1180</ele>
        <time>2021-02-25T10:46:28Z</time>
      </trkpt>
      <trkpt lat="44.91809" lon="5.16983">
        <ele>1180</ele>
        <time>2021-02-25T10:46:33Z</time>
      </trkpt>
      <trkpt lat="44.91806" lon="5.16988">
        <ele>1184</ele>
        <time>2021-02-25T10:46:37Z</time>
      </trkpt>
      <trkpt lat="44.91804" lon="5.16992">
        <ele>1184</ele>
        <time>2021-02-25T10:46:42Z</time>
      </trkpt>
      <trkpt lat="44.91802" lon="5.16998">
        <ele>1184</ele>
        <time>2021-02-25T10:46:47Z</time>
      </trkpt>
      <trkpt lat="44.91803" lon="5.17">
        <ele>1184</ele>
        <time>2021-02-25T10:46:52Z</time>
      </trkpt>
      <trkpt lat="44.91801" lon="5.17006">
        <ele>1184</ele>
        <time>2021-02-25T10:46:56Z</time>
      </trkpt>
      <trkpt lat="44.91801" lon="5.17011">
        <ele>1184</ele>
        <time>2021-02-25T10:47:00Z</time>
      </trkpt>
      <trkpt lat="44.918" lon="5.17014">
        <ele>1188</ele>
        <time>2021-02-25T10:47:05Z</time>
      </trkpt>
      <trkpt lat="44.918" lon="5.17017">
        <ele>1188</ele>
        <time>2021-02-25T10:47:10Z</time>
      </trkpt>
      <trkpt lat="44.91799" lon="5.17023">
        <ele>1188</ele>
        <time>2021-02-25T10:47:15Z</time>
      </trkpt>
      <trkpt lat="44.91797" lon="5.17028">
        <ele>1188</ele>
        <time>2021-02-25T10:47:20Z</time>
      </trkpt>
      <trkpt lat="44.91797" lon="5.17032">
        <ele>1188</ele>
        <time>2021-02-25T10:47:24Z</time>
      </trkpt>
      <trkpt lat="44.91797" lon="5.17035">
        <ele>1188</ele>
        <time>2021-02-25T10:47:28Z</time>
      </trkpt>
      <trkpt lat="44.91798" lon="5.17041">
        <ele>1188</ele>
        <time>2021-02-25T10:47:34Z</time>
      </trkpt>
      <trkpt lat="44.91797" lon="5.17045">
        <ele>1192</ele>
        <time>2021-02-25T10:47:39Z</time>
      </trkpt>
      <trkpt lat="44.91797" lon="5.1705">
        <ele>1192</ele>
        <time>2021-02-25T10:47:44Z</time>
      </trkpt>
      <trkpt lat="44.91798" lon="5.17058">
        <ele>1192</ele>
        <time>2021-02-25T10:47:53Z</time>
      </trkpt>
      <trkpt lat="44.91797" lon="5.17061">
        <ele>1192</ele>
        <time>2021-02-25T10:47:58Z</time>
      </trkpt>
      <trkpt lat="44.91797" lon="5.17065">
        <ele>1192</ele>
        <time>2021-02-25T10:48:02Z</time>
      </trkpt>
      <trkpt lat="44.91796" lon="5.17068">
        <ele>1192</ele>
        <time>2021-02-25T10:48:07Z</time>
      </trkpt>
      <trkpt lat="44.91795" lon="5.17071">
        <ele>1196</ele>
        <time>2021-02-25T10:48:11Z</time>
      </trkpt>
      <trkpt lat="44.91794" lon="5.17074">
        <ele>1196</ele>
        <time>2021-02-25T10:48:16Z</time>
      </trkpt>
      <trkpt lat="44.91794" lon="5.17078">
        <ele>1196</ele>
        <time>2021-02-25T10:48:21Z</time>
      </trkpt>
      <trkpt lat="44.91794" lon="5.17082">
        <ele>1196</ele>
        <time>2021-02-25T10:48:26Z</time>
      </trkpt>
      <trkpt lat="44.91794" lon="5.17088">
        <ele>1196</ele>
        <time>2021-02-25T10:48:31Z</time>
      </trkpt>
      <trkpt lat="44.91793" lon="5.17093">
        <ele>1196</ele>
        <time>2021-02-25T10:48:36Z</time>
      </trkpt>
      <trkpt lat="44.91792" lon="5.17099">
        <ele>1198</ele>
        <time>2021-02-25T10:48:41Z</time>
      </trkpt>
      <trkpt lat="44.9179" lon="5.17105">
        <ele>1198</ele>
        <time>2021-02-25T10:48:45Z</time>
      </trkpt>
      <trkpt lat="44.91788" lon="5.17112">
        <ele>1198</ele>
        <time>2021-02-25T10:48:50Z</time>
      </trkpt>
      <trkpt lat="44.91786" lon="5.17118">
        <ele>1198</ele>
        <time>2021-02-25T10:48:55Z</time>
      </trkpt>
      <trkpt lat="44.91784" lon="5.17124">
        <ele>1198</ele>
        <time>2021-02-25T10:49:00Z</time>
      </trkpt>
      <trkpt lat="44.91782" lon="5.1713">
        <ele>1201</ele>
        <time>2021-02-25T10:49:05Z</time>
      </trkpt>
      <trkpt lat="44.91779" lon="5.17136">
        <ele>1201</ele>
        <time>2021-02-25T10:49:10Z</time>
      </trkpt>
      <trkpt lat="44.91777" lon="5.17142">
        <ele>1201</ele>
        <time>2021-02-25T10:49:15Z</time>
      </trkpt>
      <trkpt lat="44.91774" lon="5.17148">
        <ele>1201</ele>
        <time>2021-02-25T10:49:20Z</time>
      </trkpt>
      <trkpt lat="44.91774" lon="5.17153">
        <ele>1202</ele>
        <time>2021-02-25T10:49:24Z</time>
      </trkpt>
      <trkpt lat="44.91771" lon="5.17159">
        <ele>1202</ele>
        <time>2021-02-25T10:49:29Z</time>
      </trkpt>
      <trkpt lat="44.91769" lon="5.17164">
        <ele>1202</ele>
        <time>2021-02-25T10:49:34Z</time>
      </trkpt>
      <trkpt lat="44.91766" lon="5.17169">
        <ele>1202</ele>
        <time>2021-02-25T10:49:39Z</time>
      </trkpt>
      <trkpt lat="44.91762" lon="5.17175">
        <ele>1203</ele>
        <time>2021-02-25T10:49:44Z</time>
      </trkpt>
      <trkpt lat="44.91759" lon="5.17182">
        <ele>1206</ele>
        <time>2021-02-25T10:49:49Z</time>
      </trkpt>
      <trkpt lat="44.91757" lon="5.17189">
        <ele>1206</ele>
        <time>2021-02-25T10:49:54Z</time>
      </trkpt>
      <trkpt lat="44.91756" lon="5.17194">
        <ele>1206</ele>
        <time>2021-02-25T10:49:59Z</time>
      </trkpt>
      <trkpt lat="44.91754" lon="5.17201">
        <ele>1206</ele>
        <time>2021-02-25T10:50:04Z</time>
      </trkpt>
      <trkpt lat="44.91752" lon="5.17207">
        <ele>1206</ele>
        <time>2021-02-25T10:50:09Z</time>
      </trkpt>
      <trkpt lat="44.91751" lon="5.17211">
        <ele>1211</ele>
        <time>2021-02-25T10:50:14Z</time>
      </trkpt>
      <trkpt lat="44.9175" lon="5.17216">
        <ele>1211</ele>
        <time>2021-02-25T10:50:19Z</time>
      </trkpt>
      <trkpt lat="44.9175" lon="5.1722">
        <ele>1211</ele>
        <time>2021-02-25T10:50:24Z</time>
      </trkpt>
      <trkpt lat="44.9175" lon="5.17221">
        <ele>1211</ele>
        <time>2021-02-25T10:50:28Z</time>
      </trkpt>
      <trkpt lat="44.9175" lon="5.17226">
        <ele>1211</ele>
        <time>2021-02-25T10:50:33Z</time>
      </trkpt>
      <trkpt lat="44.9175" lon="5.17228">
        <ele>1211</ele>
        <time>2021-02-25T10:50:37Z</time>
      </trkpt>
      <trkpt lat="44.91751" lon="5.17232">
        <ele>1211</ele>
        <time>2021-02-25T10:50:42Z</time>
      </trkpt>
      <trkpt lat="44.91751" lon="5.17233">
        <ele>1211</ele>
        <time>2021-02-25T10:50:48Z</time>
      </trkpt>
      <trkpt lat="44.91752" lon="5.17237">
        <ele>1218</ele>
        <time>2021-02-25T10:50:52Z</time>
      </trkpt>
      <trkpt lat="44.91753" lon="5.17241">
        <ele>1218</ele>
        <time>2021-02-25T10:50:57Z</time>
      </trkpt>
      <trkpt lat="44.91753" lon="5.17246">
        <ele>1218</ele>
        <time>2021-02-25T10:51:02Z</time>
      </trkpt>
      <trkpt lat="44.91752" lon="5.17249">
        <ele>1218</ele>
        <time>2021-02-25T10:51:08Z</time>
      </trkpt>
      <trkpt lat="44.91752" lon="5.17251">
        <ele>1218</ele>
        <time>2021-02-25T10:51:12Z</time>
      </trkpt>
      <trkpt lat="44.91752" lon="5.17256">
        <ele>1218</ele>
        <time>2021-02-25T10:51:18Z</time>
      </trkpt>
      <trkpt lat="44.91751" lon="5.1726">
        <ele>1218</ele>
        <time>2021-02-25T10:51:23Z</time>
      </trkpt>
      <trkpt lat="44.91751" lon="5.17264">
        <ele>1222</ele>
        <time>2021-02-25T10:51:27Z</time>
      </trkpt>
      <trkpt lat="44.91751" lon="5.17269">
        <ele>1222</ele>
        <time>2021-02-25T10:51:32Z</time>
      </trkpt>
      <trkpt lat="44.9175" lon="5.17275">
        <ele>1222</ele>
        <time>2021-02-25T10:51:37Z</time>
      </trkpt>
      <trkpt lat="44.9175" lon="5.17279">
        <ele>1222</ele>
        <time>2021-02-25T10:51:41Z</time>
      </trkpt>
      <trkpt lat="44.91749" lon="5.17284">
        <ele>1222</ele>
        <time>2021-02-25T10:51:46Z</time>
      </trkpt>
      <trkpt lat="44.91749" lon="5.17288">
        <ele>1222</ele>
        <time>2021-02-25T10:51:51Z</time>
      </trkpt>
      <trkpt lat="44.91749" lon="5.17293">
        <ele>1226</ele>
        <time>2021-02-25T10:51:56Z</time>
      </trkpt>
      <trkpt lat="44.9175" lon="5.17296">
        <ele>1226</ele>
        <time>2021-02-25T10:52:01Z</time>
      </trkpt>
      <trkpt lat="44.9175" lon="5.17298">
        <ele>1226</ele>
        <time>2021-02-25T10:52:06Z</time>
      </trkpt>
      <trkpt lat="44.91751" lon="5.17303">
        <ele>1226</ele>
        <time>2021-02-25T10:52:10Z</time>
      </trkpt>
      <trkpt lat="44.9175" lon="5.17307">
        <ele>1226</ele>
        <time>2021-02-25T10:52:15Z</time>
      </trkpt>
      <trkpt lat="44.9175" lon="5.17311">
        <ele>1226</ele>
        <time>2021-02-25T10:52:20Z</time>
      </trkpt>
      <trkpt lat="44.91751" lon="5.17314">
        <ele>1226</ele>
        <time>2021-02-25T10:52:25Z</time>
      </trkpt>
      <trkpt lat="44.9175" lon="5.17316">
        <ele>1226</ele>
        <time>2021-02-25T10:52:30Z</time>
      </trkpt>
      <trkpt lat="44.91749" lon="5.1732">
        <ele>1230</ele>
        <time>2021-02-25T10:52:35Z</time>
      </trkpt>
      <trkpt lat="44.91748" lon="5.17324">
        <ele>1230</ele>
        <time>2021-02-25T10:52:39Z</time>
      </trkpt>
      <trkpt lat="44.91747" lon="5.17328">
        <ele>1230</ele>
        <time>2021-02-25T10:52:44Z</time>
      </trkpt>
      <trkpt lat="44.91746" lon="5.17332">
        <ele>1230</ele>
        <time>2021-02-25T10:52:49Z</time>
      </trkpt>
      <trkpt lat="44.91744" lon="5.17335">
        <ele>1230</ele>
        <time>2021-02-25T10:52:54Z</time>
      </trkpt>
      <trkpt lat="44.91743" lon="5.17339">
        <ele>1230</ele>
        <time>2021-02-25T10:52:59Z</time>
      </trkpt>
      <trkpt lat="44.91743" lon="5.1734">
        <ele>1230</ele>
        <time>2021-02-25T10:53:03Z</time>
      </trkpt>
      <trkpt lat="44.91742" lon="5.17345">
        <ele>1230</ele>
        <time>2021-02-25T10:53:08Z</time>
      </trkpt>
      <trkpt lat="44.91741" lon="5.17349">
        <ele>1236</ele>
        <time>2021-02-25T10:53:12Z</time>
      </trkpt>
      <trkpt lat="44.9174" lon="5.17351">
        <ele>1236</ele>
        <time>2021-02-25T10:53:17Z</time>
      </trkpt>
      <trkpt lat="44.9174" lon="5.17354">
        <ele>1236</ele>
        <time>2021-02-25T10:53:22Z</time>
      </trkpt>
      <trkpt lat="44.9174" lon="5.17359">
        <ele>1236</ele>
        <time>2021-02-25T10:53:27Z</time>
      </trkpt>
      <trkpt lat="44.9174" lon="5.17361">
        <ele>1236</ele>
        <time>2021-02-25T10:53:31Z</time>
      </trkpt>
      <trkpt lat="44.9174" lon="5.17365">
        <ele>1236</ele>
        <time>2021-02-25T10:53:37Z</time>
      </trkpt>
      <trkpt lat="44.9174" lon="5.1737">
        <ele>1236</ele>
        <time>2021-02-25T10:53:41Z</time>
      </trkpt>
      <trkpt lat="44.91739" lon="5.17374">
        <ele>1236</ele>
        <time>2021-02-25T10:53:46Z</time>
      </trkpt>
      <trkpt lat="44.91739" lon="5.17377">
        <ele>1238</ele>
        <time>2021-02-25T10:53:52Z</time>
      </trkpt>
      <trkpt lat="44.91739" lon="5.17379">
        <ele>1238</ele>
        <time>2021-02-25T10:53:56Z</time>
      </trkpt>
      <trkpt lat="44.91738" lon="5.17384">
        <ele>1238</ele>
        <time>2021-02-25T10:54:01Z</time>
      </trkpt>
      <trkpt lat="44.91737" lon="5.17388">
        <ele>1238</ele>
        <time>2021-02-25T10:54:06Z</time>
      </trkpt>
      <trkpt lat="44.91736" lon="5.17393">
        <ele>1246</ele>
        <time>2021-02-25T10:54:11Z</time>
      </trkpt>
      <trkpt lat="44.91734" lon="5.17395">
        <ele>1246</ele>
        <time>2021-02-25T10:54:15Z</time>
      </trkpt>
      <trkpt lat="44.91733" lon="5.17396">
        <ele>1246</ele>
        <time>2021-02-25T10:54:20Z</time>
      </trkpt>
      <trkpt lat="44.91729" lon="5.17399">
        <ele>1246</ele>
        <time>2021-02-25T10:54:25Z</time>
      </trkpt>
      <trkpt lat="44.91727" lon="5.17402">
        <ele>1246</ele>
        <time>2021-02-25T10:54:29Z</time>
      </trkpt>
      <trkpt lat="44.91726" lon="5.17406">
        <ele>1253</ele>
        <time>2021-02-25T10:54:34Z</time>
      </trkpt>
      <trkpt lat="44.91725" lon="5.1741">
        <ele>1253</ele>
        <time>2021-02-25T10:54:39Z</time>
      </trkpt>
      <trkpt lat="44.91723" lon="5.17414">
        <ele>1253</ele>
        <time>2021-02-25T10:54:44Z</time>
      </trkpt>
      <trkpt lat="44.91719" lon="5.17423">
        <ele>1253</ele>
        <time>2021-02-25T10:54:57Z</time>
      </trkpt>
      <trkpt lat="44.91719" lon="5.17425">
        <ele>1253</ele>
        <time>2021-02-25T10:55:02Z</time>
      </trkpt>
      <trkpt lat="44.91719" lon="5.17426">
        <ele>1253</ele>
        <time>2021-02-25T10:55:07Z</time>
      </trkpt>
      <trkpt lat="44.91719" lon="5.17429">
        <ele>1253</ele>
        <time>2021-02-25T10:55:12Z</time>
      </trkpt>
      <trkpt lat="44.91718" lon="5.17432">
        <ele>1260</ele>
        <time>2021-02-25T10:55:17Z</time>
      </trkpt>
      <trkpt lat="44.91716" lon="5.17436">
        <ele>1260</ele>
        <time>2021-02-25T10:55:22Z</time>
      </trkpt>
      <trkpt lat="44.91716" lon="5.17437">
        <ele>1260</ele>
        <time>2021-02-25T10:55:26Z</time>
      </trkpt>
      <trkpt lat="44.91714" lon="5.17442">
        <ele>1260</ele>
        <time>2021-02-25T10:55:30Z</time>
      </trkpt>
      <trkpt lat="44.91713" lon="5.17445">
        <ele>1260</ele>
        <time>2021-02-25T10:55:35Z</time>
      </trkpt>
      <trkpt lat="44.91712" lon="5.17448">
        <ele>1260</ele>
        <time>2021-02-25T10:55:40Z</time>
      </trkpt>
      <trkpt lat="44.91711" lon="5.17449">
        <ele>1260</ele>
        <time>2021-02-25T10:55:45Z</time>
      </trkpt>
      <trkpt lat="44.91708" lon="5.17453">
        <ele>1260</ele>
        <time>2021-02-25T10:55:53Z</time>
      </trkpt>
      <trkpt lat="44.91708" lon="5.17457">
        <ele>1257</ele>
        <time>2021-02-25T10:55:58Z</time>
      </trkpt>
      <trkpt lat="44.91708" lon="5.17459">
        <ele>1263</ele>
        <time>2021-02-25T10:56:03Z</time>
      </trkpt>
      <trkpt lat="44.91709" lon="5.17463">
        <ele>1266</ele>
        <time>2021-02-25T10:56:07Z</time>
      </trkpt>
      <trkpt lat="44.91712" lon="5.1747">
        <ele>1266</ele>
        <time>2021-02-25T10:56:17Z</time>
      </trkpt>
      <trkpt lat="44.91713" lon="5.17473">
        <ele>1266</ele>
        <time>2021-02-25T10:56:22Z</time>
      </trkpt>
      <trkpt lat="44.91713" lon="5.17475">
        <ele>1266</ele>
        <time>2021-02-25T10:56:26Z</time>
      </trkpt>
      <trkpt lat="44.91713" lon="5.17477">
        <ele>1266</ele>
        <time>2021-02-25T10:56:31Z</time>
      </trkpt>
      <trkpt lat="44.91711" lon="5.17481">
        <ele>1266</ele>
        <time>2021-02-25T10:56:37Z</time>
      </trkpt>
      <trkpt lat="44.91714" lon="5.17488">
        <ele>1270</ele>
        <time>2021-02-25T10:56:51Z</time>
      </trkpt>
      <trkpt lat="44.91714" lon="5.17492">
        <ele>1270</ele>
        <time>2021-02-25T10:56:56Z</time>
      </trkpt>
      <trkpt lat="44.91715" lon="5.17495">
        <ele>1270</ele>
        <time>2021-02-25T10:57:01Z</time>
      </trkpt>
      <trkpt lat="44.91714" lon="5.17496">
        <ele>1270</ele>
        <time>2021-02-25T10:57:06Z</time>
      </trkpt>
      <trkpt lat="44.91712" lon="5.17499">
        <ele>1270</ele>
        <time>2021-02-25T10:57:10Z</time>
      </trkpt>
      <trkpt lat="44.91712" lon="5.17501">
        <ele>1270</ele>
        <time>2021-02-25T10:57:15Z</time>
      </trkpt>
      <trkpt lat="44.91711" lon="5.17505">
        <ele>1270</ele>
        <time>2021-02-25T10:57:20Z</time>
      </trkpt>
      <trkpt lat="44.9171" lon="5.17508">
        <ele>1270</ele>
        <time>2021-02-25T10:57:24Z</time>
      </trkpt>
      <trkpt lat="44.91711" lon="5.17512">
        <ele>1270</ele>
        <time>2021-02-25T10:57:29Z</time>
      </trkpt>
      <trkpt lat="44.91711" lon="5.17515">
        <ele>1275</ele>
        <time>2021-02-25T10:57:33Z</time>
      </trkpt>
      <trkpt lat="44.91711" lon="5.17517">
        <ele>1275</ele>
        <time>2021-02-25T10:57:38Z</time>
      </trkpt>
      <trkpt lat="44.9171" lon="5.17521">
        <ele>1275</ele>
        <time>2021-02-25T10:57:43Z</time>
      </trkpt>
      <trkpt lat="44.91708" lon="5.17523">
        <ele>1275</ele>
        <time>2021-02-25T10:57:47Z</time>
      </trkpt>
      <trkpt lat="44.91708" lon="5.17526">
        <ele>1273</ele>
        <time>2021-02-25T10:57:51Z</time>
      </trkpt>
      <trkpt lat="44.91708" lon="5.1753">
        <ele>1273</ele>
        <time>2021-02-25T10:57:56Z</time>
      </trkpt>
      <trkpt lat="44.91708" lon="5.17533">
        <ele>1275</ele>
        <time>2021-02-25T10:58:01Z</time>
      </trkpt>
      <trkpt lat="44.91708" lon="5.17537">
        <ele>1273</ele>
        <time>2021-02-25T10:58:06Z</time>
      </trkpt>
      <trkpt lat="44.91706" lon="5.1754">
        <ele>1273</ele>
        <time>2021-02-25T10:58:11Z</time>
      </trkpt>
      <trkpt lat="44.91707" lon="5.17544">
        <ele>1277</ele>
        <time>2021-02-25T10:58:16Z</time>
      </trkpt>
      <trkpt lat="44.91707" lon="5.17546">
        <ele>1277</ele>
        <time>2021-02-25T10:58:21Z</time>
      </trkpt>
      <trkpt lat="44.91707" lon="5.17552">
        <ele>1277</ele>
        <time>2021-02-25T10:58:26Z</time>
      </trkpt>
      <trkpt lat="44.91707" lon="5.17556">
        <ele>1277</ele>
        <time>2021-02-25T10:58:31Z</time>
      </trkpt>
      <trkpt lat="44.91707" lon="5.17558">
        <ele>1277</ele>
        <time>2021-02-25T10:58:36Z</time>
      </trkpt>
      <trkpt lat="44.91708" lon="5.17563">
        <ele>1277</ele>
        <time>2021-02-25T10:58:41Z</time>
      </trkpt>
      <trkpt lat="44.91709" lon="5.17566">
        <ele>1279</ele>
        <time>2021-02-25T10:58:46Z</time>
      </trkpt>
      <trkpt lat="44.91711" lon="5.17576">
        <ele>1282</ele>
        <time>2021-02-25T10:58:56Z</time>
      </trkpt>
      <trkpt lat="44.9171" lon="5.17579">
        <ele>1282</ele>
        <time>2021-02-25T10:59:02Z</time>
      </trkpt>
      <trkpt lat="44.9171" lon="5.17582">
        <ele>1282</ele>
        <time>2021-02-25T10:59:06Z</time>
      </trkpt>
      <trkpt lat="44.9171" lon="5.17583">
        <ele>1282</ele>
        <time>2021-02-25T10:59:11Z</time>
      </trkpt>
      <trkpt lat="44.91709" lon="5.17588">
        <ele>1282</ele>
        <time>2021-02-25T10:59:15Z</time>
      </trkpt>
      <trkpt lat="44.9171" lon="5.17592">
        <ele>1282</ele>
        <time>2021-02-25T10:59:20Z</time>
      </trkpt>
      <trkpt lat="44.91711" lon="5.17596">
        <ele>1282</ele>
        <time>2021-02-25T10:59:25Z</time>
      </trkpt>
      <trkpt lat="44.91712" lon="5.176">
        <ele>1287</ele>
        <time>2021-02-25T10:59:30Z</time>
      </trkpt>
      <trkpt lat="44.91713" lon="5.17605">
        <ele>1287</ele>
        <time>2021-02-25T10:59:34Z</time>
      </trkpt>
      <trkpt lat="44.91715" lon="5.1761">
        <ele>1287</ele>
        <time>2021-02-25T10:59:43Z</time>
      </trkpt>
      <trkpt lat="44.91716" lon="5.17612">
        <ele>1287</ele>
        <time>2021-02-25T10:59:48Z</time>
      </trkpt>
      <trkpt lat="44.91717" lon="5.17615">
        <ele>1287</ele>
        <time>2021-02-25T10:59:53Z</time>
      </trkpt>
      <trkpt lat="44.91717" lon="5.17618">
        <ele>1287</ele>
        <time>2021-02-25T10:59:57Z</time>
      </trkpt>
      <trkpt lat="44.91718" lon="5.17622">
        <ele>1287</ele>
        <time>2021-02-25T11:00:02Z</time>
      </trkpt>
      <trkpt lat="44.9172" lon="5.17626">
        <ele>1297</ele>
        <time>2021-02-25T11:00:07Z</time>
      </trkpt>
      <trkpt lat="44.91721" lon="5.17631">
        <ele>1297</ele>
        <time>2021-02-25T11:00:12Z</time>
      </trkpt>
      <trkpt lat="44.9172" lon="5.17634">
        <ele>1297</ele>
        <time>2021-02-25T11:00:16Z</time>
      </trkpt>
      <trkpt lat="44.9172" lon="5.17639">
        <ele>1297</ele>
        <time>2021-02-25T11:00:20Z</time>
      </trkpt>
      <trkpt lat="44.9172" lon="5.17642">
        <ele>1297</ele>
        <time>2021-02-25T11:00:25Z</time>
      </trkpt>
      <trkpt lat="44.91718" lon="5.17646">
        <ele>1297</ele>
        <time>2021-02-25T11:00:35Z</time>
      </trkpt>
      <trkpt lat="44.91719" lon="5.17649">
        <ele>1297</ele>
        <time>2021-02-25T11:00:40Z</time>
      </trkpt>
      <trkpt lat="44.91719" lon="5.17652">
        <ele>1297</ele>
        <time>2021-02-25T11:00:45Z</time>
      </trkpt>
      <trkpt lat="44.91719" lon="5.17654">
        <ele>1299</ele>
        <time>2021-02-25T11:00:50Z</time>
      </trkpt>
      <trkpt lat="44.91719" lon="5.17657">
        <ele>1299</ele>
        <time>2021-02-25T11:01:09Z</time>
      </trkpt>
      <trkpt lat="44.91716" lon="5.17665">
        <ele>1299</ele>
        <time>2021-02-25T11:58:36Z</time>
      </trkpt>
      <trkpt lat="44.91715" lon="5.17664">
        <ele>1299</ele>
        <time>2021-02-25T11:58:41Z</time>
      </trkpt>
      <trkpt lat="44.91716" lon="5.17666">
        <ele>1299</ele>
        <time>2021-02-25T11:59:13Z</time>
      </trkpt>
      <trkpt lat="44.91717" lon="5.17671">
        <ele>1299</ele>
        <time>2021-02-25T11:59:17Z</time>
      </trkpt>
      <trkpt lat="44.91715" lon="5.17675">
        <ele>1299</ele>
        <time>2021-02-25T11:59:22Z</time>
      </trkpt>
      <trkpt lat="44.91711" lon="5.17685">
        <ele>1292</ele>
        <time>2021-02-25T11:59:52Z</time>
      </trkpt>
      <trkpt lat="44.9171" lon="5.17685">
        <ele>1292</ele>
        <time>2021-02-25T11:59:56Z</time>
      </trkpt>
      <trkpt lat="44.91708" lon="5.17685">
        <ele>1296</ele>
        <time>2021-02-25T12:00:01Z</time>
      </trkpt>
      <trkpt lat="44.91707" lon="5.17686">
        <ele>1296</ele>
        <time>2021-02-25T12:00:06Z</time>
      </trkpt>
      <trkpt lat="44.91705" lon="5.17687">
        <ele>1296</ele>
        <time>2021-02-25T12:00:11Z</time>
      </trkpt>
      <trkpt lat="44.91701" lon="5.17691">
        <ele>1296</ele>
        <time>2021-02-25T12:00:24Z</time>
      </trkpt>
      <trkpt lat="44.91701" lon="5.17693">
        <ele>1296</ele>
        <time>2021-02-25T12:00:29Z</time>
      </trkpt>
      <trkpt lat="44.91701" lon="5.17698">
        <ele>1296</ele>
        <time>2021-02-25T12:00:43Z</time>
      </trkpt>
      <trkpt lat="44.91702" lon="5.177">
        <ele>1296</ele>
        <time>2021-02-25T12:00:47Z</time>
      </trkpt>
      <trkpt lat="44.91702" lon="5.17704">
        <ele>1296</ele>
        <time>2021-02-25T12:00:51Z</time>
      </trkpt>
      <trkpt lat="44.91704" lon="5.17708">
        <ele>1296</ele>
        <time>2021-02-25T12:01:06Z</time>
      </trkpt>
      <trkpt lat="44.91702" lon="5.17707">
        <ele>1296</ele>
        <time>2021-02-25T12:01:10Z</time>
      </trkpt>
      <trkpt lat="44.91699" lon="5.17708">
        <ele>1296</ele>
        <time>2021-02-25T12:01:15Z</time>
      </trkpt>
      <trkpt lat="44.91696" lon="5.17709">
        <ele>1286</ele>
        <time>2021-02-25T12:01:20Z</time>
      </trkpt>
      <trkpt lat="44.91694" lon="5.17708">
        <ele>1296</ele>
        <time>2021-02-25T12:01:24Z</time>
      </trkpt>
      <trkpt lat="44.91693" lon="5.1771">
        <ele>1286</ele>
        <time>2021-02-25T12:02:39Z</time>
      </trkpt>
      <trkpt lat="44.91695" lon="5.17713">
        <ele>1286</ele>
        <time>2021-02-25T12:02:43Z</time>
      </trkpt>
      <trkpt lat="44.91697" lon="5.17715">
        <ele>1286</ele>
        <time>2021-02-25T12:02:48Z</time>
      </trkpt>
      <trkpt lat="44.91699" lon="5.17717">
        <ele>1286</ele>
        <time>2021-02-25T12:02:52Z</time>
      </trkpt>
      <trkpt lat="44.917" lon="5.17719">
        <ele>1286</ele>
        <time>2021-02-25T12:02:57Z</time>
      </trkpt>
      <trkpt lat="44.91704" lon="5.17729">
        <ele>1286</ele>
        <time>2021-02-25T12:03:15Z</time>
      </trkpt>
      <trkpt lat="44.91703" lon="5.17732">
        <ele>1286</ele>
        <time>2021-02-25T12:03:20Z</time>
      </trkpt>
      <trkpt lat="44.91701" lon="5.17733">
        <ele>1286</ele>
        <time>2021-02-25T12:03:25Z</time>
      </trkpt>
      <trkpt lat="44.917" lon="5.17735">
        <ele>1286</ele>
        <time>2021-02-25T12:03:30Z</time>
      </trkpt>
      <trkpt lat="44.917" lon="5.17738">
        <ele>1278</ele>
        <time>2021-02-25T12:03:35Z</time>
      </trkpt>
      <trkpt lat="44.91701" lon="5.17744">
        <ele>1278</ele>
        <time>2021-02-25T12:03:40Z</time>
      </trkpt>
      <trkpt lat="44.91701" lon="5.17747">
        <ele>1278</ele>
        <time>2021-02-25T12:03:44Z</time>
      </trkpt>
      <trkpt lat="44.91702" lon="5.1775">
        <ele>1278</ele>
        <time>2021-02-25T12:03:49Z</time>
      </trkpt>
      <trkpt lat="44.91703" lon="5.17753">
        <ele>1278</ele>
        <time>2021-02-25T12:03:53Z</time>
      </trkpt>
      <trkpt lat="44.91703" lon="5.17756">
        <ele>1278</ele>
        <time>2021-02-25T12:03:58Z</time>
      </trkpt>
      <trkpt lat="44.91703" lon="5.17765">
        <ele>1265</ele>
        <time>2021-02-25T12:04:17Z</time>
      </trkpt>
      <trkpt lat="44.91701" lon="5.17765">
        <ele>1265</ele>
        <time>2021-02-25T12:04:22Z</time>
      </trkpt>
      <trkpt lat="44.917" lon="5.17766">
        <ele>1265</ele>
        <time>2021-02-25T12:04:26Z</time>
      </trkpt>
      <trkpt lat="44.91697" lon="5.17768">
        <ele>1265</ele>
        <time>2021-02-25T12:04:31Z</time>
      </trkpt>
      <trkpt lat="44.91695" lon="5.17769">
        <ele>1265</ele>
        <time>2021-02-25T12:04:36Z</time>
      </trkpt>
      <trkpt lat="44.91694" lon="5.17773">
        <ele>1265</ele>
        <time>2021-02-25T12:04:47Z</time>
      </trkpt>
      <trkpt lat="44.91694" lon="5.17776">
        <ele>1265</ele>
        <time>2021-02-25T12:04:51Z</time>
      </trkpt>
      <trkpt lat="44.91693" lon="5.1778">
        <ele>1265</ele>
        <time>2021-02-25T12:04:56Z</time>
      </trkpt>
      <trkpt lat="44.91693" lon="5.17783">
        <ele>1265</ele>
        <time>2021-02-25T12:05:01Z</time>
      </trkpt>
      <trkpt lat="44.91692" lon="5.17785">
        <ele>1265</ele>
        <time>2021-02-25T12:05:05Z</time>
      </trkpt>
      <trkpt lat="44.91691" lon="5.17786">
        <ele>1265</ele>
        <time>2021-02-25T12:05:10Z</time>
      </trkpt>
      <trkpt lat="44.91688" lon="5.17787">
        <ele>1265</ele>
        <time>2021-02-25T12:05:15Z</time>
      </trkpt>
      <trkpt lat="44.91688" lon="5.17788">
        <ele>1265</ele>
        <time>2021-02-25T12:05:19Z</time>
      </trkpt>
      <trkpt lat="44.91685" lon="5.1779">
        <ele>1265</ele>
        <time>2021-02-25T12:05:23Z</time>
      </trkpt>
      <trkpt lat="44.91682" lon="5.17792">
        <ele>1252</ele>
        <time>2021-02-25T12:05:28Z</time>
      </trkpt>
      <trkpt lat="44.9168" lon="5.17793">
        <ele>1260</ele>
        <time>2021-02-25T12:05:32Z</time>
      </trkpt>
      <trkpt lat="44.91678" lon="5.17797">
        <ele>1260</ele>
        <time>2021-02-25T12:05:37Z</time>
      </trkpt>
      <trkpt lat="44.91675" lon="5.17798">
        <ele>1260</ele>
        <time>2021-02-25T12:05:42Z</time>
      </trkpt>
      <trkpt lat="44.91676" lon="5.17805">
        <ele>1260</ele>
        <time>2021-02-25T12:05:47Z</time>
      </trkpt>
      <trkpt lat="44.91677" lon="5.17815">
        <ele>1260</ele>
        <time>2021-02-25T12:06:00Z</time>
      </trkpt>
      <trkpt lat="44.91677" lon="5.1782">
        <ele>1244</ele>
        <time>2021-02-25T12:06:06Z</time>
      </trkpt>
      <trkpt lat="44.91674" lon="5.1782">
        <ele>1244</ele>
        <time>2021-02-25T12:06:11Z</time>
      </trkpt>
      <trkpt lat="44.91674" lon="5.1782">
        <ele>1244</ele>
        <time>2021-02-25T12:06:15Z</time>
      </trkpt>
      <trkpt lat="44.91674" lon="5.17824">
        <ele>1244</ele>
        <time>2021-02-25T12:06:20Z</time>
      </trkpt>
      <trkpt lat="44.91671" lon="5.17833">
        <ele>1244</ele>
        <time>2021-02-25T12:06:42Z</time>
      </trkpt>
      <trkpt lat="44.9167" lon="5.17835">
        <ele>1244</ele>
        <time>2021-02-25T12:06:46Z</time>
      </trkpt>
      <trkpt lat="44.91669" lon="5.17836">
        <ele>1244</ele>
        <time>2021-02-25T12:06:51Z</time>
      </trkpt>
      <trkpt lat="44.9167" lon="5.17839">
        <ele>1244</ele>
        <time>2021-02-25T12:06:56Z</time>
      </trkpt>
      <trkpt lat="44.91668" lon="5.17842">
        <ele>1244</ele>
        <time>2021-02-25T12:07:01Z</time>
      </trkpt>
      <trkpt lat="44.91664" lon="5.17846">
        <ele>1244</ele>
        <time>2021-02-25T12:07:11Z</time>
      </trkpt>
      <trkpt lat="44.91661" lon="5.17847">
        <ele>1244</ele>
        <time>2021-02-25T12:07:16Z</time>
      </trkpt>
      <trkpt lat="44.91658" lon="5.17848">
        <ele>1231</ele>
        <time>2021-02-25T12:07:21Z</time>
      </trkpt>
      <trkpt lat="44.91657" lon="5.17848">
        <ele>1231</ele>
        <time>2021-02-25T12:07:26Z</time>
      </trkpt>
      <trkpt lat="44.91655" lon="5.1785">
        <ele>1231</ele>
        <time>2021-02-25T12:07:43Z</time>
      </trkpt>
      <trkpt lat="44.91652" lon="5.17854">
        <ele>1227</ele>
        <time>2021-02-25T12:07:48Z</time>
      </trkpt>
      <trkpt lat="44.91649" lon="5.17858">
        <ele>1227</ele>
        <time>2021-02-25T12:07:53Z</time>
      </trkpt>
      <trkpt lat="44.91647" lon="5.17861">
        <ele>1227</ele>
        <time>2021-02-25T12:07:57Z</time>
      </trkpt>
      <trkpt lat="44.91644" lon="5.17866">
        <ele>1227</ele>
        <time>2021-02-25T12:08:02Z</time>
      </trkpt>
      <trkpt lat="44.91641" lon="5.17869">
        <ele>1227</ele>
        <time>2021-02-25T12:08:08Z</time>
      </trkpt>
      <trkpt lat="44.91638" lon="5.17872">
        <ele>1227</ele>
        <time>2021-02-25T12:08:13Z</time>
      </trkpt>
      <trkpt lat="44.91636" lon="5.17875">
        <ele>1227</ele>
        <time>2021-02-25T12:08:17Z</time>
      </trkpt>
      <trkpt lat="44.91634" lon="5.17879">
        <ele>1221</ele>
        <time>2021-02-25T12:08:22Z</time>
      </trkpt>
      <trkpt lat="44.91632" lon="5.17881">
        <ele>1221</ele>
        <time>2021-02-25T12:08:26Z</time>
      </trkpt>
      <trkpt lat="44.9163" lon="5.17884">
        <ele>1221</ele>
        <time>2021-02-25T12:08:31Z</time>
      </trkpt>
      <trkpt lat="44.91627" lon="5.17888">
        <ele>1221</ele>
        <time>2021-02-25T12:08:35Z</time>
      </trkpt>
      <trkpt lat="44.91624" lon="5.17891">
        <ele>1220</ele>
        <time>2021-02-25T12:08:40Z</time>
      </trkpt>
      <trkpt lat="44.91622" lon="5.17894">
        <ele>1220</ele>
        <time>2021-02-25T12:08:45Z</time>
      </trkpt>
      <trkpt lat="44.91622" lon="5.17896">
        <ele>1220</ele>
        <time>2021-02-25T12:08:49Z</time>
      </trkpt>
      <trkpt lat="44.9162" lon="5.17899">
        <ele>1220</ele>
        <time>2021-02-25T12:08:54Z</time>
      </trkpt>
      <trkpt lat="44.91618" lon="5.17901">
        <ele>1220</ele>
        <time>2021-02-25T12:08:58Z</time>
      </trkpt>
      <trkpt lat="44.91616" lon="5.17904">
        <ele>1211</ele>
        <time>2021-02-25T12:09:02Z</time>
      </trkpt>
      <trkpt lat="44.91613" lon="5.17907">
        <ele>1211</ele>
        <time>2021-02-25T12:09:07Z</time>
      </trkpt>
      <trkpt lat="44.91611" lon="5.17911">
        <ele>1211</ele>
        <time>2021-02-25T12:09:11Z</time>
      </trkpt>
      <trkpt lat="44.91608" lon="5.17914">
        <ele>1211</ele>
        <time>2021-02-25T12:09:16Z</time>
      </trkpt>
      <trkpt lat="44.91605" lon="5.17917">
        <ele>1211</ele>
        <time>2021-02-25T12:09:21Z</time>
      </trkpt>
      <trkpt lat="44.91602" lon="5.1792">
        <ele>1211</ele>
        <time>2021-02-25T12:09:25Z</time>
      </trkpt>
      <trkpt lat="44.916" lon="5.17923">
        <ele>1211</ele>
        <time>2021-02-25T12:09:30Z</time>
      </trkpt>
      <trkpt lat="44.91597" lon="5.17926">
        <ele>1208</ele>
        <time>2021-02-25T12:09:35Z</time>
      </trkpt>
      <trkpt lat="44.91594" lon="5.17929">
        <ele>1208</ele>
        <time>2021-02-25T12:09:39Z</time>
      </trkpt>
      <trkpt lat="44.9159" lon="5.17933">
        <ele>1197</ele>
        <time>2021-02-25T12:09:53Z</time>
      </trkpt>
      <trkpt lat="44.9159" lon="5.17934">
        <ele>1197</ele>
        <time>2021-02-25T12:09:57Z</time>
      </trkpt>
      <trkpt lat="44.91588" lon="5.17934">
        <ele>1197</ele>
        <time>2021-02-25T12:10:06Z</time>
      </trkpt>
      <trkpt lat="44.91585" lon="5.17936">
        <ele>1197</ele>
        <time>2021-02-25T12:10:10Z</time>
      </trkpt>
      <trkpt lat="44.91583" lon="5.17937">
        <ele>1197</ele>
        <time>2021-02-25T12:10:14Z</time>
      </trkpt>
      <trkpt lat="44.91581" lon="5.1794">
        <ele>1197</ele>
        <time>2021-02-25T12:10:19Z</time>
      </trkpt>
      <trkpt lat="44.91579" lon="5.17943">
        <ele>1197</ele>
        <time>2021-02-25T12:10:24Z</time>
      </trkpt>
      <trkpt lat="44.91577" lon="5.17947">
        <ele>1197</ele>
        <time>2021-02-25T12:10:29Z</time>
      </trkpt>
      <trkpt lat="44.91577" lon="5.1795">
        <ele>1197</ele>
        <time>2021-02-25T12:10:34Z</time>
      </trkpt>
      <trkpt lat="44.91575" lon="5.17952">
        <ele>1197</ele>
        <time>2021-02-25T12:10:39Z</time>
      </trkpt>
      <trkpt lat="44.91572" lon="5.17955">
        <ele>1197</ele>
        <time>2021-02-25T12:10:44Z</time>
      </trkpt>
      <trkpt lat="44.91571" lon="5.17957">
        <ele>1197</ele>
        <time>2021-02-25T12:10:49Z</time>
      </trkpt>
      <trkpt lat="44.91567" lon="5.1796">
        <ele>1184</ele>
        <time>2021-02-25T12:10:53Z</time>
      </trkpt>
      <trkpt lat="44.91564" lon="5.17962">
        <ele>1184</ele>
        <time>2021-02-25T12:10:57Z</time>
      </trkpt>
      <trkpt lat="44.91561" lon="5.17964">
        <ele>1184</ele>
        <time>2021-02-25T12:11:03Z</time>
      </trkpt>
      <trkpt lat="44.91558" lon="5.17968">
        <ele>1184</ele>
        <time>2021-02-25T12:11:08Z</time>
      </trkpt>
      <trkpt lat="44.91556" lon="5.17971">
        <ele>1184</ele>
        <time>2021-02-25T12:11:12Z</time>
      </trkpt>
      <trkpt lat="44.91554" lon="5.17976">
        <ele>1184</ele>
        <time>2021-02-25T12:11:17Z</time>
      </trkpt>
      <trkpt lat="44.91551" lon="5.17981">
        <ele>1184</ele>
        <time>2021-02-25T12:11:22Z</time>
      </trkpt>
      <trkpt lat="44.91549" lon="5.17984">
        <ele>1184</ele>
        <time>2021-02-25T12:11:26Z</time>
      </trkpt>
      <trkpt lat="44.91547" lon="5.17988">
        <ele>1176</ele>
        <time>2021-02-25T12:11:30Z</time>
      </trkpt>
      <trkpt lat="44.91545" lon="5.17991">
        <ele>1176</ele>
        <time>2021-02-25T12:11:35Z</time>
      </trkpt>
      <trkpt lat="44.91549" lon="5.17996">
        <ele>1176</ele>
        <time>2021-02-25T12:11:55Z</time>
      </trkpt>
      <trkpt lat="44.91549" lon="5.17996">
        <ele>1176</ele>
        <time>2021-02-25T12:12:00Z</time>
      </trkpt>
      <trkpt lat="44.91551" lon="5.17999">
        <ele>1176</ele>
        <time>2021-02-25T12:12:05Z</time>
      </trkpt>
      <trkpt lat="44.91552" lon="5.18">
        <ele>1176</ele>
        <time>2021-02-25T12:12:09Z</time>
      </trkpt>
      <trkpt lat="44.91555" lon="5.18003">
        <ele>1176</ele>
        <time>2021-02-25T12:12:14Z</time>
      </trkpt>
      <trkpt lat="44.91559" lon="5.18006">
        <ele>1176</ele>
        <time>2021-02-25T12:12:19Z</time>
      </trkpt>
      <trkpt lat="44.91561" lon="5.1801">
        <ele>1176</ele>
        <time>2021-02-25T12:12:24Z</time>
      </trkpt>
      <trkpt lat="44.91563" lon="5.18011">
        <ele>1176</ele>
        <time>2021-02-25T12:12:28Z</time>
      </trkpt>
      <trkpt lat="44.91566" lon="5.18014">
        <ele>1176</ele>
        <time>2021-02-25T12:12:33Z</time>
      </trkpt>
      <trkpt lat="44.91567" lon="5.18015">
        <ele>1167</ele>
        <time>2021-02-25T12:12:38Z</time>
      </trkpt>
      <trkpt lat="44.91576" lon="5.18016">
        <ele>1170</ele>
        <time>2021-02-25T12:12:56Z</time>
      </trkpt>
      <trkpt lat="44.91582" lon="5.18017">
        <ele>1170</ele>
        <time>2021-02-25T12:13:01Z</time>
      </trkpt>
      <trkpt lat="44.91587" lon="5.18019">
        <ele>1170</ele>
        <time>2021-02-25T12:13:06Z</time>
      </trkpt>
      <trkpt lat="44.91591" lon="5.1802">
        <ele>1170</ele>
        <time>2021-02-25T12:13:10Z</time>
      </trkpt>
      <trkpt lat="44.91595" lon="5.18022">
        <ele>1170</ele>
        <time>2021-02-25T12:13:15Z</time>
      </trkpt>
      <trkpt lat="44.91599" lon="5.18024">
        <ele>1171</ele>
        <time>2021-02-25T12:13:20Z</time>
      </trkpt>
      <trkpt lat="44.91603" lon="5.18028">
        <ele>1171</ele>
        <time>2021-02-25T12:13:25Z</time>
      </trkpt>
      <trkpt lat="44.91607" lon="5.1803">
        <ele>1171</ele>
        <time>2021-02-25T12:13:30Z</time>
      </trkpt>
      <trkpt lat="44.91611" lon="5.18033">
        <ele>1171</ele>
        <time>2021-02-25T12:13:34Z</time>
      </trkpt>
      <trkpt lat="44.91612" lon="5.18034">
        <ele>1171</ele>
        <time>2021-02-25T12:13:38Z</time>
      </trkpt>
      <trkpt lat="44.91616" lon="5.18037">
        <ele>1171</ele>
        <time>2021-02-25T12:13:43Z</time>
      </trkpt>
      <trkpt lat="44.91621" lon="5.18041">
        <ele>1171</ele>
        <time>2021-02-25T12:13:48Z</time>
      </trkpt>
      <trkpt lat="44.91626" lon="5.18044">
        <ele>1163</ele>
        <time>2021-02-25T12:13:52Z</time>
      </trkpt>
      <trkpt lat="44.91631" lon="5.18046">
        <ele>1163</ele>
        <time>2021-02-25T12:13:56Z</time>
      </trkpt>
      <trkpt lat="44.91635" lon="5.18048">
        <ele>1163</ele>
        <time>2021-02-25T12:14:00Z</time>
      </trkpt>
      <trkpt lat="44.9164" lon="5.18052">
        <ele>1163</ele>
        <time>2021-02-25T12:14:05Z</time>
      </trkpt>
      <trkpt lat="44.91644" lon="5.18055">
        <ele>1163</ele>
        <time>2021-02-25T12:14:10Z</time>
      </trkpt>
      <trkpt lat="44.91649" lon="5.18057">
        <ele>1163</ele>
        <time>2021-02-25T12:14:15Z</time>
      </trkpt>
      <trkpt lat="44.91652" lon="5.1806">
        <ele>1163</ele>
        <time>2021-02-25T12:14:19Z</time>
      </trkpt>
      <trkpt lat="44.91657" lon="5.18064">
        <ele>1165</ele>
        <time>2021-02-25T12:14:24Z</time>
      </trkpt>
      <trkpt lat="44.91661" lon="5.18068">
        <ele>1165</ele>
        <time>2021-02-25T12:14:29Z</time>
      </trkpt>
      <trkpt lat="44.91666" lon="5.18072">
        <ele>1155</ele>
        <time>2021-02-25T12:14:34Z</time>
      </trkpt>
      <trkpt lat="44.91669" lon="5.18075">
        <ele>1155</ele>
        <time>2021-02-25T12:14:38Z</time>
      </trkpt>
      <trkpt lat="44.91674" lon="5.18079">
        <ele>1155</ele>
        <time>2021-02-25T12:14:44Z</time>
      </trkpt>
      <trkpt lat="44.91678" lon="5.18083">
        <ele>1155</ele>
        <time>2021-02-25T12:14:48Z</time>
      </trkpt>
      <trkpt lat="44.91682" lon="5.18087">
        <ele>1159</ele>
        <time>2021-02-25T12:14:53Z</time>
      </trkpt>
      <trkpt lat="44.91685" lon="5.18091">
        <ele>1159</ele>
        <time>2021-02-25T12:14:57Z</time>
      </trkpt>
      <trkpt lat="44.91689" lon="5.18095">
        <ele>1159</ele>
        <time>2021-02-25T12:15:02Z</time>
      </trkpt>
      <trkpt lat="44.91692" lon="5.18099">
        <ele>1157</ele>
        <time>2021-02-25T12:15:06Z</time>
      </trkpt>
      <trkpt lat="44.91694" lon="5.18103">
        <ele>1157</ele>
        <time>2021-02-25T12:15:10Z</time>
      </trkpt>
      <trkpt lat="44.91698" lon="5.18109">
        <ele>1157</ele>
        <time>2021-02-25T12:15:14Z</time>
      </trkpt>
      <trkpt lat="44.917" lon="5.18113">
        <ele>1157</ele>
        <time>2021-02-25T12:15:18Z</time>
      </trkpt>
      <trkpt lat="44.91701" lon="5.18118">
        <ele>1157</ele>
        <time>2021-02-25T12:15:22Z</time>
      </trkpt>
      <trkpt lat="44.917" lon="5.18126">
        <ele>1158</ele>
        <time>2021-02-25T12:15:27Z</time>
      </trkpt>
      <trkpt lat="44.91699" lon="5.18132">
        <ele>1158</ele>
        <time>2021-02-25T12:15:32Z</time>
      </trkpt>
      <trkpt lat="44.91697" lon="5.18138">
        <ele>1158</ele>
        <time>2021-02-25T12:15:36Z</time>
      </trkpt>
      <trkpt lat="44.91694" lon="5.18144">
        <ele>1158</ele>
        <time>2021-02-25T12:15:41Z</time>
      </trkpt>
      <trkpt lat="44.91691" lon="5.1815">
        <ele>1158</ele>
        <time>2021-02-25T12:15:46Z</time>
      </trkpt>
      <trkpt lat="44.91688" lon="5.18156">
        <ele>1160</ele>
        <time>2021-02-25T12:15:50Z</time>
      </trkpt>
      <trkpt lat="44.91687" lon="5.18159">
        <ele>1160</ele>
        <time>2021-02-25T12:15:55Z</time>
      </trkpt>
      <trkpt lat="44.91688" lon="5.1816">
        <ele>1160</ele>
        <time>2021-02-25T12:16:04Z</time>
      </trkpt>
      <trkpt lat="44.91689" lon="5.18166">
        <ele>1160</ele>
        <time>2021-02-25T12:16:09Z</time>
      </trkpt>
      <trkpt lat="44.9169" lon="5.18178">
        <ele>1160</ele>
        <time>2021-02-25T12:16:18Z</time>
      </trkpt>
      <trkpt lat="44.9169" lon="5.1818">
        <ele>1160</ele>
        <time>2021-02-25T12:16:23Z</time>
      </trkpt>
      <trkpt lat="44.9169" lon="5.18182">
        <ele>1163</ele>
        <time>2021-02-25T12:16:27Z</time>
      </trkpt>
      <trkpt lat="44.9169" lon="5.18183">
        <ele>1163</ele>
        <time>2021-02-25T12:16:31Z</time>
      </trkpt>
      <trkpt lat="44.91688" lon="5.18186">
        <ele>1163</ele>
        <time>2021-02-25T12:16:36Z</time>
      </trkpt>
      <trkpt lat="44.91686" lon="5.1819">
        <ele>1163</ele>
        <time>2021-02-25T12:16:41Z</time>
      </trkpt>
      <trkpt lat="44.91684" lon="5.18196">
        <ele>1163</ele>
        <time>2021-02-25T12:16:46Z</time>
      </trkpt>
      <trkpt lat="44.91683" lon="5.18202">
        <ele>1163</ele>
        <time>2021-02-25T12:16:51Z</time>
      </trkpt>
      <trkpt lat="44.91682" lon="5.18207">
        <ele>1163</ele>
        <time>2021-02-25T12:16:55Z</time>
      </trkpt>
      <trkpt lat="44.91681" lon="5.18213">
        <ele>1165</ele>
        <time>2021-02-25T12:17:00Z</time>
      </trkpt>
      <trkpt lat="44.9168" lon="5.18215">
        <ele>1154</ele>
        <time>2021-02-25T12:17:04Z</time>
      </trkpt>
      <trkpt lat="44.91678" lon="5.1822">
        <ele>1154</ele>
        <time>2021-02-25T12:17:09Z</time>
      </trkpt>
      <trkpt lat="44.91677" lon="5.18225">
        <ele>1154</ele>
        <time>2021-02-25T12:17:13Z</time>
      </trkpt>
      <trkpt lat="44.91677" lon="5.18231">
        <ele>1154</ele>
        <time>2021-02-25T12:17:19Z</time>
      </trkpt>
      <trkpt lat="44.91676" lon="5.18237">
        <ele>1155</ele>
        <time>2021-02-25T12:17:24Z</time>
      </trkpt>
      <trkpt lat="44.91676" lon="5.18243">
        <ele>1155</ele>
        <time>2021-02-25T12:17:29Z</time>
      </trkpt>
      <trkpt lat="44.91676" lon="5.1825">
        <ele>1155</ele>
        <time>2021-02-25T12:17:34Z</time>
      </trkpt>
      <trkpt lat="44.91677" lon="5.18256">
        <ele>1155</ele>
        <time>2021-02-25T12:17:39Z</time>
      </trkpt>
      <trkpt lat="44.91678" lon="5.18263">
        <ele>1155</ele>
        <time>2021-02-25T12:17:44Z</time>
      </trkpt>
      <trkpt lat="44.91682" lon="5.18268">
        <ele>1166</ele>
        <time>2021-02-25T12:17:48Z</time>
      </trkpt>
      <trkpt lat="44.91684" lon="5.18273">
        <ele>1166</ele>
        <time>2021-02-25T12:17:52Z</time>
      </trkpt>
      <trkpt lat="44.91687" lon="5.18276">
        <ele>1166</ele>
        <time>2021-02-25T12:17:57Z</time>
      </trkpt>
      <trkpt lat="44.91689" lon="5.18278">
        <ele>1166</ele>
        <time>2021-02-25T12:18:01Z</time>
      </trkpt>
      <trkpt lat="44.91691" lon="5.18279">
        <ele>1166</ele>
        <time>2021-02-25T12:18:06Z</time>
      </trkpt>
      <trkpt lat="44.91692" lon="5.18282">
        <ele>1166</ele>
        <time>2021-02-25T12:18:11Z</time>
      </trkpt>
      <trkpt lat="44.91698" lon="5.18288">
        <ele>1166</ele>
        <time>2021-02-25T12:18:16Z</time>
      </trkpt>
      <trkpt lat="44.91702" lon="5.18293">
        <ele>1161</ele>
        <time>2021-02-25T12:18:21Z</time>
      </trkpt>
      <trkpt lat="44.91705" lon="5.18296">
        <ele>1161</ele>
        <time>2021-02-25T12:18:25Z</time>
      </trkpt>
      <trkpt lat="44.91709" lon="5.183">
        <ele>1165</ele>
        <time>2021-02-25T12:18:30Z</time>
      </trkpt>
      <trkpt lat="44.91712" lon="5.18307">
        <ele>1165</ele>
        <time>2021-02-25T12:18:36Z</time>
      </trkpt>
      <trkpt lat="44.91716" lon="5.1831">
        <ele>1165</ele>
        <time>2021-02-25T12:18:41Z</time>
      </trkpt>
      <trkpt lat="44.9172" lon="5.18314">
        <ele>1165</ele>
        <time>2021-02-25T12:18:45Z</time>
      </trkpt>
      <trkpt lat="44.91724" lon="5.18319">
        <ele>1165</ele>
        <time>2021-02-25T12:18:50Z</time>
      </trkpt>
      <trkpt lat="44.91727" lon="5.18323">
        <ele>1156</ele>
        <time>2021-02-25T12:18:54Z</time>
      </trkpt>
      <trkpt lat="44.91731" lon="5.1833">
        <ele>1156</ele>
        <time>2021-02-25T12:18:59Z</time>
      </trkpt>
      <trkpt lat="44.91736" lon="5.18335">
        <ele>1156</ele>
        <time>2021-02-25T12:19:03Z</time>
      </trkpt>
      <trkpt lat="44.91739" lon="5.18337">
        <ele>1162</ele>
        <time>2021-02-25T12:19:08Z</time>
      </trkpt>
      <trkpt lat="44.91742" lon="5.1834">
        <ele>1162</ele>
        <time>2021-02-25T12:19:12Z</time>
      </trkpt>
      <trkpt lat="44.91747" lon="5.18344">
        <ele>1162</ele>
        <time>2021-02-25T12:19:16Z</time>
      </trkpt>
      <trkpt lat="44.91749" lon="5.18349">
        <ele>1155</ele>
        <time>2021-02-25T12:19:21Z</time>
      </trkpt>
      <trkpt lat="44.91754" lon="5.18353">
        <ele>1155</ele>
        <time>2021-02-25T12:19:26Z</time>
      </trkpt>
      <trkpt lat="44.9176" lon="5.18356">
        <ele>1155</ele>
        <time>2021-02-25T12:19:31Z</time>
      </trkpt>
      <trkpt lat="44.91764" lon="5.18361">
        <ele>1162</ele>
        <time>2021-02-25T12:19:35Z</time>
      </trkpt>
      <trkpt lat="44.9177" lon="5.18367">
        <ele>1162</ele>
        <time>2021-02-25T12:19:40Z</time>
      </trkpt>
      <trkpt lat="44.91776" lon="5.18373">
        <ele>1162</ele>
        <time>2021-02-25T12:19:45Z</time>
      </trkpt>
      <trkpt lat="44.9178" lon="5.18377">
        <ele>1149</ele>
        <time>2021-02-25T12:19:49Z</time>
      </trkpt>
      <trkpt lat="44.91785" lon="5.18383">
        <ele>1149</ele>
        <time>2021-02-25T12:19:54Z</time>
      </trkpt>
      <trkpt lat="44.91791" lon="5.18388">
        <ele>1149</ele>
        <time>2021-02-25T12:19:59Z</time>
      </trkpt>
      <trkpt lat="44.91794" lon="5.1839">
        <ele>1154</ele>
        <time>2021-02-25T12:20:04Z</time>
      </trkpt>
      <trkpt lat="44.91798" lon="5.18394">
        <ele>1154</ele>
        <time>2021-02-25T12:20:09Z</time>
      </trkpt>
      <trkpt lat="44.91803" lon="5.18398">
        <ele>1154</ele>
        <time>2021-02-25T12:20:14Z</time>
      </trkpt>
      <trkpt lat="44.91806" lon="5.18401">
        <ele>1154</ele>
        <time>2021-02-25T12:20:18Z</time>
      </trkpt>
      <trkpt lat="44.91813" lon="5.18406">
        <ele>1143</ele>
        <time>2021-02-25T12:20:23Z</time>
      </trkpt>
      <trkpt lat="44.91818" lon="5.18409">
        <ele>1143</ele>
        <time>2021-02-25T12:20:27Z</time>
      </trkpt>
      <trkpt lat="44.91822" lon="5.18412">
        <ele>1146</ele>
        <time>2021-02-25T12:20:31Z</time>
      </trkpt>
      <trkpt lat="44.91828" lon="5.18416">
        <ele>1146</ele>
        <time>2021-02-25T12:20:36Z</time>
      </trkpt>
      <trkpt lat="44.91832" lon="5.1842">
        <ele>1146</ele>
        <time>2021-02-25T12:20:41Z</time>
      </trkpt>
      <trkpt lat="44.91837" lon="5.18424">
        <ele>1146</ele>
        <time>2021-02-25T12:20:46Z</time>
      </trkpt>
      <trkpt lat="44.91842" lon="5.18426">
        <ele>1146</ele>
        <time>2021-02-25T12:20:51Z</time>
      </trkpt>
      <trkpt lat="44.91846" lon="5.18428">
        <ele>1146</ele>
        <time>2021-02-25T12:20:55Z</time>
      </trkpt>
      <trkpt lat="44.91849" lon="5.1843">
        <ele>1146</ele>
        <time>2021-02-25T12:21:00Z</time>
      </trkpt>
      <trkpt lat="44.9185" lon="5.1843">
        <ele>1146</ele>
        <time>2021-02-25T12:21:04Z</time>
      </trkpt>
      <trkpt lat="44.91851" lon="5.18433">
        <ele>1145</ele>
        <time>2021-02-25T12:21:09Z</time>
      </trkpt>
      <trkpt lat="44.91849" lon="5.18441">
        <ele>1145</ele>
        <time>2021-02-25T12:21:23Z</time>
      </trkpt>
      <trkpt lat="44.91851" lon="5.18442">
        <ele>1145</ele>
        <time>2021-02-25T12:21:31Z</time>
      </trkpt>
      <trkpt lat="44.91856" lon="5.18445">
        <ele>1145</ele>
        <time>2021-02-25T12:21:36Z</time>
      </trkpt>
      <trkpt lat="44.91859" lon="5.18446">
        <ele>1145</ele>
        <time>2021-02-25T12:21:40Z</time>
      </trkpt>
      <trkpt lat="44.91863" lon="5.18448">
        <ele>1145</ele>
        <time>2021-02-25T12:21:45Z</time>
      </trkpt>
      <trkpt lat="44.91867" lon="5.1845">
        <ele>1145</ele>
        <time>2021-02-25T12:21:49Z</time>
      </trkpt>
      <trkpt lat="44.91871" lon="5.18451">
        <ele>1145</ele>
        <time>2021-02-25T12:21:54Z</time>
      </trkpt>
      <trkpt lat="44.91876" lon="5.18453">
        <ele>1140</ele>
        <time>2021-02-25T12:21:59Z</time>
      </trkpt>
      <trkpt lat="44.91881" lon="5.18454">
        <ele>1140</ele>
        <time>2021-02-25T12:22:04Z</time>
      </trkpt>
      <trkpt lat="44.91884" lon="5.18454">
        <ele>1140</ele>
        <time>2021-02-25T12:22:09Z</time>
      </trkpt>
      <trkpt lat="44.91887" lon="5.18454">
        <ele>1140</ele>
        <time>2021-02-25T12:22:13Z</time>
      </trkpt>
      <trkpt lat="44.91887" lon="5.18453">
        <ele>1140</ele>
        <time>2021-02-25T12:22:22Z</time>
      </trkpt>
      <trkpt lat="44.91892" lon="5.18456">
        <ele>1140</ele>
        <time>2021-02-25T12:22:27Z</time>
      </trkpt>
      <trkpt lat="44.91896" lon="5.18459">
        <ele>1145</ele>
        <time>2021-02-25T12:22:31Z</time>
      </trkpt>
      <trkpt lat="44.91899" lon="5.18459">
        <ele>1145</ele>
        <time>2021-02-25T12:22:41Z</time>
      </trkpt>
      <trkpt lat="44.91899" lon="5.18459">
        <ele>1145</ele>
        <time>2021-02-25T12:22:45Z</time>
      </trkpt>
      <trkpt lat="44.91902" lon="5.18459">
        <ele>1145</ele>
        <time>2021-02-25T12:22:50Z</time>
      </trkpt>
      <trkpt lat="44.91907" lon="5.18461">
        <ele>1137</ele>
        <time>2021-02-25T12:22:59Z</time>
      </trkpt>
      <trkpt lat="44.9191" lon="5.1846">
        <ele>1137</ele>
        <time>2021-02-25T12:23:04Z</time>
      </trkpt>
      <trkpt lat="44.91913" lon="5.18463">
        <ele>1137</ele>
        <time>2021-02-25T12:23:09Z</time>
      </trkpt>
      <trkpt lat="44.91915" lon="5.18462">
        <ele>1137</ele>
        <time>2021-02-25T12:23:14Z</time>
      </trkpt>
      <trkpt lat="44.91917" lon="5.18462">
        <ele>1137</ele>
        <time>2021-02-25T12:23:18Z</time>
      </trkpt>
      <trkpt lat="44.91922" lon="5.18465">
        <ele>1137</ele>
        <time>2021-02-25T12:23:23Z</time>
      </trkpt>
      <trkpt lat="44.91924" lon="5.18466">
        <ele>1137</ele>
        <time>2021-02-25T12:23:27Z</time>
      </trkpt>
      <trkpt lat="44.91928" lon="5.18469">
        <ele>1137</ele>
        <time>2021-02-25T12:23:32Z</time>
      </trkpt>
      <trkpt lat="44.9193" lon="5.18469">
        <ele>1137</ele>
        <time>2021-02-25T12:23:36Z</time>
      </trkpt>
      <trkpt lat="44.91932" lon="5.1847">
        <ele>1130</ele>
        <time>2021-02-25T12:23:41Z</time>
      </trkpt>
      <trkpt lat="44.91934" lon="5.1847">
        <ele>1130</ele>
        <time>2021-02-25T12:23:46Z</time>
      </trkpt>
      <trkpt lat="44.91938" lon="5.18469">
        <ele>1130</ele>
        <time>2021-02-25T12:23:51Z</time>
      </trkpt>
      <trkpt lat="44.91941" lon="5.18468">
        <ele>1130</ele>
        <time>2021-02-25T12:23:55Z</time>
      </trkpt>
      <trkpt lat="44.91943" lon="5.18468">
        <ele>1130</ele>
        <time>2021-02-25T12:24:01Z</time>
      </trkpt>
      <trkpt lat="44.91948" lon="5.18469">
        <ele>1130</ele>
        <time>2021-02-25T12:24:05Z</time>
      </trkpt>
      <trkpt lat="44.91952" lon="5.18468">
        <ele>1130</ele>
        <time>2021-02-25T12:24:10Z</time>
      </trkpt>
      <trkpt lat="44.91954" lon="5.18468">
        <ele>1130</ele>
        <time>2021-02-25T12:24:16Z</time>
      </trkpt>
      <trkpt lat="44.91959" lon="5.18467">
        <ele>1124</ele>
        <time>2021-02-25T12:24:21Z</time>
      </trkpt>
      <trkpt lat="44.91963" lon="5.18466">
        <ele>1124</ele>
        <time>2021-02-25T12:24:26Z</time>
      </trkpt>
      <trkpt lat="44.91967" lon="5.18464">
        <ele>1124</ele>
        <time>2021-02-25T12:24:31Z</time>
      </trkpt>
      <trkpt lat="44.91967" lon="5.18464">
        <ele>1124</ele>
        <time>2021-02-25T12:24:35Z</time>
      </trkpt>
      <trkpt lat="44.91971" lon="5.18464">
        <ele>1124</ele>
        <time>2021-02-25T12:24:40Z</time>
      </trkpt>
      <trkpt lat="44.91973" lon="5.18463">
        <ele>1124</ele>
        <time>2021-02-25T12:24:45Z</time>
      </trkpt>
      <trkpt lat="44.91976" lon="5.18462">
        <ele>1124</ele>
        <time>2021-02-25T12:24:49Z</time>
      </trkpt>
      <trkpt lat="44.91981" lon="5.18463">
        <ele>1124</ele>
        <time>2021-02-25T12:24:53Z</time>
      </trkpt>
      <trkpt lat="44.91983" lon="5.18463">
        <ele>1124</ele>
        <time>2021-02-25T12:24:57Z</time>
      </trkpt>
      <trkpt lat="44.91987" lon="5.18461">
        <ele>1121</ele>
        <time>2021-02-25T12:25:02Z</time>
      </trkpt>
      <trkpt lat="44.91991" lon="5.1846">
        <ele>1121</ele>
        <time>2021-02-25T12:25:07Z</time>
      </trkpt>
      <trkpt lat="44.91995" lon="5.1846">
        <ele>1121</ele>
        <time>2021-02-25T12:26:37Z</time>
      </trkpt>
      <trkpt lat="44.91998" lon="5.18461">
        <ele>1121</ele>
        <time>2021-02-25T12:27:08Z</time>
      </trkpt>
      <trkpt lat="44.92002" lon="5.18458">
        <ele>1107</ele>
        <time>2021-02-25T12:27:13Z</time>
      </trkpt>
      <trkpt lat="44.92005" lon="5.1846">
        <ele>1121</ele>
        <time>2021-02-25T12:27:18Z</time>
      </trkpt>
      <trkpt lat="44.92006" lon="5.18461">
        <ele>1121</ele>
        <time>2021-02-25T12:27:23Z</time>
      </trkpt>
      <trkpt lat="44.9201" lon="5.18462">
        <ele>1121</ele>
        <time>2021-02-25T12:27:29Z</time>
      </trkpt>
      <trkpt lat="44.92013" lon="5.18463">
        <ele>1121</ele>
        <time>2021-02-25T12:27:33Z</time>
      </trkpt>
      <trkpt lat="44.9202" lon="5.18465">
        <ele>1115</ele>
        <time>2021-02-25T12:27:38Z</time>
      </trkpt>
      <trkpt lat="44.92024" lon="5.18467">
        <ele>1115</ele>
        <time>2021-02-25T12:27:42Z</time>
      </trkpt>
      <trkpt lat="44.92026" lon="5.18468">
        <ele>1115</ele>
        <time>2021-02-25T12:27:47Z</time>
      </trkpt>
      <trkpt lat="44.92031" lon="5.1847">
        <ele>1115</ele>
        <time>2021-02-25T12:27:52Z</time>
      </trkpt>
      <trkpt lat="44.92033" lon="5.18471">
        <ele>1115</ele>
        <time>2021-02-25T12:27:56Z</time>
      </trkpt>
      <trkpt lat="44.92035" lon="5.18472">
        <ele>1115</ele>
        <time>2021-02-25T12:28:00Z</time>
      </trkpt>
      <trkpt lat="44.92038" lon="5.18473">
        <ele>1115</ele>
        <time>2021-02-25T12:28:05Z</time>
      </trkpt>
      <trkpt lat="44.92043" lon="5.18473">
        <ele>1106</ele>
        <time>2021-02-25T12:28:10Z</time>
      </trkpt>
      <trkpt lat="44.92046" lon="5.18474">
        <ele>1106</ele>
        <time>2021-02-25T12:28:14Z</time>
      </trkpt>
      <trkpt lat="44.9205" lon="5.18477">
        <ele>1106</ele>
        <time>2021-02-25T12:28:19Z</time>
      </trkpt>
      <trkpt lat="44.92054" lon="5.18477">
        <ele>1106</ele>
        <time>2021-02-25T12:28:23Z</time>
      </trkpt>
      <trkpt lat="44.92058" lon="5.18477">
        <ele>1106</ele>
        <time>2021-02-25T12:28:28Z</time>
      </trkpt>
      <trkpt lat="44.9206" lon="5.18478">
        <ele>1106</ele>
        <time>2021-02-25T12:28:33Z</time>
      </trkpt>
      <trkpt lat="44.92063" lon="5.18477">
        <ele>1106</ele>
        <time>2021-02-25T12:28:38Z</time>
      </trkpt>
      <trkpt lat="44.92068" lon="5.18476">
        <ele>1106</ele>
        <time>2021-02-25T12:28:43Z</time>
      </trkpt>
      <trkpt lat="44.92072" lon="5.18474">
        <ele>1101</ele>
        <time>2021-02-25T12:28:48Z</time>
      </trkpt>
      <trkpt lat="44.92074" lon="5.18472">
        <ele>1101</ele>
        <time>2021-02-25T12:28:53Z</time>
      </trkpt>
      <trkpt lat="44.92076" lon="5.18473">
        <ele>1101</ele>
        <time>2021-02-25T12:28:58Z</time>
      </trkpt>
      <trkpt lat="44.92078" lon="5.18474">
        <ele>1101</ele>
        <time>2021-02-25T12:29:03Z</time>
      </trkpt>
      <trkpt lat="44.92083" lon="5.18474">
        <ele>1101</ele>
        <time>2021-02-25T12:29:08Z</time>
      </trkpt>
      <trkpt lat="44.92085" lon="5.18473">
        <ele>1101</ele>
        <time>2021-02-25T12:29:13Z</time>
      </trkpt>
      <trkpt lat="44.9209" lon="5.1847">
        <ele>1101</ele>
        <time>2021-02-25T12:29:17Z</time>
      </trkpt>
      <trkpt lat="44.92095" lon="5.18467">
        <ele>1101</ele>
        <time>2021-02-25T12:29:22Z</time>
      </trkpt>
      <trkpt lat="44.92098" lon="5.18463">
        <ele>1102</ele>
        <time>2021-02-25T12:29:27Z</time>
      </trkpt>
      <trkpt lat="44.92101" lon="5.1846">
        <ele>1102</ele>
        <time>2021-02-25T12:29:31Z</time>
      </trkpt>
      <trkpt lat="44.92105" lon="5.18457">
        <ele>1087</ele>
        <time>2021-02-25T12:29:36Z</time>
      </trkpt>
      <trkpt lat="44.92107" lon="5.18456">
        <ele>1087</ele>
        <time>2021-02-25T12:29:41Z</time>
      </trkpt>
      <trkpt lat="44.92111" lon="5.18453">
        <ele>1087</ele>
        <time>2021-02-25T12:29:46Z</time>
      </trkpt>
      <trkpt lat="44.92116" lon="5.18452">
        <ele>1087</ele>
        <time>2021-02-25T12:29:51Z</time>
      </trkpt>
      <trkpt lat="44.9212" lon="5.18451">
        <ele>1087</ele>
        <time>2021-02-25T12:29:56Z</time>
      </trkpt>
      <trkpt lat="44.92122" lon="5.18449">
        <ele>1087</ele>
        <time>2021-02-25T12:30:01Z</time>
      </trkpt>
      <trkpt lat="44.92125" lon="5.18448">
        <ele>1087</ele>
        <time>2021-02-25T12:30:05Z</time>
      </trkpt>
      <trkpt lat="44.92129" lon="5.18447">
        <ele>1086</ele>
        <time>2021-02-25T12:30:10Z</time>
      </trkpt>
      <trkpt lat="44.92131" lon="5.18447">
        <ele>1086</ele>
        <time>2021-02-25T12:30:15Z</time>
      </trkpt>
      <trkpt lat="44.92135" lon="5.18445">
        <ele>1086</ele>
        <time>2021-02-25T12:30:20Z</time>
      </trkpt>
      <trkpt lat="44.92139" lon="5.18443">
        <ele>1086</ele>
        <time>2021-02-25T12:30:25Z</time>
      </trkpt>
      <trkpt lat="44.92143" lon="5.18441">
        <ele>1086</ele>
        <time>2021-02-25T12:30:29Z</time>
      </trkpt>
      <trkpt lat="44.92147" lon="5.18436">
        <ele>1086</ele>
        <time>2021-02-25T12:30:34Z</time>
      </trkpt>
      <trkpt lat="44.92149" lon="5.18436">
        <ele>1086</ele>
        <time>2021-02-25T12:30:39Z</time>
      </trkpt>
      <trkpt lat="44.92152" lon="5.18434">
        <ele>1086</ele>
        <time>2021-02-25T12:30:44Z</time>
      </trkpt>
      <trkpt lat="44.92156" lon="5.18432">
        <ele>1082</ele>
        <time>2021-02-25T12:30:49Z</time>
      </trkpt>
      <trkpt lat="44.92159" lon="5.18431">
        <ele>1082</ele>
        <time>2021-02-25T12:30:53Z</time>
      </trkpt>
      <trkpt lat="44.92164" lon="5.18431">
        <ele>1067</ele>
        <time>2021-02-25T12:30:57Z</time>
      </trkpt>
      <trkpt lat="44.92168" lon="5.18429">
        <ele>1067</ele>
        <time>2021-02-25T12:31:02Z</time>
      </trkpt>
      <trkpt lat="44.92172" lon="5.18429">
        <ele>1067</ele>
        <time>2021-02-25T12:31:07Z</time>
      </trkpt>
      <trkpt lat="44.92174" lon="5.18433">
        <ele>1082</ele>
        <time>2021-02-25T12:31:11Z</time>
      </trkpt>
      <trkpt lat="44.92176" lon="5.18433">
        <ele>1082</ele>
        <time>2021-02-25T12:31:16Z</time>
      </trkpt>
      <trkpt lat="44.92179" lon="5.18431">
        <ele>1082</ele>
        <time>2021-02-25T12:31:20Z</time>
      </trkpt>
      <trkpt lat="44.92183" lon="5.18432">
        <ele>1076</ele>
        <time>2021-02-25T12:31:24Z</time>
      </trkpt>
      <trkpt lat="44.92186" lon="5.18432">
        <ele>1076</ele>
        <time>2021-02-25T12:31:29Z</time>
      </trkpt>
      <trkpt lat="44.92189" lon="5.18431">
        <ele>1076</ele>
        <time>2021-02-25T12:31:34Z</time>
      </trkpt>
      <trkpt lat="44.92193" lon="5.18432">
        <ele>1076</ele>
        <time>2021-02-25T12:31:39Z</time>
      </trkpt>
      <trkpt lat="44.92198" lon="5.18433">
        <ele>1076</ele>
        <time>2021-02-25T12:31:44Z</time>
      </trkpt>
      <trkpt lat="44.92203" lon="5.18434">
        <ele>1076</ele>
        <time>2021-02-25T12:31:49Z</time>
      </trkpt>
      <trkpt lat="44.92207" lon="5.18433">
        <ele>1076</ele>
        <time>2021-02-25T12:31:54Z</time>
      </trkpt>
      <trkpt lat="44.92208" lon="5.18429">
        <ele>1063</ele>
        <time>2021-02-25T12:31:59Z</time>
      </trkpt>
      <trkpt lat="44.92212" lon="5.18427">
        <ele>1061</ele>
        <time>2021-02-25T12:32:04Z</time>
      </trkpt>
      <trkpt lat="44.92216" lon="5.18429">
        <ele>1061</ele>
        <time>2021-02-25T12:32:09Z</time>
      </trkpt>
      <trkpt lat="44.92217" lon="5.18427">
        <ele>1061</ele>
        <time>2021-02-25T12:32:13Z</time>
      </trkpt>
      <trkpt lat="44.92218" lon="5.18427">
        <ele>1061</ele>
        <time>2021-02-25T12:32:17Z</time>
      </trkpt>
      <trkpt lat="44.92222" lon="5.18422">
        <ele>1061</ele>
        <time>2021-02-25T12:32:22Z</time>
      </trkpt>
      <trkpt lat="44.92226" lon="5.18421">
        <ele>1061</ele>
        <time>2021-02-25T12:32:27Z</time>
      </trkpt>
      <trkpt lat="44.92231" lon="5.18418">
        <ele>1061</ele>
        <time>2021-02-25T12:32:32Z</time>
      </trkpt>
      <trkpt lat="44.92234" lon="5.18418">
        <ele>1061</ele>
        <time>2021-02-25T12:32:36Z</time>
      </trkpt>
      <trkpt lat="44.92237" lon="5.1842">
        <ele>1054</ele>
        <time>2021-02-25T12:32:41Z</time>
      </trkpt>
      <trkpt lat="44.9224" lon="5.18421">
        <ele>1054</ele>
        <time>2021-02-25T12:32:46Z</time>
      </trkpt>
      <trkpt lat="44.92243" lon="5.18421">
        <ele>1054</ele>
        <time>2021-02-25T12:32:51Z</time>
      </trkpt>
      <trkpt lat="44.92245" lon="5.18421">
        <ele>1054</ele>
        <time>2021-02-25T12:32:56Z</time>
      </trkpt>
      <trkpt lat="44.92247" lon="5.18421">
        <ele>1054</ele>
        <time>2021-02-25T12:33:01Z</time>
      </trkpt>
      <trkpt lat="44.9225" lon="5.18421">
        <ele>1054</ele>
        <time>2021-02-25T12:33:06Z</time>
      </trkpt>
      <trkpt lat="44.92253" lon="5.18421">
        <ele>1054</ele>
        <time>2021-02-25T12:33:11Z</time>
      </trkpt>
      <trkpt lat="44.92256" lon="5.1842">
        <ele>1054</ele>
        <time>2021-02-25T12:33:16Z</time>
      </trkpt>
      <trkpt lat="44.92259" lon="5.18418">
        <ele>1054</ele>
        <time>2021-02-25T12:33:21Z</time>
      </trkpt>
      <trkpt lat="44.92263" lon="5.18417">
        <ele>1054</ele>
        <time>2021-02-25T12:33:26Z</time>
      </trkpt>
      <trkpt lat="44.92266" lon="5.18416">
        <ele>1049</ele>
        <time>2021-02-25T12:33:30Z</time>
      </trkpt>
      <trkpt lat="44.92267" lon="5.18416">
        <ele>1049</ele>
        <time>2021-02-25T12:33:35Z</time>
      </trkpt>
      <trkpt lat="44.92271" lon="5.18415">
        <ele>1049</ele>
        <time>2021-02-25T12:33:40Z</time>
      </trkpt>
      <trkpt lat="44.92273" lon="5.18413">
        <ele>1049</ele>
        <time>2021-02-25T12:33:45Z</time>
      </trkpt>
      <trkpt lat="44.92278" lon="5.18412">
        <ele>1049</ele>
        <time>2021-02-25T12:33:49Z</time>
      </trkpt>
      <trkpt lat="44.92281" lon="5.1841">
        <ele>1049</ele>
        <time>2021-02-25T12:33:54Z</time>
      </trkpt>
      <trkpt lat="44.92284" lon="5.18409">
        <ele>1049</ele>
        <time>2021-02-25T12:33:58Z</time>
      </trkpt>
      <trkpt lat="44.92287" lon="5.18407">
        <ele>1049</ele>
        <time>2021-02-25T12:34:02Z</time>
      </trkpt>
      <trkpt lat="44.92289" lon="5.18406">
        <ele>1049</ele>
        <time>2021-02-25T12:34:07Z</time>
      </trkpt>
      <trkpt lat="44.92292" lon="5.18406">
        <ele>1041</ele>
        <time>2021-02-25T12:34:12Z</time>
      </trkpt>
      <trkpt lat="44.92297" lon="5.18407">
        <ele>1041</ele>
        <time>2021-02-25T12:34:17Z</time>
      </trkpt>
      <trkpt lat="44.92297" lon="5.18406">
        <ele>1041</ele>
        <time>2021-02-25T12:34:22Z</time>
      </trkpt>
      <trkpt lat="44.92303" lon="5.18403">
        <ele>1041</ele>
        <time>2021-02-25T12:34:27Z</time>
      </trkpt>
      <trkpt lat="44.92306" lon="5.18403">
        <ele>1041</ele>
        <time>2021-02-25T12:34:32Z</time>
      </trkpt>
      <trkpt lat="44.92309" lon="5.184">
        <ele>1029</ele>
        <time>2021-02-25T12:34:36Z</time>
      </trkpt>
      <trkpt lat="44.92312" lon="5.18397">
        <ele>1029</ele>
        <time>2021-02-25T12:34:41Z</time>
      </trkpt>
      <trkpt lat="44.92315" lon="5.18396">
        <ele>1029</ele>
        <time>2021-02-25T12:34:46Z</time>
      </trkpt>
      <trkpt lat="44.92318" lon="5.18394">
        <ele>1029</ele>
        <time>2021-02-25T12:34:51Z</time>
      </trkpt>
      <trkpt lat="44.92321" lon="5.18393">
        <ele>1027</ele>
        <time>2021-02-25T12:34:56Z</time>
      </trkpt>
      <trkpt lat="44.92326" lon="5.18392">
        <ele>1027</ele>
        <time>2021-02-25T12:35:01Z</time>
      </trkpt>
      <trkpt lat="44.92329" lon="5.1839">
        <ele>1027</ele>
        <time>2021-02-25T12:35:05Z</time>
      </trkpt>
      <trkpt lat="44.92334" lon="5.1839">
        <ele>1027</ele>
        <time>2021-02-25T12:35:09Z</time>
      </trkpt>
      <trkpt lat="44.92338" lon="5.18391">
        <ele>1027</ele>
        <time>2021-02-25T12:35:14Z</time>
      </trkpt>
      <trkpt lat="44.92341" lon="5.1839">
        <ele>1027</ele>
        <time>2021-02-25T12:35:18Z</time>
      </trkpt>
      <trkpt lat="44.92344" lon="5.18387">
        <ele>1027</ele>
        <time>2021-02-25T12:35:23Z</time>
      </trkpt>
      <trkpt lat="44.92348" lon="5.18386">
        <ele>1025</ele>
        <time>2021-02-25T12:35:28Z</time>
      </trkpt>
      <trkpt lat="44.92352" lon="5.18384">
        <ele>1025</ele>
        <time>2021-02-25T12:35:33Z</time>
      </trkpt>
      <trkpt lat="44.92355" lon="5.18384">
        <ele>1025</ele>
        <time>2021-02-25T12:35:37Z</time>
      </trkpt>
      <trkpt lat="44.92359" lon="5.18383">
        <ele>1025</ele>
        <time>2021-02-25T12:35:42Z</time>
      </trkpt>
      <trkpt lat="44.92363" lon="5.18383">
        <ele>1025</ele>
        <time>2021-02-25T12:35:47Z</time>
      </trkpt>
      <trkpt lat="44.92367" lon="5.18381">
        <ele>1025</ele>
        <time>2021-02-25T12:35:52Z</time>
      </trkpt>
      <trkpt lat="44.92369" lon="5.1838">
        <ele>1025</ele>
        <time>2021-02-25T12:35:57Z</time>
      </trkpt>
      <trkpt lat="44.92372" lon="5.18379">
        <ele>1025</ele>
        <time>2021-02-25T12:36:02Z</time>
      </trkpt>
      <trkpt lat="44.92375" lon="5.18377">
        <ele>1025</ele>
        <time>2021-02-25T12:36:07Z</time>
      </trkpt>
      <trkpt lat="44.92378" lon="5.18376">
        <ele>1025</ele>
        <time>2021-02-25T12:36:11Z</time>
      </trkpt>
      <trkpt lat="44.92381" lon="5.18374">
        <ele>1010</ele>
        <time>2021-02-25T12:36:16Z</time>
      </trkpt>
      <trkpt lat="44.92385" lon="5.18371">
        <ele>1010</ele>
        <time>2021-02-25T12:36:21Z</time>
      </trkpt>
      <trkpt lat="44.92386" lon="5.1837">
        <ele>1010</ele>
        <time>2021-02-25T12:36:26Z</time>
      </trkpt>
      <trkpt lat="44.9239" lon="5.18369">
        <ele>1010</ele>
        <time>2021-02-25T12:36:31Z</time>
      </trkpt>
      <trkpt lat="44.92393" lon="5.18367">
        <ele>1010</ele>
        <time>2021-02-25T12:36:35Z</time>
      </trkpt>
      <trkpt lat="44.92397" lon="5.18366">
        <ele>1010</ele>
        <time>2021-02-25T12:36:39Z</time>
      </trkpt>
      <trkpt lat="44.92401" lon="5.18364">
        <ele>1010</ele>
        <time>2021-02-25T12:36:44Z</time>
      </trkpt>
      <trkpt lat="44.92404" lon="5.18362">
        <ele>1008</ele>
        <time>2021-02-25T12:36:49Z</time>
      </trkpt>
      <trkpt lat="44.92409" lon="5.18359">
        <ele>1008</ele>
        <time>2021-02-25T12:36:54Z</time>
      </trkpt>
      <trkpt lat="44.92411" lon="5.18358">
        <ele>1008</ele>
        <time>2021-02-25T12:36:59Z</time>
      </trkpt>
      <trkpt lat="44.92415" lon="5.18357">
        <ele>1008</ele>
        <time>2021-02-25T12:37:04Z</time>
      </trkpt>
      <trkpt lat="44.92419" lon="5.18357">
        <ele>1008</ele>
        <time>2021-02-25T12:37:08Z</time>
      </trkpt>
      <trkpt lat="44.92419" lon="5.18356">
        <ele>1008</ele>
        <time>2021-02-25T12:37:13Z</time>
      </trkpt>
      <trkpt lat="44.92421" lon="5.18354">
        <ele>1008</ele>
        <time>2021-02-25T12:37:17Z</time>
      </trkpt>
      <trkpt lat="44.92426" lon="5.18351">
        <ele>1008</ele>
        <time>2021-02-25T12:37:22Z</time>
      </trkpt>
      <trkpt lat="44.92428" lon="5.18352">
        <ele>1008</ele>
        <time>2021-02-25T12:37:27Z</time>
      </trkpt>
      <trkpt lat="44.92431" lon="5.18352">
        <ele>1005</ele>
        <time>2021-02-25T12:37:32Z</time>
      </trkpt>
      <trkpt lat="44.92434" lon="5.18353">
        <ele>1005</ele>
        <time>2021-02-25T12:37:37Z</time>
      </trkpt>
      <trkpt lat="44.92437" lon="5.18353">
        <ele>1005</ele>
        <time>2021-02-25T12:37:42Z</time>
      </trkpt>
      <trkpt lat="44.92441" lon="5.18352">
        <ele>1005</ele>
        <time>2021-02-25T12:37:48Z</time>
      </trkpt>
      <trkpt lat="44.92443" lon="5.18351">
        <ele>1005</ele>
        <time>2021-02-25T12:37:52Z</time>
      </trkpt>
      <trkpt lat="44.92447" lon="5.1835">
        <ele>1005</ele>
        <time>2021-02-25T12:37:57Z</time>
      </trkpt>
      <trkpt lat="44.92449" lon="5.18349">
        <ele>1005</ele>
        <time>2021-02-25T12:38:01Z</time>
      </trkpt>
      <trkpt lat="44.92452" lon="5.18347">
        <ele>994</ele>
        <time>2021-02-25T12:38:05Z</time>
      </trkpt>
      <trkpt lat="44.92456" lon="5.18345">
        <ele>994</ele>
        <time>2021-02-25T12:38:10Z</time>
      </trkpt>
      <trkpt lat="44.9246" lon="5.18343">
        <ele>990</ele>
        <time>2021-02-25T12:38:15Z</time>
      </trkpt>
      <trkpt lat="44.92462" lon="5.18341">
        <ele>990</ele>
        <time>2021-02-25T12:38:19Z</time>
      </trkpt>
      <trkpt lat="44.92466" lon="5.1834">
        <ele>990</ele>
        <time>2021-02-25T12:38:23Z</time>
      </trkpt>
      <trkpt lat="44.9247" lon="5.18338">
        <ele>990</ele>
        <time>2021-02-25T12:38:28Z</time>
      </trkpt>
      <trkpt lat="44.92472" lon="5.18337">
        <ele>990</ele>
        <time>2021-02-25T12:38:33Z</time>
      </trkpt>
      <trkpt lat="44.92475" lon="5.18337">
        <ele>990</ele>
        <time>2021-02-25T12:38:37Z</time>
      </trkpt>
      <trkpt lat="44.92478" lon="5.18337">
        <ele>990</ele>
        <time>2021-02-25T12:38:42Z</time>
      </trkpt>
      <trkpt lat="44.92483" lon="5.18338">
        <ele>990</ele>
        <time>2021-02-25T12:38:46Z</time>
      </trkpt>
      <trkpt lat="44.92488" lon="5.18337">
        <ele>989</ele>
        <time>2021-02-25T12:38:51Z</time>
      </trkpt>
      <trkpt lat="44.9249" lon="5.18338">
        <ele>989</ele>
        <time>2021-02-25T12:38:55Z</time>
      </trkpt>
      <trkpt lat="44.92494" lon="5.18336">
        <ele>989</ele>
        <time>2021-02-25T12:38:59Z</time>
      </trkpt>
      <trkpt lat="44.92498" lon="5.18337">
        <ele>989</ele>
        <time>2021-02-25T12:39:03Z</time>
      </trkpt>
      <trkpt lat="44.92501" lon="5.18336">
        <ele>989</ele>
        <time>2021-02-25T12:39:08Z</time>
      </trkpt>
      <trkpt lat="44.92505" lon="5.18336">
        <ele>989</ele>
        <time>2021-02-25T12:39:12Z</time>
      </trkpt>
      <trkpt lat="44.92509" lon="5.18337">
        <ele>989</ele>
        <time>2021-02-25T12:39:18Z</time>
      </trkpt>
      <trkpt lat="44.92513" lon="5.18339">
        <ele>989</ele>
        <time>2021-02-25T12:39:22Z</time>
      </trkpt>
      <trkpt lat="44.92516" lon="5.1834">
        <ele>980</ele>
        <time>2021-02-25T12:39:27Z</time>
      </trkpt>
      <trkpt lat="44.92515" lon="5.18341">
        <ele>980</ele>
        <time>2021-02-25T12:39:31Z</time>
      </trkpt>
      <trkpt lat="44.92518" lon="5.18344">
        <ele>980</ele>
        <time>2021-02-25T12:39:36Z</time>
      </trkpt>
      <trkpt lat="44.92522" lon="5.18346">
        <ele>980</ele>
        <time>2021-02-25T12:39:41Z</time>
      </trkpt>
      <trkpt lat="44.92525" lon="5.18347">
        <ele>980</ele>
        <time>2021-02-25T12:39:45Z</time>
      </trkpt>
      <trkpt lat="44.92529" lon="5.18347">
        <ele>980</ele>
        <time>2021-02-25T12:39:50Z</time>
      </trkpt>
      <trkpt lat="44.92534" lon="5.18346">
        <ele>980</ele>
        <time>2021-02-25T12:39:55Z</time>
      </trkpt>
      <trkpt lat="44.92538" lon="5.18346">
        <ele>980</ele>
        <time>2021-02-25T12:39:59Z</time>
      </trkpt>
      <trkpt lat="44.92542" lon="5.18347">
        <ele>970</ele>
        <time>2021-02-25T12:40:03Z</time>
      </trkpt>
      <trkpt lat="44.92545" lon="5.18346">
        <ele>970</ele>
        <time>2021-02-25T12:40:07Z</time>
      </trkpt>
      <trkpt lat="44.92548" lon="5.18344">
        <ele>970</ele>
        <time>2021-02-25T12:40:12Z</time>
      </trkpt>
      <trkpt lat="44.9255" lon="5.18343">
        <ele>970</ele>
        <time>2021-02-25T12:40:17Z</time>
      </trkpt>
      <trkpt lat="44.92554" lon="5.18341">
        <ele>970</ele>
        <time>2021-02-25T12:40:22Z</time>
      </trkpt>
      <trkpt lat="44.92558" lon="5.18339">
        <ele>970</ele>
        <time>2021-02-25T12:40:26Z</time>
      </trkpt>
      <trkpt lat="44.9256" lon="5.18338">
        <ele>970</ele>
        <time>2021-02-25T12:40:30Z</time>
      </trkpt>
      <trkpt lat="44.92562" lon="5.18336">
        <ele>970</ele>
        <time>2021-02-25T12:40:35Z</time>
      </trkpt>
      <trkpt lat="44.92566" lon="5.18337">
        <ele>970</ele>
        <time>2021-02-25T12:40:40Z</time>
      </trkpt>
      <trkpt lat="44.9257" lon="5.18337">
        <ele>963</ele>
        <time>2021-02-25T12:40:45Z</time>
      </trkpt>
      <trkpt lat="44.92572" lon="5.18335">
        <ele>963</ele>
        <time>2021-02-25T12:40:51Z</time>
      </trkpt>
      <trkpt lat="44.92576" lon="5.18334">
        <ele>963</ele>
        <time>2021-02-25T12:40:56Z</time>
      </trkpt>
      <trkpt lat="44.92579" lon="5.18332">
        <ele>963</ele>
        <time>2021-02-25T12:41:01Z</time>
      </trkpt>
      <trkpt lat="44.92583" lon="5.18332">
        <ele>963</ele>
        <time>2021-02-25T12:41:06Z</time>
      </trkpt>
      <trkpt lat="44.92586" lon="5.18331">
        <ele>963</ele>
        <time>2021-02-25T12:41:11Z</time>
      </trkpt>
      <trkpt lat="44.92589" lon="5.18331">
        <ele>963</ele>
        <time>2021-02-25T12:41:16Z</time>
      </trkpt>
      <trkpt lat="44.92592" lon="5.1833">
        <ele>963</ele>
        <time>2021-02-25T12:41:20Z</time>
      </trkpt>
      <trkpt lat="44.92594" lon="5.18329">
        <ele>963</ele>
        <time>2021-02-25T12:41:24Z</time>
      </trkpt>
      <trkpt lat="44.92596" lon="5.18328">
        <ele>963</ele>
        <time>2021-02-25T12:41:29Z</time>
      </trkpt>
      <trkpt lat="44.92601" lon="5.18327">
        <ele>960</ele>
        <time>2021-02-25T12:41:34Z</time>
      </trkpt>
      <trkpt lat="44.92605" lon="5.18326">
        <ele>960</ele>
        <time>2021-02-25T12:41:39Z</time>
      </trkpt>
      <trkpt lat="44.92609" lon="5.18323">
        <ele>960</ele>
        <time>2021-02-25T12:41:43Z</time>
      </trkpt>
      <trkpt lat="44.92614" lon="5.18324">
        <ele>960</ele>
        <time>2021-02-25T12:41:48Z</time>
      </trkpt>
      <trkpt lat="44.92615" lon="5.18326">
        <ele>960</ele>
        <time>2021-02-25T12:41:52Z</time>
      </trkpt>
      <trkpt lat="44.92619" lon="5.18326">
        <ele>960</ele>
        <time>2021-02-25T12:41:57Z</time>
      </trkpt>
      <trkpt lat="44.92623" lon="5.18327">
        <ele>960</ele>
        <time>2021-02-25T12:42:01Z</time>
      </trkpt>
      <trkpt lat="44.92629" lon="5.18326">
        <ele>955</ele>
        <time>2021-02-25T12:42:06Z</time>
      </trkpt>
      <trkpt lat="44.92634" lon="5.18326">
        <ele>955</ele>
        <time>2021-02-25T12:42:12Z</time>
      </trkpt>
      <trkpt lat="44.92637" lon="5.18325">
        <ele>955</ele>
        <time>2021-02-25T12:42:17Z</time>
      </trkpt>
      <trkpt lat="44.92639" lon="5.18325">
        <ele>955</ele>
        <time>2021-02-25T12:42:21Z</time>
      </trkpt>
      <trkpt lat="44.92642" lon="5.18323">
        <ele>955</ele>
        <time>2021-02-25T12:42:26Z</time>
      </trkpt>
      <trkpt lat="44.92645" lon="5.18322">
        <ele>955</ele>
        <time>2021-02-25T12:42:31Z</time>
      </trkpt>
      <trkpt lat="44.92647" lon="5.18321">
        <ele>955</ele>
        <time>2021-02-25T12:42:36Z</time>
      </trkpt>
      <trkpt lat="44.92651" lon="5.1832">
        <ele>955</ele>
        <time>2021-02-25T12:42:40Z</time>
      </trkpt>
      <trkpt lat="44.92653" lon="5.1832">
        <ele>955</ele>
        <time>2021-02-25T12:42:45Z</time>
      </trkpt>
      <trkpt lat="44.92656" lon="5.18318">
        <ele>945</ele>
        <time>2021-02-25T12:42:49Z</time>
      </trkpt>
      <trkpt lat="44.92657" lon="5.18316">
        <ele>945</ele>
        <time>2021-02-25T12:42:53Z</time>
      </trkpt>
      <trkpt lat="44.92659" lon="5.18316">
        <ele>945</ele>
        <time>2021-02-25T12:42:58Z</time>
      </trkpt>
      <trkpt lat="44.92662" lon="5.18313">
        <ele>945</ele>
        <time>2021-02-25T12:43:07Z</time>
      </trkpt>
      <trkpt lat="44.92664" lon="5.1831">
        <ele>945</ele>
        <time>2021-02-25T12:43:11Z</time>
      </trkpt>
      <trkpt lat="44.92667" lon="5.18306">
        <ele>945</ele>
        <time>2021-02-25T12:43:16Z</time>
      </trkpt>
      <trkpt lat="44.92671" lon="5.18303">
        <ele>945</ele>
        <time>2021-02-25T12:43:21Z</time>
      </trkpt>
      <trkpt lat="44.92675" lon="5.18299">
        <ele>945</ele>
        <time>2021-02-25T12:43:27Z</time>
      </trkpt>
      <trkpt lat="44.9268" lon="5.18296">
        <ele>945</ele>
        <time>2021-02-25T12:43:32Z</time>
      </trkpt>
      <trkpt lat="44.92683" lon="5.18294">
        <ele>942</ele>
        <time>2021-02-25T12:43:36Z</time>
      </trkpt>
      <trkpt lat="44.92687" lon="5.18291">
        <ele>933</ele>
        <time>2021-02-25T12:43:41Z</time>
      </trkpt>
      <trkpt lat="44.9269" lon="5.18289">
        <ele>933</ele>
        <time>2021-02-25T12:43:46Z</time>
      </trkpt>
      <trkpt lat="44.92693" lon="5.18287">
        <ele>933</ele>
        <time>2021-02-25T12:43:51Z</time>
      </trkpt>
      <trkpt lat="44.92695" lon="5.18288">
        <ele>933</ele>
        <time>2021-02-25T12:43:55Z</time>
      </trkpt>
      <trkpt lat="44.92697" lon="5.18287">
        <ele>933</ele>
        <time>2021-02-25T12:44:00Z</time>
      </trkpt>
      <trkpt lat="44.927" lon="5.18285">
        <ele>933</ele>
        <time>2021-02-25T12:44:05Z</time>
      </trkpt>
      <trkpt lat="44.92703" lon="5.18283">
        <ele>933</ele>
        <time>2021-02-25T12:44:09Z</time>
      </trkpt>
      <trkpt lat="44.92705" lon="5.18281">
        <ele>933</ele>
        <time>2021-02-25T12:44:14Z</time>
      </trkpt>
      <trkpt lat="44.92707" lon="5.18279">
        <ele>933</ele>
        <time>2021-02-25T12:44:18Z</time>
      </trkpt>
      <trkpt lat="44.9271" lon="5.18276">
        <ele>930</ele>
        <time>2021-02-25T12:44:23Z</time>
      </trkpt>
      <trkpt lat="44.92714" lon="5.18272">
        <ele>930</ele>
        <time>2021-02-25T12:44:28Z</time>
      </trkpt>
      <trkpt lat="44.92718" lon="5.18268">
        <ele>930</ele>
        <time>2021-02-25T12:44:33Z</time>
      </trkpt>
      <trkpt lat="44.92721" lon="5.18266">
        <ele>930</ele>
        <time>2021-02-25T12:44:37Z</time>
      </trkpt>
      <trkpt lat="44.92724" lon="5.18263">
        <ele>922</ele>
        <time>2021-02-25T12:44:42Z</time>
      </trkpt>
      <trkpt lat="44.92728" lon="5.18258">
        <ele>922</ele>
        <time>2021-02-25T12:44:48Z</time>
      </trkpt>
      <trkpt lat="44.92733" lon="5.18255">
        <ele>922</ele>
        <time>2021-02-25T12:44:53Z</time>
      </trkpt>
      <trkpt lat="44.92737" lon="5.18253">
        <ele>920</ele>
        <time>2021-02-25T12:44:57Z</time>
      </trkpt>
      <trkpt lat="44.92741" lon="5.18248">
        <ele>920</ele>
        <time>2021-02-25T12:45:03Z</time>
      </trkpt>
      <trkpt lat="44.92744" lon="5.18243">
        <ele>920</ele>
        <time>2021-02-25T12:45:07Z</time>
      </trkpt>
      <trkpt lat="44.92747" lon="5.1824">
        <ele>920</ele>
        <time>2021-02-25T12:45:12Z</time>
      </trkpt>
      <trkpt lat="44.92749" lon="5.18236">
        <ele>916</ele>
        <time>2021-02-25T12:45:17Z</time>
      </trkpt>
      <trkpt lat="44.9275" lon="5.18232">
        <ele>916</ele>
        <time>2021-02-25T12:45:21Z</time>
      </trkpt>
      <trkpt lat="44.92753" lon="5.18228">
        <ele>916</ele>
        <time>2021-02-25T12:46:39Z</time>
      </trkpt>
      <trkpt lat="44.92754" lon="5.18225">
        <ele>916</ele>
        <time>2021-02-25T12:46:54Z</time>
      </trkpt>
      <trkpt lat="44.92754" lon="5.18225">
        <ele>916</ele>
        <time>2021-02-25T12:46:59Z</time>
      </trkpt>
      <trkpt lat="44.92757" lon="5.18223">
        <ele>916</ele>
        <time>2021-02-25T12:48:20Z</time>
      </trkpt>
      <trkpt lat="44.92759" lon="5.18219">
        <ele>916</ele>
        <time>2021-02-25T12:48:25Z</time>
      </trkpt>
      <trkpt lat="44.92762" lon="5.18213">
        <ele>916</ele>
        <time>2021-02-25T12:48:30Z</time>
      </trkpt>
      <trkpt lat="44.92764" lon="5.18206">
        <ele>915</ele>
        <time>2021-02-25T12:48:35Z</time>
      </trkpt>
      <trkpt lat="44.92766" lon="5.18202">
        <ele>915</ele>
        <time>2021-02-25T12:48:39Z</time>
      </trkpt>
      <trkpt lat="44.92769" lon="5.18198">
        <ele>915</ele>
        <time>2021-02-25T12:48:44Z</time>
      </trkpt>
      <trkpt lat="44.92771" lon="5.18192">
        <ele>915</ele>
        <time>2021-02-25T12:48:50Z</time>
      </trkpt>
      <trkpt lat="44.92773" lon="5.18185">
        <ele>915</ele>
        <time>2021-02-25T12:48:54Z</time>
      </trkpt>
      <trkpt lat="44.92775" lon="5.1818">
        <ele>913</ele>
        <time>2021-02-25T12:48:59Z</time>
      </trkpt>
      <trkpt lat="44.92777" lon="5.18174">
        <ele>913</ele>
        <time>2021-02-25T12:49:03Z</time>
      </trkpt>
      <trkpt lat="44.92778" lon="5.18169">
        <ele>913</ele>
        <time>2021-02-25T12:49:08Z</time>
      </trkpt>
      <trkpt lat="44.9278" lon="5.18165">
        <ele>913</ele>
        <time>2021-02-25T12:49:12Z</time>
      </trkpt>
      <trkpt lat="44.92783" lon="5.18159">
        <ele>913</ele>
        <time>2021-02-25T12:49:16Z</time>
      </trkpt>
      <trkpt lat="44.92785" lon="5.18153">
        <ele>913</ele>
        <time>2021-02-25T12:49:21Z</time>
      </trkpt>
      <trkpt lat="44.92787" lon="5.18149">
        <ele>908</ele>
        <time>2021-02-25T12:49:25Z</time>
      </trkpt>
      <trkpt lat="44.92791" lon="5.18143">
        <ele>908</ele>
        <time>2021-02-25T12:49:30Z</time>
      </trkpt>
      <trkpt lat="44.92794" lon="5.18139">
        <ele>910</ele>
        <time>2021-02-25T12:49:35Z</time>
      </trkpt>
      <trkpt lat="44.92798" lon="5.18133">
        <ele>910</ele>
        <time>2021-02-25T12:49:40Z</time>
      </trkpt>
      <trkpt lat="44.92801" lon="5.18128">
        <ele>910</ele>
        <time>2021-02-25T12:49:45Z</time>
      </trkpt>
      <trkpt lat="44.92803" lon="5.18123">
        <ele>907</ele>
        <time>2021-02-25T12:49:50Z</time>
      </trkpt>
      <trkpt lat="44.92806" lon="5.18117">
        <ele>907</ele>
        <time>2021-02-25T12:49:55Z</time>
      </trkpt>
      <trkpt lat="44.92808" lon="5.18112">
        <ele>907</ele>
        <time>2021-02-25T12:49:59Z</time>
      </trkpt>
      <trkpt lat="44.92811" lon="5.18108">
        <ele>907</ele>
        <time>2021-02-25T12:50:04Z</time>
      </trkpt>
      <trkpt lat="44.92814" lon="5.18104">
        <ele>907</ele>
        <time>2021-02-25T12:50:09Z</time>
      </trkpt>
      <trkpt lat="44.92817" lon="5.18099">
        <ele>907</ele>
        <time>2021-02-25T12:50:13Z</time>
      </trkpt>
      <trkpt lat="44.92818" lon="5.18095">
        <ele>904</ele>
        <time>2021-02-25T12:50:18Z</time>
      </trkpt>
      <trkpt lat="44.9282" lon="5.18088">
        <ele>904</ele>
        <time>2021-02-25T12:50:23Z</time>
      </trkpt>
      <trkpt lat="44.92822" lon="5.18083">
        <ele>904</ele>
        <time>2021-02-25T12:50:28Z</time>
      </trkpt>
      <trkpt lat="44.92824" lon="5.1808">
        <ele>904</ele>
        <time>2021-02-25T12:50:32Z</time>
      </trkpt>
      <trkpt lat="44.92826" lon="5.18072">
        <ele>904</ele>
        <time>2021-02-25T12:50:37Z</time>
      </trkpt>
      <trkpt lat="44.92826" lon="5.18066">
        <ele>903</ele>
        <time>2021-02-25T12:50:42Z</time>
      </trkpt>
      <trkpt lat="44.92827" lon="5.18061">
        <ele>903</ele>
        <time>2021-02-25T12:50:46Z</time>
      </trkpt>
      <trkpt lat="44.92828" lon="5.18061">
        <ele>903</ele>
        <time>2021-02-25T12:50:51Z</time>
      </trkpt>
      <trkpt lat="44.92828" lon="5.18058">
        <ele>903</ele>
        <time>2021-02-25T12:50:56Z</time>
      </trkpt>
      <trkpt lat="44.92829" lon="5.18053">
        <ele>903</ele>
        <time>2021-02-25T12:51:01Z</time>
      </trkpt>
      <trkpt lat="44.9283" lon="5.18044">
        <ele>903</ele>
        <time>2021-02-25T12:51:06Z</time>
      </trkpt>
      <trkpt lat="44.9283" lon="5.18037">
        <ele>902</ele>
        <time>2021-02-25T12:51:11Z</time>
      </trkpt>
      <trkpt lat="44.9283" lon="5.18032">
        <ele>902</ele>
        <time>2021-02-25T12:51:15Z</time>
      </trkpt>
      <trkpt lat="44.92831" lon="5.18028">
        <ele>902</ele>
        <time>2021-02-25T12:51:20Z</time>
      </trkpt>
      <trkpt lat="44.92831" lon="5.18024">
        <ele>902</ele>
        <time>2021-02-25T12:51:25Z</time>
      </trkpt>
      <trkpt lat="44.92832" lon="5.1802">
        <ele>902</ele>
        <time>2021-02-25T12:51:30Z</time>
      </trkpt>
      <trkpt lat="44.92832" lon="5.18014">
        <ele>902</ele>
        <time>2021-02-25T12:51:35Z</time>
      </trkpt>
      <trkpt lat="44.92832" lon="5.18008">
        <ele>902</ele>
        <time>2021-02-25T12:51:40Z</time>
      </trkpt>
      <trkpt lat="44.92832" lon="5.18002">
        <ele>902</ele>
        <time>2021-02-25T12:51:45Z</time>
      </trkpt>
      <trkpt lat="44.92833" lon="5.17997">
        <ele>902</ele>
        <time>2021-02-25T12:51:50Z</time>
      </trkpt>
      <trkpt lat="44.92835" lon="5.17993">
        <ele>902</ele>
        <time>2021-02-25T12:51:54Z</time>
      </trkpt>
      <trkpt lat="44.92838" lon="5.17986">
        <ele>901</ele>
        <time>2021-02-25T12:51:59Z</time>
      </trkpt>
      <trkpt lat="44.92841" lon="5.1798">
        <ele>901</ele>
        <time>2021-02-25T12:52:04Z</time>
      </trkpt>
      <trkpt lat="44.92843" lon="5.17974">
        <ele>901</ele>
        <time>2021-02-25T12:52:08Z</time>
      </trkpt>
      <trkpt lat="44.92847" lon="5.17968">
        <ele>901</ele>
        <time>2021-02-25T12:52:13Z</time>
      </trkpt>
      <trkpt lat="44.92851" lon="5.17962">
        <ele>900</ele>
        <time>2021-02-25T12:52:17Z</time>
      </trkpt>
      <trkpt lat="44.92853" lon="5.17956">
        <ele>900</ele>
        <time>2021-02-25T12:52:22Z</time>
      </trkpt>
      <trkpt lat="44.92857" lon="5.1795">
        <ele>900</ele>
        <time>2021-02-25T12:52:27Z</time>
      </trkpt>
      <trkpt lat="44.9286" lon="5.17945">
        <ele>900</ele>
        <time>2021-02-25T12:52:31Z</time>
      </trkpt>
      <trkpt lat="44.92863" lon="5.17938">
        <ele>900</ele>
        <time>2021-02-25T12:52:36Z</time>
      </trkpt>
      <trkpt lat="44.92866" lon="5.17932">
        <ele>900</ele>
        <time>2021-02-25T12:52:40Z</time>
      </trkpt>
      <trkpt lat="44.92869" lon="5.17926">
        <ele>899</ele>
        <time>2021-02-25T12:52:45Z</time>
      </trkpt>
      <trkpt lat="44.9287" lon="5.17921">
        <ele>899</ele>
        <time>2021-02-25T12:52:49Z</time>
      </trkpt>
      <trkpt lat="44.92873" lon="5.17917">
        <ele>899</ele>
        <time>2021-02-25T12:52:54Z</time>
      </trkpt>
      <trkpt lat="44.92874" lon="5.17911">
        <ele>899</ele>
        <time>2021-02-25T12:52:59Z</time>
      </trkpt>
      <trkpt lat="44.92878" lon="5.17906">
        <ele>896</ele>
        <time>2021-02-25T12:53:03Z</time>
      </trkpt>
      <trkpt lat="44.9288" lon="5.17903">
        <ele>896</ele>
        <time>2021-02-25T12:53:07Z</time>
      </trkpt>
      <trkpt lat="44.92883" lon="5.17898">
        <ele>897</ele>
        <time>2021-02-25T12:53:12Z</time>
      </trkpt>
      <trkpt lat="44.92886" lon="5.17895">
        <ele>897</ele>
        <time>2021-02-25T12:53:17Z</time>
      </trkpt>
      <trkpt lat="44.92887" lon="5.17892">
        <ele>897</ele>
        <time>2021-02-25T12:53:21Z</time>
      </trkpt>
      <trkpt lat="44.9289" lon="5.17887">
        <ele>897</ele>
        <time>2021-02-25T12:53:26Z</time>
      </trkpt>
      <trkpt lat="44.92892" lon="5.17884">
        <ele>897</ele>
        <time>2021-02-25T12:53:31Z</time>
      </trkpt>
      <trkpt lat="44.92896" lon="5.17878">
        <ele>897</ele>
        <time>2021-02-25T12:53:35Z</time>
      </trkpt>
      <trkpt lat="44.92897" lon="5.17872">
        <ele>898</ele>
        <time>2021-02-25T12:53:39Z</time>
      </trkpt>
      <trkpt lat="44.92901" lon="5.17867">
        <ele>898</ele>
        <time>2021-02-25T12:53:44Z</time>
      </trkpt>
      <trkpt lat="44.92903" lon="5.17861">
        <ele>890</ele>
        <time>2021-02-25T12:53:49Z</time>
      </trkpt>
      <trkpt lat="44.92905" lon="5.17856">
        <ele>890</ele>
        <time>2021-02-25T12:53:53Z</time>
      </trkpt>
      <trkpt lat="44.92908" lon="5.17851">
        <ele>890</ele>
        <time>2021-02-25T12:53:58Z</time>
      </trkpt>
      <trkpt lat="44.92912" lon="5.17848">
        <ele>890</ele>
        <time>2021-02-25T12:54:02Z</time>
      </trkpt>
      <trkpt lat="44.92913" lon="5.17841">
        <ele>891</ele>
        <time>2021-02-25T12:54:07Z</time>
      </trkpt>
      <trkpt lat="44.92915" lon="5.17836">
        <ele>891</ele>
        <time>2021-02-25T12:54:12Z</time>
      </trkpt>
      <trkpt lat="44.92918" lon="5.17833">
        <ele>891</ele>
        <time>2021-02-25T12:54:17Z</time>
      </trkpt>
      <trkpt lat="44.92921" lon="5.17829">
        <ele>891</ele>
        <time>2021-02-25T12:54:21Z</time>
      </trkpt>
      <trkpt lat="44.92923" lon="5.17825">
        <ele>891</ele>
        <time>2021-02-25T12:54:27Z</time>
      </trkpt>
      <trkpt lat="44.92928" lon="5.17821">
        <ele>891</ele>
        <time>2021-02-25T12:54:32Z</time>
      </trkpt>
      <trkpt lat="44.92932" lon="5.17816">
        <ele>888</ele>
        <time>2021-02-25T12:54:37Z</time>
      </trkpt>
      <trkpt lat="44.92935" lon="5.17814">
        <ele>888</ele>
        <time>2021-02-25T12:54:41Z</time>
      </trkpt>
      <trkpt lat="44.92941" lon="5.17811">
        <ele>888</ele>
        <time>2021-02-25T12:54:46Z</time>
      </trkpt>
      <trkpt lat="44.92943" lon="5.17808">
        <ele>888</ele>
        <time>2021-02-25T12:54:50Z</time>
      </trkpt>
      <trkpt lat="44.92948" lon="5.17805">
        <ele>888</ele>
        <time>2021-02-25T12:54:55Z</time>
      </trkpt>
      <trkpt lat="44.92953" lon="5.17799">
        <ele>888</ele>
        <time>2021-02-25T12:54:59Z</time>
      </trkpt>
      <trkpt lat="44.92957" lon="5.17794">
        <ele>888</ele>
        <time>2021-02-25T12:55:04Z</time>
      </trkpt>
      <trkpt lat="44.92962" lon="5.17788">
        <ele>877</ele>
        <time>2021-02-25T12:55:09Z</time>
      </trkpt>
      <trkpt lat="44.92965" lon="5.17783">
        <ele>877</ele>
        <time>2021-02-25T12:55:14Z</time>
      </trkpt>
      <trkpt lat="44.92969" lon="5.17777">
        <ele>877</ele>
        <time>2021-02-25T12:55:19Z</time>
      </trkpt>
      <trkpt lat="44.9297" lon="5.17776">
        <ele>877</ele>
        <time>2021-02-25T12:55:23Z</time>
      </trkpt>
      <trkpt lat="44.9297" lon="5.17771">
        <ele>877</ele>
        <time>2021-02-25T12:55:28Z</time>
      </trkpt>
      <trkpt lat="44.9297" lon="5.17769">
        <ele>877</ele>
        <time>2021-02-25T12:55:32Z</time>
      </trkpt>
      <trkpt lat="44.92972" lon="5.17764">
        <ele>877</ele>
        <time>2021-02-25T12:55:38Z</time>
      </trkpt>
      <trkpt lat="44.92974" lon="5.17759">
        <ele>872</ele>
        <time>2021-02-25T12:55:42Z</time>
      </trkpt>
      <trkpt lat="44.92976" lon="5.17756">
        <ele>872</ele>
        <time>2021-02-25T12:55:47Z</time>
      </trkpt>
      <trkpt lat="44.92979" lon="5.17754">
        <ele>872</ele>
        <time>2021-02-25T12:55:52Z</time>
      </trkpt>
      <trkpt lat="44.92981" lon="5.1775">
        <ele>872</ele>
        <time>2021-02-25T12:55:57Z</time>
      </trkpt>
      <trkpt lat="44.92982" lon="5.17748">
        <ele>872</ele>
        <time>2021-02-25T12:56:02Z</time>
      </trkpt>
      <trkpt lat="44.92986" lon="5.17747">
        <ele>872</ele>
        <time>2021-02-25T12:56:07Z</time>
      </trkpt>
      <trkpt lat="44.92987" lon="5.17745">
        <ele>866</ele>
        <time>2021-02-25T12:56:12Z</time>
      </trkpt>
      <trkpt lat="44.92988" lon="5.17739">
        <ele>866</ele>
        <time>2021-02-25T12:56:16Z</time>
      </trkpt>
      <trkpt lat="44.92989" lon="5.17735">
        <ele>864</ele>
        <time>2021-02-25T12:56:21Z</time>
      </trkpt>
      <trkpt lat="44.92991" lon="5.1773">
        <ele>864</ele>
        <time>2021-02-25T12:56:25Z</time>
      </trkpt>
      <trkpt lat="44.92991" lon="5.17728">
        <ele>864</ele>
        <time>2021-02-25T12:56:30Z</time>
      </trkpt>
      <trkpt lat="44.92993" lon="5.17724">
        <ele>864</ele>
        <time>2021-02-25T12:56:34Z</time>
      </trkpt>
      <trkpt lat="44.92996" lon="5.17719">
        <ele>864</ele>
        <time>2021-02-25T12:56:39Z</time>
      </trkpt>
      <trkpt lat="44.92997" lon="5.17715">
        <ele>864</ele>
        <time>2021-02-25T12:56:43Z</time>
      </trkpt>
      <trkpt lat="44.92999" lon="5.17711">
        <ele>864</ele>
        <time>2021-02-25T12:56:47Z</time>
      </trkpt>
      <trkpt lat="44.93" lon="5.17706">
        <ele>862</ele>
        <time>2021-02-25T12:56:53Z</time>
      </trkpt>
      <trkpt lat="44.93003" lon="5.17703">
        <ele>862</ele>
        <time>2021-02-25T12:56:57Z</time>
      </trkpt>
      <trkpt lat="44.93004" lon="5.17698">
        <ele>862</ele>
        <time>2021-02-25T12:57:02Z</time>
      </trkpt>
      <trkpt lat="44.93007" lon="5.17693">
        <ele>862</ele>
        <time>2021-02-25T12:57:07Z</time>
      </trkpt>
      <trkpt lat="44.93008" lon="5.17689">
        <ele>862</ele>
        <time>2021-02-25T12:57:12Z</time>
      </trkpt>
      <trkpt lat="44.9301" lon="5.17686">
        <ele>862</ele>
        <time>2021-02-25T12:57:16Z</time>
      </trkpt>
      <trkpt lat="44.93013" lon="5.1768">
        <ele>856</ele>
        <time>2021-02-25T12:57:21Z</time>
      </trkpt>
      <trkpt lat="44.93015" lon="5.17674">
        <ele>851</ele>
        <time>2021-02-25T12:57:26Z</time>
      </trkpt>
      <trkpt lat="44.93018" lon="5.17672">
        <ele>851</ele>
        <time>2021-02-25T12:57:31Z</time>
      </trkpt>
      <trkpt lat="44.9302" lon="5.17668">
        <ele>851</ele>
        <time>2021-02-25T12:57:36Z</time>
      </trkpt>
      <trkpt lat="44.93023" lon="5.17664">
        <ele>851</ele>
        <time>2021-02-25T12:57:40Z</time>
      </trkpt>
      <trkpt lat="44.93023" lon="5.17659">
        <ele>851</ele>
        <time>2021-02-25T12:57:44Z</time>
      </trkpt>
      <trkpt lat="44.93025" lon="5.17653">
        <ele>851</ele>
        <time>2021-02-25T12:57:48Z</time>
      </trkpt>
      <trkpt lat="44.93026" lon="5.1765">
        <ele>847</ele>
        <time>2021-02-25T12:57:52Z</time>
      </trkpt>
      <trkpt lat="44.93027" lon="5.17646">
        <ele>847</ele>
        <time>2021-02-25T12:57:57Z</time>
      </trkpt>
      <trkpt lat="44.9303" lon="5.17641">
        <ele>847</ele>
        <time>2021-02-25T12:58:02Z</time>
      </trkpt>
      <trkpt lat="44.93032" lon="5.17637">
        <ele>847</ele>
        <time>2021-02-25T12:58:06Z</time>
      </trkpt>
      <trkpt lat="44.93033" lon="5.17633">
        <ele>847</ele>
        <time>2021-02-25T12:58:11Z</time>
      </trkpt>
      <trkpt lat="44.93035" lon="5.17628">
        <ele>847</ele>
        <time>2021-02-25T12:58:16Z</time>
      </trkpt>
      <trkpt lat="44.93038" lon="5.17624">
        <ele>841</ele>
        <time>2021-02-25T12:58:21Z</time>
      </trkpt>
      <trkpt lat="44.93043" lon="5.17619">
        <ele>836</ele>
        <time>2021-02-25T12:58:26Z</time>
      </trkpt>
      <trkpt lat="44.93046" lon="5.17614">
        <ele>836</ele>
        <time>2021-02-25T12:58:31Z</time>
      </trkpt>
      <trkpt lat="44.93049" lon="5.1761">
        <ele>836</ele>
        <time>2021-02-25T12:58:35Z</time>
      </trkpt>
      <trkpt lat="44.93053" lon="5.17606">
        <ele>836</ele>
        <time>2021-02-25T12:58:40Z</time>
      </trkpt>
      <trkpt lat="44.93058" lon="5.17603">
        <ele>836</ele>
        <time>2021-02-25T12:58:45Z</time>
      </trkpt>
      <trkpt lat="44.93062" lon="5.176">
        <ele>836</ele>
        <time>2021-02-25T12:58:51Z</time>
      </trkpt>
      <trkpt lat="44.93064" lon="5.17596">
        <ele>833</ele>
        <time>2021-02-25T12:58:56Z</time>
      </trkpt>
      <trkpt lat="44.93067" lon="5.17593">
        <ele>833</ele>
        <time>2021-02-25T12:59:00Z</time>
      </trkpt>
      <trkpt lat="44.93068" lon="5.17589">
        <ele>833</ele>
        <time>2021-02-25T12:59:04Z</time>
      </trkpt>
      <trkpt lat="44.93071" lon="5.17584">
        <ele>832</ele>
        <time>2021-02-25T12:59:09Z</time>
      </trkpt>
      <trkpt lat="44.93075" lon="5.17579">
        <ele>832</ele>
        <time>2021-02-25T12:59:13Z</time>
      </trkpt>
      <trkpt lat="44.93078" lon="5.17577">
        <ele>832</ele>
        <time>2021-02-25T12:59:17Z</time>
      </trkpt>
      <trkpt lat="44.93082" lon="5.17575">
        <ele>832</ele>
        <time>2021-02-25T12:59:22Z</time>
      </trkpt>
      <trkpt lat="44.93085" lon="5.17571">
        <ele>832</ele>
        <time>2021-02-25T12:59:26Z</time>
      </trkpt>
      <trkpt lat="44.93088" lon="5.17566">
        <ele>831</ele>
        <time>2021-02-25T12:59:31Z</time>
      </trkpt>
      <trkpt lat="44.9309" lon="5.17562">
        <ele>831</ele>
        <time>2021-02-25T12:59:35Z</time>
      </trkpt>
      <trkpt lat="44.93094" lon="5.17558">
        <ele>831</ele>
        <time>2021-02-25T12:59:40Z</time>
      </trkpt>
      <trkpt lat="44.93098" lon="5.17552">
        <ele>833</ele>
        <time>2021-02-25T12:59:45Z</time>
      </trkpt>
      <trkpt lat="44.93102" lon="5.17546">
        <ele>833</ele>
        <time>2021-02-25T12:59:50Z</time>
      </trkpt>
      <trkpt lat="44.93106" lon="5.1754">
        <ele>832</ele>
        <time>2021-02-25T12:59:55Z</time>
      </trkpt>
      <trkpt lat="44.93109" lon="5.17534">
        <ele>832</ele>
        <time>2021-02-25T13:00:00Z</time>
      </trkpt>
      <trkpt lat="44.93113" lon="5.17529">
        <ele>832</ele>
        <time>2021-02-25T13:00:05Z</time>
      </trkpt>
      <trkpt lat="44.93117" lon="5.17524">
        <ele>832</ele>
        <time>2021-02-25T13:00:10Z</time>
      </trkpt>
      <trkpt lat="44.93119" lon="5.17519">
        <ele>832</ele>
        <time>2021-02-25T13:00:16Z</time>
      </trkpt>
      <trkpt lat="44.93122" lon="5.17515">
        <ele>832</ele>
        <time>2021-02-25T13:00:20Z</time>
      </trkpt>
      <trkpt lat="44.93125" lon="5.17513">
        <ele>833</ele>
        <time>2021-02-25T13:00:25Z</time>
      </trkpt>
      <trkpt lat="44.93128" lon="5.17509">
        <ele>833</ele>
        <time>2021-02-25T13:00:29Z</time>
      </trkpt>
      <trkpt lat="44.93132" lon="5.17504">
        <ele>833</ele>
        <time>2021-02-25T13:00:34Z</time>
      </trkpt>
      <trkpt lat="44.93136" lon="5.17501">
        <ele>833</ele>
        <time>2021-02-25T13:00:38Z</time>
      </trkpt>
      <trkpt lat="44.9314" lon="5.17497">
        <ele>833</ele>
        <time>2021-02-25T13:00:42Z</time>
      </trkpt>
      <trkpt lat="44.93143" lon="5.17492">
        <ele>833</ele>
        <time>2021-02-25T13:00:47Z</time>
      </trkpt>
      <trkpt lat="44.93146" lon="5.17488">
        <ele>833</ele>
        <time>2021-02-25T13:00:51Z</time>
      </trkpt>
      <trkpt lat="44.9315" lon="5.17484">
        <ele>831</ele>
        <time>2021-02-25T13:00:56Z</time>
      </trkpt>
      <trkpt lat="44.93154" lon="5.1748">
        <ele>834</ele>
        <time>2021-02-25T13:01:00Z</time>
      </trkpt>
      <trkpt lat="44.93157" lon="5.17477">
        <ele>834</ele>
        <time>2021-02-25T13:01:04Z</time>
      </trkpt>
      <trkpt lat="44.93161" lon="5.17475">
        <ele>834</ele>
        <time>2021-02-25T13:01:09Z</time>
      </trkpt>
      <trkpt lat="44.93165" lon="5.17472">
        <ele>834</ele>
        <time>2021-02-25T13:01:14Z</time>
      </trkpt>
      <trkpt lat="44.93168" lon="5.17469">
        <ele>834</ele>
        <time>2021-02-25T13:01:18Z</time>
      </trkpt>
      <trkpt lat="44.93169" lon="5.17468">
        <ele>834</ele>
        <time>2021-02-25T13:01:22Z</time>
      </trkpt>
      <trkpt lat="44.93176" lon="5.17466">
        <ele>834</ele>
        <time>2021-02-25T13:01:27Z</time>
      </trkpt>
      <trkpt lat="44.93179" lon="5.17463">
        <ele>834</ele>
        <time>2021-02-25T13:01:32Z</time>
      </trkpt>
      <trkpt lat="44.93185" lon="5.17458">
        <ele>836</ele>
        <time>2021-02-25T13:01:37Z</time>
      </trkpt>
      <trkpt lat="44.93189" lon="5.17455">
        <ele>833</ele>
        <time>2021-02-25T13:01:42Z</time>
      </trkpt>
      <trkpt lat="44.93193" lon="5.17453">
        <ele>833</ele>
        <time>2021-02-25T13:01:47Z</time>
      </trkpt>
      <trkpt lat="44.93197" lon="5.17451">
        <ele>833</ele>
        <time>2021-02-25T13:01:52Z</time>
      </trkpt>
      <trkpt lat="44.93202" lon="5.17447">
        <ele>833</ele>
        <time>2021-02-25T13:01:57Z</time>
      </trkpt>
      <trkpt lat="44.93207" lon="5.17444">
        <ele>833</ele>
        <time>2021-02-25T13:02:01Z</time>
      </trkpt>
      <trkpt lat="44.93209" lon="5.17442">
        <ele>834</ele>
        <time>2021-02-25T13:02:05Z</time>
      </trkpt>
      <trkpt lat="44.93213" lon="5.17439">
        <ele>834</ele>
        <time>2021-02-25T13:02:10Z</time>
      </trkpt>
      <trkpt lat="44.93218" lon="5.17435">
        <ele>834</ele>
        <time>2021-02-25T13:02:15Z</time>
      </trkpt>
      <trkpt lat="44.93222" lon="5.17432">
        <ele>834</ele>
        <time>2021-02-25T13:02:19Z</time>
      </trkpt>
      <trkpt lat="44.93225" lon="5.17428">
        <ele>831</ele>
        <time>2021-02-25T13:02:23Z</time>
      </trkpt>
      <trkpt lat="44.9323" lon="5.17425">
        <ele>831</ele>
        <time>2021-02-25T13:02:27Z</time>
      </trkpt>
      <trkpt lat="44.93235" lon="5.17421">
        <ele>831</ele>
        <time>2021-02-25T13:02:32Z</time>
      </trkpt>
      <trkpt lat="44.9324" lon="5.17416">
        <ele>834</ele>
        <time>2021-02-25T13:02:37Z</time>
      </trkpt>
      <trkpt lat="44.93243" lon="5.17413">
        <ele>834</ele>
        <time>2021-02-25T13:02:41Z</time>
      </trkpt>
      <trkpt lat="44.93246" lon="5.17408">
        <ele>834</ele>
        <time>2021-02-25T13:02:45Z</time>
      </trkpt>
      <trkpt lat="44.9325" lon="5.17402">
        <ele>832</ele>
        <time>2021-02-25T13:02:51Z</time>
      </trkpt>
      <trkpt lat="44.93253" lon="5.17397">
        <ele>832</ele>
        <time>2021-02-25T13:02:56Z</time>
      </trkpt>
      <trkpt lat="44.93257" lon="5.1739">
        <ele>832</ele>
        <time>2021-02-25T13:03:01Z</time>
      </trkpt>
      <trkpt lat="44.9326" lon="5.17385">
        <ele>832</ele>
        <time>2021-02-25T13:03:06Z</time>
      </trkpt>
      <trkpt lat="44.93263" lon="5.17379">
        <ele>832</ele>
        <time>2021-02-25T13:03:11Z</time>
      </trkpt>
      <trkpt lat="44.93266" lon="5.17374">
        <ele>834</ele>
        <time>2021-02-25T13:03:15Z</time>
      </trkpt>
      <trkpt lat="44.93268" lon="5.17369">
        <ele>834</ele>
        <time>2021-02-25T13:03:19Z</time>
      </trkpt>
      <trkpt lat="44.93269" lon="5.17364">
        <ele>834</ele>
        <time>2021-02-25T13:03:24Z</time>
      </trkpt>
      <trkpt lat="44.93271" lon="5.17358">
        <ele>834</ele>
        <time>2021-02-25T13:03:29Z</time>
      </trkpt>
      <trkpt lat="44.93273" lon="5.17353">
        <ele>834</ele>
        <time>2021-02-25T13:03:34Z</time>
      </trkpt>
      <trkpt lat="44.93275" lon="5.17351">
        <ele>834</ele>
        <time>2021-02-25T13:03:39Z</time>
      </trkpt>
      <trkpt lat="44.93276" lon="5.17349">
        <ele>834</ele>
        <time>2021-02-25T13:03:44Z</time>
      </trkpt>
      <trkpt lat="44.93277" lon="5.17346">
        <ele>833</ele>
        <time>2021-02-25T13:03:49Z</time>
      </trkpt>
      <trkpt lat="44.93278" lon="5.17341">
        <ele>833</ele>
        <time>2021-02-25T13:03:54Z</time>
      </trkpt>
      <trkpt lat="44.9328" lon="5.17336">
        <ele>833</ele>
        <time>2021-02-25T13:03:59Z</time>
      </trkpt>
      <trkpt lat="44.93282" lon="5.17331">
        <ele>833</ele>
        <time>2021-02-25T13:04:05Z</time>
      </trkpt>
      <trkpt lat="44.93283" lon="5.17325">
        <ele>833</ele>
        <time>2021-02-25T13:04:10Z</time>
      </trkpt>
      <trkpt lat="44.93284" lon="5.17317">
        <ele>830</ele>
        <time>2021-02-25T13:04:15Z</time>
      </trkpt>
      <trkpt lat="44.93286" lon="5.17312">
        <ele>830</ele>
        <time>2021-02-25T13:04:19Z</time>
      </trkpt>
      <trkpt lat="44.93288" lon="5.17307">
        <ele>830</ele>
        <time>2021-02-25T13:04:23Z</time>
      </trkpt>
      <trkpt lat="44.9329" lon="5.17303">
        <ele>830</ele>
        <time>2021-02-25T13:04:28Z</time>
      </trkpt>
      <trkpt lat="44.93291" lon="5.17296">
        <ele>830</ele>
        <time>2021-02-25T13:04:33Z</time>
      </trkpt>
      <trkpt lat="44.93294" lon="5.17292">
        <ele>836</ele>
        <time>2021-02-25T13:04:37Z</time>
      </trkpt>
      <trkpt lat="44.93294" lon="5.17286">
        <ele>837</ele>
        <time>2021-02-25T13:04:41Z</time>
      </trkpt>
      <trkpt lat="44.93297" lon="5.17283">
        <ele>837</ele>
        <time>2021-02-25T13:04:45Z</time>
      </trkpt>
      <trkpt lat="44.93299" lon="5.17277">
        <ele>837</ele>
        <time>2021-02-25T13:04:50Z</time>
      </trkpt>
      <trkpt lat="44.933" lon="5.17272">
        <ele>837</ele>
        <time>2021-02-25T13:04:55Z</time>
      </trkpt>
      <trkpt lat="44.93302" lon="5.17267">
        <ele>837</ele>
        <time>2021-02-25T13:04:59Z</time>
      </trkpt>
      <trkpt lat="44.93303" lon="5.17262">
        <ele>838</ele>
        <time>2021-02-25T13:05:04Z</time>
      </trkpt>
      <trkpt lat="44.93307" lon="5.17258">
        <ele>838</ele>
        <time>2021-02-25T13:05:09Z</time>
      </trkpt>
      <trkpt lat="44.93309" lon="5.17252">
        <ele>838</ele>
        <time>2021-02-25T13:05:14Z</time>
      </trkpt>
      <trkpt lat="44.93312" lon="5.17248">
        <ele>838</ele>
        <time>2021-02-25T13:05:19Z</time>
      </trkpt>
      <trkpt lat="44.93315" lon="5.17243">
        <ele>838</ele>
        <time>2021-02-25T13:05:25Z</time>
      </trkpt>
      <trkpt lat="44.93319" lon="5.17237">
        <ele>838</ele>
        <time>2021-02-25T13:05:30Z</time>
      </trkpt>
      <trkpt lat="44.93323" lon="5.17233">
        <ele>837</ele>
        <time>2021-02-25T13:05:35Z</time>
      </trkpt>
      <trkpt lat="44.93326" lon="5.17229">
        <ele>837</ele>
        <time>2021-02-25T13:05:39Z</time>
      </trkpt>
      <trkpt lat="44.9333" lon="5.17224">
        <ele>837</ele>
        <time>2021-02-25T13:05:44Z</time>
      </trkpt>
      <trkpt lat="44.93334" lon="5.17224">
        <ele>837</ele>
        <time>2021-02-25T13:05:48Z</time>
      </trkpt>
      <trkpt lat="44.93337" lon="5.17222">
        <ele>837</ele>
        <time>2021-02-25T13:05:52Z</time>
      </trkpt>
      <trkpt lat="44.93341" lon="5.17219">
        <ele>837</ele>
        <time>2021-02-25T13:05:57Z</time>
      </trkpt>
      <trkpt lat="44.93345" lon="5.17217">
        <ele>837</ele>
        <time>2021-02-25T13:06:02Z</time>
      </trkpt>
      <trkpt lat="44.93349" lon="5.17215">
        <ele>835</ele>
        <time>2021-02-25T13:06:06Z</time>
      </trkpt>
      <trkpt lat="44.93353" lon="5.17212">
        <ele>835</ele>
        <time>2021-02-25T13:06:11Z</time>
      </trkpt>
      <trkpt lat="44.93357" lon="5.1721">
        <ele>835</ele>
        <time>2021-02-25T13:06:16Z</time>
      </trkpt>
      <trkpt lat="44.93359" lon="5.17207">
        <ele>828</ele>
        <time>2021-02-25T13:06:20Z</time>
      </trkpt>
      <trkpt lat="44.93364" lon="5.17204">
        <ele>828</ele>
        <time>2021-02-25T13:06:30Z</time>
      </trkpt>
      <trkpt lat="44.93367" lon="5.17202">
        <ele>828</ele>
        <time>2021-02-25T13:06:34Z</time>
      </trkpt>
      <trkpt lat="44.93371" lon="5.172">
        <ele>828</ele>
        <time>2021-02-25T13:06:39Z</time>
      </trkpt>
      <trkpt lat="44.93371" lon="5.17199">
        <ele>828</ele>
        <time>2021-02-25T13:06:44Z</time>
      </trkpt>
      <trkpt lat="44.93372" lon="5.17198">
        <ele>828</ele>
        <time>2021-02-25T13:06:53Z</time>
      </trkpt>
      <trkpt lat="44.93375" lon="5.17196">
        <ele>828</ele>
        <time>2021-02-25T13:06:58Z</time>
      </trkpt>
      <trkpt lat="44.9338" lon="5.17195">
        <ele>825</ele>
        <time>2021-02-25T13:07:03Z</time>
      </trkpt>
      <trkpt lat="44.93384" lon="5.17193">
        <ele>825</ele>
        <time>2021-02-25T13:07:08Z</time>
      </trkpt>
      <trkpt lat="44.93387" lon="5.17191">
        <ele>825</ele>
        <time>2021-02-25T13:07:12Z</time>
      </trkpt>
      <trkpt lat="44.9339" lon="5.17186">
        <ele>825</ele>
        <time>2021-02-25T13:07:17Z</time>
      </trkpt>
      <trkpt lat="44.93392" lon="5.17183">
        <ele>825</ele>
        <time>2021-02-25T13:07:21Z</time>
      </trkpt>
      <trkpt lat="44.93395" lon="5.17181">
        <ele>825</ele>
        <time>2021-02-25T13:07:25Z</time>
      </trkpt>
      <trkpt lat="44.93398" lon="5.17176">
        <ele>821</ele>
        <time>2021-02-25T13:07:30Z</time>
      </trkpt>
      <trkpt lat="44.93402" lon="5.17172">
        <ele>821</ele>
        <time>2021-02-25T13:07:34Z</time>
      </trkpt>
      <trkpt lat="44.93404" lon="5.17168">
        <ele>824</ele>
        <time>2021-02-25T13:07:38Z</time>
      </trkpt>
      <trkpt lat="44.93407" lon="5.17163">
        <ele>824</ele>
        <time>2021-02-25T13:07:43Z</time>
      </trkpt>
      <trkpt lat="44.93409" lon="5.17161">
        <ele>824</ele>
        <time>2021-02-25T13:07:47Z</time>
      </trkpt>
      <trkpt lat="44.9341" lon="5.17156">
        <ele>824</ele>
        <time>2021-02-25T13:08:15Z</time>
      </trkpt>
      <trkpt lat="44.9341" lon="5.17155">
        <ele>824</ele>
        <time>2021-02-25T13:08:20Z</time>
      </trkpt>
      <trkpt lat="44.93408" lon="5.17154">
        <ele>824</ele>
        <time>2021-02-25T13:08:25Z</time>
      </trkpt>
      <trkpt lat="44.93405" lon="5.17149">
        <ele>822</ele>
        <time>2021-02-25T13:08:29Z</time>
      </trkpt>
      <trkpt lat="44.93404" lon="5.17145">
        <ele>822</ele>
        <time>2021-02-25T13:08:34Z</time>
      </trkpt>
      <trkpt lat="44.93403" lon="5.1714">
        <ele>822</ele>
        <time>2021-02-25T13:08:38Z</time>
      </trkpt>
      <trkpt lat="44.93402" lon="5.17135">
        <ele>817</ele>
        <time>2021-02-25T13:08:43Z</time>
      </trkpt>
      <trkpt lat="44.93404" lon="5.17129">
        <ele>822</ele>
        <time>2021-02-25T13:08:47Z</time>
      </trkpt>
      <trkpt lat="44.93405" lon="5.17123">
        <ele>817</ele>
        <time>2021-02-25T13:08:52Z</time>
      </trkpt>
      <trkpt lat="44.93404" lon="5.17118">
        <ele>817</ele>
        <time>2021-02-25T13:08:56Z</time>
      </trkpt>
      <trkpt lat="44.93404" lon="5.17111">
        <ele>817</ele>
        <time>2021-02-25T13:09:01Z</time>
      </trkpt>
      <trkpt lat="44.93405" lon="5.17107">
        <ele>817</ele>
        <time>2021-02-25T13:09:05Z</time>
      </trkpt>
      <trkpt lat="44.93407" lon="5.171">
        <ele>817</ele>
        <time>2021-02-25T13:09:10Z</time>
      </trkpt>
      <trkpt lat="44.93408" lon="5.17094">
        <ele>813</ele>
        <time>2021-02-25T13:09:15Z</time>
      </trkpt>
      <trkpt lat="44.9341" lon="5.17088">
        <ele>813</ele>
        <time>2021-02-25T13:09:20Z</time>
      </trkpt>
      <trkpt lat="44.9341" lon="5.17081">
        <ele>813</ele>
        <time>2021-02-25T13:09:25Z</time>
      </trkpt>
      <trkpt lat="44.93409" lon="5.17077">
        <ele>813</ele>
        <time>2021-02-25T13:09:30Z</time>
      </trkpt>
      <trkpt lat="44.9341" lon="5.17071">
        <ele>813</ele>
        <time>2021-02-25T13:09:35Z</time>
      </trkpt>
      <trkpt lat="44.93411" lon="5.17065">
        <ele>807</ele>
        <time>2021-02-25T13:09:39Z</time>
      </trkpt>
      <trkpt lat="44.93411" lon="5.17058">
        <ele>807</ele>
        <time>2021-02-25T13:09:44Z</time>
      </trkpt>
      <trkpt lat="44.93411" lon="5.17054">
        <ele>807</ele>
        <time>2021-02-25T13:09:48Z</time>
      </trkpt>
      <trkpt lat="44.9341" lon="5.17051">
        <ele>807</ele>
        <time>2021-02-25T13:09:52Z</time>
      </trkpt>
      <trkpt lat="44.93409" lon="5.17044">
        <ele>807</ele>
        <time>2021-02-25T13:09:57Z</time>
      </trkpt>
      <trkpt lat="44.93409" lon="5.17037">
        <ele>800</ele>
        <time>2021-02-25T13:10:01Z</time>
      </trkpt>
      <trkpt lat="44.93409" lon="5.1703">
        <ele>800</ele>
        <time>2021-02-25T13:10:06Z</time>
      </trkpt>
      <trkpt lat="44.9341" lon="5.17023">
        <ele>800</ele>
        <time>2021-02-25T13:10:11Z</time>
      </trkpt>
      <trkpt lat="44.93411" lon="5.17017">
        <ele>800</ele>
        <time>2021-02-25T13:10:16Z</time>
      </trkpt>
      <trkpt lat="44.93412" lon="5.1701">
        <ele>793</ele>
        <time>2021-02-25T13:10:21Z</time>
      </trkpt>
      <trkpt lat="44.93413" lon="5.17003">
        <ele>793</ele>
        <time>2021-02-25T13:10:26Z</time>
      </trkpt>
      <trkpt lat="44.93415" lon="5.16997">
        <ele>793</ele>
        <time>2021-02-25T13:10:31Z</time>
      </trkpt>
      <trkpt lat="44.93416" lon="5.1699">
        <ele>793</ele>
        <time>2021-02-25T13:10:36Z</time>
      </trkpt>
      <trkpt lat="44.93415" lon="5.16983">
        <ele>784</ele>
        <time>2021-02-25T13:10:41Z</time>
      </trkpt>
      <trkpt lat="44.93415" lon="5.16976">
        <ele>784</ele>
        <time>2021-02-25T13:10:46Z</time>
      </trkpt>
      <trkpt lat="44.93414" lon="5.1697">
        <ele>784</ele>
        <time>2021-02-25T13:10:51Z</time>
      </trkpt>
      <trkpt lat="44.93417" lon="5.16965">
        <ele>784</ele>
        <time>2021-02-25T13:10:57Z</time>
      </trkpt>
      <trkpt lat="44.93417" lon="5.16959">
        <ele>784</ele>
        <time>2021-02-25T13:11:01Z</time>
      </trkpt>
      <trkpt lat="44.93419" lon="5.16953">
        <ele>778</ele>
        <time>2021-02-25T13:11:06Z</time>
      </trkpt>
      <trkpt lat="44.93421" lon="5.16947">
        <ele>778</ele>
        <time>2021-02-25T13:11:11Z</time>
      </trkpt>
      <trkpt lat="44.93421" lon="5.1694">
        <ele>778</ele>
        <time>2021-02-25T13:11:16Z</time>
      </trkpt>
      <trkpt lat="44.93422" lon="5.16934">
        <ele>778</ele>
        <time>2021-02-25T13:11:21Z</time>
      </trkpt>
      <trkpt lat="44.93424" lon="5.16928">
        <ele>773</ele>
        <time>2021-02-25T13:11:26Z</time>
      </trkpt>
      <trkpt lat="44.93427" lon="5.1692">
        <ele>773</ele>
        <time>2021-02-25T13:11:45Z</time>
      </trkpt>
      <trkpt lat="44.93428" lon="5.16915">
        <ele>773</ele>
        <time>2021-02-25T13:11:49Z</time>
      </trkpt>
      <trkpt lat="44.93427" lon="5.16909">
        <ele>773</ele>
        <time>2021-02-25T13:11:53Z</time>
      </trkpt>
      <trkpt lat="44.93428" lon="5.16903">
        <ele>773</ele>
        <time>2021-02-25T13:11:58Z</time>
      </trkpt>
      <trkpt lat="44.93429" lon="5.16897">
        <ele>771</ele>
        <time>2021-02-25T13:12:03Z</time>
      </trkpt>
      <trkpt lat="44.93431" lon="5.1689">
        <ele>775</ele>
        <time>2021-02-25T13:12:08Z</time>
      </trkpt>
      <trkpt lat="44.93432" lon="5.16884">
        <ele>775</ele>
        <time>2021-02-25T13:12:13Z</time>
      </trkpt>
      <trkpt lat="44.93433" lon="5.16878">
        <ele>775</ele>
        <time>2021-02-25T13:12:18Z</time>
      </trkpt>
      <trkpt lat="44.93434" lon="5.16872">
        <ele>774</ele>
        <time>2021-02-25T13:12:23Z</time>
      </trkpt>
      <trkpt lat="44.93435" lon="5.16867">
        <ele>774</ele>
        <time>2021-02-25T13:12:31Z</time>
      </trkpt>
      <trkpt lat="44.93436" lon="5.16863">
        <ele>774</ele>
        <time>2021-02-25T13:12:36Z</time>
      </trkpt>
      <trkpt lat="44.93438" lon="5.16859">
        <ele>774</ele>
        <time>2021-02-25T13:12:41Z</time>
      </trkpt>
      <trkpt lat="44.93439" lon="5.16859">
        <ele>774</ele>
        <time>2021-02-25T13:12:46Z</time>
      </trkpt>
      <trkpt lat="44.9344" lon="5.16856">
        <ele>774</ele>
        <time>2021-02-25T13:12:50Z</time>
      </trkpt>
      <trkpt lat="44.93441" lon="5.16851">
        <ele>774</ele>
        <time>2021-02-25T13:31:52Z</time>
      </trkpt>
      <trkpt lat="44.93441" lon="5.16851">
        <ele>774</ele>
        <time>2021-02-25T13:31:56Z</time>
      </trkpt>
      <trkpt lat="44.93441" lon="5.16849">
        <ele>774</ele>
        <time>2021-02-25T13:32:11Z</time>
      </trkpt>
      <trkpt lat="44.9344" lon="5.16845">
        <ele>774</ele>
        <time>2021-02-25T13:32:16Z</time>
      </trkpt>
      <trkpt lat="44.93439" lon="5.1684">
        <ele>774</ele>
        <time>2021-02-25T13:32:21Z</time>
      </trkpt>
      <trkpt lat="44.93437" lon="5.16836">
        <ele>774</ele>
        <time>2021-02-25T13:32:26Z</time>
      </trkpt>
      <trkpt lat="44.93434" lon="5.16831">
        <ele>774</ele>
        <time>2021-02-25T13:32:30Z</time>
      </trkpt>
      <trkpt lat="44.9343" lon="5.16827">
        <ele>769</ele>
        <time>2021-02-25T13:32:35Z</time>
      </trkpt>
      <trkpt lat="44.93428" lon="5.16821">
        <ele>769</ele>
        <time>2021-02-25T13:32:40Z</time>
      </trkpt>
      <trkpt lat="44.93428" lon="5.16819">
        <ele>768</ele>
        <time>2021-02-25T13:32:44Z</time>
      </trkpt>
      <trkpt lat="44.93428" lon="5.16811">
        <ele>768</ele>
        <time>2021-02-25T13:32:49Z</time>
      </trkpt>
      <trkpt lat="44.93427" lon="5.16806">
        <ele>768</ele>
        <time>2021-02-25T13:32:53Z</time>
      </trkpt>
      <trkpt lat="44.93425" lon="5.16801">
        <ele>768</ele>
        <time>2021-02-25T13:32:57Z</time>
      </trkpt>
      <trkpt lat="44.93425" lon="5.16795">
        <ele>768</ele>
        <time>2021-02-25T13:33:02Z</time>
      </trkpt>
      <trkpt lat="44.93427" lon="5.16798">
        <ele>768</ele>
        <time>2021-02-25T13:33:07Z</time>
      </trkpt>
      <trkpt lat="44.93428" lon="5.16803">
        <ele>768</ele>
        <time>2021-02-25T13:33:12Z</time>
      </trkpt>
      <trkpt lat="44.93428" lon="5.16812">
        <ele>768</ele>
        <time>2021-02-25T13:33:17Z</time>
      </trkpt>
      <trkpt lat="44.93429" lon="5.16818">
        <ele>768</ele>
        <time>2021-02-25T13:33:21Z</time>
      </trkpt>
      <trkpt lat="44.93428" lon="5.16826">
        <ele>769</ele>
        <time>2021-02-25T13:33:26Z</time>
      </trkpt>
      <trkpt lat="44.93427" lon="5.16832">
        <ele>769</ele>
        <time>2021-02-25T13:33:30Z</time>
      </trkpt>
      <trkpt lat="44.93425" lon="5.16837">
        <ele>769</ele>
        <time>2021-02-25T13:33:34Z</time>
      </trkpt>
      <trkpt lat="44.93423" lon="5.16843">
        <ele>769</ele>
        <time>2021-02-25T13:33:40Z</time>
      </trkpt>
      <trkpt lat="44.9342" lon="5.16846">
        <ele>769</ele>
        <time>2021-02-25T13:33:45Z</time>
      </trkpt>
      <trkpt lat="44.93417" lon="5.1685">
        <ele>770</ele>
        <time>2021-02-25T13:33:49Z</time>
      </trkpt>
      <trkpt lat="44.93412" lon="5.16855">
        <ele>770</ele>
        <time>2021-02-25T13:33:54Z</time>
      </trkpt>
      <trkpt lat="44.93404" lon="5.16859">
        <ele>770</ele>
        <time>2021-02-25T13:34:32Z</time>
      </trkpt>
      <trkpt lat="44.93406" lon="5.16853">
        <ele>770</ele>
        <time>2021-02-25T13:34:37Z</time>
      </trkpt>
      <trkpt lat="44.93407" lon="5.16846">
        <ele>769</ele>
        <time>2021-02-25T13:34:43Z</time>
      </trkpt>
      <trkpt lat="44.93408" lon="5.1684">
        <ele>769</ele>
        <time>2021-02-25T13:34:47Z</time>
      </trkpt>
      <trkpt lat="44.93411" lon="5.16834">
        <ele>769</ele>
        <time>2021-02-25T13:34:53Z</time>
      </trkpt>
      <trkpt lat="44.93412" lon="5.16828">
        <ele>769</ele>
        <time>2021-02-25T13:34:57Z</time>
      </trkpt>
      <trkpt lat="44.93414" lon="5.16821">
        <ele>769</ele>
        <time>2021-02-25T13:35:02Z</time>
      </trkpt>
      <trkpt lat="44.93415" lon="5.16812">
        <ele>768</ele>
        <time>2021-02-25T13:35:07Z</time>
      </trkpt>
      <trkpt lat="44.93415" lon="5.16806">
        <ele>768</ele>
        <time>2021-02-25T13:35:12Z</time>
      </trkpt>
      <trkpt lat="44.93416" lon="5.16798">
        <ele>768</ele>
        <time>2021-02-25T13:35:16Z</time>
      </trkpt>
      <trkpt lat="44.93417" lon="5.16793">
        <ele>768</ele>
        <time>2021-02-25T13:35:20Z</time>
      </trkpt>
      <trkpt lat="44.93416" lon="5.16787">
        <ele>767</ele>
        <time>2021-02-25T13:35:24Z</time>
      </trkpt>
      <trkpt lat="44.93416" lon="5.16782">
        <ele>767</ele>
        <time>2021-02-25T13:35:28Z</time>
      </trkpt>
      <trkpt lat="44.93413" lon="5.16777">
        <ele>767</ele>
        <time>2021-02-25T13:35:33Z</time>
      </trkpt>
      <trkpt lat="44.93411" lon="5.16772">
        <ele>767</ele>
        <time>2021-02-25T13:35:37Z</time>
      </trkpt>
      <trkpt lat="44.93408" lon="5.16767">
        <ele>767</ele>
        <time>2021-02-25T13:35:42Z</time>
      </trkpt>
      <trkpt lat="44.93407" lon="5.16765">
        <ele>767</ele>
        <time>2021-02-25T13:35:46Z</time>
      </trkpt>
      <trkpt lat="44.93404" lon="5.16757">
        <ele>767</ele>
        <time>2021-02-25T13:35:51Z</time>
      </trkpt>
      <trkpt lat="44.93402" lon="5.16753">
        <ele>756</ele>
        <time>2021-02-25T13:35:55Z</time>
      </trkpt>
      <trkpt lat="44.93401" lon="5.16748">
        <ele>756</ele>
        <time>2021-02-25T13:36:01Z</time>
      </trkpt>
      <trkpt lat="44.934" lon="5.16744">
        <ele>756</ele>
        <time>2021-02-25T13:36:05Z</time>
      </trkpt>
      <trkpt lat="44.93401" lon="5.16739">
        <ele>756</ele>
        <time>2021-02-25T13:36:09Z</time>
      </trkpt>
      <trkpt lat="44.93402" lon="5.16733">
        <ele>753</ele>
        <time>2021-02-25T13:36:14Z</time>
      </trkpt>
      <trkpt lat="44.93403" lon="5.16729">
        <ele>753</ele>
        <time>2021-02-25T13:36:19Z</time>
      </trkpt>
      <trkpt lat="44.93404" lon="5.16726">
        <ele>767</ele>
        <time>2021-02-25T13:36:23Z</time>
      </trkpt>
      <trkpt lat="44.93406" lon="5.16721">
        <ele>767</ele>
        <time>2021-02-25T13:36:27Z</time>
      </trkpt>
      <trkpt lat="44.93406" lon="5.16716">
        <ele>767</ele>
        <time>2021-02-25T13:36:32Z</time>
      </trkpt>
      <trkpt lat="44.93406" lon="5.16713">
        <ele>767</ele>
        <time>2021-02-25T13:36:37Z</time>
      </trkpt>
      <trkpt lat="44.93409" lon="5.16705">
        <ele>764</ele>
        <time>2021-02-25T13:36:46Z</time>
      </trkpt>
      <trkpt lat="44.93409" lon="5.16702">
        <ele>764</ele>
        <time>2021-02-25T13:36:51Z</time>
      </trkpt>
      <trkpt lat="44.9341" lon="5.16698">
        <ele>764</ele>
        <time>2021-02-25T13:36:55Z</time>
      </trkpt>
      <trkpt lat="44.9341" lon="5.16695">
        <ele>764</ele>
        <time>2021-02-25T13:37:00Z</time>
      </trkpt>
      <trkpt lat="44.93408" lon="5.16689">
        <ele>764</ele>
        <time>2021-02-25T13:37:04Z</time>
      </trkpt>
      <trkpt lat="44.93409" lon="5.16684">
        <ele>764</ele>
        <time>2021-02-25T13:37:09Z</time>
      </trkpt>
      <trkpt lat="44.93409" lon="5.16679">
        <ele>760</ele>
        <time>2021-02-25T13:37:14Z</time>
      </trkpt>
      <trkpt lat="44.93408" lon="5.16673">
        <ele>760</ele>
        <time>2021-02-25T13:37:19Z</time>
      </trkpt>
      <trkpt lat="44.93408" lon="5.16667">
        <ele>760</ele>
        <time>2021-02-25T13:37:23Z</time>
      </trkpt>
      <trkpt lat="44.93408" lon="5.16662">
        <ele>760</ele>
        <time>2021-02-25T13:37:27Z</time>
      </trkpt>
      <trkpt lat="44.93408" lon="5.1666">
        <ele>760</ele>
        <time>2021-02-25T13:37:31Z</time>
      </trkpt>
      <trkpt lat="44.93407" lon="5.16657">
        <ele>760</ele>
        <time>2021-02-25T13:37:36Z</time>
      </trkpt>
      <trkpt lat="44.93407" lon="5.1665">
        <ele>757</ele>
        <time>2021-02-25T13:37:41Z</time>
      </trkpt>
      <trkpt lat="44.93405" lon="5.16644">
        <ele>757</ele>
        <time>2021-02-25T13:37:46Z</time>
      </trkpt>
      <trkpt lat="44.93405" lon="5.16639">
        <ele>757</ele>
        <time>2021-02-25T13:37:50Z</time>
      </trkpt>
      <trkpt lat="44.93403" lon="5.16634">
        <ele>757</ele>
        <time>2021-02-25T13:37:55Z</time>
      </trkpt>
      <trkpt lat="44.93402" lon="5.16629">
        <ele>741</ele>
        <time>2021-02-25T13:37:59Z</time>
      </trkpt>
      <trkpt lat="44.93401" lon="5.16622">
        <ele>740</ele>
        <time>2021-02-25T13:38:04Z</time>
      </trkpt>
      <trkpt lat="44.93401" lon="5.16618">
        <ele>740</ele>
        <time>2021-02-25T13:38:08Z</time>
      </trkpt>
      <trkpt lat="44.93398" lon="5.16612">
        <ele>740</ele>
        <time>2021-02-25T13:38:13Z</time>
      </trkpt>
      <trkpt lat="44.93398" lon="5.16606">
        <ele>740</ele>
        <time>2021-02-25T13:38:18Z</time>
      </trkpt>
      <trkpt lat="44.93395" lon="5.16601">
        <ele>740</ele>
        <time>2021-02-25T13:38:23Z</time>
      </trkpt>
      <trkpt lat="44.93394" lon="5.16595">
        <ele>740</ele>
        <time>2021-02-25T13:38:28Z</time>
      </trkpt>
      <trkpt lat="44.9339" lon="5.1659">
        <ele>740</ele>
        <time>2021-02-25T13:38:33Z</time>
      </trkpt>
      <trkpt lat="44.93389" lon="5.16585">
        <ele>740</ele>
        <time>2021-02-25T13:38:37Z</time>
      </trkpt>
      <trkpt lat="44.93387" lon="5.16579">
        <ele>740</ele>
        <time>2021-02-25T13:38:42Z</time>
      </trkpt>
      <trkpt lat="44.93387" lon="5.16573">
        <ele>740</ele>
        <time>2021-02-25T13:38:46Z</time>
      </trkpt>
      <trkpt lat="44.93386" lon="5.16566">
        <ele>739</ele>
        <time>2021-02-25T13:38:51Z</time>
      </trkpt>
      <trkpt lat="44.93386" lon="5.16561">
        <ele>739</ele>
        <time>2021-02-25T13:38:55Z</time>
      </trkpt>
      <trkpt lat="44.93385" lon="5.16557">
        <ele>739</ele>
        <time>2021-02-25T13:39:00Z</time>
      </trkpt>
      <trkpt lat="44.93385" lon="5.16556">
        <ele>739</ele>
        <time>2021-02-25T13:39:04Z</time>
      </trkpt>
      <trkpt lat="44.93386" lon="5.16551">
        <ele>739</ele>
        <time>2021-02-25T13:39:08Z</time>
      </trkpt>
      <trkpt lat="44.93387" lon="5.16546">
        <ele>739</ele>
        <time>2021-02-25T13:39:13Z</time>
      </trkpt>
      <trkpt lat="44.93387" lon="5.16544">
        <ele>739</ele>
        <time>2021-02-25T13:39:17Z</time>
      </trkpt>
      <trkpt lat="44.93387" lon="5.16543">
        <ele>739</ele>
        <time>2021-02-25T13:39:21Z</time>
      </trkpt>
      <trkpt lat="44.93391" lon="5.1654">
        <ele>735</ele>
        <time>2021-02-25T13:39:26Z</time>
      </trkpt>
      <trkpt lat="44.93393" lon="5.16537">
        <ele>735</ele>
        <time>2021-02-25T13:39:31Z</time>
      </trkpt>
      <trkpt lat="44.93397" lon="5.16534">
        <ele>735</ele>
        <time>2021-02-25T13:39:36Z</time>
      </trkpt>
      <trkpt lat="44.93399" lon="5.16533">
        <ele>735</ele>
        <time>2021-02-25T13:39:41Z</time>
      </trkpt>
      <trkpt lat="44.93401" lon="5.1653">
        <ele>735</ele>
        <time>2021-02-25T13:39:51Z</time>
      </trkpt>
      <trkpt lat="44.93405" lon="5.16527">
        <ele>746</ele>
        <time>2021-02-25T13:39:56Z</time>
      </trkpt>
      <trkpt lat="44.93408" lon="5.16524">
        <ele>746</ele>
        <time>2021-02-25T13:40:01Z</time>
      </trkpt>
      <trkpt lat="44.93412" lon="5.16523">
        <ele>746</ele>
        <time>2021-02-25T13:40:06Z</time>
      </trkpt>
      <trkpt lat="44.93414" lon="5.16522">
        <ele>746</ele>
        <time>2021-02-25T13:40:10Z</time>
      </trkpt>
      <trkpt lat="44.93418" lon="5.1652">
        <ele>746</ele>
        <time>2021-02-25T13:40:14Z</time>
      </trkpt>
      <trkpt lat="44.93421" lon="5.16516">
        <ele>746</ele>
        <time>2021-02-25T13:40:19Z</time>
      </trkpt>
      <trkpt lat="44.93424" lon="5.16513">
        <ele>740</ele>
        <time>2021-02-25T13:40:23Z</time>
      </trkpt>
      <trkpt lat="44.93426" lon="5.1651">
        <ele>740</ele>
        <time>2021-02-25T13:40:28Z</time>
      </trkpt>
      <trkpt lat="44.93429" lon="5.16508">
        <ele>740</ele>
        <time>2021-02-25T13:40:33Z</time>
      </trkpt>
      <trkpt lat="44.93431" lon="5.16505">
        <ele>748</ele>
        <time>2021-02-25T13:40:37Z</time>
      </trkpt>
      <trkpt lat="44.93432" lon="5.16502">
        <ele>748</ele>
        <time>2021-02-25T13:40:41Z</time>
      </trkpt>
      <trkpt lat="44.93435" lon="5.16497">
        <ele>748</ele>
        <time>2021-02-25T13:40:46Z</time>
      </trkpt>
      <trkpt lat="44.93438" lon="5.16494">
        <ele>748</ele>
        <time>2021-02-25T13:40:50Z</time>
      </trkpt>
      <trkpt lat="44.93438" lon="5.16488">
        <ele>748</ele>
        <time>2021-02-25T13:40:55Z</time>
      </trkpt>
      <trkpt lat="44.93439" lon="5.16482">
        <ele>741</ele>
        <time>2021-02-25T13:40:59Z</time>
      </trkpt>
      <trkpt lat="44.9344" lon="5.16478">
        <ele>741</ele>
        <time>2021-02-25T13:41:03Z</time>
      </trkpt>
      <trkpt lat="44.9344" lon="5.16473">
        <ele>741</ele>
        <time>2021-02-25T13:41:08Z</time>
      </trkpt>
      <trkpt lat="44.93441" lon="5.16466">
        <ele>741</ele>
        <time>2021-02-25T13:41:13Z</time>
      </trkpt>
      <trkpt lat="44.93441" lon="5.16461">
        <ele>741</ele>
        <time>2021-02-25T13:41:17Z</time>
      </trkpt>
      <trkpt lat="44.93443" lon="5.16457">
        <ele>731</ele>
        <time>2021-02-25T13:41:22Z</time>
      </trkpt>
      <trkpt lat="44.93443" lon="5.16452">
        <ele>731</ele>
        <time>2021-02-25T13:41:27Z</time>
      </trkpt>
      <trkpt lat="44.93444" lon="5.16448">
        <ele>731</ele>
        <time>2021-02-25T13:41:32Z</time>
      </trkpt>
      <trkpt lat="44.93446" lon="5.16443">
        <ele>731</ele>
        <time>2021-02-25T13:41:37Z</time>
      </trkpt>
      <trkpt lat="44.93449" lon="5.16436">
        <ele>731</ele>
        <time>2021-02-25T13:41:41Z</time>
      </trkpt>
      <trkpt lat="44.93451" lon="5.16431">
        <ele>731</ele>
        <time>2021-02-25T13:41:45Z</time>
      </trkpt>
      <trkpt lat="44.93452" lon="5.16424">
        <ele>724</ele>
        <time>2021-02-25T13:41:50Z</time>
      </trkpt>
      <trkpt lat="44.93453" lon="5.16419">
        <ele>724</ele>
        <time>2021-02-25T13:41:54Z</time>
      </trkpt>
      <trkpt lat="44.93452" lon="5.16417">
        <ele>724</ele>
        <time>2021-02-25T13:41:59Z</time>
      </trkpt>
      <trkpt lat="44.93452" lon="5.16412">
        <ele>724</ele>
        <time>2021-02-25T13:42:04Z</time>
      </trkpt>
      <trkpt lat="44.93451" lon="5.16407">
        <ele>724</ele>
        <time>2021-02-25T13:42:08Z</time>
      </trkpt>
      <trkpt lat="44.9345" lon="5.16402">
        <ele>724</ele>
        <time>2021-02-25T13:42:12Z</time>
      </trkpt>
      <trkpt lat="44.93449" lon="5.16398">
        <ele>724</ele>
        <time>2021-02-25T13:42:17Z</time>
      </trkpt>
      <trkpt lat="44.93447" lon="5.16392">
        <ele>724</ele>
        <time>2021-02-25T13:42:22Z</time>
      </trkpt>
      <trkpt lat="44.93446" lon="5.16384">
        <ele>724</ele>
        <time>2021-02-25T13:42:27Z</time>
      </trkpt>
      <trkpt lat="44.93444" lon="5.16382">
        <ele>724</ele>
        <time>2021-02-25T13:42:33Z</time>
      </trkpt>
      <trkpt lat="44.93441" lon="5.16377">
        <ele>724</ele>
        <time>2021-02-25T13:42:37Z</time>
      </trkpt>
      <trkpt lat="44.93438" lon="5.16372">
        <ele>727</ele>
        <time>2021-02-25T13:42:42Z</time>
      </trkpt>
      <trkpt lat="44.93437" lon="5.16365">
        <ele>727</ele>
        <time>2021-02-25T13:42:47Z</time>
      </trkpt>
      <trkpt lat="44.93435" lon="5.16359">
        <ele>727</ele>
        <time>2021-02-25T13:42:52Z</time>
      </trkpt>
      <trkpt lat="44.93433" lon="5.16355">
        <ele>727</ele>
        <time>2021-02-25T13:42:57Z</time>
      </trkpt>
      <trkpt lat="44.93433" lon="5.16351">
        <ele>727</ele>
        <time>2021-02-25T13:43:01Z</time>
      </trkpt>
      <trkpt lat="44.93432" lon="5.16345">
        <ele>729</ele>
        <time>2021-02-25T13:43:05Z</time>
      </trkpt>
      <trkpt lat="44.93429" lon="5.16341">
        <ele>716</ele>
        <time>2021-02-25T13:43:10Z</time>
      </trkpt>
      <trkpt lat="44.93426" lon="5.16335">
        <ele>716</ele>
        <time>2021-02-25T13:43:15Z</time>
      </trkpt>
      <trkpt lat="44.93422" lon="5.1633">
        <ele>716</ele>
        <time>2021-02-25T13:43:20Z</time>
      </trkpt>
      <trkpt lat="44.9342" lon="5.16324">
        <ele>716</ele>
        <time>2021-02-25T13:43:25Z</time>
      </trkpt>
      <trkpt lat="44.93419" lon="5.16322">
        <ele>716</ele>
        <time>2021-02-25T13:43:30Z</time>
      </trkpt>
      <trkpt lat="44.93417" lon="5.16317">
        <ele>718</ele>
        <time>2021-02-25T13:43:35Z</time>
      </trkpt>
      <trkpt lat="44.93414" lon="5.16313">
        <ele>718</ele>
        <time>2021-02-25T13:43:39Z</time>
      </trkpt>
      <trkpt lat="44.93414" lon="5.16311">
        <ele>718</ele>
        <time>2021-02-25T13:43:44Z</time>
      </trkpt>
      <trkpt lat="44.93412" lon="5.16305">
        <ele>718</ele>
        <time>2021-02-25T13:43:49Z</time>
      </trkpt>
      <trkpt lat="44.93411" lon="5.16301">
        <ele>718</ele>
        <time>2021-02-25T13:43:54Z</time>
      </trkpt>
      <trkpt lat="44.93409" lon="5.16296">
        <ele>718</ele>
        <time>2021-02-25T13:43:59Z</time>
      </trkpt>
      <trkpt lat="44.93408" lon="5.16291">
        <ele>717</ele>
        <time>2021-02-25T13:44:03Z</time>
      </trkpt>
      <trkpt lat="44.93407" lon="5.16286">
        <ele>717</ele>
        <time>2021-02-25T13:44:07Z</time>
      </trkpt>
      <trkpt lat="44.93405" lon="5.16283">
        <ele>717</ele>
        <time>2021-02-25T13:44:11Z</time>
      </trkpt>
      <trkpt lat="44.93402" lon="5.16278">
        <ele>702</ele>
        <time>2021-02-25T13:44:15Z</time>
      </trkpt>
      <trkpt lat="44.93401" lon="5.16271">
        <ele>702</ele>
        <time>2021-02-25T13:44:20Z</time>
      </trkpt>
      <trkpt lat="44.93401" lon="5.16267">
        <ele>702</ele>
        <time>2021-02-25T13:44:24Z</time>
      </trkpt>
      <trkpt lat="44.93401" lon="5.16262">
        <ele>701</ele>
        <time>2021-02-25T13:44:28Z</time>
      </trkpt>
      <trkpt lat="44.93399" lon="5.16256">
        <ele>701</ele>
        <time>2021-02-25T13:44:33Z</time>
      </trkpt>
      <trkpt lat="44.93399" lon="5.16251">
        <ele>701</ele>
        <time>2021-02-25T13:44:38Z</time>
      </trkpt>
      <trkpt lat="44.93399" lon="5.16244">
        <ele>701</ele>
        <time>2021-02-25T13:44:42Z</time>
      </trkpt>
      <trkpt lat="44.93399" lon="5.16238">
        <ele>701</ele>
        <time>2021-02-25T13:44:47Z</time>
      </trkpt>
      <trkpt lat="44.93399" lon="5.1623">
        <ele>698</ele>
        <time>2021-02-25T13:44:52Z</time>
      </trkpt>
      <trkpt lat="44.93399" lon="5.16225">
        <ele>698</ele>
        <time>2021-02-25T13:44:58Z</time>
      </trkpt>
      <trkpt lat="44.93399" lon="5.16221">
        <ele>698</ele>
        <time>2021-02-25T13:45:02Z</time>
      </trkpt>
      <trkpt lat="44.934" lon="5.16216">
        <ele>698</ele>
        <time>2021-02-25T13:45:07Z</time>
      </trkpt>
      <trkpt lat="44.93402" lon="5.16209">
        <ele>698</ele>
        <time>2021-02-25T13:45:12Z</time>
      </trkpt>
      <trkpt lat="44.93403" lon="5.16206">
        <ele>707</ele>
        <time>2021-02-25T13:45:17Z</time>
      </trkpt>
      <trkpt lat="44.93404" lon="5.162">
        <ele>707</ele>
        <time>2021-02-25T13:45:21Z</time>
      </trkpt>
      <trkpt lat="44.93407" lon="5.16193">
        <ele>707</ele>
        <time>2021-02-25T13:45:26Z</time>
      </trkpt>
      <trkpt lat="44.93409" lon="5.1619">
        <ele>707</ele>
        <time>2021-02-25T13:45:30Z</time>
      </trkpt>
      <trkpt lat="44.93411" lon="5.16184">
        <ele>707</ele>
        <time>2021-02-25T13:45:35Z</time>
      </trkpt>
      <trkpt lat="44.93413" lon="5.16177">
        <ele>700</ele>
        <time>2021-02-25T13:45:40Z</time>
      </trkpt>
      <trkpt lat="44.93414" lon="5.16173">
        <ele>700</ele>
        <time>2021-02-25T13:45:45Z</time>
      </trkpt>
      <trkpt lat="44.93415" lon="5.16168">
        <ele>700</ele>
        <time>2021-02-25T13:45:50Z</time>
      </trkpt>
      <trkpt lat="44.93415" lon="5.16163">
        <ele>700</ele>
        <time>2021-02-25T13:45:54Z</time>
      </trkpt>
      <trkpt lat="44.93417" lon="5.16156">
        <ele>700</ele>
        <time>2021-02-25T13:45:59Z</time>
      </trkpt>
      <trkpt lat="44.93419" lon="5.1615">
        <ele>692</ele>
        <time>2021-02-25T13:46:04Z</time>
      </trkpt>
      <trkpt lat="44.93421" lon="5.16144">
        <ele>692</ele>
        <time>2021-02-25T13:46:09Z</time>
      </trkpt>
      <trkpt lat="44.93423" lon="5.16138">
        <ele>692</ele>
        <time>2021-02-25T13:46:13Z</time>
      </trkpt>
      <trkpt lat="44.93424" lon="5.16131">
        <ele>692</ele>
        <time>2021-02-25T13:46:18Z</time>
      </trkpt>
      <trkpt lat="44.93427" lon="5.16124">
        <ele>684</ele>
        <time>2021-02-25T13:46:24Z</time>
      </trkpt>
      <trkpt lat="44.93431" lon="5.16118">
        <ele>697</ele>
        <time>2021-02-25T13:46:29Z</time>
      </trkpt>
      <trkpt lat="44.93433" lon="5.16112">
        <ele>697</ele>
        <time>2021-02-25T13:46:34Z</time>
      </trkpt>
      <trkpt lat="44.93436" lon="5.16105">
        <ele>697</ele>
        <time>2021-02-25T13:46:39Z</time>
      </trkpt>
      <trkpt lat="44.93439" lon="5.16098">
        <ele>697</ele>
        <time>2021-02-25T13:46:44Z</time>
      </trkpt>
      <trkpt lat="44.93442" lon="5.16092">
        <ele>691</ele>
        <time>2021-02-25T13:46:48Z</time>
      </trkpt>
      <trkpt lat="44.93444" lon="5.16086">
        <ele>691</ele>
        <time>2021-02-25T13:46:53Z</time>
      </trkpt>
      <trkpt lat="44.93445" lon="5.1608">
        <ele>691</ele>
        <time>2021-02-25T13:46:57Z</time>
      </trkpt>
      <trkpt lat="44.93447" lon="5.16075">
        <ele>691</ele>
        <time>2021-02-25T13:47:01Z</time>
      </trkpt>
      <trkpt lat="44.93449" lon="5.16072">
        <ele>691</ele>
        <time>2021-02-25T13:47:06Z</time>
      </trkpt>
      <trkpt lat="44.93453" lon="5.16064">
        <ele>686</ele>
        <time>2021-02-25T13:47:10Z</time>
      </trkpt>
      <trkpt lat="44.93454" lon="5.16062">
        <ele>686</ele>
        <time>2021-02-25T13:47:34Z</time>
      </trkpt>
      <trkpt lat="44.93455" lon="5.1606">
        <ele>686</ele>
        <time>2021-02-25T13:47:39Z</time>
      </trkpt>
      <trkpt lat="44.93458" lon="5.16056">
        <ele>693</ele>
        <time>2021-02-25T13:47:48Z</time>
      </trkpt>
      <trkpt lat="44.93459" lon="5.16056">
        <ele>693</ele>
        <time>2021-02-25T13:47:52Z</time>
      </trkpt>
      <trkpt lat="44.93462" lon="5.16052">
        <ele>693</ele>
        <time>2021-02-25T13:47:57Z</time>
      </trkpt>
      <trkpt lat="44.93464" lon="5.16049">
        <ele>693</ele>
        <time>2021-02-25T13:48:01Z</time>
      </trkpt>
      <trkpt lat="44.93467" lon="5.16047">
        <ele>693</ele>
        <time>2021-02-25T13:48:06Z</time>
      </trkpt>
      <trkpt lat="44.93469" lon="5.16045">
        <ele>693</ele>
        <time>2021-02-25T13:48:11Z</time>
      </trkpt>
      <trkpt lat="44.93471" lon="5.16043">
        <ele>693</ele>
        <time>2021-02-25T13:48:16Z</time>
      </trkpt>
      <trkpt lat="44.93476" lon="5.16041">
        <ele>685</ele>
        <time>2021-02-25T13:48:21Z</time>
      </trkpt>
      <trkpt lat="44.93481" lon="5.16041">
        <ele>685</ele>
        <time>2021-02-25T13:48:25Z</time>
      </trkpt>
      <trkpt lat="44.93484" lon="5.16042">
        <ele>693</ele>
        <time>2021-02-25T13:48:30Z</time>
      </trkpt>
      <trkpt lat="44.93488" lon="5.16042">
        <ele>693</ele>
        <time>2021-02-25T13:48:35Z</time>
      </trkpt>
      <trkpt lat="44.93495" lon="5.16037">
        <ele>684</ele>
        <time>2021-02-25T13:48:40Z</time>
      </trkpt>
      <trkpt lat="44.93499" lon="5.16031">
        <ele>684</ele>
        <time>2021-02-25T13:48:45Z</time>
      </trkpt>
      <trkpt lat="44.935" lon="5.16025">
        <ele>684</ele>
        <time>2021-02-25T13:48:49Z</time>
      </trkpt>
      <trkpt lat="44.935" lon="5.16021">
        <ele>684</ele>
        <time>2021-02-25T13:48:54Z</time>
      </trkpt>
      <trkpt lat="44.935" lon="5.16015">
        <ele>684</ele>
        <time>2021-02-25T13:48:58Z</time>
      </trkpt>
      <trkpt lat="44.935" lon="5.16008">
        <ele>676</ele>
        <time>2021-02-25T13:49:03Z</time>
      </trkpt>
      <trkpt lat="44.93501" lon="5.16001">
        <ele>676</ele>
        <time>2021-02-25T13:49:07Z</time>
      </trkpt>
      <trkpt lat="44.93503" lon="5.15996">
        <ele>676</ele>
        <time>2021-02-25T13:49:11Z</time>
      </trkpt>
      <trkpt lat="44.93503" lon="5.15991">
        <ele>676</ele>
        <time>2021-02-25T13:49:16Z</time>
      </trkpt>
      <trkpt lat="44.93503" lon="5.15983">
        <ele>672</ele>
        <time>2021-02-25T13:49:20Z</time>
      </trkpt>
      <trkpt lat="44.93505" lon="5.15977">
        <ele>672</ele>
        <time>2021-02-25T13:49:25Z</time>
      </trkpt>
      <trkpt lat="44.93506" lon="5.15973">
        <ele>672</ele>
        <time>2021-02-25T13:49:30Z</time>
      </trkpt>
      <trkpt lat="44.93506" lon="5.15969">
        <ele>672</ele>
        <time>2021-02-25T13:49:34Z</time>
      </trkpt>
      <trkpt lat="44.93508" lon="5.15963">
        <ele>672</ele>
        <time>2021-02-25T13:49:39Z</time>
      </trkpt>
      <trkpt lat="44.9351" lon="5.15957">
        <ele>668</ele>
        <time>2021-02-25T13:49:43Z</time>
      </trkpt>
      <trkpt lat="44.93511" lon="5.15951">
        <ele>668</ele>
        <time>2021-02-25T13:49:48Z</time>
      </trkpt>
      <trkpt lat="44.93511" lon="5.15945">
        <ele>668</ele>
        <time>2021-02-25T13:49:52Z</time>
      </trkpt>
      <trkpt lat="44.93514" lon="5.15936">
        <ele>668</ele>
        <time>2021-02-25T13:49:57Z</time>
      </trkpt>
      <trkpt lat="44.93515" lon="5.15928">
        <ele>671</ele>
        <time>2021-02-25T13:50:03Z</time>
      </trkpt>
      <trkpt lat="44.93517" lon="5.15924">
        <ele>671</ele>
        <time>2021-02-25T13:50:07Z</time>
      </trkpt>
      <trkpt lat="44.93519" lon="5.15916">
        <ele>671</ele>
        <time>2021-02-25T13:50:12Z</time>
      </trkpt>
      <trkpt lat="44.93521" lon="5.15907">
        <ele>671</ele>
        <time>2021-02-25T13:50:17Z</time>
      </trkpt>
      <trkpt lat="44.93523" lon="5.15903">
        <ele>670</ele>
        <time>2021-02-25T13:50:21Z</time>
      </trkpt>
      <trkpt lat="44.93525" lon="5.15895">
        <ele>670</ele>
        <time>2021-02-25T13:50:26Z</time>
      </trkpt>
      <trkpt lat="44.93526" lon="5.15889">
        <ele>670</ele>
        <time>2021-02-25T13:50:30Z</time>
      </trkpt>
      <trkpt lat="44.93527" lon="5.15885">
        <ele>670</ele>
        <time>2021-02-25T13:50:34Z</time>
      </trkpt>
      <trkpt lat="44.93532" lon="5.1588">
        <ele>670</ele>
        <time>2021-02-25T13:50:39Z</time>
      </trkpt>
      <trkpt lat="44.93533" lon="5.15878">
        <ele>670</ele>
        <time>2021-02-25T13:50:43Z</time>
      </trkpt>
      <trkpt lat="44.93538" lon="5.15876">
        <ele>670</ele>
        <time>2021-02-25T13:50:48Z</time>
      </trkpt>
      <trkpt lat="44.93542" lon="5.15873">
        <ele>670</ele>
        <time>2021-02-25T13:50:52Z</time>
      </trkpt>
      <trkpt lat="44.93545" lon="5.15872">
        <ele>670</ele>
        <time>2021-02-25T13:50:56Z</time>
      </trkpt>
      <trkpt lat="44.93549" lon="5.1587">
        <ele>670</ele>
        <time>2021-02-25T13:51:01Z</time>
      </trkpt>
      <trkpt lat="44.93554" lon="5.15868">
        <ele>670</ele>
        <time>2021-02-25T13:51:06Z</time>
      </trkpt>
      <trkpt lat="44.93559" lon="5.15868">
        <ele>670</ele>
        <time>2021-02-25T13:51:11Z</time>
      </trkpt>
      <trkpt lat="44.9356" lon="5.15868">
        <ele>670</ele>
        <time>2021-02-25T13:51:15Z</time>
      </trkpt>
      <trkpt lat="44.93566" lon="5.15869">
        <ele>670</ele>
        <time>2021-02-25T13:51:20Z</time>
      </trkpt>
      <trkpt lat="44.93571" lon="5.1587">
        <ele>666</ele>
        <time>2021-02-25T13:51:25Z</time>
      </trkpt>
      <trkpt lat="44.93574" lon="5.15871">
        <ele>666</ele>
        <time>2021-02-25T13:51:30Z</time>
      </trkpt>
      <trkpt lat="44.93578" lon="5.15872">
        <ele>666</ele>
        <time>2021-02-25T13:51:34Z</time>
      </trkpt>
      <trkpt lat="44.9358" lon="5.15873">
        <ele>666</ele>
        <time>2021-02-25T13:51:39Z</time>
      </trkpt>
      <trkpt lat="44.93585" lon="5.15876">
        <ele>670</ele>
        <time>2021-02-25T13:51:44Z</time>
      </trkpt>
      <trkpt lat="44.93588" lon="5.15878">
        <ele>670</ele>
        <time>2021-02-25T13:51:49Z</time>
      </trkpt>
      <trkpt lat="44.93591" lon="5.1588">
        <ele>670</ele>
        <time>2021-02-25T13:51:53Z</time>
      </trkpt>
      <trkpt lat="44.93593" lon="5.15882">
        <ele>670</ele>
        <time>2021-02-25T13:51:58Z</time>
      </trkpt>
      <trkpt lat="44.93598" lon="5.15884">
        <ele>665</ele>
        <time>2021-02-25T13:52:02Z</time>
      </trkpt>
      <trkpt lat="44.93602" lon="5.15887">
        <ele>665</ele>
        <time>2021-02-25T13:52:06Z</time>
      </trkpt>
      <trkpt lat="44.93603" lon="5.15889">
        <ele>665</ele>
        <time>2021-02-25T13:52:11Z</time>
      </trkpt>
      <trkpt lat="44.93609" lon="5.15893">
        <ele>665</ele>
        <time>2021-02-25T13:52:16Z</time>
      </trkpt>
      <trkpt lat="44.93612" lon="5.15896">
        <ele>665</ele>
        <time>2021-02-25T13:52:21Z</time>
      </trkpt>
      <trkpt lat="44.93614" lon="5.15896">
        <ele>665</ele>
        <time>2021-02-25T13:52:26Z</time>
      </trkpt>
      <trkpt lat="44.93622" lon="5.15899">
        <ele>665</ele>
        <time>2021-02-25T13:52:41Z</time>
      </trkpt>
      <trkpt lat="44.93625" lon="5.15899">
        <ele>665</ele>
        <time>2021-02-25T13:52:45Z</time>
      </trkpt>
      <trkpt lat="44.93625" lon="5.159">
        <ele>660</ele>
        <time>2021-02-25T13:52:50Z</time>
      </trkpt>
      <trkpt lat="44.93626" lon="5.15899">
        <ele>660</ele>
        <time>2021-02-25T13:52:54Z</time>
      </trkpt>
      <trkpt lat="44.93629" lon="5.15897">
        <ele>660</ele>
        <time>2021-02-25T13:53:00Z</time>
      </trkpt>
      <trkpt lat="44.93633" lon="5.15896">
        <ele>660</ele>
        <time>2021-02-25T13:53:05Z</time>
      </trkpt>
      <trkpt lat="44.93634" lon="5.15893">
        <ele>660</ele>
        <time>2021-02-25T13:53:10Z</time>
      </trkpt>
      <trkpt lat="44.93637" lon="5.15889">
        <ele>660</ele>
        <time>2021-02-25T13:53:15Z</time>
      </trkpt>
      <trkpt lat="44.93638" lon="5.15887">
        <ele>660</ele>
        <time>2021-02-25T13:53:19Z</time>
      </trkpt>
      <trkpt lat="44.93638" lon="5.15885">
        <ele>660</ele>
        <time>2021-02-25T13:53:24Z</time>
      </trkpt>
      <trkpt lat="44.93636" lon="5.1588">
        <ele>660</ele>
        <time>2021-02-25T13:53:41Z</time>
      </trkpt>
      <trkpt lat="44.93635" lon="5.15877">
        <ele>660</ele>
        <time>2021-02-25T13:53:45Z</time>
      </trkpt>
      <trkpt lat="44.93635" lon="5.15876">
        <ele>660</ele>
        <time>2021-02-25T13:53:50Z</time>
      </trkpt>
      <trkpt lat="44.93635" lon="5.15874">
        <ele>657</ele>
        <time>2021-02-25T13:53:54Z</time>
      </trkpt>
      <trkpt lat="44.93634" lon="5.1587">
        <ele>657</ele>
        <time>2021-02-25T13:53:59Z</time>
      </trkpt>
      <trkpt lat="44.93634" lon="5.15867">
        <ele>657</ele>
        <time>2021-02-25T13:54:03Z</time>
      </trkpt>
      <trkpt lat="44.93637" lon="5.15863">
        <ele>657</ele>
        <time>2021-02-25T13:54:08Z</time>
      </trkpt>
      <trkpt lat="44.93638" lon="5.15859">
        <ele>657</ele>
        <time>2021-02-25T13:54:13Z</time>
      </trkpt>
      <trkpt lat="44.93638" lon="5.15853">
        <ele>657</ele>
        <time>2021-02-25T13:54:18Z</time>
      </trkpt>
      <trkpt lat="44.93638" lon="5.1585">
        <ele>657</ele>
        <time>2021-02-25T13:54:23Z</time>
      </trkpt>
      <trkpt lat="44.93639" lon="5.15844">
        <ele>652</ele>
        <time>2021-02-25T13:54:28Z</time>
      </trkpt>
      <trkpt lat="44.9364" lon="5.15839">
        <ele>652</ele>
        <time>2021-02-25T13:54:32Z</time>
      </trkpt>
      <trkpt lat="44.93641" lon="5.15836">
        <ele>652</ele>
        <time>2021-02-25T13:54:37Z</time>
      </trkpt>
      <trkpt lat="44.9364" lon="5.15831">
        <ele>652</ele>
        <time>2021-02-25T13:54:41Z</time>
      </trkpt>
      <trkpt lat="44.9364" lon="5.15826">
        <ele>652</ele>
        <time>2021-02-25T13:54:45Z</time>
      </trkpt>
      <trkpt lat="44.93641" lon="5.15819">
        <ele>645</ele>
        <time>2021-02-25T13:54:49Z</time>
      </trkpt>
      <trkpt lat="44.93642" lon="5.15815">
        <ele>645</ele>
        <time>2021-02-25T13:54:54Z</time>
      </trkpt>
      <trkpt lat="44.93644" lon="5.15811">
        <ele>645</ele>
        <time>2021-02-25T13:54:59Z</time>
      </trkpt>
      <trkpt lat="44.93644" lon="5.15809">
        <ele>645</ele>
        <time>2021-02-25T13:55:03Z</time>
      </trkpt>
      <trkpt lat="44.93646" lon="5.15804">
        <ele>645</ele>
        <time>2021-02-25T13:55:08Z</time>
      </trkpt>
      <trkpt lat="44.93647" lon="5.158">
        <ele>645</ele>
        <time>2021-02-25T13:55:13Z</time>
      </trkpt>
      <trkpt lat="44.93648" lon="5.15797">
        <ele>645</ele>
        <time>2021-02-25T13:55:18Z</time>
      </trkpt>
      <trkpt lat="44.9365" lon="5.15791">
        <ele>639</ele>
        <time>2021-02-25T13:55:22Z</time>
      </trkpt>
      <trkpt lat="44.93652" lon="5.15786">
        <ele>639</ele>
        <time>2021-02-25T13:55:27Z</time>
      </trkpt>
      <trkpt lat="44.93653" lon="5.15784">
        <ele>639</ele>
        <time>2021-02-25T13:55:32Z</time>
      </trkpt>
      <trkpt lat="44.93654" lon="5.15779">
        <ele>638</ele>
        <time>2021-02-25T13:55:37Z</time>
      </trkpt>
      <trkpt lat="44.93656" lon="5.15774">
        <ele>638</ele>
        <time>2021-02-25T13:55:41Z</time>
      </trkpt>
      <trkpt lat="44.93657" lon="5.15769">
        <ele>638</ele>
        <time>2021-02-25T13:55:46Z</time>
      </trkpt>
      <trkpt lat="44.93657" lon="5.15766">
        <ele>638</ele>
        <time>2021-02-25T13:55:51Z</time>
      </trkpt>
      <trkpt lat="44.93659" lon="5.15762">
        <ele>631</ele>
        <time>2021-02-25T13:55:56Z</time>
      </trkpt>
      <trkpt lat="44.9366" lon="5.1576">
        <ele>631</ele>
        <time>2021-02-25T13:56:00Z</time>
      </trkpt>
      <trkpt lat="44.93663" lon="5.15758">
        <ele>631</ele>
        <time>2021-02-25T13:56:05Z</time>
      </trkpt>
      <trkpt lat="44.93663" lon="5.15757">
        <ele>631</ele>
        <time>2021-02-25T13:56:10Z</time>
      </trkpt>
      <trkpt lat="44.93664" lon="5.15755">
        <ele>631</ele>
        <time>2021-02-25T13:56:15Z</time>
      </trkpt>
      <trkpt lat="44.93667" lon="5.15752">
        <ele>631</ele>
        <time>2021-02-25T13:56:20Z</time>
      </trkpt>
      <trkpt lat="44.9367" lon="5.15749">
        <ele>631</ele>
        <time>2021-02-25T13:56:25Z</time>
      </trkpt>
      <trkpt lat="44.93672" lon="5.15746">
        <ele>631</ele>
        <time>2021-02-25T13:56:29Z</time>
      </trkpt>
      <trkpt lat="44.93676" lon="5.15741">
        <ele>631</ele>
        <time>2021-02-25T13:56:33Z</time>
      </trkpt>
      <trkpt lat="44.93682" lon="5.15738">
        <ele>632</ele>
        <time>2021-02-25T13:56:38Z</time>
      </trkpt>
      <trkpt lat="44.93686" lon="5.15735">
        <ele>625</ele>
        <time>2021-02-25T13:56:42Z</time>
      </trkpt>
      <trkpt lat="44.93688" lon="5.15734">
        <ele>625</ele>
        <time>2021-02-25T13:56:47Z</time>
      </trkpt>
      <trkpt lat="44.93692" lon="5.15729">
        <ele>625</ele>
        <time>2021-02-25T13:56:52Z</time>
      </trkpt>
      <trkpt lat="44.93694" lon="5.15724">
        <ele>625</ele>
        <time>2021-02-25T13:56:57Z</time>
      </trkpt>
      <trkpt lat="44.93699" lon="5.15718">
        <ele>625</ele>
        <time>2021-02-25T13:57:01Z</time>
      </trkpt>
      <trkpt lat="44.93704" lon="5.15712">
        <ele>625</ele>
        <time>2021-02-25T13:57:05Z</time>
      </trkpt>
      <trkpt lat="44.93706" lon="5.15707">
        <ele>619</ele>
        <time>2021-02-25T13:57:10Z</time>
      </trkpt>
      <trkpt lat="44.9371" lon="5.15701">
        <ele>624</ele>
        <time>2021-02-25T13:57:15Z</time>
      </trkpt>
      <trkpt lat="44.93713" lon="5.15697">
        <ele>624</ele>
        <time>2021-02-25T13:57:20Z</time>
      </trkpt>
      <trkpt lat="44.93714" lon="5.1569">
        <ele>624</ele>
        <time>2021-02-25T13:57:25Z</time>
      </trkpt>
      <trkpt lat="44.93716" lon="5.15685">
        <ele>624</ele>
        <time>2021-02-25T13:57:30Z</time>
      </trkpt>
      <trkpt lat="44.93719" lon="5.15679">
        <ele>618</ele>
        <time>2021-02-25T13:57:35Z</time>
      </trkpt>
      <trkpt lat="44.93721" lon="5.15675">
        <ele>618</ele>
        <time>2021-02-25T13:57:39Z</time>
      </trkpt>
      <trkpt lat="44.93724" lon="5.15671">
        <ele>618</ele>
        <time>2021-02-25T13:57:44Z</time>
      </trkpt>
      <trkpt lat="44.93726" lon="5.15668">
        <ele>618</ele>
        <time>2021-02-25T13:57:49Z</time>
      </trkpt>
      <trkpt lat="44.93727" lon="5.15665">
        <ele>618</ele>
        <time>2021-02-25T13:57:53Z</time>
      </trkpt>
      <trkpt lat="44.93731" lon="5.15661">
        <ele>618</ele>
        <time>2021-02-25T13:57:59Z</time>
      </trkpt>
      <trkpt lat="44.93736" lon="5.15658">
        <ele>618</ele>
        <time>2021-02-25T13:58:04Z</time>
      </trkpt>
      <trkpt lat="44.9374" lon="5.15654">
        <ele>622</ele>
        <time>2021-02-25T13:58:09Z</time>
      </trkpt>
      <trkpt lat="44.93743" lon="5.15651">
        <ele>612</ele>
        <time>2021-02-25T13:58:14Z</time>
      </trkpt>
      <trkpt lat="44.93745" lon="5.1565">
        <ele>612</ele>
        <time>2021-02-25T13:58:18Z</time>
      </trkpt>
      <trkpt lat="44.93749" lon="5.15649">
        <ele>612</ele>
        <time>2021-02-25T13:58:23Z</time>
      </trkpt>
      <trkpt lat="44.93753" lon="5.15647">
        <ele>612</ele>
        <time>2021-02-25T13:58:27Z</time>
      </trkpt>
      <trkpt lat="44.93758" lon="5.15646">
        <ele>612</ele>
        <time>2021-02-25T13:58:32Z</time>
      </trkpt>
      <trkpt lat="44.93763" lon="5.15645">
        <ele>612</ele>
        <time>2021-02-25T13:58:37Z</time>
      </trkpt>
      <trkpt lat="44.93768" lon="5.15644">
        <ele>610</ele>
        <time>2021-02-25T13:58:42Z</time>
      </trkpt>
      <trkpt lat="44.93772" lon="5.15643">
        <ele>610</ele>
        <time>2021-02-25T13:58:47Z</time>
      </trkpt>
      <trkpt lat="44.93775" lon="5.15642">
        <ele>610</ele>
        <time>2021-02-25T13:58:51Z</time>
      </trkpt>
      <trkpt lat="44.9378" lon="5.1564">
        <ele>610</ele>
        <time>2021-02-25T13:58:55Z</time>
      </trkpt>
      <trkpt lat="44.93784" lon="5.1564">
        <ele>610</ele>
        <time>2021-02-25T13:59:00Z</time>
      </trkpt>
      <trkpt lat="44.93787" lon="5.15638">
        <ele>610</ele>
        <time>2021-02-25T13:59:05Z</time>
      </trkpt>
      <trkpt lat="44.93791" lon="5.15637">
        <ele>610</ele>
        <time>2021-02-25T13:59:10Z</time>
      </trkpt>
      <trkpt lat="44.93798" lon="5.15635">
        <ele>608</ele>
        <time>2021-02-25T13:59:15Z</time>
      </trkpt>
      <trkpt lat="44.93805" lon="5.15633">
        <ele>608</ele>
        <time>2021-02-25T13:59:19Z</time>
      </trkpt>
      <trkpt lat="44.93809" lon="5.15631">
        <ele>608</ele>
        <time>2021-02-25T13:59:24Z</time>
      </trkpt>
      <trkpt lat="44.93813" lon="5.15631">
        <ele>608</ele>
        <time>2021-02-25T13:59:29Z</time>
      </trkpt>
      <trkpt lat="44.93819" lon="5.15631">
        <ele>608</ele>
        <time>2021-02-25T13:59:34Z</time>
      </trkpt>
      <trkpt lat="44.93822" lon="5.1563">
        <ele>605</ele>
        <time>2021-02-25T13:59:38Z</time>
      </trkpt>
      <trkpt lat="44.93827" lon="5.15628">
        <ele>605</ele>
        <time>2021-02-25T13:59:43Z</time>
      </trkpt>
      <trkpt lat="44.93833" lon="5.15627">
        <ele>605</ele>
        <time>2021-02-25T13:59:47Z</time>
      </trkpt>
      <trkpt lat="44.93839" lon="5.15626">
        <ele>605</ele>
        <time>2021-02-25T13:59:52Z</time>
      </trkpt>
      <trkpt lat="44.93845" lon="5.15623">
        <ele>596</ele>
        <time>2021-02-25T13:59:56Z</time>
      </trkpt>
      <trkpt lat="44.9385" lon="5.15623">
        <ele>592</ele>
        <time>2021-02-25T14:00:01Z</time>
      </trkpt>
      <trkpt lat="44.93855" lon="5.15621">
        <ele>592</ele>
        <time>2021-02-25T14:00:06Z</time>
      </trkpt>
      <trkpt lat="44.93861" lon="5.1562">
        <ele>592</ele>
        <time>2021-02-25T14:00:11Z</time>
      </trkpt>
      <trkpt lat="44.93866" lon="5.15618">
        <ele>592</ele>
        <time>2021-02-25T14:00:15Z</time>
      </trkpt>
      <trkpt lat="44.93869" lon="5.15615">
        <ele>592</ele>
        <time>2021-02-25T14:00:19Z</time>
      </trkpt>
      <trkpt lat="44.93872" lon="5.15613">
        <ele>592</ele>
        <time>2021-02-25T14:00:24Z</time>
      </trkpt>
      <trkpt lat="44.93876" lon="5.15611">
        <ele>586</ele>
        <time>2021-02-25T14:00:28Z</time>
      </trkpt>
      <trkpt lat="44.9388" lon="5.15608">
        <ele>586</ele>
        <time>2021-02-25T14:00:33Z</time>
      </trkpt>
      <trkpt lat="44.93884" lon="5.15607">
        <ele>586</ele>
        <time>2021-02-25T14:00:37Z</time>
      </trkpt>
      <trkpt lat="44.93888" lon="5.15606">
        <ele>586</ele>
        <time>2021-02-25T14:00:42Z</time>
      </trkpt>
      <trkpt lat="44.93891" lon="5.15604">
        <ele>586</ele>
        <time>2021-02-25T14:00:48Z</time>
      </trkpt>
      <trkpt lat="44.93893" lon="5.15597">
        <ele>579</ele>
        <time>2021-02-25T14:00:57Z</time>
      </trkpt>
      <trkpt lat="44.93893" lon="5.15595">
        <ele>579</ele>
        <time>2021-02-25T14:01:00Z</time>
      </trkpt>
      <trkpt lat="44.9389" lon="5.15596">
        <ele>579</ele>
        <time>2021-02-25T14:01:11Z</time>
      </trkpt>
      <trkpt lat="44.93886" lon="5.15595">
        <ele>579</ele>
        <time>2021-02-25T14:01:15Z</time>
      </trkpt>
      <trkpt lat="44.93882" lon="5.15594">
        <ele>579</ele>
        <time>2021-02-25T14:01:21Z</time>
      </trkpt>
      <trkpt lat="44.93881" lon="5.15587">
        <ele>579</ele>
        <time>2021-02-25T14:01:53Z</time>
      </trkpt>
      <trkpt lat="44.93886" lon="5.15586">
        <ele>579</ele>
        <time>2021-02-25T14:01:58Z</time>
      </trkpt>
      <trkpt lat="44.9389" lon="5.15586">
        <ele>579</ele>
        <time>2021-02-25T14:02:02Z</time>
      </trkpt>
      <trkpt lat="44.93895" lon="5.15586">
        <ele>579</ele>
        <time>2021-02-25T14:02:07Z</time>
      </trkpt>
      <trkpt lat="44.93895" lon="5.15584">
        <ele>579</ele>
        <time>2021-02-25T14:02:11Z</time>
      </trkpt>
      <trkpt lat="44.93894" lon="5.15584">
        <ele>579</ele>
        <time>2021-02-25T14:02:16Z</time>
      </trkpt>
      <trkpt lat="44.93898" lon="5.15583">
        <ele>579</ele>
        <time>2021-02-25T14:02:30Z</time>
      </trkpt>
      <trkpt lat="44.93902" lon="5.15582">
        <ele>579</ele>
        <time>2021-02-25T14:02:35Z</time>
      </trkpt>
      <trkpt lat="44.93907" lon="5.1558">
        <ele>576</ele>
        <time>2021-02-25T14:02:40Z</time>
      </trkpt>
      <trkpt lat="44.93911" lon="5.15579">
        <ele>576</ele>
        <time>2021-02-25T14:02:45Z</time>
      </trkpt>
      <trkpt lat="44.93916" lon="5.15576">
        <ele>576</ele>
        <time>2021-02-25T14:02:50Z</time>
      </trkpt>
      <trkpt lat="44.93922" lon="5.15574">
        <ele>576</ele>
        <time>2021-02-25T14:02:55Z</time>
      </trkpt>
      <trkpt lat="44.93927" lon="5.15573">
        <ele>576</ele>
        <time>2021-02-25T14:03:00Z</time>
      </trkpt>
      <trkpt lat="44.93931" lon="5.15572">
        <ele>572</ele>
        <time>2021-02-25T14:03:04Z</time>
      </trkpt>
      <trkpt lat="44.93937" lon="5.1557">
        <ele>572</ele>
        <time>2021-02-25T14:03:10Z</time>
      </trkpt>
      <trkpt lat="44.93943" lon="5.15569">
        <ele>567</ele>
        <time>2021-02-25T14:03:15Z</time>
      </trkpt>
      <trkpt lat="44.93947" lon="5.15569">
        <ele>567</ele>
        <time>2021-02-25T14:03:19Z</time>
      </trkpt>
      <trkpt lat="44.93952" lon="5.15567">
        <ele>567</ele>
        <time>2021-02-25T14:03:24Z</time>
      </trkpt>
      <trkpt lat="44.93956" lon="5.15565">
        <ele>567</ele>
        <time>2021-02-25T14:03:28Z</time>
      </trkpt>
      <trkpt lat="44.9396" lon="5.15564">
        <ele>564</ele>
        <time>2021-02-25T14:03:33Z</time>
      </trkpt>
      <trkpt lat="44.93965" lon="5.15562">
        <ele>564</ele>
        <time>2021-02-25T14:03:38Z</time>
      </trkpt>
      <trkpt lat="44.93971" lon="5.15558">
        <ele>564</ele>
        <time>2021-02-25T14:03:42Z</time>
      </trkpt>
      <trkpt lat="44.93976" lon="5.15555">
        <ele>564</ele>
        <time>2021-02-25T14:03:47Z</time>
      </trkpt>
      <trkpt lat="44.93981" lon="5.15552">
        <ele>564</ele>
        <time>2021-02-25T14:03:52Z</time>
      </trkpt>
      <trkpt lat="44.93983" lon="5.15551">
        <ele>564</ele>
        <time>2021-02-25T14:03:56Z</time>
      </trkpt>
      <trkpt lat="44.93988" lon="5.15548">
        <ele>564</ele>
        <time>2021-02-25T14:04:01Z</time>
      </trkpt>
      <trkpt lat="44.93993" lon="5.15547">
        <ele>564</ele>
        <time>2021-02-25T14:04:05Z</time>
      </trkpt>
      <trkpt lat="44.93996" lon="5.15546">
        <ele>564</ele>
        <time>2021-02-25T14:04:09Z</time>
      </trkpt>
      <trkpt lat="44.94001" lon="5.15545">
        <ele>564</ele>
        <time>2021-02-25T14:04:14Z</time>
      </trkpt>
      <trkpt lat="44.94006" lon="5.15542">
        <ele>564</ele>
        <time>2021-02-25T14:04:19Z</time>
      </trkpt>
      <trkpt lat="44.9401" lon="5.1554">
        <ele>560</ele>
        <time>2021-02-25T14:04:24Z</time>
      </trkpt>
      <trkpt lat="44.94015" lon="5.15537">
        <ele>558</ele>
        <time>2021-02-25T14:04:29Z</time>
      </trkpt>
      <trkpt lat="44.9402" lon="5.15536">
        <ele>558</ele>
        <time>2021-02-25T14:04:34Z</time>
      </trkpt>
      <trkpt lat="44.94024" lon="5.15533">
        <ele>558</ele>
        <time>2021-02-25T14:04:38Z</time>
      </trkpt>
      <trkpt lat="44.94028" lon="5.15528">
        <ele>558</ele>
        <time>2021-02-25T14:04:43Z</time>
      </trkpt>
      <trkpt lat="44.94032" lon="5.15524">
        <ele>558</ele>
        <time>2021-02-25T14:04:48Z</time>
      </trkpt>
      <trkpt lat="44.94036" lon="5.15522">
        <ele>558</ele>
        <time>2021-02-25T14:04:53Z</time>
      </trkpt>
      <trkpt lat="44.9404" lon="5.1552">
        <ele>558</ele>
        <time>2021-02-25T14:04:57Z</time>
      </trkpt>
      <trkpt lat="44.94046" lon="5.1552">
        <ele>552</ele>
        <time>2021-02-25T14:05:01Z</time>
      </trkpt>
      <trkpt lat="44.9405" lon="5.1552">
        <ele>552</ele>
        <time>2021-02-25T14:05:05Z</time>
      </trkpt>
      <trkpt lat="44.94055" lon="5.15521">
        <ele>552</ele>
        <time>2021-02-25T14:05:10Z</time>
      </trkpt>
      <trkpt lat="44.94057" lon="5.15521">
        <ele>552</ele>
        <time>2021-02-25T14:05:14Z</time>
      </trkpt>
      <trkpt lat="44.94062" lon="5.15521">
        <ele>552</ele>
        <time>2021-02-25T14:05:18Z</time>
      </trkpt>
      <trkpt lat="44.94067" lon="5.15523">
        <ele>552</ele>
        <time>2021-02-25T14:05:23Z</time>
      </trkpt>
      <trkpt lat="44.94071" lon="5.15524">
        <ele>545</ele>
        <time>2021-02-25T14:05:27Z</time>
      </trkpt>
      <trkpt lat="44.94078" lon="5.15527">
        <ele>545</ele>
        <time>2021-02-25T14:05:32Z</time>
      </trkpt>
      <trkpt lat="44.94083" lon="5.15528">
        <ele>545</ele>
        <time>2021-02-25T14:05:37Z</time>
      </trkpt>
      <trkpt lat="44.94088" lon="5.15531">
        <ele>545</ele>
        <time>2021-02-25T14:05:42Z</time>
      </trkpt>
      <trkpt lat="44.94094" lon="5.15532">
        <ele>545</ele>
        <time>2021-02-25T14:05:47Z</time>
      </trkpt>
      <trkpt lat="44.94099" lon="5.15533">
        <ele>543</ele>
        <time>2021-02-25T14:05:52Z</time>
      </trkpt>
      <trkpt lat="44.94105" lon="5.15534">
        <ele>543</ele>
        <time>2021-02-25T14:05:58Z</time>
      </trkpt>
      <trkpt lat="44.94108" lon="5.15535">
        <ele>543</ele>
        <time>2021-02-25T14:06:02Z</time>
      </trkpt>
      <trkpt lat="44.94112" lon="5.15535">
        <ele>543</ele>
        <time>2021-02-25T14:06:07Z</time>
      </trkpt>
      <trkpt lat="44.94118" lon="5.15536">
        <ele>543</ele>
        <time>2021-02-25T14:06:12Z</time>
      </trkpt>
      <trkpt lat="44.94122" lon="5.15536">
        <ele>543</ele>
        <time>2021-02-25T14:06:17Z</time>
      </trkpt>
      <trkpt lat="44.94122" lon="5.15538">
        <ele>543</ele>
        <time>2021-02-25T14:06:21Z</time>
      </trkpt>
      <trkpt lat="44.94124" lon="5.15541">
        <ele>543</ele>
        <time>2021-02-25T14:06:26Z</time>
      </trkpt>
      <trkpt lat="44.94126" lon="5.15543">
        <ele>544</ele>
        <time>2021-02-25T14:06:30Z</time>
      </trkpt>
      <trkpt lat="44.94129" lon="5.15545">
        <ele>544</ele>
        <time>2021-02-25T14:06:35Z</time>
      </trkpt>
      <trkpt lat="44.94132" lon="5.15546">
        <ele>544</ele>
        <time>2021-02-25T14:06:40Z</time>
      </trkpt>
      <trkpt lat="44.94132" lon="5.15547">
        <ele>544</ele>
        <time>2021-02-25T14:06:44Z</time>
      </trkpt>
      <trkpt lat="44.94137" lon="5.15548">
        <ele>544</ele>
        <time>2021-02-25T14:06:49Z</time>
      </trkpt>
      <trkpt lat="44.94141" lon="5.15549">
        <ele>544</ele>
        <time>2021-02-25T14:06:53Z</time>
      </trkpt>
      <trkpt lat="44.94146" lon="5.1555">
        <ele>544</ele>
        <time>2021-02-25T14:06:58Z</time>
      </trkpt>
      <trkpt lat="44.94151" lon="5.15551">
        <ele>544</ele>
        <time>2021-02-25T14:07:03Z</time>
      </trkpt>
      <trkpt lat="44.94155" lon="5.15553">
        <ele>541</ele>
        <time>2021-02-25T14:07:07Z</time>
      </trkpt>
      <trkpt lat="44.94159" lon="5.15555">
        <ele>541</ele>
        <time>2021-02-25T14:07:13Z</time>
      </trkpt>
      <trkpt lat="44.94164" lon="5.15556">
        <ele>541</ele>
        <time>2021-02-25T14:07:18Z</time>
      </trkpt>
      <trkpt lat="44.94167" lon="5.15558">
        <ele>541</ele>
        <time>2021-02-25T14:07:22Z</time>
      </trkpt>
      <trkpt lat="44.94172" lon="5.1556">
        <ele>541</ele>
        <time>2021-02-25T14:07:27Z</time>
      </trkpt>
      <trkpt lat="44.94174" lon="5.1556">
        <ele>541</ele>
        <time>2021-02-25T14:07:31Z</time>
      </trkpt>
      <trkpt lat="44.9418" lon="5.15561">
        <ele>541</ele>
        <time>2021-02-25T14:07:36Z</time>
      </trkpt>
      <trkpt lat="44.94182" lon="5.15562">
        <ele>537</ele>
        <time>2021-02-25T14:07:40Z</time>
      </trkpt>
      <trkpt lat="44.94182" lon="5.15564">
        <ele>537</ele>
        <time>2021-02-25T14:07:45Z</time>
      </trkpt>
      <trkpt lat="44.94186" lon="5.15565">
        <ele>537</ele>
        <time>2021-02-25T14:07:49Z</time>
      </trkpt>
      <trkpt lat="44.94189" lon="5.15564">
        <ele>537</ele>
        <time>2021-02-25T14:07:53Z</time>
      </trkpt>
      <trkpt lat="44.94194" lon="5.15565">
        <ele>537</ele>
        <time>2021-02-25T14:07:58Z</time>
      </trkpt>
      <trkpt lat="44.94198" lon="5.15564">
        <ele>537</ele>
        <time>2021-02-25T14:08:03Z</time>
      </trkpt>
      <trkpt lat="44.94201" lon="5.15565">
        <ele>537</ele>
        <time>2021-02-25T14:08:08Z</time>
      </trkpt>
      <trkpt lat="44.94203" lon="5.15566">
        <ele>537</ele>
        <time>2021-02-25T14:08:13Z</time>
      </trkpt>
      <trkpt lat="44.94208" lon="5.15566">
        <ele>537</ele>
        <time>2021-02-25T14:08:18Z</time>
      </trkpt>
      <trkpt lat="44.94212" lon="5.1557">
        <ele>538</ele>
        <time>2021-02-25T14:08:23Z</time>
      </trkpt>
      <trkpt lat="44.94217" lon="5.15568">
        <ele>536</ele>
        <time>2021-02-25T14:08:29Z</time>
      </trkpt>
      <trkpt lat="44.9422" lon="5.15567">
        <ele>536</ele>
        <time>2021-02-25T14:08:33Z</time>
      </trkpt>
      <trkpt lat="44.94224" lon="5.15569">
        <ele>536</ele>
        <time>2021-02-25T14:08:37Z</time>
      </trkpt>
      <trkpt lat="44.94226" lon="5.15568">
        <ele>536</ele>
        <time>2021-02-25T14:08:42Z</time>
      </trkpt>
      <trkpt lat="44.94232" lon="5.15564">
        <ele>536</ele>
        <time>2021-02-25T14:08:47Z</time>
      </trkpt>
      <trkpt lat="44.94236" lon="5.15559">
        <ele>536</ele>
        <time>2021-02-25T14:08:52Z</time>
      </trkpt>
      <trkpt lat="44.9424" lon="5.15556">
        <ele>534</ele>
        <time>2021-02-25T14:08:56Z</time>
      </trkpt>
      <trkpt lat="44.9424" lon="5.15552">
        <ele>534</ele>
        <time>2021-02-25T14:09:01Z</time>
      </trkpt>
      <trkpt lat="44.94243" lon="5.15547">
        <ele>534</ele>
        <time>2021-02-25T14:09:06Z</time>
      </trkpt>
      <trkpt lat="44.94246" lon="5.15544">
        <ele>534</ele>
        <time>2021-02-25T14:09:10Z</time>
      </trkpt>
      <trkpt lat="44.94249" lon="5.15539">
        <ele>532</ele>
        <time>2021-02-25T14:09:15Z</time>
      </trkpt>
      <trkpt lat="44.9425" lon="5.15537">
        <ele>532</ele>
        <time>2021-02-25T14:09:19Z</time>
      </trkpt>
      <trkpt lat="44.94253" lon="5.1553">
        <ele>532</ele>
        <time>2021-02-25T14:09:24Z</time>
      </trkpt>
      <trkpt lat="44.94256" lon="5.15526">
        <ele>532</ele>
        <time>2021-02-25T14:09:28Z</time>
      </trkpt>
      <trkpt lat="44.94258" lon="5.15521">
        <ele>532</ele>
        <time>2021-02-25T14:09:33Z</time>
      </trkpt>
      <trkpt lat="44.9426" lon="5.15519">
        <ele>532</ele>
        <time>2021-02-25T14:09:37Z</time>
      </trkpt>
      <trkpt lat="44.94264" lon="5.15513">
        <ele>524</ele>
        <time>2021-02-25T14:09:42Z</time>
      </trkpt>
      <trkpt lat="44.94267" lon="5.15511">
        <ele>524</ele>
        <time>2021-02-25T14:09:46Z</time>
      </trkpt>
      <trkpt lat="44.94269" lon="5.15508">
        <ele>524</ele>
        <time>2021-02-25T14:09:51Z</time>
      </trkpt>
      <trkpt lat="44.94272" lon="5.15503">
        <ele>524</ele>
        <time>2021-02-25T14:09:56Z</time>
      </trkpt>
      <trkpt lat="44.94273" lon="5.15501">
        <ele>524</ele>
        <time>2021-02-25T14:10:00Z</time>
      </trkpt>
      <trkpt lat="44.94275" lon="5.15496">
        <ele>524</ele>
        <time>2021-02-25T14:10:04Z</time>
      </trkpt>
      <trkpt lat="44.94276" lon="5.15492">
        <ele>524</ele>
        <time>2021-02-25T14:10:09Z</time>
      </trkpt>
      <trkpt lat="44.94278" lon="5.1549">
        <ele>524</ele>
        <time>2021-02-25T14:10:13Z</time>
      </trkpt>
      <trkpt lat="44.94281" lon="5.15486">
        <ele>524</ele>
        <time>2021-02-25T14:10:17Z</time>
      </trkpt>
      <trkpt lat="44.94283" lon="5.15481">
        <ele>523</ele>
        <time>2021-02-25T14:10:22Z</time>
      </trkpt>
      <trkpt lat="44.94286" lon="5.15475">
        <ele>523</ele>
        <time>2021-02-25T14:10:26Z</time>
      </trkpt>
      <trkpt lat="44.94287" lon="5.15471">
        <ele>523</ele>
        <time>2021-02-25T14:10:31Z</time>
      </trkpt>
      <trkpt lat="44.94289" lon="5.15469">
        <ele>523</ele>
        <time>2021-02-25T14:10:35Z</time>
      </trkpt>
      <trkpt lat="44.94291" lon="5.15466">
        <ele>523</ele>
        <time>2021-02-25T14:10:40Z</time>
      </trkpt>
      <trkpt lat="44.94294" lon="5.15462">
        <ele>516</ele>
        <time>2021-02-25T14:10:45Z</time>
      </trkpt>
      <trkpt lat="44.94297" lon="5.15459">
        <ele>516</ele>
        <time>2021-02-25T14:10:49Z</time>
      </trkpt>
      <trkpt lat="44.943" lon="5.15454">
        <ele>517</ele>
        <time>2021-02-25T14:10:54Z</time>
      </trkpt>
      <trkpt lat="44.94305" lon="5.1545">
        <ele>517</ele>
        <time>2021-02-25T14:10:59Z</time>
      </trkpt>
      <trkpt lat="44.94308" lon="5.15445">
        <ele>517</ele>
        <time>2021-02-25T14:11:04Z</time>
      </trkpt>
      <trkpt lat="44.94312" lon="5.15442">
        <ele>517</ele>
        <time>2021-02-25T14:11:09Z</time>
      </trkpt>
      <trkpt lat="44.94313" lon="5.1544">
        <ele>517</ele>
        <time>2021-02-25T14:11:13Z</time>
      </trkpt>
      <trkpt lat="44.94314" lon="5.15438">
        <ele>517</ele>
        <time>2021-02-25T14:11:17Z</time>
      </trkpt>
      <trkpt lat="44.94316" lon="5.15436">
        <ele>517</ele>
        <time>2021-02-25T14:11:21Z</time>
      </trkpt>
      <trkpt lat="44.94319" lon="5.15433">
        <ele>517</ele>
        <time>2021-02-25T14:11:25Z</time>
      </trkpt>
      <trkpt lat="44.9432" lon="5.15431">
        <ele>507</ele>
        <time>2021-02-25T14:11:29Z</time>
      </trkpt>
      <trkpt lat="44.94323" lon="5.15425">
        <ele>508</ele>
        <time>2021-02-25T14:11:34Z</time>
      </trkpt>
      <trkpt lat="44.94325" lon="5.15421">
        <ele>508</ele>
        <time>2021-02-25T14:11:39Z</time>
      </trkpt>
      <trkpt lat="44.94326" lon="5.15421">
        <ele>508</ele>
        <time>2021-02-25T14:11:44Z</time>
      </trkpt>
      <trkpt lat="44.94329" lon="5.15416">
        <ele>508</ele>
        <time>2021-02-25T14:11:58Z</time>
      </trkpt>
      <trkpt lat="44.9433" lon="5.15417">
        <ele>508</ele>
        <time>2021-02-25T14:12:02Z</time>
      </trkpt>
      <trkpt lat="44.94332" lon="5.15414">
        <ele>508</ele>
        <time>2021-02-25T14:12:07Z</time>
      </trkpt>
      <trkpt lat="44.94335" lon="5.1541">
        <ele>508</ele>
        <time>2021-02-25T14:12:12Z</time>
      </trkpt>
      <trkpt lat="44.94336" lon="5.15405">
        <ele>508</ele>
        <time>2021-02-25T14:12:17Z</time>
      </trkpt>
      <trkpt lat="44.94337" lon="5.15399">
        <ele>510</ele>
        <time>2021-02-25T14:12:22Z</time>
      </trkpt>
      <trkpt lat="44.94338" lon="5.15397">
        <ele>510</ele>
        <time>2021-02-25T14:12:27Z</time>
      </trkpt>
      <trkpt lat="44.94341" lon="5.1539">
        <ele>510</ele>
        <time>2021-02-25T14:12:32Z</time>
      </trkpt>
      <trkpt lat="44.94342" lon="5.15387">
        <ele>510</ele>
        <time>2021-02-25T14:12:37Z</time>
      </trkpt>
      <trkpt lat="44.94344" lon="5.15381">
        <ele>510</ele>
        <time>2021-02-25T14:12:41Z</time>
      </trkpt>
      <trkpt lat="44.94345" lon="5.15375">
        <ele>510</ele>
        <time>2021-02-25T14:12:46Z</time>
      </trkpt>
      <trkpt lat="44.94346" lon="5.1537">
        <ele>511</ele>
        <time>2021-02-25T14:12:51Z</time>
      </trkpt>
      <trkpt lat="44.94346" lon="5.15367">
        <ele>511</ele>
        <time>2021-02-25T14:12:55Z</time>
      </trkpt>
      <trkpt lat="44.94346" lon="5.15361">
        <ele>511</ele>
        <time>2021-02-25T14:12:59Z</time>
      </trkpt>
      <trkpt lat="44.94347" lon="5.15356">
        <ele>511</ele>
        <time>2021-02-25T14:13:04Z</time>
      </trkpt>
      <trkpt lat="44.94349" lon="5.15348">
        <ele>498</ele>
        <time>2021-02-25T14:13:09Z</time>
      </trkpt>
      <trkpt lat="44.94347" lon="5.15341">
        <ele>510</ele>
        <time>2021-02-25T14:13:14Z</time>
      </trkpt>
      <trkpt lat="44.94347" lon="5.15336">
        <ele>510</ele>
        <time>2021-02-25T14:13:18Z</time>
      </trkpt>
      <trkpt lat="44.94347" lon="5.1533">
        <ele>510</ele>
        <time>2021-02-25T14:13:23Z</time>
      </trkpt>
      <trkpt lat="44.94347" lon="5.15323">
        <ele>510</ele>
        <time>2021-02-25T14:13:28Z</time>
      </trkpt>
      <trkpt lat="44.94348" lon="5.15318">
        <ele>495</ele>
        <time>2021-02-25T14:13:33Z</time>
      </trkpt>
      <trkpt lat="44.94349" lon="5.15312">
        <ele>495</ele>
        <time>2021-02-25T14:13:38Z</time>
      </trkpt>
      <trkpt lat="44.94351" lon="5.15306">
        <ele>495</ele>
        <time>2021-02-25T14:13:43Z</time>
      </trkpt>
      <trkpt lat="44.94353" lon="5.153">
        <ele>495</ele>
        <time>2021-02-25T14:13:48Z</time>
      </trkpt>
      <trkpt lat="44.94356" lon="5.15296">
        <ele>495</ele>
        <time>2021-02-25T14:13:52Z</time>
      </trkpt>
      <trkpt lat="44.94357" lon="5.15291">
        <ele>492</ele>
        <time>2021-02-25T14:13:56Z</time>
      </trkpt>
      <trkpt lat="44.94359" lon="5.15284">
        <ele>492</ele>
        <time>2021-02-25T14:14:01Z</time>
      </trkpt>
      <trkpt lat="44.94359" lon="5.15282">
        <ele>492</ele>
        <time>2021-02-25T14:14:05Z</time>
      </trkpt>
      <trkpt lat="44.94361" lon="5.15277">
        <ele>492</ele>
        <time>2021-02-25T14:14:10Z</time>
      </trkpt>
      <trkpt lat="44.94362" lon="5.15265">
        <ele>492</ele>
        <time>2021-02-25T14:14:34Z</time>
      </trkpt>
      <trkpt lat="44.94363" lon="5.15261">
        <ele>490</ele>
        <time>2021-02-25T14:14:38Z</time>
      </trkpt>
      <trkpt lat="44.94363" lon="5.15257">
        <ele>490</ele>
        <time>2021-02-25T14:14:44Z</time>
      </trkpt>
      <trkpt lat="44.94362" lon="5.15257">
        <ele>490</ele>
        <time>2021-02-25T14:14:48Z</time>
      </trkpt>
      <trkpt lat="44.94361" lon="5.15254">
        <ele>490</ele>
        <time>2021-02-25T14:14:57Z</time>
      </trkpt>
      <trkpt lat="44.94356" lon="5.15251">
        <ele>490</ele>
        <time>2021-02-25T14:15:52Z</time>
      </trkpt>
      <trkpt lat="44.94354" lon="5.15247">
        <ele>490</ele>
        <time>2021-02-25T14:16:06Z</time>
      </trkpt>
      <trkpt lat="44.94353" lon="5.15243">
        <ele>490</ele>
        <time>2021-02-25T14:16:10Z</time>
      </trkpt>
      <trkpt lat="44.94352" lon="5.15238">
        <ele>490</ele>
        <time>2021-02-25T14:16:15Z</time>
      </trkpt>
      <trkpt lat="44.94351" lon="5.15233">
        <ele>490</ele>
        <time>2021-02-25T14:16:20Z</time>
      </trkpt>
      <trkpt lat="44.94351" lon="5.15226">
        <ele>490</ele>
        <time>2021-02-25T14:16:24Z</time>
      </trkpt>
      <trkpt lat="44.94352" lon="5.15222">
        <ele>490</ele>
        <time>2021-02-25T14:16:29Z</time>
      </trkpt>
      <trkpt lat="44.94352" lon="5.15217">
        <ele>490</ele>
        <time>2021-02-25T14:16:37Z</time>
      </trkpt>
      <trkpt lat="44.94352" lon="5.15213">
        <ele>490</ele>
        <time>2021-02-25T14:16:41Z</time>
      </trkpt>
      <trkpt lat="44.94355" lon="5.15207">
        <ele>491</ele>
        <time>2021-02-25T14:16:46Z</time>
      </trkpt>
      <trkpt lat="44.94358" lon="5.15199">
        <ele>491</ele>
        <time>2021-02-25T14:16:51Z</time>
      </trkpt>
      <trkpt lat="44.94362" lon="5.15195">
        <ele>491</ele>
        <time>2021-02-25T14:16:56Z</time>
      </trkpt>
      <trkpt lat="44.94366" lon="5.1519">
        <ele>491</ele>
        <time>2021-02-25T14:17:01Z</time>
      </trkpt>
      <trkpt lat="44.94368" lon="5.15188">
        <ele>491</ele>
        <time>2021-02-25T14:17:05Z</time>
      </trkpt>
      <trkpt lat="44.94371" lon="5.15182">
        <ele>491</ele>
        <time>2021-02-25T14:17:11Z</time>
      </trkpt>
      <trkpt lat="44.94376" lon="5.15176">
        <ele>485</ele>
        <time>2021-02-25T14:17:16Z</time>
      </trkpt>
      <trkpt lat="44.94379" lon="5.15169">
        <ele>485</ele>
        <time>2021-02-25T14:17:21Z</time>
      </trkpt>
      <trkpt lat="44.94382" lon="5.15163">
        <ele>485</ele>
        <time>2021-02-25T14:17:25Z</time>
      </trkpt>
      <trkpt lat="44.94386" lon="5.15156">
        <ele>485</ele>
        <time>2021-02-25T14:17:30Z</time>
      </trkpt>
      <trkpt lat="44.9439" lon="5.1515">
        <ele>484</ele>
        <time>2021-02-25T14:17:34Z</time>
      </trkpt>
      <trkpt lat="44.94394" lon="5.15145">
        <ele>484</ele>
        <time>2021-02-25T14:17:38Z</time>
      </trkpt>
      <trkpt lat="44.94398" lon="5.15139">
        <ele>484</ele>
        <time>2021-02-25T14:17:43Z</time>
      </trkpt>
      <trkpt lat="44.944" lon="5.15136">
        <ele>484</ele>
        <time>2021-02-25T14:17:47Z</time>
      </trkpt>
      <trkpt lat="44.94402" lon="5.15129">
        <ele>484</ele>
        <time>2021-02-25T14:17:52Z</time>
      </trkpt>
      <trkpt lat="44.94406" lon="5.15123">
        <ele>483</ele>
        <time>2021-02-25T14:17:57Z</time>
      </trkpt>
      <trkpt lat="44.94408" lon="5.15119">
        <ele>483</ele>
        <time>2021-02-25T14:18:01Z</time>
      </trkpt>
      <trkpt lat="44.94411" lon="5.15114">
        <ele>483</ele>
        <time>2021-02-25T14:18:05Z</time>
      </trkpt>
      <trkpt lat="44.94414" lon="5.15108">
        <ele>483</ele>
        <time>2021-02-25T14:18:11Z</time>
      </trkpt>
      <trkpt lat="44.94419" lon="5.15103">
        <ele>483</ele>
        <time>2021-02-25T14:18:16Z</time>
      </trkpt>
      <trkpt lat="44.94419" lon="5.15101">
        <ele>483</ele>
        <time>2021-02-25T14:18:20Z</time>
      </trkpt>
      <trkpt lat="44.94422" lon="5.15099">
        <ele>483</ele>
        <time>2021-02-25T14:18:26Z</time>
      </trkpt>
      <trkpt lat="44.94426" lon="5.15103">
        <ele>483</ele>
        <time>2021-02-25T14:18:31Z</time>
      </trkpt>
      <trkpt lat="44.94428" lon="5.15105">
        <ele>483</ele>
        <time>2021-02-25T14:18:35Z</time>
      </trkpt>
      <trkpt lat="44.94431" lon="5.15109">
        <ele>484</ele>
        <time>2021-02-25T14:18:39Z</time>
      </trkpt>
      <trkpt lat="44.94434" lon="5.15111">
        <ele>484</ele>
        <time>2021-02-25T14:18:44Z</time>
      </trkpt>
      <trkpt lat="44.94438" lon="5.1511">
        <ele>484</ele>
        <time>2021-02-25T14:18:49Z</time>
      </trkpt>
      <trkpt lat="44.94441" lon="5.15106">
        <ele>484</ele>
        <time>2021-02-25T14:18:53Z</time>
      </trkpt>
      <trkpt lat="44.94443" lon="5.15101">
        <ele>484</ele>
        <time>2021-02-25T14:18:58Z</time>
      </trkpt>
      <trkpt lat="44.94447" lon="5.15098">
        <ele>484</ele>
        <time>2021-02-25T14:19:03Z</time>
      </trkpt>
      <trkpt lat="44.9445" lon="5.15095">
        <ele>483</ele>
        <time>2021-02-25T14:19:07Z</time>
      </trkpt>
      <trkpt lat="44.94455" lon="5.15092">
        <ele>483</ele>
        <time>2021-02-25T14:19:12Z</time>
      </trkpt>
      <trkpt lat="44.94458" lon="5.15091">
        <ele>484</ele>
        <time>2021-02-25T14:19:16Z</time>
      </trkpt>
      <trkpt lat="44.94461" lon="5.15089">
        <ele>484</ele>
        <time>2021-02-25T14:19:22Z</time>
      </trkpt>
      <trkpt lat="44.94467" lon="5.15086">
        <ele>484</ele>
        <time>2021-02-25T14:19:27Z</time>
      </trkpt>
      <trkpt lat="44.9447" lon="5.15084">
        <ele>484</ele>
        <time>2021-02-25T14:19:31Z</time>
      </trkpt>
      <trkpt lat="44.94475" lon="5.15078">
        <ele>484</ele>
        <time>2021-02-25T14:19:36Z</time>
      </trkpt>
      <trkpt lat="44.9448" lon="5.15073">
        <ele>484</ele>
        <time>2021-02-25T14:19:41Z</time>
      </trkpt>
      <trkpt lat="44.94484" lon="5.15066">
        <ele>482</ele>
        <time>2021-02-25T14:19:45Z</time>
      </trkpt>
      <trkpt lat="44.94488" lon="5.15061">
        <ele>484</ele>
        <time>2021-02-25T14:19:49Z</time>
      </trkpt>
      <trkpt lat="44.94492" lon="5.15055">
        <ele>484</ele>
        <time>2021-02-25T14:19:54Z</time>
      </trkpt>
      <trkpt lat="44.94496" lon="5.1505">
        <ele>484</ele>
        <time>2021-02-25T14:19:59Z</time>
      </trkpt>
      <trkpt lat="44.945" lon="5.15045">
        <ele>484</ele>
        <time>2021-02-25T14:20:03Z</time>
      </trkpt>
      <trkpt lat="44.94504" lon="5.1504">
        <ele>480</ele>
        <time>2021-02-25T14:20:08Z</time>
      </trkpt>
      <trkpt lat="44.94508" lon="5.15035">
        <ele>480</ele>
        <time>2021-02-25T14:20:13Z</time>
      </trkpt>
      <trkpt lat="44.94511" lon="5.15029">
        <ele>480</ele>
        <time>2021-02-25T14:20:18Z</time>
      </trkpt>
      <trkpt lat="44.94515" lon="5.15025">
        <ele>484</ele>
        <time>2021-02-25T14:20:22Z</time>
      </trkpt>
      <trkpt lat="44.94519" lon="5.15017">
        <ele>484</ele>
        <time>2021-02-25T14:20:27Z</time>
      </trkpt>
      <trkpt lat="44.94523" lon="5.15014">
        <ele>484</ele>
        <time>2021-02-25T14:20:32Z</time>
      </trkpt>
      <trkpt lat="44.94525" lon="5.15009">
        <ele>480</ele>
        <time>2021-02-25T14:20:37Z</time>
      </trkpt>
      <trkpt lat="44.94529" lon="5.15001">
        <ele>480</ele>
        <time>2021-02-25T14:20:42Z</time>
      </trkpt>
      <trkpt lat="44.94532" lon="5.14997">
        <ele>480</ele>
        <time>2021-02-25T14:20:46Z</time>
      </trkpt>
      <trkpt lat="44.94536" lon="5.1499">
        <ele>480</ele>
        <time>2021-02-25T14:20:51Z</time>
      </trkpt>
      <trkpt lat="44.9454" lon="5.14984">
        <ele>477</ele>
        <time>2021-02-25T14:20:56Z</time>
      </trkpt>
      <trkpt lat="44.94544" lon="5.14978">
        <ele>483</ele>
        <time>2021-02-25T14:21:01Z</time>
      </trkpt>
      <trkpt lat="44.94547" lon="5.14974">
        <ele>483</ele>
        <time>2021-02-25T14:21:05Z</time>
      </trkpt>
      <trkpt lat="44.94551" lon="5.14969">
        <ele>483</ele>
        <time>2021-02-25T14:21:10Z</time>
      </trkpt>
      <trkpt lat="44.94554" lon="5.14963">
        <ele>483</ele>
        <time>2021-02-25T14:21:15Z</time>
      </trkpt>
      <trkpt lat="44.94559" lon="5.14955">
        <ele>478</ele>
        <time>2021-02-25T14:21:20Z</time>
      </trkpt>
      <trkpt lat="44.94563" lon="5.14951">
        <ele>478</ele>
        <time>2021-02-25T14:21:24Z</time>
      </trkpt>
      <trkpt lat="44.94567" lon="5.14944">
        <ele>478</ele>
        <time>2021-02-25T14:21:29Z</time>
      </trkpt>
      <trkpt lat="44.94571" lon="5.14937">
        <ele>486</ele>
        <time>2021-02-25T14:21:34Z</time>
      </trkpt>
      <trkpt lat="44.94574" lon="5.14933">
        <ele>486</ele>
        <time>2021-02-25T14:21:38Z</time>
      </trkpt>
      <trkpt lat="44.94578" lon="5.14926">
        <ele>480</ele>
        <time>2021-02-25T14:21:43Z</time>
      </trkpt>
      <trkpt lat="44.94582" lon="5.1492">
        <ele>480</ele>
        <time>2021-02-25T14:21:47Z</time>
      </trkpt>
      <trkpt lat="44.94586" lon="5.14915">
        <ele>480</ele>
        <time>2021-02-25T14:21:52Z</time>
      </trkpt>
      <trkpt lat="44.9459" lon="5.1491">
        <ele>480</ele>
        <time>2021-02-25T14:21:57Z</time>
      </trkpt>
      <trkpt lat="44.94593" lon="5.14904">
        <ele>480</ele>
        <time>2021-02-25T14:22:02Z</time>
      </trkpt>
      <trkpt lat="44.94595" lon="5.14897">
        <ele>474</ele>
        <time>2021-02-25T14:22:07Z</time>
      </trkpt>
      <trkpt lat="44.94599" lon="5.14891">
        <ele>480</ele>
        <time>2021-02-25T14:22:12Z</time>
      </trkpt>
      <trkpt lat="44.94602" lon="5.14884">
        <ele>480</ele>
        <time>2021-02-25T14:22:17Z</time>
      </trkpt>
      <trkpt lat="44.94606" lon="5.14879">
        <ele>480</ele>
        <time>2021-02-25T14:22:23Z</time>
      </trkpt>
      <trkpt lat="44.9461" lon="5.14873">
        <ele>474</ele>
        <time>2021-02-25T14:22:28Z</time>
      </trkpt>
      <trkpt lat="44.94614" lon="5.14869">
        <ele>474</ele>
        <time>2021-02-25T14:22:33Z</time>
      </trkpt>
      <trkpt lat="44.94618" lon="5.14864">
        <ele>474</ele>
        <time>2021-02-25T14:22:38Z</time>
      </trkpt>
      <trkpt lat="44.94622" lon="5.14858">
        <ele>474</ele>
        <time>2021-02-25T14:22:42Z</time>
      </trkpt>
      <trkpt lat="44.94627" lon="5.14851">
        <ele>477</ele>
        <time>2021-02-25T14:22:47Z</time>
      </trkpt>
      <trkpt lat="44.94631" lon="5.14846">
        <ele>470</ele>
        <time>2021-02-25T14:22:52Z</time>
      </trkpt>
      <trkpt lat="44.94636" lon="5.14841">
        <ele>470</ele>
        <time>2021-02-25T14:22:57Z</time>
      </trkpt>
      <trkpt lat="44.9464" lon="5.14836">
        <ele>470</ele>
        <time>2021-02-25T14:23:01Z</time>
      </trkpt>
      <trkpt lat="44.94645" lon="5.14832">
        <ele>470</ele>
        <time>2021-02-25T14:23:06Z</time>
      </trkpt>
      <trkpt lat="44.94651" lon="5.14829">
        <ele>470</ele>
        <time>2021-02-25T14:23:11Z</time>
      </trkpt>
      <trkpt lat="44.94655" lon="5.14828">
        <ele>471</ele>
        <time>2021-02-25T14:23:16Z</time>
      </trkpt>
      <trkpt lat="44.9466" lon="5.14826">
        <ele>471</ele>
        <time>2021-02-25T14:23:21Z</time>
      </trkpt>
      <trkpt lat="44.94663" lon="5.14825">
        <ele>471</ele>
        <time>2021-02-25T14:23:25Z</time>
      </trkpt>
      <trkpt lat="44.94668" lon="5.14825">
        <ele>471</ele>
        <time>2021-02-25T14:23:31Z</time>
      </trkpt>
      <trkpt lat="44.94674" lon="5.14825">
        <ele>471</ele>
        <time>2021-02-25T14:23:35Z</time>
      </trkpt>
      <trkpt lat="44.9468" lon="5.14824">
        <ele>471</ele>
        <time>2021-02-25T14:23:40Z</time>
      </trkpt>
      <trkpt lat="44.94686" lon="5.14821">
        <ele>473</ele>
        <time>2021-02-25T14:23:44Z</time>
      </trkpt>
      <trkpt lat="44.94692" lon="5.1482">
        <ele>473</ele>
        <time>2021-02-25T14:23:48Z</time>
      </trkpt>
      <trkpt lat="44.94697" lon="5.1482">
        <ele>473</ele>
        <time>2021-02-25T14:23:53Z</time>
      </trkpt>
      <trkpt lat="44.94704" lon="5.1482">
        <ele>473</ele>
        <time>2021-02-25T14:23:58Z</time>
      </trkpt>
      <trkpt lat="44.94709" lon="5.1482">
        <ele>479</ele>
        <time>2021-02-25T14:24:02Z</time>
      </trkpt>
      <trkpt lat="44.94715" lon="5.14818">
        <ele>468</ele>
        <time>2021-02-25T14:24:07Z</time>
      </trkpt>
      <trkpt lat="44.94722" lon="5.14816">
        <ele>468</ele>
        <time>2021-02-25T14:24:12Z</time>
      </trkpt>
      <trkpt lat="44.94727" lon="5.14815">
        <ele>468</ele>
        <time>2021-02-25T14:24:17Z</time>
      </trkpt>
      <trkpt lat="44.94733" lon="5.14814">
        <ele>468</ele>
        <time>2021-02-25T14:24:22Z</time>
      </trkpt>
      <trkpt lat="44.94737" lon="5.14812">
        <ele>472</ele>
        <time>2021-02-25T14:24:26Z</time>
      </trkpt>
      <trkpt lat="44.94742" lon="5.14808">
        <ele>472</ele>
        <time>2021-02-25T14:24:31Z</time>
      </trkpt>
      <trkpt lat="44.94748" lon="5.14805">
        <ele>472</ele>
        <time>2021-02-25T14:24:36Z</time>
      </trkpt>
      <trkpt lat="44.94754" lon="5.14801">
        <ele>472</ele>
        <time>2021-02-25T14:24:40Z</time>
      </trkpt>
      <trkpt lat="44.94759" lon="5.148">
        <ele>472</ele>
        <time>2021-02-25T14:24:46Z</time>
      </trkpt>
      <trkpt lat="44.94763" lon="5.14796">
        <ele>472</ele>
        <time>2021-02-25T14:24:50Z</time>
      </trkpt>
      <trkpt lat="44.94769" lon="5.14792">
        <ele>465</ele>
        <time>2021-02-25T14:24:55Z</time>
      </trkpt>
      <trkpt lat="44.94774" lon="5.14785">
        <ele>465</ele>
        <time>2021-02-25T14:25:00Z</time>
      </trkpt>
      <trkpt lat="44.94778" lon="5.14784">
        <ele>465</ele>
        <time>2021-02-25T14:25:04Z</time>
      </trkpt>
      <trkpt lat="44.94782" lon="5.14782">
        <ele>465</ele>
        <time>2021-02-25T14:25:08Z</time>
      </trkpt>
      <trkpt lat="44.94787" lon="5.1478">
        <ele>465</ele>
        <time>2021-02-25T14:25:13Z</time>
      </trkpt>
      <trkpt lat="44.9479" lon="5.14775">
        <ele>465</ele>
        <time>2021-02-25T14:25:18Z</time>
      </trkpt>
      <trkpt lat="44.94792" lon="5.14772">
        <ele>469</ele>
        <time>2021-02-25T14:25:23Z</time>
      </trkpt>
      <trkpt lat="44.94792" lon="5.14774">
        <ele>469</ele>
        <time>2021-02-25T14:25:28Z</time>
      </trkpt>
      <trkpt lat="44.94798" lon="5.14772">
        <ele>469</ele>
        <time>2021-02-25T14:25:33Z</time>
      </trkpt>
      <trkpt lat="44.94804" lon="5.14767">
        <ele>469</ele>
        <time>2021-02-25T14:25:38Z</time>
      </trkpt>
      <trkpt lat="44.94807" lon="5.14763">
        <ele>461</ele>
        <time>2021-02-25T14:25:42Z</time>
      </trkpt>
      <trkpt lat="44.94812" lon="5.14759">
        <ele>461</ele>
        <time>2021-02-25T14:25:47Z</time>
      </trkpt>
      <trkpt lat="44.94816" lon="5.14754">
        <ele>461</ele>
        <time>2021-02-25T14:25:51Z</time>
      </trkpt>
      <trkpt lat="44.9482" lon="5.14751">
        <ele>461</ele>
        <time>2021-02-25T14:25:56Z</time>
      </trkpt>
      <trkpt lat="44.94825" lon="5.14747">
        <ele>461</ele>
        <time>2021-02-25T14:26:01Z</time>
      </trkpt>
      <trkpt lat="44.94829" lon="5.14743">
        <ele>461</ele>
        <time>2021-02-25T14:26:05Z</time>
      </trkpt>
      <trkpt lat="44.94833" lon="5.14739">
        <ele>461</ele>
        <time>2021-02-25T14:26:10Z</time>
      </trkpt>
      <trkpt lat="44.94837" lon="5.14736">
        <ele>461</ele>
        <time>2021-02-25T14:26:14Z</time>
      </trkpt>
      <trkpt lat="44.94843" lon="5.14731">
        <ele>454</ele>
        <time>2021-02-25T14:26:18Z</time>
      </trkpt>
      <trkpt lat="44.94847" lon="5.14728">
        <ele>455</ele>
        <time>2021-02-25T14:26:22Z</time>
      </trkpt>
      <trkpt lat="44.94852" lon="5.14726">
        <ele>455</ele>
        <time>2021-02-25T14:26:26Z</time>
      </trkpt>
      <trkpt lat="44.94858" lon="5.14727">
        <ele>455</ele>
        <time>2021-02-25T14:26:31Z</time>
      </trkpt>
      <trkpt lat="44.94863" lon="5.14725">
        <ele>455</ele>
        <time>2021-02-25T14:26:36Z</time>
      </trkpt>
      <trkpt lat="44.94869" lon="5.14722">
        <ele>455</ele>
        <time>2021-02-25T14:26:41Z</time>
      </trkpt>
      <trkpt lat="44.94875" lon="5.1472">
        <ele>455</ele>
        <time>2021-02-25T14:26:46Z</time>
      </trkpt>
      <trkpt lat="44.94879" lon="5.14719">
        <ele>455</ele>
        <time>2021-02-25T14:26:50Z</time>
      </trkpt>
      <trkpt lat="44.94884" lon="5.14718">
        <ele>455</ele>
        <time>2021-02-25T14:26:55Z</time>
      </trkpt>
      <trkpt lat="44.9489" lon="5.14714">
        <ele>455</ele>
        <time>2021-02-25T14:27:00Z</time>
      </trkpt>
      <trkpt lat="44.94895" lon="5.14714">
        <ele>455</ele>
        <time>2021-02-25T14:27:04Z</time>
      </trkpt>
      <trkpt lat="44.94902" lon="5.14711">
        <ele>455</ele>
        <time>2021-02-25T14:27:09Z</time>
      </trkpt>
      <trkpt lat="44.94908" lon="5.14708">
        <ele>452</ele>
        <time>2021-02-25T14:27:14Z</time>
      </trkpt>
      <trkpt lat="44.94911" lon="5.14705">
        <ele>452</ele>
        <time>2021-02-25T14:27:19Z</time>
      </trkpt>
      <trkpt lat="44.94916" lon="5.14702">
        <ele>452</ele>
        <time>2021-02-25T14:27:24Z</time>
      </trkpt>
      <trkpt lat="44.9492" lon="5.14697">
        <ele>452</ele>
        <time>2021-02-25T14:27:29Z</time>
      </trkpt>
      <trkpt lat="44.94925" lon="5.14694">
        <ele>452</ele>
        <time>2021-02-25T14:27:34Z</time>
      </trkpt>
      <trkpt lat="44.9493" lon="5.1469">
        <ele>452</ele>
        <time>2021-02-25T14:27:39Z</time>
      </trkpt>
      <trkpt lat="44.94934" lon="5.14688">
        <ele>456</ele>
        <time>2021-02-25T14:27:43Z</time>
      </trkpt>
      <trkpt lat="44.94938" lon="5.14683">
        <ele>456</ele>
        <time>2021-02-25T14:27:47Z</time>
      </trkpt>
      <trkpt lat="44.94942" lon="5.14677">
        <ele>452</ele>
        <time>2021-02-25T14:27:52Z</time>
      </trkpt>
      <trkpt lat="44.94946" lon="5.14673">
        <ele>452</ele>
        <time>2021-02-25T14:27:56Z</time>
      </trkpt>
      <trkpt lat="44.94949" lon="5.14669">
        <ele>452</ele>
        <time>2021-02-25T14:28:00Z</time>
      </trkpt>
      <trkpt lat="44.94955" lon="5.14665">
        <ele>452</ele>
        <time>2021-02-25T14:28:05Z</time>
      </trkpt>
      <trkpt lat="44.94961" lon="5.14661">
        <ele>454</ele>
        <time>2021-02-25T14:28:10Z</time>
      </trkpt>
      <trkpt lat="44.94966" lon="5.14655">
        <ele>454</ele>
        <time>2021-02-25T14:28:15Z</time>
      </trkpt>
      <trkpt lat="44.9497" lon="5.14649">
        <ele>449</ele>
        <time>2021-02-25T14:28:20Z</time>
      </trkpt>
      <trkpt lat="44.94975" lon="5.14645">
        <ele>449</ele>
        <time>2021-02-25T14:28:25Z</time>
      </trkpt>
      <trkpt lat="44.94979" lon="5.14641">
        <ele>449</ele>
        <time>2021-02-25T14:28:29Z</time>
      </trkpt>
      <trkpt lat="44.94983" lon="5.14638">
        <ele>449</ele>
        <time>2021-02-25T14:28:33Z</time>
      </trkpt>
      <trkpt lat="44.94988" lon="5.14636">
        <ele>452</ele>
        <time>2021-02-25T14:28:38Z</time>
      </trkpt>
      <trkpt lat="44.94993" lon="5.14631">
        <ele>452</ele>
        <time>2021-02-25T14:28:43Z</time>
      </trkpt>
      <trkpt lat="44.94997" lon="5.14626">
        <ele>452</ele>
        <time>2021-02-25T14:28:49Z</time>
      </trkpt>
      <trkpt lat="44.95002" lon="5.14623">
        <ele>446</ele>
        <time>2021-02-25T14:28:54Z</time>
      </trkpt>
      <trkpt lat="44.95006" lon="5.14619">
        <ele>446</ele>
        <time>2021-02-25T14:28:59Z</time>
      </trkpt>
      <trkpt lat="44.95011" lon="5.14618">
        <ele>446</ele>
        <time>2021-02-25T14:29:04Z</time>
      </trkpt>
      <trkpt lat="44.95015" lon="5.14614">
        <ele>446</ele>
        <time>2021-02-25T14:29:09Z</time>
      </trkpt>
      <trkpt lat="44.95019" lon="5.14612">
        <ele>446</ele>
        <time>2021-02-25T14:29:13Z</time>
      </trkpt>
      <trkpt lat="44.95024" lon="5.1461">
        <ele>446</ele>
        <time>2021-02-25T14:29:17Z</time>
      </trkpt>
      <trkpt lat="44.95029" lon="5.14607">
        <ele>446</ele>
        <time>2021-02-25T14:29:22Z</time>
      </trkpt>
      <trkpt lat="44.95033" lon="5.14605">
        <ele>446</ele>
        <time>2021-02-25T14:29:26Z</time>
      </trkpt>
      <trkpt lat="44.95038" lon="5.14604">
        <ele>446</ele>
        <time>2021-02-25T14:29:30Z</time>
      </trkpt>
      <trkpt lat="44.95043" lon="5.14601">
        <ele>446</ele>
        <time>2021-02-25T14:29:35Z</time>
      </trkpt>
      <trkpt lat="44.95048" lon="5.14598">
        <ele>446</ele>
        <time>2021-02-25T14:29:40Z</time>
      </trkpt>
      <trkpt lat="44.95053" lon="5.14596">
        <ele>441</ele>
        <time>2021-02-25T14:29:45Z</time>
      </trkpt>
      <trkpt lat="44.95058" lon="5.14593">
        <ele>441</ele>
        <time>2021-02-25T14:29:49Z</time>
      </trkpt>
      <trkpt lat="44.95061" lon="5.14591">
        <ele>441</ele>
        <time>2021-02-25T14:29:55Z</time>
      </trkpt>
      <trkpt lat="44.95065" lon="5.14589">
        <ele>441</ele>
        <time>2021-02-25T14:29:59Z</time>
      </trkpt>
      <trkpt lat="44.9507" lon="5.14585">
        <ele>439</ele>
        <time>2021-02-25T14:30:04Z</time>
      </trkpt>
      <trkpt lat="44.95074" lon="5.14584">
        <ele>439</ele>
        <time>2021-02-25T14:30:09Z</time>
      </trkpt>
      <trkpt lat="44.95079" lon="5.14581">
        <ele>439</ele>
        <time>2021-02-25T14:30:13Z</time>
      </trkpt>
      <trkpt lat="44.95085" lon="5.14578">
        <ele>439</ele>
        <time>2021-02-25T14:30:18Z</time>
      </trkpt>
      <trkpt lat="44.9509" lon="5.14577">
        <ele>439</ele>
        <time>2021-02-25T14:30:23Z</time>
      </trkpt>
      <trkpt lat="44.95093" lon="5.14574">
        <ele>439</ele>
        <time>2021-02-25T14:30:27Z</time>
      </trkpt>
      <trkpt lat="44.95098" lon="5.1457">
        <ele>436</ele>
        <time>2021-02-25T14:30:31Z</time>
      </trkpt>
      <trkpt lat="44.95104" lon="5.14568">
        <ele>434</ele>
        <time>2021-02-25T14:30:36Z</time>
      </trkpt>
      <trkpt lat="44.95108" lon="5.14565">
        <ele>434</ele>
        <time>2021-02-25T14:30:40Z</time>
      </trkpt>
      <trkpt lat="44.95114" lon="5.14564">
        <ele>434</ele>
        <time>2021-02-25T14:30:45Z</time>
      </trkpt>
      <trkpt lat="44.95117" lon="5.14564">
        <ele>434</ele>
        <time>2021-02-25T14:30:49Z</time>
      </trkpt>
      <trkpt lat="44.95122" lon="5.14563">
        <ele>434</ele>
        <time>2021-02-25T14:30:54Z</time>
      </trkpt>
      <trkpt lat="44.95131" lon="5.14566">
        <ele>434</ele>
        <time>2021-02-25T14:33:05Z</time>
      </trkpt>
      <trkpt lat="44.9513" lon="5.14569">
        <ele>434</ele>
        <time>2021-02-25T14:33:10Z</time>
      </trkpt>
      <trkpt lat="44.95132" lon="5.14569">
        <ele>434</ele>
        <time>2021-02-25T14:33:14Z</time>
      </trkpt>
      <trkpt lat="44.95133" lon="5.14569">
        <ele>434</ele>
        <time>2021-02-25T14:33:19Z</time>
      </trkpt>
      <trkpt lat="44.95134" lon="5.1457">
        <ele>436</ele>
        <time>2021-02-25T14:33:28Z</time>
      </trkpt>
    </trkseg>
  </trk>
</gpx>